# Wetter Temperatur Luftdruck Luftfeuchtigkeit Sichtweite Windgeschwindigkeit Windrichtung Zeit
1 Rain 27 1009 82 0 2.08 116 02:18 05.04.2020
2 Rain 27 1009 82 0 2.08 116 01:42 05.04.2020
3 Rain 27 1009 82 0 2.08 116 01:18 05.04.2020
4 Rain 27 1009 82 0 2.08 116 01:18 05.04.2020
5 Rain 27 1009 82 0 2.08 116 00:37 05.04.2020
6 Rain 26 1011 86 0 2.91 102 00:18 05.04.2020
7 Rain 26 1011 86 0 2.91 102 23:41 04.04.2020
8 Rain 26 1011 86 0 2.91 102 23:21 04.04.2020
9 Rain 26 1011 86 0 2.91 102 22:57 04.04.2020
10 Rain 26 1011 86 0 2.91 102 22:39 04.04.2020
11 Rain 26 1011 86 0 2.91 102 22:20 04.04.2020
12 Rain 26 1011 86 0 2.91 102 21:57 04.04.2020
13 Rain 26 1011 86 0 2.91 102 21:38 04.04.2020
14 Rain 24 1009 90 0 1.3 104 21:19 04.04.2020
15 Rain 24 1009 90 0 1.3 104 20:54 04.04.2020
16 Rain 24 1009 90 0 1.3 104 20:36 04.04.2020
17 Clouds 24 1009 100 0 1 0 20:18 04.04.2020
18 Clouds 24 1009 100 0 1 0 19:40 04.04.2020
19 Rain 24 1009 90 0 1.3 104 19:20 04.04.2020
20 Rain 24 1009 90 0 0.98 66 18:59 04.04.2020
21 Rain 24 1009 90 0 1.3 104 18:39 04.04.2020
22 Rain 24 1008 90 0 1.6 91 18:20 04.04.2020
23 Rain 24 1008 90 0 1.6 91 17:58 04.04.2020
24 Rain 24 1008 90 0 1.6 91 17:38 04.04.2020
25 Rain 24 1008 90 0 1.6 91 17:19 04.04.2020
26 Rain 24 1008 90 0 1.6 91 16:42 04.04.2020
27 Rain 24 1008 90 0 1.13 73 16:24 04.04.2020
28 Rain 24 1008 90 0 1.6 91 15:58 04.04.2020
29 Rain 24 1008 90 0 1.13 73 15:38 04.04.2020
30 Clouds 23 1010 100 0 0.5 0 15:19 04.04.2020
31 Clouds 23 1010 100 0 0.5 0 15:19 04.04.2020
32 Clouds 23 1010 100 0 0.5 0 15:19 04.04.2020
33 Clouds 23 1010 100 0 0.5 0 14:46 04.04.2020
34 Clouds 23 1010 100 0 0.5 0 14:25 04.04.2020
35 Rain 24 1009 91 0 1.49 76 13:58 04.04.2020
36 Rain 24 1009 91 0 1.49 76 13:40 04.04.2020
37 Clouds 24 1010 100 0 2.6 320 13:20 04.04.2020
38 Clouds 24 1010 100 0 2.6 320 12:55 04.04.2020
39 Clouds 24 1010 100 0 2.6 320 12:55 04.04.2020
40 Clouds 24 1010 100 0 2.6 320 12:36 04.04.2020
41 Clouds 24 1010 100 0 2.6 320 12:18 04.04.2020
42 Rain 24 1011 91 0 2.41 97 11:41 04.04.2020
43 Rain 24 1011 91 0 2.41 97 11:23 04.04.2020
44 Rain 24 1011 91 0 2.41 97 10:58 04.04.2020
45 Rain 24 1011 91 0 2.41 97 10:40 04.04.2020
46 Clouds 24 1009 100 0 0.5 0 10:21 04.04.2020
47 Clouds 24 1009 100 0 0.5 0 09:55 04.04.2020
48 Clouds 24 1009 100 0 0.5 0 09:37 04.04.2020
49 Rain 24 1008 87 0 0.38 205 09:19 04.04.2020
50 Rain 24 1008 87 0 0.38 205 08:42 04.04.2020
51 Clouds 24 1008 100 0 1 0 08:23 04.04.2020
52 Clouds 24 1008 100 0 1 0 07:47 04.04.2020
53 Rain 24 1008 87 0 0.38 205 07:29 04.04.2020
54 Rain 24 1008 87 0 0.38 205 06:58 04.04.2020
55 Rain 24 1008 87 0 0.38 205 06:21 04.04.2020
56 Rain 24 1008 89 0 0.92 334 05:51 04.04.2020
57 Rain 24 1008 89 0 0.92 334 05:32 04.04.2020
58 Rain 24 1008 89 0 0.92 334 04:33 04.04.2020
59 Rain 24 1008 89 0 0.92 334 03:55 04.04.2020
60 Rain 24 1008 89 0 0.92 334 03:27 04.04.2020
61 Rain 25 1009 88 0 1.37 342 02:40 04.04.2020
62 Rain 25 1009 88 0 1.37 342 02:22 04.04.2020
63 Rain 24 1009 88 0 1.2 323 01:27 04.04.2020
64 Rain 24 1009 88 0 1.2 323 00:55 04.04.2020
65 Rain 24 1009 88 0 1.2 323 00:30 04.04.2020
66 Rain 24 1011 90 0 0.95 312 23:55 03.04.2020
67 Rain 24 1011 90 0 0.95 312 23:36 03.04.2020
68 Rain 24 1011 90 0 0.95 312 23:18 03.04.2020
69 Rain 24 1011 90 0 0.95 312 22:40 03.04.2020
70 Rain 24 1011 90 0 0.95 312 22:19 03.04.2020
71 Rain 24 1011 90 0 0.95 312 22:19 03.04.2020
72 Rain 24 1011 90 0 0.95 312 21:56 03.04.2020
73 Rain 24 1011 90 0 0.95 312 21:37 03.04.2020
74 Rain 24 1008 91 0 0.85 331 21:19 03.04.2020
75 Rain 24 1008 91 0 0.85 331 20:54 03.04.2020
76 Rain 24 1008 91 0 0.85 331 20:36 03.04.2020
77 Rain 24 1008 91 0 0.85 331 20:18 03.04.2020
78 Rain 24 1008 91 0 0.85 331 19:54 03.04.2020
79 Rain 24 1008 91 0 0.85 331 19:36 03.04.2020
80 Rain 24 1008 91 0 0.85 331 19:36 03.04.2020
81 Rain 24 1008 91 0 0.85 331 19:18 03.04.2020
82 Rain 24 1008 91 0 0.85 331 18:42 03.04.2020
83 Rain 24 1008 91 0 0.85 331 18:23 03.04.2020
84 Rain 24 1008 91 0 0.85 331 18:23 03.04.2020
85 Rain 23 1008 91 0 0.69 227 17:58 03.04.2020
86 Rain 23 1008 91 0 0.69 227 17:40 03.04.2020
87 Rain 23 1008 91 0 0.69 227 17:40 03.04.2020
88 Rain 23 1008 91 0 0.69 227 17:19 03.04.2020
89 Rain 23 1008 91 0 0.69 227 17:19 03.04.2020
90 Rain 23 1008 91 0 0.69 227 16:54 03.04.2020
91 Rain 23 1008 91 0 0.69 227 16:36 03.04.2020
92 Rain 24 1009 100 0 1 0 16:18 03.04.2020
93 Rain 24 1009 100 0 1 0 15:41 03.04.2020
94 Rain 24 1009 100 0 1 0 15:22 03.04.2020
95 Rain 24 1009 89 0 0.24 50 14:57 03.04.2020
96 Rain 24 1009 89 0 0.24 50 14:39 03.04.2020
97 Rain 24 1009 89 0 0.24 50 14:21 03.04.2020
98 Rain 24 1009 90 0 0.44 201 13:46 03.04.2020
99 Rain 24 1009 90 0 0.44 201 13:26 03.04.2020
100 Rain 24 1009 90 0 0.44 201 12:56 03.04.2020
101 Rain 24 1009 90 0 0.44 201 12:38 03.04.2020
102 Rain 24 1010 88 0 0.67 105 12:18 03.04.2020
103 Rain 24 1010 88 0 0.67 105 11:55 03.04.2020
104 Rain 24 1010 88 0 0.67 105 11:37 03.04.2020
105 Rain 24 1010 88 0 0.67 105 11:18 03.04.2020
106 Rain 24 1010 88 0 0.67 105 11:18 03.04.2020
107 Rain 24 1010 88 0 0.67 105 10:55 03.04.2020
108 Rain 24 1010 88 0 0.67 105 10:36 03.04.2020
109 Rain 24 1010 88 0 0.67 105 10:18 03.04.2020
110 Rain 24 1010 88 0 0.67 105 09:40 03.04.2020
111 Rain 24 1009 88 0 0.72 181 09:22 03.04.2020
112 Rain 25 1007 86 0 1.08 195 08:59 03.04.2020
113 Rain 25 1007 86 0 1.08 195 08:40 03.04.2020
114 Rain 25 1007 86 0 1.08 195 08:40 03.04.2020
115 Rain 25 1007 86 0 1.08 195 08:22 03.04.2020
116 Rain 25 1007 86 0 1.08 195 07:50 03.04.2020
117 Rain 25 1007 86 0 1.08 195 07:32 03.04.2020
118 Rain 25 1007 86 0 1.08 195 06:50 03.04.2020
119 Rain 25 1007 86 0 1.08 195 06:25 03.04.2020
120 Rain 26 1006 86 0 0.41 252 05:40 03.04.2020
121 Rain 26 1006 86 0 0.41 252 03:45 03.04.2020
122 Rain 26 1006 86 0 0.41 252 03:23 03.04.2020
123 Rain 26 1008 87 0 1.42 238 02:28 03.04.2020
124 Rain 26 1008 87 0 1.42 238 01:23 03.04.2020
125 Rain 26 1008 87 0 1.42 238 00:40 03.04.2020
126 Rain 25 1009 87 0 1.37 295 00:20 03.04.2020
127 Rain 25 1009 87 0 1.37 295 23:42 02.04.2020
128 Rain 25 1009 87 0 1.37 295 23:23 02.04.2020
129 Rain 25 1009 87 0 1.37 295 22:58 02.04.2020
130 Rain 25 1009 87 0 1.37 295 22:39 02.04.2020
131 Rain 25 1009 87 0 1.37 295 22:20 02.04.2020
132 Rain 25 1009 87 0 1.37 295 21:54 02.04.2020
133 Rain 25 1009 87 0 1.37 295 21:36 02.04.2020
134 Clouds 24 1008 89 0 1.24 292 21:18 02.04.2020
135 Rain 24 1008 88 0 1.35 293 20:42 02.04.2020
136 Rain 24 1008 88 0 1.35 293 20:22 02.04.2020
137 Rain 24 1008 88 0 1.35 293 19:45 02.04.2020
138 Rain 24 1008 88 0 1.35 293 19:21 02.04.2020
139 Rain 24 1008 88 0 1.35 293 19:00 02.04.2020
140 Rain 24 1008 88 0 1.35 293 18:41 02.04.2020
141 Rain 24 1007 89 0 1.19 269 18:20 02.04.2020
142 Rain 24 1007 89 0 1.19 269 17:57 02.04.2020
143 Rain 24 1007 89 0 1.19 269 17:39 02.04.2020
144 Rain 24 1007 89 0 1.19 269 17:20 02.04.2020
145 Rain 24 1007 89 0 1.19 269 16:56 02.04.2020
146 Rain 24 1007 89 0 1.19 269 16:37 02.04.2020
147 Rain 24 1007 89 0 1.19 269 16:19 02.04.2020
148 Rain 24 1007 89 0 1.19 269 15:45 02.04.2020
149 Rain 25 1008 88 0 1.49 218 15:22 02.04.2020
150 Rain 25 1008 88 0 1.49 218 14:59 02.04.2020
151 Rain 25 1008 88 0 1.49 218 14:40 02.04.2020
152 Rain 25 1008 88 0 1.7 243 14:20 02.04.2020
153 Rain 25 1008 88 0 1.7 243 13:58 02.04.2020
154 Rain 25 1008 88 0 1.7 243 13:38 02.04.2020
155 Rain 25 1008 88 0 1.7 243 13:20 02.04.2020
156 Rain 25 1008 88 0 1.7 243 12:56 02.04.2020
157 Rain 25 1008 88 0 1.7 243 12:37 02.04.2020
158 Rain 25 1009 87 0 2 253 12:19 02.04.2020
159 Rain 25 1009 87 0 2 253 11:56 02.04.2020
160 Rain 25 1009 87 0 2 253 11:37 02.04.2020
161 Rain 25 1009 87 0 2 253 11:37 02.04.2020
162 Rain 25 1009 87 0 2 253 11:19 02.04.2020
163 Rain 25 1009 87 0 2 253 10:54 02.04.2020
164 Rain 25 1009 87 0 2 253 10:36 02.04.2020
165 Rain 25 1009 87 0 2 253 10:18 02.04.2020
166 Rain 25 1009 87 0 2 253 09:43 02.04.2020
167 Rain 25 1009 87 0 2 253 09:24 02.04.2020
168 Rain 26 1007 87 0 1.62 0 08:58 02.04.2020
169 Rain 26 1007 87 0 1.62 0 08:40 02.04.2020
170 Rain 26 1007 87 0 1.62 0 08:20 02.04.2020
171 Rain 26 1007 87 0 1.62 0 07:43 02.04.2020
172 Rain 26 1007 87 0 1.62 0 07:20 02.04.2020
173 Rain 26 1007 87 0 1.62 0 06:57 02.04.2020
174 Rain 26 1007 87 0 1.62 0 06:21 02.04.2020
175 Rain 28 1007 80 0 2.55 30 05:42 02.04.2020
176 Rain 28 1007 80 0 2.55 30 03:24 02.04.2020
177 Clouds 28 1011 83 10000 2.1 20 01:31 02.04.2020
178 Clouds 28 1011 83 10000 2.1 20 00:42 02.04.2020
179 Clouds 27 1011 88 10000 2.1 310 00:24 02.04.2020
180 Clouds 27 1011 88 10000 2.1 310 23:41 01.04.2020
181 Clouds 25 1010 100 10000 1.5 340 23:20 01.04.2020
182 Clouds 25 1010 100 10000 1.5 340 22:58 01.04.2020
183 Clouds 25 1010 100 10000 1.5 340 22:39 01.04.2020
184 Clouds 25 1010 100 10000 1.5 340 22:39 01.04.2020
185 Clouds 24 1010 100 10000 1 340 22:21 01.04.2020
186 Clouds 24 1010 100 10000 1 340 21:42 01.04.2020
187 Clouds 24 1010 100 10000 1 340 21:42 01.04.2020
188 Rain 27 1011 80 0 1.53 19 21:22 01.04.2020
189 Rain 27 1011 80 0 1.53 19 21:22 01.04.2020
190 Clouds 24 1010 90 0 0.38 45 20:58 01.04.2020
191 Clouds 24 1010 90 0 0.38 45 20:58 01.04.2020
192 Clouds 24 1010 90 0 0.38 45 20:40 01.04.2020
193 Clouds 24 1009 100 10000 0.38 45 20:21 01.04.2020
194 Clouds 24 1009 100 10000 0.38 45 20:00 01.04.2020
195 Clouds 24 1009 100 10000 0.38 45 19:41 01.04.2020
196 Clouds 24 1009 100 10000 0.38 45 19:21 01.04.2020
197 Clouds 24 1009 100 10000 0.38 45 18:46 01.04.2020
198 Clouds 24 1009 100 10000 0.38 45 18:26 01.04.2020
199 Clouds 24 1009 100 10000 1 330 17:58 01.04.2020
200 Clouds 24 1009 100 10000 1 330 17:38 01.04.2020
201 Clouds 24 1009 100 10000 1 340 17:20 01.04.2020
202 Clouds 24 1009 100 10000 1 340 16:59 01.04.2020
203 Clouds 24 1009 100 10000 1 340 16:40 01.04.2020
204 Clouds 24 1010 100 10000 1.5 330 16:21 01.04.2020
205 Clouds 24 1010 100 10000 1.5 330 15:58 01.04.2020
206 Clouds 24 1010 100 10000 1.5 330 15:38 01.04.2020
207 Rain 24 1011 90 0 2.09 235 15:19 01.04.2020
208 Rain 24 1011 90 0 2.09 235 14:55 01.04.2020
209 Rain 24 1011 90 0 2.09 235 14:55 01.04.2020
210 Rain 24 1011 90 0 2.09 235 14:37 01.04.2020
211 Clouds 25 1012 100 10000 2.09 235 14:19 01.04.2020
212 Clouds 25 1012 100 10000 1.34 236 13:56 01.04.2020
213 Clouds 25 1012 100 10000 1.34 236 13:37 01.04.2020
214 Clouds 25 1012 100 10000 1.34 236 13:18 01.04.2020
215 Clouds 25 1012 100 10000 1.34 236 12:42 01.04.2020
216 Clouds 25 1012 100 10000 1.34 236 12:24 01.04.2020
217 Clouds 25 1012 100 10000 1.88 250 11:59 01.04.2020
218 Clouds 25 1012 100 10000 1.88 250 11:40 01.04.2020
219 Clouds 25 1012 100 10000 1.88 250 11:21 01.04.2020
220 Clouds 25 1012 100 10000 1.88 250 10:56 01.04.2020
221 Clouds 25 1012 100 10000 1.88 250 10:37 01.04.2020
222 Clouds 25 1012 100 10000 1.88 250 10:37 01.04.2020
223 Clouds 25 1011 100 10000 1.88 250 10:18 01.04.2020
224 Clouds 25 1011 100 10000 1.88 250 09:40 01.04.2020
225 Rain 25 1012 87 0 1.3 40 09:22 01.04.2020
226 Rain 25 1010 94 10000 2.6 150 08:59 01.04.2020
227 Rain 25 1010 94 10000 2.6 150 08:40 01.04.2020
228 Rain 25 1010 94 10000 2.6 150 08:18 01.04.2020
229 Rain 25 1010 94 10000 2.6 150 07:42 01.04.2020
230 Rain 25 1011 94 1000 4.6 140 07:19 01.04.2020
231 Rain 26 1010 94 1000 3.1 180 06:47 01.04.2020
232 Clouds 29 1010 79 10000 2.85 63 06:21 01.04.2020
233 Clouds 29 1010 79 10000 2.85 63 05:53 01.04.2020
234 Clouds 29 1011 79 10000 1.5 350 04:30 01.04.2020
235 Rain 29 1009 75 0 2.85 63 03:27 01.04.2020
236 Rain 29 1011 71 0 2.55 51 02:46 01.04.2020
237 Rain 29 1011 71 0 2.21 44 01:53 01.04.2020
238 Clouds 26 1012 94 10000 1.5 330 01:27 01.04.2020
239 Clouds 26 1012 94 10000 1.5 330 00:47 01.04.2020
240 Clouds 25 1012 94 10000 1.5 340 00:24 01.04.2020
241 Clouds 25 1012 94 10000 1.5 340 23:59 31.03.2020
242 Clouds 25 1012 94 10000 1.5 340 23:41 31.03.2020
243 Clouds 25 1012 94 10000 1.5 340 23:22 31.03.2020
244 Clouds 25 1012 94 10000 2.24 31 22:41 31.03.2020
245 Clouds 25 1012 94 10000 2.24 31 22:22 31.03.2020
246 Clouds 24 1011 100 10000 2.24 31 21:58 31.03.2020
247 Clouds 24 1011 100 10000 2.24 31 21:40 31.03.2020
248 Clouds 24 1011 100 10000 2.24 31 21:21 31.03.2020
249 Rain 24 1011 90 0 1.66 13 20:58 31.03.2020
250 Rain 24 1011 90 0 1.66 13 20:37 31.03.2020
251 Clouds 24 1011 100 10000 1.66 13 20:19 31.03.2020
252 Clouds 24 1011 100 10000 1.66 13 19:57 31.03.2020
253 Clouds 24 1011 100 10000 1.66 13 19:38 31.03.2020
254 Clouds 24 1011 100 10000 1.66 13 19:19 31.03.2020
255 Clouds 25 1010 100 10000 1.66 13 18:44 31.03.2020
256 Clouds 25 1010 100 10000 1.66 13 18:21 31.03.2020
257 Clouds 25 1010 100 10000 1.68 17 17:58 31.03.2020
258 Clouds 25 1010 100 10000 1.68 17 17:39 31.03.2020
259 Clouds 25 1011 100 10000 1.68 17 17:21 31.03.2020
260 Clouds 25 1011 100 10000 1.68 17 16:56 31.03.2020
261 Clouds 25 1011 100 10000 1.68 17 16:37 31.03.2020
262 Clouds 25 1011 100 10000 1.68 17 16:18 31.03.2020
263 Clouds 25 1011 100 10000 1.68 17 15:56 31.03.2020
264 Clouds 25 1011 100 10000 1.68 17 15:37 31.03.2020
265 Clouds 25 1011 100 10000 1.68 17 15:37 31.03.2020
266 Clouds 24 1012 90 0 1.55 11 15:18 31.03.2020
267 Clouds 24 1012 90 0 1.55 11 14:42 31.03.2020
268 Clouds 25 1012 100 10000 1.21 13 14:23 31.03.2020
269 Clouds 25 1012 100 10000 1.21 13 13:59 31.03.2020
270 Clouds 25 1012 100 10000 1.21 13 13:40 31.03.2020
271 Clouds 26 1012 94 10000 1.21 13 13:19 31.03.2020
272 Clouds 26 1012 94 10000 1.21 13 12:46 31.03.2020
273 Clouds 26 1011 94 10000 1.21 13 12:20 31.03.2020
274 Clouds 26 1011 94 10000 2.08 28 11:58 31.03.2020
275 Clouds 26 1011 94 10000 2.08 28 11:37 31.03.2020
276 Rain 26 1011 94 10000 2.08 28 11:19 31.03.2020
277 Rain 26 1011 94 10000 2.08 28 10:55 31.03.2020
278 Rain 26 1011 94 10000 2.08 28 10:55 31.03.2020
279 Rain 26 1011 94 10000 2.08 28 10:37 31.03.2020
280 Clouds 27 1010 88 10000 2.08 28 10:18 31.03.2020
281 Clouds 27 1010 88 10000 2.08 28 09:43 31.03.2020
282 Rain 24 1011 91 0 2.08 28 09:25 31.03.2020
283 Rain 24 1010 93 0 1.68 101 08:58 31.03.2020
284 Rain 24 1010 93 0 1.68 101 08:40 31.03.2020
285 Rain 28 1009 83 10000 1.5 120 08:20 31.03.2020
286 Rain 28 1009 83 10000 1.5 120 08:20 31.03.2020
287 Rain 28 1009 83 10000 1.5 120 07:57 31.03.2020
288 Rain 28 1009 83 10000 1.5 120 07:38 31.03.2020
289 Rain 28 1009 83 10000 1.5 120 07:20 31.03.2020
290 Rain 28 1009 83 10000 1.68 101 06:51 31.03.2020
291 Rain 28 1009 83 10000 1.68 101 06:30 31.03.2020
292 Clouds 29 1008 74 10000 2.42 178 05:40 31.03.2020
293 Clouds 29 1010 74 10000 1 0 03:43 31.03.2020
294 Clouds 27 1011 88 10000 1.5 270 02:25 31.03.2020
295 Clouds 27 1011 88 10000 1.5 270 01:46 31.03.2020
296 -273 0 0 0 0 0 00:52 31.03.2020
297 Rain 25 1011 100 10000 2.55 208 00:25 31.03.2020
298 Rain 25 1011 100 10000 2.04 241 23:59 30.03.2020
299 Rain 25 1011 100 10000 2.04 241 23:38 30.03.2020
300 Clouds 25 1011 100 10000 2.04 241 23:18 30.03.2020
301 Clouds 25 1011 100 10000 2.04 241 22:56 30.03.2020
302 Clouds 25 1011 100 10000 2.04 241 22:37 30.03.2020
303 Clouds 25 1010 94 10000 2.04 241 22:18 30.03.2020
304 Clouds 25 1010 94 10000 2.04 241 21:55 30.03.2020
305 Clouds 25 1010 94 10000 2.04 241 21:36 30.03.2020
306 Rain 24 1009 89 0 2.35 293 21:18 30.03.2020
307 Rain 24 1009 89 0 2.35 293 20:42 30.03.2020
308 Clouds 25 1008 94 10000 2.35 293 20:24 30.03.2020
309 Clouds 25 1008 94 10000 2.35 293 20:24 30.03.2020
310 Clouds 25 1008 94 10000 2.35 293 19:59 30.03.2020
311 Clouds 25 1008 94 10000 2.35 293 19:59 30.03.2020
312 Clouds 25 1008 94 10000 2.35 293 19:40 30.03.2020
313 Clouds 24 1008 100 10000 2.35 293 19:21 30.03.2020
314 Clouds 24 1008 100 10000 2.35 293 18:56 30.03.2020
315 Clouds 24 1008 100 10000 2.35 293 18:38 30.03.2020
316 Clouds 24 1008 100 10000 2.35 293 18:38 30.03.2020
317 Clouds 24 1008 100 10000 2.01 355 18:19 30.03.2020
318 Clouds 25 1008 94 10000 2.01 355 17:56 30.03.2020
319 Clouds 25 1008 94 10000 2.01 355 17:56 30.03.2020
320 Clouds 25 1008 94 10000 2.01 355 17:56 30.03.2020
321 Rain 25 1008 90 0 2.01 355 17:37 30.03.2020
322 Rain 25 1008 90 0 2.01 355 17:37 30.03.2020
323 Clouds 25 1008 94 10000 2.01 355 17:18 30.03.2020
324 Clouds 25 1008 94 10000 2.01 355 16:54 30.03.2020
325 Clouds 25 1008 94 10000 2.01 355 16:36 30.03.2020
326 Clouds 25 1008 94 10000 2.01 355 16:36 30.03.2020
327 Rain 25 1009 94 8000 2.01 355 16:18 30.03.2020
328 Rain 25 1009 94 8000 2.01 355 15:41 30.03.2020
329 Rain 25 1009 94 8000 2.01 355 15:22 30.03.2020
330 Rain 25 1009 100 3000 2.77 30 14:59 30.03.2020
331 Rain 25 1009 100 3000 2.77 30 14:38 30.03.2020
332 Rain 25 1009 100 3000 2.77 30 14:19 30.03.2020
333 Rain 25 1009 100 10000 3.04 45 13:58 30.03.2020
334 Rain 25 1009 100 10000 3.04 45 13:39 30.03.2020
335 Clouds 26 1010 94 10000 3.04 45 13:20 30.03.2020
336 Clouds 26 1010 94 10000 3.04 45 12:45 30.03.2020
337 Clouds 26 1010 94 10000 2.96 48 12:22 30.03.2020
338 Clouds 26 1010 94 10000 2.96 48 11:59 30.03.2020
339 Clouds 26 1010 94 10000 2.96 48 11:41 30.03.2020
340 Clouds 26 1009 94 10000 2.96 48 11:22 30.03.2020
341 Clouds 26 1009 94 10000 2.96 48 10:57 30.03.2020
342 Clouds 26 1009 94 10000 2.96 48 10:37 30.03.2020
343 Clouds 27 1009 88 10000 2.96 48 10:19 30.03.2020
344 Clouds 27 1009 88 10000 2.96 48 09:40 30.03.2020
345 Clouds 27 1009 88 10000 2.96 48 09:40 30.03.2020
346 Rain 26 1008 87 0 2.71 55 09:20 30.03.2020
347 Rain 26 1008 87 0 2.71 55 08:57 30.03.2020
348 Rain 26 1008 87 0 2.71 55 08:38 30.03.2020
349 Clouds 29 1007 74 10000 3.6 50 08:19 30.03.2020
350 Clouds 29 1007 74 10000 3.6 50 07:43 30.03.2020
351 Clouds 28 1007 78 10000 3.1 60 07:21 30.03.2020
352 Clouds 28 1007 78 10000 3.1 60 06:43 30.03.2020
353 Clouds 28 1007 78 10000 3.1 60 06:25 30.03.2020
354 Clouds 28 1007 78 10000 3.6 60 05:43 30.03.2020
355 Clouds 29 1009 74 10000 3.1 100 04:29 30.03.2020
356 Clouds 29 1009 74 10000 3.1 100 03:54 30.03.2020
357 Rain 28 1009 78 0 3.25 52 02:45 30.03.2020
358 Rain 27 1010 94 10000 3.1 100 01:57 30.03.2020
359 Clouds 29 1011 79 10000 3.34 64 00:59 30.03.2020
360 Clouds 28 1011 83 10000 3.34 64 00:28 30.03.2020
361 Clouds 28 1011 83 10000 3.08 60 23:56 29.03.2020
362 Clouds 28 1011 83 10000 3.08 60 23:37 29.03.2020
363 Clouds 26 1010 94 10000 3.08 60 23:18 29.03.2020
364 Clouds 26 1010 94 10000 3.08 60 22:40 29.03.2020
365 Clouds 25 1010 100 10000 3.08 60 22:20 29.03.2020
366 Clouds 25 1010 100 10000 3.08 60 21:59 29.03.2020
367 Clouds 25 1010 100 10000 3.08 60 21:38 29.03.2020
368 Rain 25 1010 88 0 2 61 21:20 29.03.2020
369 Rain 25 1010 88 0 2 61 20:55 29.03.2020
370 Rain 25 1010 88 0 2 61 20:55 29.03.2020
371 Rain 25 1010 88 0 2 61 20:37 29.03.2020
372 Clouds 24 1009 100 10000 2 61 20:18 29.03.2020
373 Clouds 24 1009 100 10000 2 61 19:55 29.03.2020
374 Clouds 24 1009 100 10000 2 61 19:55 29.03.2020
375 Clouds 24 1009 100 10000 2 61 19:37 29.03.2020
376 Clouds 24 1009 100 10000 2 61 19:19 29.03.2020
377 Clouds 25 1009 94 10000 2 61 18:55 29.03.2020
378 Clouds 25 1009 94 10000 2 61 18:55 29.03.2020
379 Clouds 25 1009 94 10000 2 61 18:37 29.03.2020
380 Clouds 25 1009 94 10000 1.52 39 18:18 29.03.2020
381 Clouds 25 1009 100 10000 1.52 39 17:54 29.03.2020
382 Rain 25 1009 89 0 1.52 39 17:36 29.03.2020
383 Rain 25 1009 100 10000 1.52 39 17:18 29.03.2020
384 Rain 25 1009 100 10000 1.52 39 17:18 29.03.2020
385 Rain 25 1009 100 10000 1.52 39 16:55 29.03.2020
386 Rain 25 1009 100 10000 1.52 39 16:36 29.03.2020
387 Rain 25 1009 100 10000 1.52 39 16:36 29.03.2020
388 Clouds 25 1009 94 10000 1.52 39 16:18 29.03.2020
389 Clouds 25 1009 94 10000 1.52 39 15:40 29.03.2020
390 Rain 25 1009 89 0 1.52 39 15:21 29.03.2020
391 Rain 25 1010 90 0 2.39 41 14:57 29.03.2020
392 Rain 25 1010 90 0 2.39 41 14:57 29.03.2020
393 Rain 25 1010 90 0 2.39 41 14:37 29.03.2020
394 Rain 24 1010 100 10000 2.39 41 14:19 29.03.2020
395 Rain 24 1010 100 10000 2.02 38 13:55 29.03.2020
396 Rain 24 1010 100 10000 2.02 38 13:37 29.03.2020
397 Rain 24 1010 100 10000 2.02 38 13:19 29.03.2020
398 Clouds 27 1011 94 10000 2.02 38 12:54 29.03.2020
399 Clouds 27 1011 94 10000 2.02 38 12:36 29.03.2020
400 Clouds 27 1011 94 10000 2.16 44 12:18 29.03.2020
401 Rain 27 1010 94 10000 2.16 44 11:38 29.03.2020
402 Clouds 27 1010 100 10000 2.16 44 11:20 29.03.2020
403 Clouds 27 1010 100 10000 2.16 44 10:40 29.03.2020
404 Clouds 28 1009 88 10000 2.16 44 10:21 29.03.2020
405 Clouds 28 1009 88 10000 2.16 44 09:59 29.03.2020
406 Clouds 28 1009 88 10000 2.16 44 09:38 29.03.2020
407 Clouds 27 1009 82 0 2.78 52 09:19 29.03.2020
408 Clouds 27 1009 82 0 2.78 52 08:48 29.03.2020
409 Clouds 28 1009 88 10000 2.78 52 08:27 29.03.2020
410 Clouds 28 1009 88 10000 2.78 52 07:56 29.03.2020
411 Clouds 28 1009 88 10000 2.78 52 07:37 29.03.2020
412 Clouds 28 1009 88 10000 2.78 52 07:19 29.03.2020
413 Clouds 30 1009 74 10000 2.6 60 04:58 29.03.2020
414 Clouds 30 1009 70 10000 3.1 70 03:42 29.03.2020
415 Rain 29 1008 71 0 3.74 46 03:23 29.03.2020
416 Rain 29 1010 70 0 4.45 58 01:50 29.03.2020
417 Clouds 30 1011 70 10000 4.45 58 01:23 29.03.2020
418 Clouds 30 1011 70 10000 4.45 56 00:48 29.03.2020
419 Clouds 30 1011 70 10000 4.45 56 00:29 29.03.2020
420 Clouds 28 1011 83 10000 4.45 56 23:41 28.03.2020
421 Clouds 28 1011 83 10000 4.45 56 23:41 28.03.2020
422 Clouds 28 1011 83 10000 4.45 56 23:23 28.03.2020
423 Clouds 26 1011 94 10000 3.99 47 22:56 28.03.2020
424 Clouds 26 1011 94 10000 3.99 47 22:37 28.03.2020
425 Clouds 25 1010 94 10000 3.99 47 22:18 28.03.2020
426 Clouds 25 1010 94 10000 3.99 47 21:41 28.03.2020
427 Clouds 25 1010 94 10000 3.99 47 21:23 28.03.2020
428 Clouds 25 1010 94 10000 3.99 47 20:58 28.03.2020
429 Clouds 25 1010 94 10000 3.99 47 20:39 28.03.2020
430 Rain 28 1011 80 0 4.18 50 20:20 28.03.2020
431 Rain 25 1010 88 0 3.17 33 19:56 28.03.2020
432 Rain 25 1010 88 0 3.17 33 19:36 28.03.2020
433 Clouds 24 1008 94 10000 3.6 320 19:18 28.03.2020
434 Clouds 24 1008 94 10000 3.6 320 18:42 28.03.2020
435 Clouds 24 1008 94 10000 3.6 320 18:22 28.03.2020
436 Clouds 24 1008 94 10000 3.6 330 17:56 28.03.2020
437 Clouds 24 1008 94 10000 3.6 330 17:36 28.03.2020
438 Clouds 24 1008 94 10000 3.6 330 17:18 28.03.2020
439 Clouds 24 1008 94 10000 3.6 330 16:40 28.03.2020
440 Clouds 25 1009 88 0 3.08 31 16:20 28.03.2020
441 Clouds 25 1009 88 0 3.08 31 15:55 28.03.2020
442 Clouds 25 1009 88 0 3.08 31 15:37 28.03.2020
443 Clouds 25 1009 88 0 3.08 31 15:18 28.03.2020
444 Clouds 25 1009 88 0 3.08 31 14:41 28.03.2020
445 Clouds 25 1009 88 0 3.08 31 14:22 28.03.2020
446 Rain 25 1010 88 0 3.47 36 13:44 28.03.2020
447 Clouds 24 1011 100 10000 3.28 32 13:25 28.03.2020
448 Clouds 24 1011 100 10000 3.28 32 12:57 28.03.2020
449 Clouds 24 1011 100 10000 3.28 32 12:37 28.03.2020
450 Clouds 25 1011 94 10000 3.28 32 12:18 28.03.2020
451 Clouds 25 1011 94 10000 3.28 32 11:41 28.03.2020
452 Clouds 25 1011 94 10000 3.96 46 11:21 28.03.2020
453 Rain 25 1011 94 10000 3.96 46 10:40 28.03.2020
454 Rain 25 1011 94 10000 3.96 46 10:22 28.03.2020
455 Rain 25 1011 94 10000 3.96 46 09:43 28.03.2020
456 Rain 25 1011 94 10000 3.96 46 09:24 28.03.2020
457 Thunderstorm 25 1009 94 10000 3.96 46 08:59 28.03.2020
458 Thunderstorm 25 1009 94 10000 3.96 46 08:41 28.03.2020
459 Thunderstorm 25 1009 94 10000 3.96 46 08:22 28.03.2020
460 Thunderstorm 26 1009 94 10000 1.5 50 07:46 28.03.2020
461 Thunderstorm 26 1009 94 10000 1.5 50 07:28 28.03.2020
462 Thunderstorm 26 1009 94 8000 1.5 250 06:36 28.03.2020
463 Thunderstorm 28 1008 83 5000 1.5 250 05:54 28.03.2020
464 Rain 28 1008 83 5000 2.6 280 05:21 28.03.2020
465 Clouds 28 1008 83 10000 2.1 50 04:42 28.03.2020
466 Rain 28 1008 83 10000 4.1 40 03:54 28.03.2020
467 Rain 27 1008 86 0 4.24 66 02:25 28.03.2020
468 Rain 28 1010 85 0 3.99 67 01:41 28.03.2020
469 Rain 28 1010 83 10000 3.6 60 01:18 28.03.2020
470 Rain 28 1010 83 10000 3.6 60 00:45 28.03.2020
471 Clouds 29 1010 79 10000 1.5 40 23:59 27.03.2020
472 Clouds 29 1010 79 10000 1.5 40 23:41 27.03.2020
473 Clouds 29 1010 79 10000 1.5 40 23:41 27.03.2020
474 Clouds 29 1010 79 10000 1.5 40 23:21 27.03.2020
475 Clouds 29 1010 83 10000 2.1 320 22:56 27.03.2020
476 Clouds 29 1010 83 10000 2.1 320 22:37 27.03.2020
477 Clouds 26 1010 94 10000 3.36 54 22:19 27.03.2020
478 Clouds 26 1010 94 10000 3.36 54 21:44 27.03.2020
479 Clouds 24 1009 100 10000 3.36 54 21:25 27.03.2020
480 Clouds 24 1009 100 10000 3.36 54 21:25 27.03.2020
481 Clouds 24 1009 100 10000 3.36 54 20:59 27.03.2020
482 Clouds 24 1009 100 10000 4.4 64 20:41 27.03.2020
483 Rain 24 1009 90 0 2.55 35 20:20 27.03.2020
484 Rain 25 1010 89 0 2.87 57 20:20 27.03.2020
485 Rain 25 1010 89 0 2.87 57 19:57 27.03.2020
486 Rain 25 1010 89 0 2.87 57 19:39 27.03.2020
487 Rain 25 1010 89 0 2.87 57 19:39 27.03.2020
488 Clouds 24 1009 100 10000 2.87 57 19:20 27.03.2020
489 Clouds 24 1009 100 10000 2.87 57 18:44 27.03.2020
490 Clouds 24 1009 100 10000 2.87 57 18:24 27.03.2020
491 Clouds 24 1008 100 10000 2.6 300 17:57 27.03.2020
492 Clouds 24 1008 100 10000 2.6 300 17:39 27.03.2020
493 Clouds 24 1008 100 10000 2.6 300 17:19 27.03.2020
494 Clouds 25 1009 100 10000 2.12 46 16:44 27.03.2020
495 Clouds 25 1009 100 10000 2.12 46 16:25 27.03.2020
496 Clouds 25 1009 100 10000 2.12 46 15:46 27.03.2020
497 Rain 25 1010 100 10000 2.12 46 15:27 27.03.2020
498 Rain 25 1010 100 10000 2.12 46 14:59 27.03.2020
499 Rain 25 1010 100 10000 2.12 46 14:40 27.03.2020
500 Rain 25 1009 88 0 2.12 46 14:22 27.03.2020
501 Rain 25 1010 88 0 2.48 43 13:54 27.03.2020
502 Rain 25 1010 88 0 2.48 43 13:36 27.03.2020
503 Rain 26 1011 94 10000 2.57 48 13:18 27.03.2020
504 Rain 26 1011 94 10000 2.57 48 13:18 27.03.2020
505 Rain 26 1011 94 10000 2.57 48 12:42 27.03.2020
506 Rain 26 1011 94 10000 2.57 48 12:19 27.03.2020
507 Clouds 26 1011 94 10000 1 0 11:44 27.03.2020
508 Clouds 26 1011 94 10000 1 0 11:25 27.03.2020
509 Clouds 27 1011 88 10000 3.6 60 10:59 27.03.2020
510 Clouds 27 1011 88 10000 3.6 60 10:41 27.03.2020
511 Clouds 27 1010 88 10000 3.25 64 10:22 27.03.2020
512 Clouds 27 1010 88 10000 3.25 64 09:58 27.03.2020
513 Clouds 27 1010 88 10000 3.25 64 09:40 27.03.2020
514 Rain 25 1011 89 0 3.25 64 09:21 27.03.2020
515 Rain 25 1011 89 0 3.25 64 08:58 27.03.2020
516 Rain 25 1011 89 0 3.25 64 08:39 27.03.2020
517 Rain 25 1011 89 0 3.25 64 08:21 27.03.2020
518 Rain 27 1009 85 0 3.15 68 07:53 27.03.2020
519 Clouds 29 1008 79 10000 3.15 68 07:28 27.03.2020
520 Clouds 29 1008 79 10000 3.15 68 06:59 27.03.2020
521 Clouds 29 1008 79 10000 3.15 68 06:37 27.03.2020
522 Clouds 30 1009 74 10000 4.1 90 05:38 27.03.2020
523 Rain 29 1008 72 0 3.68 70 02:51 27.03.2020
524 Rain 30 1011 68 0 3.55 73 01:50 27.03.2020
525 Clouds 32 1011 66 10000 2.6 130 00:56 27.03.2020
526 Clouds 32 1011 66 10000 2.6 130 00:32 27.03.2020
527 Clouds 30 1011 79 10000 3.6 130 23:45 26.03.2020
528 Clouds 30 1011 79 10000 3.6 130 23:25 26.03.2020
529 Clouds 27 1012 83 10000 2.6 130 22:59 26.03.2020
530 Clouds 27 1012 83 10000 2.6 130 22:39 26.03.2020
531 Clouds 25 1011 83 10000 2.61 58 22:21 26.03.2020
532 Clouds 25 1011 83 10000 2.61 58 21:59 26.03.2020
533 Clouds 25 1011 83 10000 2.61 58 21:39 26.03.2020
534 Clouds 23 1011 100 10000 2.61 58 21:21 26.03.2020
535 Clouds 23 1011 100 10000 2.61 58 20:58 26.03.2020
536 Clouds 23 1011 100 10000 2.61 58 20:38 26.03.2020
537 Clouds 23 1011 100 10000 2.61 58 20:38 26.03.2020
538 Clouds 28 1012 78 0 2.45 61 20:20 26.03.2020
539 Rain 24 1010 87 0 1.26 40 19:56 26.03.2020
540 Rain 24 1010 87 0 1.26 40 19:38 26.03.2020
541 Clouds 23 1010 100 10000 1.26 40 19:20 26.03.2020
542 Clouds 23 1010 100 10000 1.26 40 18:56 26.03.2020
543 Clouds 23 1010 100 10000 1.26 40 18:37 26.03.2020
544 Clouds 23 1010 100 10000 1.26 40 18:19 26.03.2020
545 Clouds 23 1010 100 10000 1.26 40 17:42 26.03.2020
546 Clouds 23 1010 100 10000 0.69 33 17:19 26.03.2020
547 Clouds 23 1010 100 10000 0.69 33 17:19 26.03.2020
548 Clouds 24 1010 94 10000 0.69 33 16:45 26.03.2020
549 Clouds 24 1011 100 10000 0.69 33 16:27 26.03.2020
550 Clouds 24 1011 100 10000 0.69 33 15:59 26.03.2020
551 Clouds 24 1011 100 10000 0.69 33 15:40 26.03.2020
552 Clouds 24 1011 100 10000 0.69 33 15:21 26.03.2020
553 Clouds 24 1011 100 10000 0.69 33 14:58 26.03.2020
554 Clouds 24 1011 100 10000 0.69 33 14:38 26.03.2020
555 Clouds 24 1011 100 10000 0.69 33 14:38 26.03.2020
556 Rain 25 1011 88 0 1.12 31 14:19 26.03.2020
557 Rain 25 1011 88 0 1.12 31 13:43 26.03.2020
558 Clouds 25 1012 94 10000 3.1 270 13:23 26.03.2020
559 Clouds 25 1012 94 10000 3.1 270 12:56 26.03.2020
560 Clouds 25 1012 94 10000 3.1 270 12:37 26.03.2020
561 Clouds 25 1012 94 10000 3.1 270 12:19 26.03.2020
562 Rain 25 1013 94 10000 0.78 24 11:44 26.03.2020
563 Rain 25 1013 94 10000 1.15 52 11:20 26.03.2020
564 Clouds 25 1012 94 10000 1.15 52 10:56 26.03.2020
565 Clouds 25 1012 94 10000 1.15 52 10:37 26.03.2020
566 Clouds 25 1011 94 10000 1.15 52 10:18 26.03.2020
567 Clouds 25 1011 94 10000 1.15 52 09:43 26.03.2020
568 Clouds 26 1011 88 10000 1.15 52 09:19 26.03.2020
569 Clouds 26 1011 88 10000 1.15 52 09:19 26.03.2020
570 Clouds 26 1011 88 10000 1.15 52 08:54 26.03.2020
571 Clouds 26 1011 88 10000 1.15 52 08:36 26.03.2020
572 Rain 26 1010 86 0 2 68 08:18 26.03.2020
573 Rain 26 1010 86 0 2 68 07:41 26.03.2020
574 Clouds 28 1010 83 10000 2 68 07:20 26.03.2020
575 Clouds 28 1010 83 10000 2 68 06:46 26.03.2020
576 Clouds 29 1010 79 10000 2 68 05:52 26.03.2020
577 Clouds 31 1010 66 10000 4.6 70 03:52 26.03.2020
578 Clouds 31 1010 66 10000 4.6 70 03:33 26.03.2020
579 Clouds 32 1010 62 10000 4.1 70 02:53 26.03.2020
580 Clouds 31 1011 66 10000 4.1 50 01:20 26.03.2020
581 Clouds 31 1011 66 10000 4.1 50 00:33 26.03.2020
582 Clouds 30 1011 74 10000 2.1 40 23:44 25.03.2020
583 Clouds 30 1011 74 10000 2.1 40 23:26 25.03.2020
584 Clouds 29 1011 83 10000 3.1 340 22:56 25.03.2020
585 Clouds 29 1011 83 10000 3.1 340 22:38 25.03.2020
586 Clouds 26 1012 88 10000 1 340 22:19 25.03.2020
587 Clouds 26 1012 88 10000 1 340 22:19 25.03.2020
588 Clouds 26 1012 88 10000 1 340 21:54 25.03.2020
589 Clouds 26 1012 88 10000 1 340 21:36 25.03.2020
590 Clouds 24 1011 94 10000 2.07 21 21:18 25.03.2020
591 Clouds 24 1011 94 10000 2.07 21 20:39 25.03.2020
592 Rain 24 1010 89 0 1.92 359 20:19 25.03.2020
593 Rain 24 1011 88 0 1.66 2 19:56 25.03.2020
594 Rain 24 1011 88 0 1.66 2 19:38 25.03.2020
595 Clouds 23 1011 100 10000 1 350 19:19 25.03.2020
596 Clouds 23 1011 100 10000 1 350 18:43 25.03.2020
597 Clouds 23 1011 100 10000 1 350 18:25 25.03.2020
598 Clouds 24 1011 94 10000 1 340 17:59 25.03.2020
599 Clouds 24 1011 94 10000 1 340 17:40 25.03.2020
600 Clouds 24 1011 94 10000 1 340 17:22 25.03.2020
601 Clouds 24 1010 94 10000 1 340 16:58 25.03.2020
602 Clouds 24 1010 94 10000 1 340 16:39 25.03.2020
603 Clouds 24 1011 94 10000 1.76 346 16:20 25.03.2020
604 Clouds 24 1011 94 10000 1.76 346 15:42 25.03.2020
605 Rain 24 1010 88 0 1.76 346 15:21 25.03.2020
606 Rain 24 1010 88 0 1.76 346 14:57 25.03.2020
607 Rain 24 1010 88 0 1.76 346 14:57 25.03.2020
608 Rain 24 1010 88 0 1.76 346 14:39 25.03.2020
609 Rain 24 1010 88 0 1.76 346 14:39 25.03.2020
610 Rain 25 1012 88 0 2.19 9 14:19 25.03.2020
611 Rain 25 1012 88 0 2.04 359 13:44 25.03.2020
612 Clouds 25 1012 94 10000 1 310 13:24 25.03.2020
613 Clouds 25 1012 94 10000 1 310 13:24 25.03.2020
614 Clouds 25 1012 94 10000 1 310 12:39 25.03.2020
615 Clouds 25 1012 94 10000 1 310 12:39 25.03.2020
616 Clouds 25 1012 94 10000 1 310 12:21 25.03.2020
617 Clouds 25 1012 94 10000 2.1 310 11:57 25.03.2020
618 Clouds 25 1012 94 10000 2.1 310 11:39 25.03.2020
619 Clouds 25 1012 94 10000 2.1 310 11:21 25.03.2020
620 Clouds 25 1012 94 10000 2.1 310 11:21 25.03.2020
621 Clouds 25 1012 94 10000 2.1 310 11:21 25.03.2020
622 Clouds 25 1011 94 10000 2.6 330 10:58 25.03.2020
623 Clouds 25 1011 94 10000 2.6 330 10:39 25.03.2020
624 Clouds 25 1011 94 10000 2.6 330 10:39 25.03.2020
625 Clouds 25 1011 94 10000 2.6 330 10:39 25.03.2020
626 Clouds 26 1011 94 10000 3.1 330 10:18 25.03.2020
627 Clouds 26 1011 94 10000 3.1 330 09:43 25.03.2020
628 Rain 27 1010 94 10000 2.09 15 09:25 25.03.2020
629 Rain 27 1010 94 10000 2.09 15 08:58 25.03.2020
630 Rain 27 1010 94 10000 2.09 15 08:58 25.03.2020
631 Rain 27 1010 94 10000 2.09 15 08:40 25.03.2020
632 Rain 26 1010 85 0 1.94 32 08:20 25.03.2020
633 Rain 26 1010 84 0 1.75 35 07:55 25.03.2020
634 Rain 26 1010 84 0 1.75 35 07:36 25.03.2020
635 Clouds 29 1010 79 10000 2.1 70 07:18 25.03.2020
636 Clouds 29 1010 79 10000 2.1 70 06:41 25.03.2020
637 Clouds 29 1010 79 10000 2.1 70 06:22 25.03.2020
638 Clouds 30 1009 66 10000 3.6 60 05:47 25.03.2020
639 Clouds 31 1009 70 10000 5.1 60 04:42 25.03.2020
640 Clouds 31 1009 66 10000 4.6 70 03:57 25.03.2020
641 Rain 29 1009 70 0 2.95 50 03:30 25.03.2020
642 Rain 30 1011 65 0 2.66 40 01:40 25.03.2020
643 Clouds 31 1012 66 10000 3.1 70 00:50 25.03.2020
644 Clouds 31 1012 66 10000 3.1 70 00:27 25.03.2020
645 Clouds 30 1012 79 10000 2.36 47 23:55 24.03.2020
646 Clouds 30 1012 79 10000 2.36 47 23:28 24.03.2020
647 Clouds 28 1012 78 10000 2.12 351 22:58 24.03.2020
648 Clouds 28 1012 78 10000 2.12 351 22:38 24.03.2020
649 Clouds 26 1010 88 10000 2.12 351 22:20 24.03.2020
650 Clouds 26 1010 88 10000 2.12 351 22:20 24.03.2020
651 Clouds 26 1010 88 10000 2.12 351 21:58 24.03.2020
652 Clouds 26 1010 88 10000 2.12 351 21:40 24.03.2020
653 Clouds 24 1011 94 10000 2.12 351 21:18 24.03.2020
654 Clouds 24 1011 94 10000 2.12 351 21:18 24.03.2020
655 Clouds 24 1011 94 10000 2.12 351 20:57 24.03.2020
656 Clouds 24 1011 94 10000 2.12 351 20:39 24.03.2020
657 Rain 24 1011 88 0 1.83 345 20:21 24.03.2020
658 Rain 24 1011 88 0 1.9 340 19:46 24.03.2020
659 Clouds 23 1010 100 10000 1.9 340 19:20 24.03.2020
660 Clouds 23 1010 100 10000 1.9 340 18:56 24.03.2020
661 Clouds 23 1010 100 10000 1.9 340 18:38 24.03.2020
662 Clouds 23 1010 100 10000 1.9 340 18:19 24.03.2020
663 Clouds 23 1010 100 10000 1.9 340 17:56 24.03.2020
664 Clouds 23 1010 100 10000 1.9 340 17:37 24.03.2020
665 Clouds 23 1010 100 10000 1.9 340 17:37 24.03.2020
666 Clouds 23 1010 100 10000 1.15 5 17:19 24.03.2020
667 Clouds 23 1010 100 10000 1.32 325 16:54 24.03.2020
668 Clouds 23 1010 100 10000 1.32 325 16:36 24.03.2020
669 Clouds 23 1010 100 10000 1.32 325 16:36 24.03.2020
670 Clouds 24 1011 94 10000 1.32 325 16:18 24.03.2020
671 Clouds 24 1011 94 10000 1.32 325 15:42 24.03.2020
672 Clouds 23 1009 95 0 1.32 325 15:23 24.03.2020
673 Clouds 23 1009 95 0 1.32 325 14:44 24.03.2020
674 Rain 25 1011 87 0 0.43 2 14:22 24.03.2020
675 Rain 24 1009 87 0 1.15 5 14:22 24.03.2020
676 Rain 25 1011 87 0 0.43 2 13:56 24.03.2020
677 Rain 25 1011 87 0 0.43 2 13:38 24.03.2020
678 Clouds 24 1012 94 10000 0.44 354 13:20 24.03.2020
679 Clouds 24 1012 94 10000 0.44 354 12:42 24.03.2020
680 Clouds 24 1012 94 10000 0.44 354 12:23 24.03.2020
681 Clouds 24 1012 100 10000 0.44 354 11:41 24.03.2020
682 Clouds 24 1012 100 10000 1.35 251 11:21 24.03.2020
683 Clouds 25 1011 94 10000 1.35 251 10:59 24.03.2020
684 Clouds 25 1011 94 10000 1.35 251 10:40 24.03.2020
685 Clouds 25 1011 94 10000 1.35 251 10:40 24.03.2020
686 Clouds 26 1010 88 10000 1.35 251 10:18 24.03.2020
687 Clouds 26 1010 88 10000 1.35 251 10:18 24.03.2020
688 Clouds 26 1010 88 10000 1.35 251 09:44 24.03.2020
689 Clouds 27 1010 88 10000 3.6 270 09:25 24.03.2020
690 Clouds 27 1010 88 10000 3.6 270 08:57 24.03.2020
691 Clouds 27 1010 88 10000 3.6 270 08:37 24.03.2020
692 Rain 26 1009 91 0 0.54 21 08:18 24.03.2020
693 Rain 26 1009 91 0 0.54 21 07:44 24.03.2020
694 Clouds 29 1008 70 10000 3.1 60 07:22 24.03.2020
695 Clouds 29 1008 70 10000 3.1 60 06:35 24.03.2020
696 Clouds 30 1008 70 10000 2.6 60 05:36 24.03.2020
697 Rain 29 1008 86 0 1.48 40 04:50 24.03.2020
698 Rain 29 1008 86 0 1.48 40 03:19 24.03.2020
699 Rain 29 1008 86 0 1.48 40 02:25 24.03.2020
700 Clouds 31 1010 70 10000 2.6 330 00:53 24.03.2020
701 Clouds 31 1010 70 10000 2.6 330 00:26 24.03.2020
702 Clouds 30 1011 74 10000 1.5 350 23:55 23.03.2020
703 Clouds 30 1011 74 10000 1.5 350 23:36 23.03.2020
704 Clouds 30 1011 74 10000 1.5 350 23:18 23.03.2020
705 Clouds 28 1011 78 10000 2.1 340 22:42 23.03.2020
706 Clouds 26 1011 88 10000 0.9 318 22:22 23.03.2020
707 Clouds 26 1011 88 10000 0.9 318 22:22 23.03.2020
708 Clouds 26 1011 88 10000 0.9 318 21:54 23.03.2020
709 Clouds 26 1011 88 10000 0.9 318 21:36 23.03.2020
710 Clouds 24 1010 94 10000 2.6 330 21:18 23.03.2020
711 Clouds 24 1010 94 10000 2.6 330 20:42 23.03.2020
712 Clouds 28 1011 69 0 0.9 318 20:23 23.03.2020
713 Clouds 22 1010 93 0 1.24 314 19:55 23.03.2020
714 Clouds 22 1010 93 0 1.24 314 19:55 23.03.2020
715 Clouds 22 1010 93 0 1.24 314 19:55 23.03.2020
716 Clouds 22 1010 93 0 1.24 314 19:37 23.03.2020
717 Clouds 24 1009 100 10000 1.24 314 19:18 23.03.2020
718 Clouds 24 1009 100 10000 1.24 314 18:43 23.03.2020
719 Clouds 24 1009 100 10000 1.24 314 18:24 23.03.2020
720 Clouds 24 1009 100 10000 1.24 314 17:58 23.03.2020
721 Clouds 24 1009 100 10000 1.24 314 17:39 23.03.2020
722 Clouds 24 1009 100 10000 1.22 312 17:19 23.03.2020
723 Clouds 24 1010 100 10000 1.22 312 16:43 23.03.2020
724 Clouds 25 1010 88 10000 1.22 312 16:25 23.03.2020
725 Clouds 25 1010 88 10000 1.22 312 15:44 23.03.2020
726 Clouds 25 1010 88 10000 3.6 330 15:21 23.03.2020
727 Clouds 25 1010 88 10000 3.6 330 14:57 23.03.2020
728 Clouds 25 1010 88 10000 3.6 330 14:37 23.03.2020
729 Clouds 24 1010 94 0 1.21 318 14:18 23.03.2020
730 Clouds 24 1010 94 0 1.21 318 13:54 23.03.2020
731 Clouds 24 1010 94 0 1.21 318 13:54 23.03.2020
732 Clouds 24 1010 94 0 1.21 318 13:36 23.03.2020
733 Clouds 24 1010 94 0 1.21 318 13:36 23.03.2020
734 Clouds 25 1010 94 10000 1.21 316 13:18 23.03.2020
735 Clouds 25 1010 94 10000 1.21 316 12:41 23.03.2020
736 Clouds 25 1010 94 10000 1.21 316 12:22 23.03.2020
737 Clouds 25 1010 94 10000 1.21 316 11:42 23.03.2020
738 Clouds 25 1010 94 10000 1.21 316 11:22 23.03.2020
739 Clouds 25 1010 94 10000 0.63 298 10:58 23.03.2020
740 Clouds 25 1010 94 10000 0.63 298 10:40 23.03.2020
741 Clouds 25 1010 94 10000 0.63 298 10:40 23.03.2020
742 Clouds 25 1010 100 10000 0.63 298 10:22 23.03.2020
743 Clouds 25 1010 100 10000 0.63 298 09:58 23.03.2020
744 Clouds 25 1010 100 10000 0.63 298 09:40 23.03.2020
745 Rain 24 1010 93 0 0.63 298 09:19 23.03.2020
746 Rain 24 1010 93 0 0.63 298 08:38 23.03.2020
747 Rain 25 1008 93 0 0.56 244 08:19 23.03.2020
748 Rain 25 1008 93 0 1.87 8 07:50 23.03.2020
749 Clouds 25 1008 100 10000 1.87 8 07:32 23.03.2020
750 Clouds 25 1008 100 10000 1.87 8 06:54 23.03.2020
751 Clouds 25 1008 100 10000 1.87 8 06:32 23.03.2020
752 Rain 24 1008 100 10000 1.87 8 05:42 23.03.2020
753 Clouds 30 1008 74 10000 4.6 60 03:45 23.03.2020
754 Clouds 30 1009 74 10000 2.1 50 02:43 23.03.2020
755 Rain 26 1009 85 0 1.18 46 01:38 23.03.2020
756 Clouds 29 1010 74 10000 2.39 25 00:43 23.03.2020
757 Clouds 27 1010 83 10000 2.39 25 23:54 22.03.2020
758 Clouds 27 1010 83 10000 2.39 25 23:27 22.03.2020
759 Clouds 26 1011 88 10000 0.68 15 22:59 22.03.2020
760 Rain 24 1011 96 0 0.68 15 22:39 22.03.2020
761 Clouds 24 1010 94 10000 0.68 15 22:18 22.03.2020
762 Clouds 24 1010 94 10000 0.68 15 21:40 22.03.2020
763 Clouds 24 1010 94 10000 0.68 15 21:20 22.03.2020
764 Clouds 24 1010 94 10000 0.68 15 20:58 22.03.2020
765 Clouds 24 1010 94 10000 0.68 15 20:39 22.03.2020
766 Rain 22 1011 98 0 0.81 328 20:21 22.03.2020
767 Clouds 22 1009 96 0 1.08 335 19:55 22.03.2020
768 Clouds 22 1009 96 0 1.08 335 19:37 22.03.2020
769 Clouds 23 1009 100 10000 1.08 335 19:19 22.03.2020
770 Clouds 23 1009 100 10000 1.08 335 18:56 22.03.2020
771 Clouds 23 1009 100 10000 1.08 335 18:37 22.03.2020
772 Clouds 23 1009 100 10000 1.08 335 18:18 22.03.2020
773 Clouds 23 1009 100 10000 1.08 335 17:56 22.03.2020
774 Clouds 23 1009 100 10000 1.08 335 17:36 22.03.2020
775 Clouds 23 1009 100 10000 1.08 335 17:36 22.03.2020
776 Clouds 23 1009 100 10000 1.08 335 17:36 22.03.2020
777 Clouds 23 1009 100 10000 1.22 4 17:18 22.03.2020
778 Clouds 24 1009 94 10000 1.22 4 16:54 22.03.2020
779 Clouds 24 1009 94 10000 1.22 4 16:36 22.03.2020
780 Clouds 23 1009 96 0 1.22 4 16:36 22.03.2020
781 Clouds 24 1010 94 10000 1.22 4 16:18 22.03.2020
782 Clouds 24 1010 94 10000 1.22 4 15:39 22.03.2020
783 Rain 24 1010 94 10000 1.22 4 14:48 22.03.2020
784 Rain 23 1010 97 0 1.86 13 14:20 22.03.2020
785 Rain 23 1010 97 0 1.86 13 13:58 22.03.2020
786 Rain 23 1010 97 0 1.86 13 13:58 22.03.2020
787 Rain 23 1010 97 0 1.86 13 13:40 22.03.2020
788 Clouds 25 1010 94 10000 2.17 9 13:19 22.03.2020
789 Clouds 25 1010 94 10000 2.17 9 12:44 22.03.2020
790 Clouds 25 1010 94 10000 2.17 9 12:44 22.03.2020
791 Clouds 25 1010 94 10000 2.17 9 12:22 22.03.2020
792 Clouds 25 1010 94 10000 2.17 9 12:22 22.03.2020
793 Rain 24 1011 94 10000 2.17 9 11:58 22.03.2020
794 Rain 24 1011 94 10000 2.17 9 11:39 22.03.2020
795 Rain 24 1011 94 10000 1.33 349 11:21 22.03.2020
796 Rain 24 1012 94 10000 1.33 349 10:43 22.03.2020
797 Rain 24 1012 94 10000 1.33 349 10:24 22.03.2020
798 Rain 24 1012 94 10000 1.33 349 09:55 22.03.2020
799 Rain 24 1012 94 10000 1.33 349 09:36 22.03.2020
800 Rain 24 1012 94 10000 1.33 349 09:18 22.03.2020
801 Rain 24 1012 94 10000 1.33 349 08:41 22.03.2020
802 Rain 26 1010 82 0 2.33 350 08:21 22.03.2020
803 Rain 26 1010 82 0 2.33 350 07:50 22.03.2020
804 Rain 26 1010 88 10000 2.33 350 07:19 22.03.2020
805 Drizzle 29 1009 79 10000 4.1 10 05:56 22.03.2020
806 Clouds 30 1009 70 10000 2.92 21 04:58 22.03.2020
807 Clouds 29 1011 74 10000 2.92 21 02:58 22.03.2020
808 Clouds 28 1013 78 10000 1 0 01:22 22.03.2020
809 Clouds 28 1013 78 10000 1 0 01:22 22.03.2020
810 Clouds 28 1013 78 10000 1 0 00:39 22.03.2020
811 Clouds 28 1013 78 10000 1 0 00:21 22.03.2020
812 Clouds 27 1013 83 10000 3.62 36 23:41 21.03.2020
813 Clouds 27 1013 83 10000 3.62 36 23:41 21.03.2020
814 Clouds 27 1013 83 10000 2.35 13 23:19 21.03.2020
815 Clouds 27 1013 83 10000 1 0 22:38 21.03.2020
816 Clouds 25 1013 94 10000 3.1 310 22:20 21.03.2020
817 Clouds 25 1013 94 10000 3.1 310 21:59 21.03.2020
818 Clouds 25 1013 94 10000 3.1 310 21:40 21.03.2020
819 Clouds 24 1012 94 10000 2.35 13 21:22 21.03.2020
820 Clouds 24 1012 94 10000 2.35 13 20:46 21.03.2020
821 Clouds 28 1013 75 0 2.35 13 20:23 21.03.2020
822 Clouds 23 1012 95 0 1.2 350 19:57 21.03.2020
823 Clouds 23 1012 95 0 1.2 350 19:39 21.03.2020
824 Clouds 23 1011 100 10000 1.2 350 19:21 21.03.2020
825 Clouds 23 1011 100 10000 1.2 350 18:54 21.03.2020
826 Clouds 23 1011 100 10000 1.2 350 18:36 21.03.2020
827 Clouds 23 1011 100 10000 1.2 350 18:18 21.03.2020
828 Clouds 24 1011 94 10000 1.2 350 17:43 21.03.2020
829 Clouds 24 1011 94 10000 1.2 350 17:43 21.03.2020
830 Clouds 24 1011 94 10000 1.2 350 17:23 21.03.2020
831 Clouds 24 1012 100 10000 1.16 349 16:57 21.03.2020
832 Clouds 23 1011 94 0 1.16 349 16:38 21.03.2020
833 Clouds 24 1012 100 10000 1.16 349 16:18 21.03.2020
834 Clouds 24 1012 100 10000 1.16 349 16:18 21.03.2020
835 Clouds 24 1012 100 10000 1.16 349 16:18 21.03.2020
836 Clouds 24 1012 100 10000 1.16 349 15:42 21.03.2020
837 Clouds 24 1012 100 10000 1.16 349 15:23 21.03.2020
838 Clouds 24 1012 100 10000 1.16 349 14:58 21.03.2020
839 Clouds 24 1012 100 10000 1.16 349 14:40 21.03.2020
840 Clouds 23 1013 93 0 1.19 330 14:20 21.03.2020
841 Clouds 23 1013 93 0 1.19 330 13:59 21.03.2020
842 Clouds 23 1013 93 0 1.19 330 13:40 21.03.2020
843 Clouds 25 1013 94 10000 1.19 330 13:22 21.03.2020
844 Clouds 25 1013 94 10000 1.02 337 12:59 21.03.2020
845 Clouds 25 1013 94 10000 1.02 337 12:38 21.03.2020
846 Clouds 25 1013 94 10000 1.02 337 12:19 21.03.2020
847 Clouds 25 1013 94 10000 1.02 337 12:19 21.03.2020
848 Clouds 25 1014 94 10000 1.02 337 11:56 21.03.2020
849 Clouds 25 1014 94 10000 1.02 337 11:38 21.03.2020
850 Clouds 25 1014 94 10000 1.38 359 11:19 21.03.2020
851 Clouds 25 1013 94 10000 1.38 359 10:57 21.03.2020
852 Clouds 25 1013 94 10000 1.38 359 10:38 21.03.2020
853 Clouds 25 1013 94 10000 1.38 359 10:19 21.03.2020
854 Clouds 25 1013 94 10000 1.38 359 09:55 21.03.2020
855 Clouds 25 1013 94 10000 1.38 359 09:37 21.03.2020
856 Clouds 25 1013 94 10000 2.1 70 09:18 21.03.2020
857 Clouds 25 1013 94 10000 2.1 70 08:43 21.03.2020
858 Rain 24 1011 91 0 2.07 12 08:24 21.03.2020
859 Clouds 24 1011 80 0 2.43 13 07:43 21.03.2020
860 Rain 26 1011 88 10000 2.43 13 07:23 21.03.2020
861 Rain 26 1011 88 10000 2.43 13 06:47 21.03.2020
862 Rain 26 1011 88 10000 2.43 13 06:27 21.03.2020
863 Clouds 27 1011 83 10000 2.43 13 05:46 21.03.2020
864 Clouds 28 1011 74 10000 2.1 350 04:46 21.03.2020
865 Clouds 27 1011 83 10000 3.6 330 02:48 21.03.2020
866 Clouds 25 1010 88 0 3.61 16 02:30 21.03.2020
867 Rain 26 1012 94 10000 4.6 330 01:32 21.03.2020
868 Rain 26 1012 94 10000 4.6 330 00:48 21.03.2020
869 Rain 26 1012 94 10000 4.6 330 00:25 21.03.2020
870 Clouds 29 1012 74 10000 5.1 10 23:49 20.03.2020
871 Clouds 29 1012 74 10000 5.1 10 23:26 20.03.2020
872 Clouds 27 1012 88 10000 4.1 360 22:56 20.03.2020
873 Clouds 27 1012 88 10000 4.1 360 22:37 20.03.2020
874 Rain 25 1012 94 10000 2.6 20 22:19 20.03.2020
875 Rain 25 1012 94 10000 2.6 20 21:54 20.03.2020
876 Rain 25 1012 94 10000 2.6 20 21:36 20.03.2020
877 Clouds 24 1011 100 10000 2.85 22 21:18 20.03.2020
878 Clouds 24 1011 100 10000 2.85 22 21:18 20.03.2020
879 Clouds 24 1011 100 10000 2.85 22 20:42 20.03.2020
880 Rain 24 1012 97 0 2.2 22 20:21 20.03.2020
881 Rain 22 1010 97 0 2.03 12 19:59 20.03.2020
882 Rain 22 1010 97 0 2.03 12 19:40 20.03.2020
883 Clouds 24 1010 100 10000 2.03 12 19:18 20.03.2020
884 Clouds 24 1010 100 10000 2.03 12 18:39 20.03.2020
885 Clouds 24 1010 100 10000 2.03 12 18:39 20.03.2020
886 Clouds 24 1010 100 10000 2.03 12 18:20 20.03.2020
887 Clouds 24 1009 94 10000 2.03 12 17:57 20.03.2020
888 Clouds 24 1009 94 10000 2.03 12 17:39 20.03.2020
889 Clouds 24 1009 94 10000 3.01 342 17:21 20.03.2020
890 Clouds 24 1010 100 10000 3.01 342 16:43 20.03.2020
891 Clouds 24 1010 100 10000 3.01 342 16:22 20.03.2020
892 Clouds 24 1010 100 10000 3.01 342 15:59 20.03.2020
893 Clouds 24 1010 100 10000 3.01 342 15:41 20.03.2020
894 Clouds 25 1011 94 10000 3.01 342 15:21 20.03.2020
895 Clouds 25 1011 94 10000 3.01 342 14:43 20.03.2020
896 Rain 23 1009 96 0 3.01 342 14:23 20.03.2020
897 Rain 23 1011 97 0 1.86 345 13:55 20.03.2020
898 Rain 23 1011 97 0 1.86 345 13:55 20.03.2020
899 Rain 23 1011 97 0 1.86 345 13:37 20.03.2020
900 Clouds 25 1012 94 10000 0.97 0 13:19 20.03.2020
901 Clouds 25 1012 94 10000 0.97 0 12:39 20.03.2020
902 Clouds 25 1012 94 10000 0.97 0 12:20 20.03.2020
903 Clouds 25 1012 94 10000 0.97 0 12:20 20.03.2020
904 Clouds 25 1012 94 10000 0.97 0 12:20 20.03.2020
905 Clouds 25 1012 94 10000 0.97 0 11:54 20.03.2020
906 Clouds 25 1012 94 10000 0.97 0 11:36 20.03.2020
907 Clouds 25 1011 94 10000 2.04 333 11:18 20.03.2020
908 Clouds 25 1011 94 10000 2.04 333 10:41 20.03.2020
909 Clouds 25 1011 94 10000 2.1 360 10:21 20.03.2020
910 Clouds 25 1011 94 10000 2.1 360 10:21 20.03.2020
911 Clouds 25 1011 94 10000 2.1 360 09:55 20.03.2020
912 Clouds 25 1011 94 10000 2.1 360 09:37 20.03.2020
913 Clouds 25 1011 100 10000 2.1 340 09:18 20.03.2020
914 Clouds 25 1011 100 10000 2.1 340 08:41 20.03.2020
915 Rain 24 1010 96 0 3.13 10 08:22 20.03.2020
916 Rain 24 1010 96 0 3.13 10 07:48 20.03.2020
917 Clouds 26 1009 94 10000 3.1 310 07:26 20.03.2020
918 Clouds 26 1009 94 10000 3.1 310 06:51 20.03.2020
919 Clouds 26 1009 94 10000 3.1 310 06:32 20.03.2020
920 Rain 27 1009 88 10000 3.6 340 04:51 20.03.2020
921 Clouds 27 1009 88 10000 4.1 340 03:20 20.03.2020
922 Rain 28 1011 92 0 2.71 354 01:51 20.03.2020
923 Rain 25 1012 94 5000 4.1 20 00:46 20.03.2020
924 Rain 25 1012 94 5000 4.1 20 00:26 20.03.2020
925 Clouds 27 1012 94 10000 1.14 341 23:45 19.03.2020
926 Clouds 27 1012 94 10000 1.14 341 23:26 19.03.2020
927 Clouds 27 1012 94 10000 1.14 341 23:26 19.03.2020
928 Clouds 26 1012 94 10000 0.58 269 22:56 19.03.2020
929 Clouds 26 1012 94 10000 0.58 269 22:38 19.03.2020
930 Clouds 26 1012 94 10000 0.58 269 22:38 19.03.2020
931 Clouds 25 1011 100 10000 0.58 269 22:18 19.03.2020
932 Clouds 25 1011 100 10000 0.58 269 21:41 19.03.2020
933 Rain 25 1011 94 10000 0.58 269 21:20 19.03.2020
934 Rain 25 1011 94 10000 0.58 269 20:58 19.03.2020
935 Rain 25 1011 94 10000 0.58 269 20:39 19.03.2020
936 Rain 24 1010 96 0 0.75 25 20:20 19.03.2020
937 Rain 24 1010 96 0 0.75 25 19:55 19.03.2020
938 Rain 24 1010 96 0 0.75 25 19:37 19.03.2020
939 Clouds 26 1010 94 10000 0.75 25 19:18 19.03.2020
940 Clouds 26 1010 94 10000 0.75 25 18:42 19.03.2020
941 Clouds 26 1010 94 10000 0.75 25 18:22 19.03.2020
942 Rain 26 1010 94 10000 0.75 25 17:58 19.03.2020
943 Rain 26 1010 94 10000 0.75 25 17:39 19.03.2020
944 Rain 26 1010 94 10000 0.97 95 17:19 19.03.2020
945 Clouds 26 1010 94 10000 0.97 95 16:43 19.03.2020
946 Clouds 26 1011 94 10000 0.97 95 16:23 19.03.2020
947 Clouds 26 1011 94 10000 0.97 95 15:45 19.03.2020
948 Rain 24 1010 97 0 0.97 95 15:26 19.03.2020
949 Rain 24 1010 97 0 0.97 95 14:55 19.03.2020
950 Rain 24 1010 97 0 0.97 95 14:37 19.03.2020
951 Rain 26 1012 94 8000 2.6 130 14:18 19.03.2020
952 Rain 26 1012 94 8000 2.6 130 13:39 19.03.2020
953 Rain 26 1012 94 8000 2.6 130 13:19 19.03.2020
954 Rain 26 1012 94 8000 3.1 110 12:44 19.03.2020
955 Rain 26 1012 94 8000 3.1 110 12:24 19.03.2020
956 Rain 25 1012 100 8000 3.1 110 11:59 19.03.2020
957 Rain 25 1012 100 8000 3.1 110 11:41 19.03.2020
958 Rain 25 1012 100 8000 3.1 110 11:22 19.03.2020
959 Rain 26 1012 94 10000 3.6 100 10:44 19.03.2020
960 Rain 26 1012 94 10000 3.6 100 10:22 19.03.2020
961 Rain 26 1011 94 10000 3.6 140 09:59 19.03.2020
962 Rain 26 1011 94 10000 3.6 140 09:40 19.03.2020
963 Rain 26 1011 94 10000 3.6 140 09:22 19.03.2020
964 Rain 24 1012 96 0 1.26 113 08:47 19.03.2020
965 Rain 25 1010 100 8000 2.23 110 08:23 19.03.2020
966 Rain 25 1010 100 8000 1.96 116 07:49 19.03.2020
967 Rain 25 1010 100 8000 1.96 116 07:31 19.03.2020
968 Rain 25 1010 100 3000 1.96 116 06:55 19.03.2020
969 Rain 25 1010 100 3000 1.96 116 06:18 19.03.2020
970 Rain 25 1010 100 2000 3.1 140 05:23 19.03.2020
971 Rain 25 1010 100 10000 3.1 140 04:41 19.03.2020
972 Rain 26 1010 94 1000 3.1 140 03:39 19.03.2020
973 Rain 27 1012 94 5000 2.6 150 01:45 19.03.2020
974 Rain 27 1012 94 5000 2.6 150 00:38 19.03.2020
975 Rain 27 1012 94 10000 1.22 109 23:58 18.03.2020
976 Rain 27 1012 94 10000 1.22 109 23:39 18.03.2020
977 Rain 27 1012 94 10000 1.79 99 23:18 18.03.2020
978 Rain 26 1013 94 10000 1.79 99 22:42 18.03.2020
979 Rain 25 1012 100 3000 2.1 120 22:22 18.03.2020
980 Rain 25 1012 100 3000 2.1 120 21:55 18.03.2020
981 Rain 25 1012 100 3000 2.1 120 21:37 18.03.2020
982 Rain 25 1012 100 3000 2.1 120 21:18 18.03.2020
983 Rain 25 1012 94 3000 2.6 120 20:54 18.03.2020
984 Rain 25 1012 94 3000 2.6 120 20:36 18.03.2020
985 Rain 25 1012 94 3000 2.6 120 20:18 18.03.2020
986 Rain 24 1011 100 3000 1.06 162 19:40 18.03.2020
987 Rain 24 1011 100 3000 1.06 162 19:21 18.03.2020
988 Rain 24 1011 100 3000 1 0 18:56 18.03.2020
989 Rain 24 1011 100 3000 1 0 18:37 18.03.2020
990 Rain 24 1011 100 3000 1 0 18:18 18.03.2020
991 Rain 25 1011 94 3000 1 0 17:41 18.03.2020
992 Rain 25 1011 94 3000 1 0 17:22 18.03.2020
993 Rain 25 1010 100 3000 0.65 139 16:59 18.03.2020
994 Rain 25 1010 100 3000 0.65 139 16:40 18.03.2020
995 Rain 25 1010 100 3000 0.65 139 16:20 18.03.2020
996 Rain 25 1011 100 3000 2.6 130 15:56 18.03.2020
997 Rain 25 1011 100 3000 2.6 130 15:37 18.03.2020
998 Rain 25 1011 100 3000 2.6 130 15:18 18.03.2020
999 Rain 25 1012 100 5000 0.65 139 14:42 18.03.2020
1000 Rain 25 1012 100 5000 3.61 152 14:21 18.03.2020
1001 Rain 24 1011 98 0 3.61 152 13:40 18.03.2020
1002 Clouds 26 1012 94 10000 3.61 152 13:19 18.03.2020
1003 Clouds 26 1012 94 10000 3.61 152 13:19 18.03.2020
1004 Clouds 26 1012 94 10000 5.48 191 12:42 18.03.2020
1005 Clouds 26 1012 94 10000 5.48 191 12:21 18.03.2020
1006 Clouds 26 1012 94 10000 5.48 191 11:57 18.03.2020
1007 Clouds 26 1012 94 10000 5.48 191 11:37 18.03.2020
1008 Clouds 26 1012 94 10000 0.89 267 11:18 18.03.2020
1009 Clouds 26 1011 94 10000 0.89 267 10:54 18.03.2020
1010 Clouds 26 1011 94 10000 0.89 267 10:36 18.03.2020
1011 Clouds 26 1011 94 10000 0.89 267 10:36 18.03.2020
1012 Clouds 26 1011 94 10000 0.89 267 10:18 18.03.2020
1013 Clouds 26 1011 94 10000 0.89 267 09:41 18.03.2020
1014 Rain 26 1011 94 10000 2.1 170 09:22 18.03.2020
1015 Rain 26 1011 94 10000 2.1 170 08:40 18.03.2020
1016 Rain 24 1009 96 0 0.63 236 08:21 18.03.2020
1017 Rain 24 1009 96 0 0.63 236 07:49 18.03.2020
1018 Rain 27 1010 94 10000 0.63 236 07:31 18.03.2020
1019 Rain 27 1010 94 10000 0.63 236 06:55 18.03.2020
1020 Rain 27 1010 94 10000 0.63 236 06:37 18.03.2020
1021 Rain 25 1009 100 10000 0.63 236 05:37 18.03.2020
1022 Clouds 27 1009 94 10000 1.14 176 04:32 18.03.2020
1023 Rain 26 1008 90 0 1.14 176 03:21 18.03.2020
1024 Rain 26 1008 90 0 1.14 176 02:36 18.03.2020
1025 Rain 25 1010 97 0 1.08 310 01:42 18.03.2020
1026 Clouds 29 1011 74 10000 1.05 7 00:42 18.03.2020
1027 Clouds 29 1011 74 10000 1.05 7 00:21 18.03.2020
1028 Clouds 29 1011 74 10000 1.05 7 23:41 17.03.2020
1029 Clouds 29 1011 83 10000 2.1 210 23:20 17.03.2020
1030 Clouds 29 1011 83 10000 2.1 210 22:42 17.03.2020
1031 Clouds 29 1011 83 10000 2.1 210 22:24 17.03.2020
1032 Clouds 27 1011 88 10000 0.92 16 21:43 17.03.2020
1033 Clouds 25 1010 94 10000 0.92 16 21:23 17.03.2020
1034 Clouds 25 1010 94 10000 0.63 307 20:57 17.03.2020
1035 Clouds 25 1010 94 10000 0.92 16 20:37 17.03.2020
1036 Rain 24 1009 97 0 2.01 274 20:19 17.03.2020
1037 Rain 24 1009 97 0 2.01 274 19:41 17.03.2020
1038 Clouds 25 1009 94 10000 2.01 274 19:19 17.03.2020
1039 Clouds 25 1009 94 10000 2.01 274 18:57 17.03.2020
1040 Clouds 25 1009 94 10000 2.01 274 18:39 17.03.2020
1041 Clouds 25 1009 94 10000 2.01 274 18:21 17.03.2020
1042 Clouds 25 1009 94 10000 2.01 274 17:56 17.03.2020
1043 Clouds 25 1009 94 10000 2.01 274 17:37 17.03.2020
1044 Clouds 25 1009 94 10000 0.98 311 17:18 17.03.2020
1045 Clouds 25 1009 94 10000 0.98 311 16:41 17.03.2020
1046 Clouds 25 1010 100 10000 0.98 311 16:19 17.03.2020
1047 Clouds 25 1010 100 10000 0.98 311 15:45 17.03.2020
1048 Clouds 25 1010 100 10000 0.98 311 15:22 17.03.2020
1049 Clouds 25 1010 100 10000 0.98 311 14:44 17.03.2020
1050 Rain 24 1009 96 0 0.98 311 14:25 17.03.2020
1051 Rain 24 1010 97 0 1.67 255 13:57 17.03.2020
1052 Rain 24 1010 97 0 1.67 255 13:39 17.03.2020
1053 Clouds 25 1011 100 10000 1.67 255 13:21 17.03.2020
1054 Clouds 25 1011 100 10000 1.15 266 12:44 17.03.2020
1055 Clouds 25 1011 100 10000 1.15 266 12:24 17.03.2020
1056 Clouds 26 1011 94 10000 1.15 266 11:48 17.03.2020
1057 Clouds 26 1011 94 10000 1.15 266 11:29 17.03.2020
1058 Clouds 26 1011 94 10000 1.35 272 10:58 17.03.2020
1059 Clouds 26 1011 94 10000 1.35 272 10:58 17.03.2020
1060 Clouds 26 1011 94 10000 1.43 304 10:40 17.03.2020
1061 Clouds 25 1010 100 10000 1.35 272 10:22 17.03.2020
1062 Clouds 25 1010 100 10000 1.35 272 09:59 17.03.2020
1063 Clouds 25 1010 100 10000 1.43 304 09:40 17.03.2020
1064 Drizzle 26 1010 94 10000 1.35 272 09:19 17.03.2020
1065 Drizzle 26 1010 94 10000 1.35 272 08:48 17.03.2020
1066 Rain 25 1011 94 0 1.35 272 08:23 17.03.2020
1067 Rain 26 1009 91 0 1.12 286 07:56 17.03.2020
1068 Rain 26 1009 91 0 1.12 286 07:38 17.03.2020
1069 Rain 26 1009 94 10000 1.12 286 07:19 17.03.2020
1070 Rain 26 1009 94 10000 1.12 286 06:38 17.03.2020
1071 Rain 26 1009 91 0 1.12 286 05:56 17.03.2020
1072 Clouds 31 1009 74 10000 1.22 316 03:56 17.03.2020
1073 Clouds 30 1010 79 10000 2.6 330 02:46 17.03.2020
1074 Clouds 32 1010 57 0 1.73 326 01:44 17.03.2020
1075 Clouds 29 1011 79 10000 3.6 320 01:25 17.03.2020
1076 Clouds 29 1011 79 10000 3.6 320 00:38 17.03.2020
1077 Clouds 27 1012 88 10000 1.67 323 23:45 16.03.2020
1078 Clouds 27 1012 88 10000 1.67 323 23:27 16.03.2020
1079 Clouds 26 1011 94 10000 1.34 349 22:41 16.03.2020
1080 Rain 25 1011 94 10000 1.34 349 22:23 16.03.2020
1081 Rain 25 1011 94 10000 1.34 349 21:57 16.03.2020
1082 Rain 25 1011 94 10000 1.34 349 21:39 16.03.2020
1083 Rain 25 1012 94 10000 1.34 349 21:21 16.03.2020
1084 Rain 25 1012 94 10000 1.34 349 20:55 16.03.2020
1085 Rain 25 1012 94 10000 1.34 349 20:37 16.03.2020
1086 Clouds 24 1011 88 0 1.43 350 20:18 16.03.2020
1087 Clouds 24 1011 88 0 1.43 350 19:40 16.03.2020
1088 Rain 25 1011 94 10000 1.43 350 19:20 16.03.2020
1089 Rain 25 1011 94 10000 1.43 350 18:43 16.03.2020
1090 Rain 25 1011 94 10000 1.43 350 18:21 16.03.2020
1091 Clouds 24 1011 88 0 1.43 350 17:55 16.03.2020
1092 Clouds 24 1011 88 0 1.43 350 17:37 16.03.2020
1093 Clouds 26 1011 94 10000 1.32 326 17:18 16.03.2020
1094 Clouds 26 1011 94 10000 1.32 326 16:42 16.03.2020
1095 Clouds 26 1011 94 10000 1.32 326 16:24 16.03.2020
1096 Clouds 26 1011 94 10000 1.32 326 15:44 16.03.2020
1097 Clouds 26 1011 88 10000 1.32 326 15:26 16.03.2020
1098 Clouds 26 1011 88 10000 1.32 326 14:49 16.03.2020
1099 Clouds 25 1010 87 0 1.32 326 14:27 16.03.2020
1100 Clouds 25 1012 87 0 1.95 344 13:57 16.03.2020
1101 Clouds 25 1012 87 0 1.95 344 13:38 16.03.2020
1102 Clouds 27 1012 83 10000 1.84 339 13:20 16.03.2020
1103 Clouds 27 1012 83 10000 1.84 339 12:44 16.03.2020
1104 Clouds 27 1012 83 10000 1.84 339 12:23 16.03.2020
1105 Clouds 27 1012 88 10000 1.84 339 11:46 16.03.2020
1106 Clouds 27 1012 88 10000 1.84 339 11:27 16.03.2020
1107 Clouds 27 1012 88 10000 1.5 335 10:55 16.03.2020
1108 Clouds 26 1012 85 0 1.5 335 10:37 16.03.2020
1109 Clouds 28 1012 83 10000 1.5 335 10:18 16.03.2020
1110 Clouds 28 1012 83 10000 1.5 335 09:40 16.03.2020
1111 Clouds 28 1010 83 10000 2.6 300 09:20 16.03.2020
1112 Clouds 28 1010 83 10000 2.6 300 08:47 16.03.2020
1113 Clouds 26 1012 85 0 1.43 325 08:24 16.03.2020
1114 Clouds 28 1010 80 0 1.69 350 07:45 16.03.2020
1115 Clouds 29 1010 83 10000 3.6 330 07:21 16.03.2020
1116 Clouds 29 1010 83 10000 3.6 330 06:46 16.03.2020
1117 Clouds 29 1010 83 10000 3.6 330 06:23 16.03.2020
1118 Clouds 31 1009 70 10000 6.2 300 04:53 16.03.2020
1119 Clouds 33 1011 57 0 4.6 345 01:49 16.03.2020
1120 Rain 31 1011 70 10000 4.6 360 00:48 16.03.2020
1121 Rain 31 1011 70 10000 4.6 360 00:28 16.03.2020
1122 Clouds 30 1011 79 10000 3.6 350 23:41 15.03.2020
1123 Clouds 27 1012 94 10000 3.59 348 23:19 15.03.2020
1124 Clouds 27 1012 94 10000 3.59 348 22:42 15.03.2020
1125 Clouds 27 1012 94 10000 3.59 348 22:42 15.03.2020
1126 Clouds 26 1011 94 10000 3.59 348 22:22 15.03.2020
1127 Clouds 26 1011 94 10000 3.59 348 21:40 15.03.2020
1128 Clouds 26 1011 94 10000 3.59 348 21:22 15.03.2020
1129 Clouds 26 1011 94 10000 3.59 348 20:58 15.03.2020
1130 Clouds 26 1011 94 10000 3.59 348 20:58 15.03.2020
1131 Clouds 26 1011 94 10000 3.59 348 20:40 15.03.2020
1132 Clouds 24 1011 95 0 1.81 346 20:20 15.03.2020
1133 Clouds 24 1011 95 0 1.81 346 19:55 15.03.2020
1134 Clouds 24 1011 95 0 1.81 346 19:55 15.03.2020
1135 Clouds 24 1011 95 0 1.81 346 19:37 15.03.2020
1136 Clouds 25 1009 100 10000 1.81 346 19:18 15.03.2020
1137 Clouds 25 1009 100 10000 1.81 346 18:42 15.03.2020
1138 Clouds 25 1009 100 10000 1.81 346 18:24 15.03.2020
1139 Clouds 25 1009 100 10000 1.81 346 17:59 15.03.2020
1140 Clouds 25 1009 100 10000 1.81 346 17:39 15.03.2020
1141 Clouds 25 1009 100 10000 1.63 339 17:20 15.03.2020
1142 Clouds 26 1009 94 10000 1.63 339 16:55 15.03.2020
1143 Clouds 26 1009 94 10000 1.63 339 16:37 15.03.2020
1144 Clouds 26 1009 94 10000 1.63 339 16:18 15.03.2020
1145 Clouds 26 1009 94 10000 1.63 339 15:42 15.03.2020
1146 Clouds 26 1010 94 10000 1.63 339 15:22 15.03.2020
1147 Clouds 26 1010 94 10000 1.63 339 14:47 15.03.2020
1148 Clouds 24 1010 95 0 1.63 339 14:28 15.03.2020
1149 Clouds 24 1011 94 0 1.92 345 13:59 15.03.2020
1150 Clouds 24 1011 94 0 1.92 345 13:39 15.03.2020
1151 Clouds 27 1011 88 10000 1.92 345 13:21 15.03.2020
1152 Clouds 27 1011 88 10000 1.81 344 12:57 15.03.2020
1153 Clouds 27 1011 88 10000 1.81 344 12:38 15.03.2020
1154 Clouds 27 1011 88 10000 1.81 344 12:20 15.03.2020
1155 Clouds 26 1011 100 10000 1.81 344 11:40 15.03.2020
1156 Clouds 26 1011 100 10000 1.81 344 11:22 15.03.2020
1157 Clouds 26 1011 100 10000 2.12 339 10:56 15.03.2020
1158 Clouds 26 1011 100 10000 2.12 339 10:37 15.03.2020
1159 Clouds 27 1010 94 10000 2.12 339 10:19 15.03.2020
1160 Clouds 27 1010 94 10000 2.12 339 09:40 15.03.2020
1161 Clouds 27 1010 94 10000 2.12 339 09:22 15.03.2020
1162 Clouds 27 1010 94 10000 2.12 339 08:44 15.03.2020
1163 Clouds 25 1011 92 0 1.68 338 08:21 15.03.2020
1164 Clouds 28 1009 79 0 3.25 359 07:51 15.03.2020
1165 Clouds 28 1009 88 10000 2.6 10 07:32 15.03.2020
1166 Clouds 28 1009 88 10000 2.6 10 06:53 15.03.2020
1167 Clouds 28 1009 88 10000 2.6 10 06:18 15.03.2020
1168 Clouds 27 1009 94 10000 3.1 360 05:19 15.03.2020
1169 Rain 25 1009 100 10000 5.1 350 04:43 15.03.2020
1170 Rain 25 1009 100 5000 7.7 340 04:24 15.03.2020
1171 Clouds 33 1008 66 10000 5.1 360 03:48 15.03.2020
1172 Clouds 32 1008 66 10000 5.1 10 02:38 15.03.2020
1173 Clouds 32 1010 60 0 4.11 20 01:34 15.03.2020
1174 Clouds 31 1010 74 10000 5.1 10 00:46 15.03.2020
1175 Clouds 31 1010 74 10000 5.1 10 00:24 15.03.2020
1176 Clouds 30 1010 74 10000 3.6 10 23:55 14.03.2020
1177 Clouds 30 1010 74 10000 3.6 10 23:36 14.03.2020
1178 Clouds 30 1010 74 10000 3.6 10 23:18 14.03.2020
1179 Clouds 29 1010 83 10000 3.6 10 22:42 14.03.2020
1180 Clouds 25 1010 94 10000 2.45 357 22:23 14.03.2020
1181 Clouds 25 1010 94 10000 2.45 357 21:56 14.03.2020
1182 Clouds 29 1011 78 0 2.45 357 21:36 14.03.2020
1183 Clouds 25 1010 94 10000 2.45 357 21:36 14.03.2020
1184 Clouds 25 1010 94 10000 2.45 357 21:18 14.03.2020
1185 Clouds 25 1010 94 10000 2.45 357 20:58 14.03.2020
1186 Clouds 25 1010 94 10000 2.45 357 20:40 14.03.2020
1187 Clouds 23 1010 95 0 1.64 351 20:19 14.03.2020
1188 Clouds 23 1010 95 0 1.64 351 19:43 14.03.2020
1189 Clouds 25 1009 100 10000 1.64 351 19:25 14.03.2020
1190 Clouds 25 1009 100 10000 1.64 351 18:42 14.03.2020
1191 Clouds 25 1009 100 10000 1.64 351 18:23 14.03.2020
1192 Clouds 25 1009 100 10000 1.64 351 17:56 14.03.2020
1193 Clouds 25 1009 100 10000 1.64 351 17:38 14.03.2020
1194 Clouds 25 1009 100 10000 1.74 328 17:20 14.03.2020
1195 Clouds 25 1009 100 10000 1.74 328 16:40 14.03.2020
1196 Clouds 25 1009 100 10000 1.74 328 16:22 14.03.2020
1197 Clouds 25 1009 100 10000 1.74 328 15:56 14.03.2020
1198 Clouds 25 1009 100 10000 1.74 328 15:26 14.03.2020
1199 Clouds 25 1009 100 10000 1.74 328 14:55 14.03.2020
1200 Clouds 25 1009 100 10000 1.74 328 14:36 14.03.2020
1201 Clouds 24 1010 95 0 1.73 326 14:18 14.03.2020
1202 Clouds 24 1010 95 0 1.73 326 13:42 14.03.2020
1203 Clouds 26 1010 94 10000 1.53 328 13:23 14.03.2020
1204 Clouds 26 1010 94 10000 1.53 328 12:47 14.03.2020
1205 Clouds 26 1010 94 10000 1.53 328 12:27 14.03.2020
1206 Clouds 26 1010 94 10000 1.53 328 12:27 14.03.2020
1207 Clouds 26 1010 88 10000 1.53 328 11:57 14.03.2020
1208 Clouds 26 1010 88 10000 1.53 328 11:38 14.03.2020
1209 Clouds 26 1010 88 10000 1.16 325 11:20 14.03.2020
1210 Clouds 26 1009 88 10000 1.16 325 10:45 14.03.2020
1211 Clouds 26 1008 88 10000 1 0 10:27 14.03.2020
1212 Clouds 26 1008 88 10000 1 0 09:57 14.03.2020
1213 Clouds 26 1008 88 10000 1 0 09:39 14.03.2020
1214 Clouds 26 1008 88 10000 1 0 09:39 14.03.2020
1215 Clouds 28 1008 83 10000 1.16 325 09:19 14.03.2020
1216 Clouds 28 1008 83 10000 1.16 325 08:42 14.03.2020
1217 Clouds 25 1010 93 0 1.42 337 08:21 14.03.2020
1218 Rain 27 1007 91 0 0.92 2 07:39 14.03.2020
1219 Clouds 26 1007 94 10000 0.92 2 07:20 14.03.2020
1220 Clouds 26 1007 94 10000 0.92 2 06:41 14.03.2020
1221 Clouds 26 1007 94 10000 0.92 2 05:47 14.03.2020
1222 Clouds 26 1007 94 10000 0.92 2 05:47 14.03.2020
1223 Rain 25 1007 100 10000 1 320 04:42 14.03.2020
1224 Clouds 31 1007 70 10000 6.2 30 03:24 14.03.2020
1225 Rain 31 1006 70 0 1.77 355 02:25 14.03.2020
1226 Clouds 32 1008 66 10000 3.6 140 00:57 14.03.2020
1227 Clouds 31 1008 70 10000 2.6 130 23:51 13.03.2020
1228 Clouds 31 1008 70 10000 2.6 130 23:30 13.03.2020
1229 Clouds 30 1009 74 10000 2.6 10 22:52 13.03.2020
1230 Clouds 30 1009 74 10000 2.6 10 22:52 13.03.2020
1231 Clouds 28 1009 83 10000 1 0 22:26 13.03.2020
1232 Clouds 28 1009 83 10000 1 0 21:44 13.03.2020
1233 Clouds 28 1009 83 10000 1 0 21:22 13.03.2020
1234 Clouds 25 1008 94 10000 2.22 341 20:59 13.03.2020
1235 Clouds 25 1008 94 10000 2.22 341 20:41 13.03.2020
1236 Clouds 26 1009 88 0 2.22 341 20:21 13.03.2020
1237 Rain 23 1008 97 0 1.42 316 19:49 13.03.2020
1238 Clouds 24 1007 100 10000 1.42 316 19:30 13.03.2020
1239 Clouds 24 1007 100 10000 1.42 316 18:51 13.03.2020
1240 Clouds 24 1007 100 10000 1.42 316 18:32 13.03.2020
1241 Clouds 24 1007 100 10000 1.42 316 17:59 13.03.2020
1242 Clouds 24 1007 100 10000 1.42 316 17:41 13.03.2020
1243 Clouds 24 1007 100 10000 1.44 328 17:20 13.03.2020
1244 Clouds 23 1007 95 0 1.44 328 16:42 13.03.2020
1245 Clouds 25 1007 94 10000 1.44 328 16:24 13.03.2020
1246 Clouds 25 1007 94 10000 1.44 328 15:59 13.03.2020
1247 Clouds 25 1007 94 10000 1.44 328 15:39 13.03.2020
1248 Clouds 25 1008 100 10000 1.44 328 15:20 13.03.2020
1249 Clouds 25 1008 100 10000 1.44 328 14:43 13.03.2020
1250 Clouds 23 1007 95 0 1.44 328 14:23 13.03.2020
1251 Clouds 24 1009 94 0 1.73 326 13:58 13.03.2020
1252 Clouds 24 1009 94 0 1.73 326 13:39 13.03.2020
1253 Clouds 26 1009 94 10000 1.7 325 13:20 13.03.2020
1254 Clouds 26 1009 94 10000 1.7 325 12:55 13.03.2020
1255 Clouds 26 1009 94 10000 1.7 325 12:36 13.03.2020
1256 Clouds 26 1009 94 10000 1.7 325 12:18 13.03.2020
1257 Clouds 27 1009 88 10000 1.7 325 11:42 13.03.2020
1258 Clouds 27 1009 88 10000 1.7 325 11:24 13.03.2020
1259 Rain 27 1009 94 10000 1.4 317 10:57 13.03.2020
1260 Rain 27 1009 94 10000 1.4 317 10:38 13.03.2020
1261 Clouds 26 1008 94 10000 1.4 317 10:20 13.03.2020
1262 Clouds 26 1008 94 10000 1.4 317 09:43 13.03.2020
1263 Clouds 29 1008 79 10000 1 290 09:24 13.03.2020
1264 Clouds 29 1008 79 10000 1 290 08:46 13.03.2020
1265 Rain 25 1007 95 0 0.45 329 08:23 13.03.2020
1266 Rain 25 1007 95 0 0.45 329 07:52 13.03.2020
1267 Clouds 30 1006 74 10000 2.1 350 07:28 13.03.2020
1268 Clouds 30 1006 74 10000 2.1 350 06:57 13.03.2020
1269 Clouds 30 1006 74 10000 2.1 350 06:32 13.03.2020
1270 Clouds 30 1007 70 10000 3.1 360 05:55 13.03.2020
1271 Clouds 30 1007 70 10000 3.1 360 05:24 13.03.2020
1272 Clouds 30 1007 74 10000 3.6 350 04:38 13.03.2020
1273 Clouds 30 1008 70 10000 2.6 360 03:42 13.03.2020
1274 Rain 28 1009 90 0 2.01 335 01:47 13.03.2020
1275 Clouds 28 1010 83 10000 1.97 326 01:19 13.03.2020
1276 Clouds 28 1010 83 10000 1.97 326 00:54 13.03.2020
1277 Clouds 28 1010 83 10000 1.97 326 00:27 13.03.2020
1278 Clouds 28 1010 88 10000 1.97 326 23:55 12.03.2020
1279 Clouds 28 1010 88 10000 1.97 326 23:28 12.03.2020
1280 Clouds 27 1010 88 10000 1.64 337 22:57 12.03.2020
1281 Clouds 27 1010 88 10000 1.64 337 22:39 12.03.2020
1282 -273 0 0 0 0 0 22:21 12.03.2020
1283 Clouds 25 1010 94 10000 1 0 21:44 12.03.2020
1284 Clouds 25 1009 100 10000 1 0 21:26 12.03.2020
1285 Clouds 25 1009 100 10000 1 0 20:57 12.03.2020
1286 Clouds 25 1009 100 10000 1 0 20:38 12.03.2020
1287 Rain 23 1008 96 0 1.35 323 20:19 12.03.2020
1288 Rain 23 1008 95 0 1.41 325 19:40 12.03.2020
1289 Clouds 25 1008 94 10000 1.41 325 19:20 12.03.2020
1290 Clouds 25 1008 94 10000 1.41 325 18:44 12.03.2020
1291 Clouds 25 1008 94 10000 1.41 325 18:24 12.03.2020
1292 Clouds 25 1008 94 10000 1.41 325 17:57 12.03.2020
1293 Clouds 25 1008 94 10000 1.41 325 17:38 12.03.2020
1294 Clouds 25 1008 94 10000 1.41 337 17:19 12.03.2020
1295 Clouds 25 1009 94 10000 1.41 337 16:55 12.03.2020
1296 Rain 23 1008 95 0 1.41 337 16:37 12.03.2020
1297 Clouds 25 1009 94 10000 1.41 337 16:18 12.03.2020
1298 Clouds 25 1009 94 10000 1.41 337 15:44 12.03.2020
1299 Clouds 25 1010 100 10000 1.41 337 15:26 12.03.2020
1300 Clouds 25 1010 100 10000 1.41 337 14:40 12.03.2020
1301 Rain 23 1008 95 0 1.41 337 14:21 12.03.2020
1302 Rain 23 1010 97 0 1.49 345 13:42 12.03.2020
1303 Clouds 25 1010 100 10000 1.49 345 13:23 12.03.2020
1304 Clouds 25 1010 100 10000 1.43 328 12:56 12.03.2020
1305 Clouds 25 1010 100 10000 1.43 328 12:38 12.03.2020
1306 Clouds 25 1010 100 10000 1.43 328 12:20 12.03.2020
1307 Clouds 25 1010 100 10000 1.43 328 11:56 12.03.2020
1308 Clouds 25 1010 100 10000 1.43 328 11:37 12.03.2020
1309 Clouds 25 1010 100 10000 1.38 346 11:19 12.03.2020
1310 Rain 25 1010 100 10000 1.38 346 10:58 12.03.2020
1311 Rain 25 1010 100 10000 1.38 346 10:40 12.03.2020
1312 Rain 25 1010 100 10000 1.38 346 10:22 12.03.2020
1313 Rain 25 1010 100 10000 1.38 346 09:45 12.03.2020
1314 Rain 25 1010 100 10000 1.38 346 09:25 12.03.2020
1315 Rain 25 1010 100 10000 1.38 346 08:43 12.03.2020
1316 Rain 25 1008 97 0 0.35 11 08:20 12.03.2020
1317 Rain 25 1008 97 0 0.35 11 07:53 12.03.2020
1318 Rain 26 1009 94 10000 3.1 10 07:24 12.03.2020
1319 Rain 26 1009 94 10000 3.1 10 06:59 12.03.2020
1320 Clouds 27 1009 88 10000 2.6 20 05:43 12.03.2020
1321 Clouds 27 1009 88 10000 2.6 20 05:21 12.03.2020
1322 Clouds 32 1009 62 10000 3.1 340 02:38 12.03.2020
1323 Clouds 30 1011 79 10000 2.1 280 01:31 12.03.2020
1324 Clouds 30 1011 79 10000 2.1 280 00:44 12.03.2020
1325 Clouds 30 1011 79 10000 2.1 280 00:26 12.03.2020
1326 Clouds 29 1011 83 10000 2.1 280 23:45 11.03.2020
1327 Clouds 29 1011 83 10000 2.1 280 23:24 11.03.2020
1328 Clouds 27 1012 88 10000 2.1 280 22:48 11.03.2020
1329 Clouds 26 1012 94 10000 2.62 331 22:29 11.03.2020
1330 Clouds 26 1012 94 10000 2.62 331 21:59 11.03.2020
1331 Clouds 26 1012 94 10000 2.62 331 21:41 11.03.2020
1332 Clouds 25 1011 94 10000 2.62 331 21:22 11.03.2020
1333 Clouds 25 1011 94 10000 2.62 331 21:22 11.03.2020
1334 Clouds 25 1011 94 10000 2.62 331 20:58 11.03.2020
1335 Clouds 25 1011 94 10000 2.62 331 20:39 11.03.2020
1336 Rain 23 1010 96 0 1.86 329 20:19 11.03.2020
1337 Clouds 23 1010 96 0 1.71 334 19:44 11.03.2020
1338 Clouds 25 1010 94 10000 1.71 334 19:25 11.03.2020
1339 Clouds 25 1010 94 10000 1.71 334 18:58 11.03.2020
1340 Clouds 25 1010 94 10000 1.71 334 18:40 11.03.2020
1341 Clouds 25 1010 94 10000 1.71 334 18:21 11.03.2020
1342 Clouds 25 1010 94 10000 1.71 334 17:57 11.03.2020
1343 Clouds 25 1010 94 10000 1.71 334 17:39 11.03.2020
1344 Clouds 25 1010 94 10000 1.63 339 17:20 11.03.2020
1345 Clouds 25 1010 100 10000 1.63 339 16:46 11.03.2020
1346 Clouds 25 1011 100 10000 1.63 339 16:22 11.03.2020
1347 Clouds 25 1011 100 10000 1.63 339 15:45 11.03.2020
1348 Clouds 25 1011 100 10000 1.63 339 15:24 11.03.2020
1349 Clouds 25 1011 100 10000 1.63 339 14:58 11.03.2020
1350 Clouds 25 1011 100 10000 1.63 339 14:40 11.03.2020
1351 Rain 24 1011 96 0 1.47 334 14:21 11.03.2020
1352 Rain 24 1011 96 0 1.47 334 13:44 11.03.2020
1353 Clouds 26 1012 94 10000 1.47 334 13:26 11.03.2020
1354 Clouds 26 1012 94 10000 1.51 336 12:58 11.03.2020
1355 Clouds 26 1012 94 10000 1.51 336 12:39 11.03.2020
1356 Clouds 26 1012 94 10000 1.51 336 12:19 11.03.2020
1357 Clouds 26 1012 94 10000 1.51 336 11:42 11.03.2020
1358 Clouds 26 1012 94 10000 1.51 336 11:24 11.03.2020
1359 Clouds 26 1012 94 10000 0.71 14 10:57 11.03.2020
1360 Clouds 26 1012 94 10000 0.71 14 10:39 11.03.2020
1361 Clouds 26 1012 94 10000 0.71 14 10:18 11.03.2020
1362 Clouds 26 1012 94 10000 0.71 14 09:41 11.03.2020
1363 Clouds 26 1011 94 10000 0.71 14 09:23 11.03.2020
1364 Clouds 26 1011 94 10000 0.71 14 08:45 11.03.2020
1365 Rain 24 1012 94 0 0.95 282 08:26 11.03.2020
1366 Rain 26 1010 94 0 0.47 248 07:48 11.03.2020
1367 Rain 26 1010 94 0 0.47 248 07:22 11.03.2020
1368 Rain 26 1010 94 0 0.47 248 06:53 11.03.2020
1369 Rain 26 1010 94 0 0.47 248 06:35 11.03.2020
1370 Rain 30 1009 79 10000 3.6 350 05:33 11.03.2020
1371 Clouds 30 1010 79 10000 1 0 03:34 11.03.2020
1372 Rain 28 1011 90 0 2.1 37 01:54 11.03.2020
1373 Rain 28 1012 83 10000 1 0 01:24 11.03.2020
1374 Rain 28 1012 83 10000 1 0 00:40 11.03.2020
1375 Clouds 29 1012 79 10000 2.6 20 23:50 10.03.2020
1376 Clouds 29 1012 79 10000 2.6 20 23:28 10.03.2020
1377 Clouds 28 1012 83 10000 1.32 332 22:58 10.03.2020
1378 Clouds 28 1012 83 10000 1.32 332 22:58 10.03.2020
1379 Rain 25 1012 93 0 1.32 332 22:37 10.03.2020
1380 Clouds 26 1012 94 10000 1.32 332 22:19 10.03.2020
1381 Clouds 26 1012 94 10000 1.32 332 21:56 10.03.2020
1382 Clouds 26 1012 94 10000 1.32 332 21:38 10.03.2020
1383 Clouds 25 1011 94 10000 1.32 332 21:19 10.03.2020
1384 Clouds 25 1011 94 10000 1.32 332 20:44 10.03.2020
1385 Clouds 23 1010 94 0 1.63 352 20:21 10.03.2020
1386 Rain 23 1010 95 0 1.38 330 19:59 10.03.2020
1387 Rain 23 1010 95 0 1.38 330 19:41 10.03.2020
1388 Clouds 24 1010 100 10000 1.38 330 19:23 10.03.2020
1389 Clouds 24 1010 100 10000 1.38 330 18:56 10.03.2020
1390 Clouds 24 1010 100 10000 1.38 330 18:37 10.03.2020
1391 Clouds 24 1010 100 10000 1.38 330 18:19 10.03.2020
1392 Clouds 24 1010 100 10000 1.38 330 17:41 10.03.2020
1393 Clouds 24 1010 100 10000 1.38 330 17:23 10.03.2020
1394 Clouds 25 1010 94 10000 1.16 314 16:57 10.03.2020
1395 Clouds 25 1010 94 10000 1.16 314 16:37 10.03.2020
1396 Clouds 25 1010 94 10000 1.16 314 16:18 10.03.2020
1397 Clouds 25 1010 94 10000 1.16 314 15:41 10.03.2020
1398 Clouds 25 1010 94 10000 1.16 314 15:20 10.03.2020
1399 Clouds 25 1010 94 10000 1.16 314 14:58 10.03.2020
1400 Clouds 25 1010 94 10000 1.16 314 14:40 10.03.2020
1401 Rain 24 1010 95 0 1.02 324 14:19 10.03.2020
1402 Rain 24 1010 95 0 1.02 324 13:43 10.03.2020
1403 Clouds 25 1011 94 10000 2.6 330 13:25 10.03.2020
1404 Clouds 25 1011 94 10000 2.6 330 12:55 10.03.2020
1405 Clouds 25 1011 94 10000 2.6 330 12:37 10.03.2020
1406 Clouds 25 1011 94 10000 2.6 330 12:18 10.03.2020
1407 Clouds 25 1011 94 10000 2.6 330 12:18 10.03.2020
1408 Rain 24 1010 95 0 0.72 319 11:42 10.03.2020
1409 Rain 25 1011 94 10000 0.72 319 11:24 10.03.2020
1410 Rain 25 1011 94 10000 1.17 268 10:54 10.03.2020
1411 Rain 25 1011 94 10000 1.17 268 10:36 10.03.2020
1412 Rain 25 1010 100 10000 1 0 10:18 10.03.2020
1413 Rain 25 1010 100 10000 1 0 09:44 10.03.2020
1414 Rain 26 1010 94 10000 1 0 09:20 10.03.2020
1415 Rain 26 1010 94 10000 1 0 08:54 10.03.2020
1416 Rain 26 1010 94 10000 1 0 08:35 10.03.2020
1417 Rain 26 1008 92 0 2.35 29 07:58 10.03.2020
1418 Rain 26 1008 92 0 2.35 29 07:40 10.03.2020
1419 Clouds 28 1009 78 10000 1 0 07:19 10.03.2020
1420 Clouds 28 1009 78 10000 1 0 06:37 10.03.2020
1421 Clouds 29 1009 74 10000 1 0 05:42 10.03.2020
1422 Clouds 29 1009 74 10000 1 0 04:59 10.03.2020
1423 Clouds 29 1009 74 10000 3.6 50 04:29 10.03.2020
1424 Clouds 30 1009 74 10000 2.1 40 02:58 10.03.2020
1425 Rain 29 1010 79 0 1.96 29 01:32 10.03.2020
1426 Clouds 29 1010 83 10000 1.5 40 00:50 10.03.2020
1427 Clouds 29 1010 83 10000 1.5 40 00:28 10.03.2020
1428 Rain 29 1010 79 0 1.96 29 23:42 09.03.2020
1429 Clouds 28 1011 83 10000 1.96 29 23:22 09.03.2020
1430 Clouds 28 1011 83 10000 1.01 358 22:57 09.03.2020
1431 Clouds 28 1011 83 10000 1.01 358 22:37 09.03.2020
1432 Clouds 26 1010 94 10000 1.01 358 22:18 09.03.2020
1433 Clouds 26 1010 94 10000 1.01 358 21:43 09.03.2020
1434 Clouds 24 1010 100 10000 1.01 358 21:22 09.03.2020
1435 Clouds 24 1010 100 10000 1.01 358 20:58 09.03.2020
1436 Clouds 24 1010 100 10000 1.01 358 20:40 09.03.2020
1437 Rain 23 1009 96 0 1 356 20:20 09.03.2020
1438 Rain 23 1009 96 0 1 356 19:45 09.03.2020
1439 Clouds 24 1009 100 10000 1 356 19:26 09.03.2020
1440 Clouds 24 1009 100 10000 1 356 18:59 09.03.2020
1441 Clouds 24 1009 100 10000 1 356 18:40 09.03.2020
1442 Clouds 24 1009 100 10000 1 356 18:20 09.03.2020
1443 Clouds 24 1009 100 10000 1 356 17:58 09.03.2020
1444 Clouds 24 1009 100 10000 1 356 17:38 09.03.2020
1445 Clouds 24 1009 100 10000 1.04 333 17:20 09.03.2020
1446 Clouds 24 1008 100 10000 1.04 333 16:58 09.03.2020
1447 Clouds 24 1008 100 10000 1.04 333 16:40 09.03.2020
1448 Clouds 25 1009 100 10000 1.04 333 16:22 09.03.2020
1449 Clouds 25 1009 100 10000 1.04 333 15:58 09.03.2020
1450 Clouds 25 1009 100 10000 1.04 333 15:39 09.03.2020
1451 Clouds 25 1009 100 10000 1.04 333 15:20 09.03.2020
1452 Clouds 25 1010 94 10000 1.04 333 14:55 09.03.2020
1453 Clouds 25 1010 94 10000 1.04 333 14:37 09.03.2020
1454 Clouds 25 1010 94 10000 1.28 336 14:18 09.03.2020
1455 Clouds 24 1010 96 0 1.28 336 13:55 09.03.2020
1456 Clouds 24 1010 96 0 1.28 336 13:37 09.03.2020
1457 Clouds 25 1011 94 10000 1.31 355 13:18 09.03.2020
1458 Clouds 25 1011 94 10000 1.31 355 13:18 09.03.2020
1459 Clouds 25 1011 94 10000 1.31 355 13:18 09.03.2020
1460 Clouds 25 1011 94 10000 1.31 355 12:42 09.03.2020
1461 Clouds 25 1011 94 10000 1.31 355 12:22 09.03.2020
1462 Clouds 25 1011 94 10000 1.31 355 12:22 09.03.2020
1463 Clouds 25 1011 94 10000 1.31 355 11:42 09.03.2020
1464 Clouds 25 1011 94 10000 1.31 355 11:22 09.03.2020
1465 Clouds 25 1010 94 10000 0.93 13 10:59 09.03.2020
1466 Clouds 25 1010 94 10000 0.93 13 10:41 09.03.2020
1467 Clouds 25 1010 94 10000 0.93 13 10:20 09.03.2020
1468 Clouds 25 1010 94 10000 2.1 270 09:59 09.03.2020
1469 Clouds 25 1010 94 10000 2.1 270 09:37 09.03.2020
1470 Clouds 25 1010 94 10000 2.1 270 09:19 09.03.2020
1471 Clouds 25 1009 100 10000 0.93 13 08:43 09.03.2020
1472 Clouds 25 1009 100 10000 0.71 6 08:25 09.03.2020
1473 Rain 25 1008 94 0 1.1 96 07:41 09.03.2020
1474 Clouds 28 1008 83 10000 3.1 70 07:21 09.03.2020
1475 Clouds 28 1008 83 10000 3.1 70 06:44 09.03.2020
1476 Clouds 28 1008 83 10000 3.1 70 06:25 09.03.2020
1477 Clouds 29 1008 83 10000 1.1 96 05:47 09.03.2020
1478 Clouds 29 1008 83 10000 1.1 96 05:22 09.03.2020
1479 Clouds 28 1008 88 10000 1.56 105 04:43 09.03.2020
1480 Clouds 28 1008 88 10000 1.56 105 04:21 09.03.2020
1481 Clouds 27 1009 94 10000 2.6 30 02:59 09.03.2020
1482 Clouds 27 1010 94 10000 4.1 130 01:26 09.03.2020
1483 Clouds 27 1010 94 10000 4.1 130 01:26 09.03.2020
1484 Clouds 27 1010 94 10000 4.1 130 00:38 09.03.2020
1485 Clouds 27 1010 94 10000 4.1 130 00:20 09.03.2020
1486 Rain 27 1011 94 10000 1.5 40 23:47 08.03.2020
1487 Rain 27 1011 94 10000 1.5 40 23:21 08.03.2020
1488 Clouds 28 1010 88 10000 1.5 40 22:55 08.03.2020
1489 Clouds 28 1010 88 10000 1.5 40 22:55 08.03.2020
1490 Clouds 28 1010 88 10000 1.5 40 22:37 08.03.2020
1491 Clouds 28 1010 88 10000 1.5 40 22:18 08.03.2020
1492 Clouds 26 1010 94 10000 1.11 137 21:42 08.03.2020
1493 Clouds 26 1010 94 10000 1.11 137 21:23 08.03.2020
1494 Clouds 26 1010 94 10000 1.11 137 21:23 08.03.2020
1495 Clouds 25 1009 94 10000 1.11 137 20:59 08.03.2020
1496 Clouds 25 1009 94 10000 1.11 137 20:39 08.03.2020
1497 Clouds 25 1009 94 10000 0.67 305 20:21 08.03.2020
1498 Rain 24 1009 95 0 0.91 283 19:41 08.03.2020
1499 Clouds 24 1009 100 10000 0.91 283 19:21 08.03.2020
1500 Clouds 24 1009 100 10000 0.91 283 18:59 08.03.2020
1501 Clouds 24 1009 100 10000 0.91 283 18:40 08.03.2020
1502 Clouds 24 1009 100 10000 0.91 283 18:21 08.03.2020
1503 Rain 24 1009 95 0 0.91 283 17:55 08.03.2020
1504 Rain 24 1009 95 0 0.91 283 17:37 08.03.2020
1505 Rain 24 1009 95 0 0.91 283 17:37 08.03.2020
1506 Clouds 24 1008 100 10000 1.31 288 17:18 08.03.2020
1507 Clouds 24 1008 100 10000 1.31 288 16:42 08.03.2020
1508 Clouds 25 1009 94 10000 1.31 288 16:23 08.03.2020
1509 Clouds 25 1009 94 10000 1.31 288 15:55 08.03.2020
1510 Clouds 25 1009 94 10000 1.31 288 15:37 08.03.2020
1511 Clouds 25 1010 94 10000 1.31 288 15:18 08.03.2020
1512 Clouds 25 1010 94 10000 1.31 288 14:40 08.03.2020
1513 Rain 24 1008 96 0 1.31 288 14:21 08.03.2020
1514 Rain 24 1010 96 0 0.97 298 13:55 08.03.2020
1515 Rain 24 1010 96 0 0.97 298 13:36 08.03.2020
1516 Clouds 25 1011 100 10000 0.6 314 13:18 08.03.2020
1517 Clouds 25 1011 100 10000 0.6 314 12:37 08.03.2020
1518 Rain 26 1011 94 10000 0.6 314 12:18 08.03.2020
1519 Rain 26 1011 94 10000 0.6 314 11:42 08.03.2020
1520 Clouds 26 1011 94 10000 0.6 314 11:23 08.03.2020
1521 Clouds 26 1011 94 10000 0.47 59 10:57 08.03.2020
1522 Clouds 26 1011 94 10000 0.47 59 10:57 08.03.2020
1523 Clouds 26 1011 94 10000 0.47 59 10:39 08.03.2020
1524 Clouds 27 1010 94 10000 0.47 59 10:21 08.03.2020
1525 Clouds 27 1010 94 10000 0.47 59 09:40 08.03.2020
1526 Clouds 27 1009 94 10000 0.47 59 09:22 08.03.2020
1527 Clouds 27 1009 94 10000 0.47 59 08:48 08.03.2020
1528 Clouds 24 1011 95 0 0.47 59 08:22 08.03.2020
1529 Rain 26 1008 92 0 0.86 88 07:49 08.03.2020
1530 Clouds 28 1008 83 10000 0.86 88 07:28 08.03.2020
1531 Clouds 28 1008 83 10000 0.86 88 06:45 08.03.2020
1532 Clouds 28 1008 83 10000 0.86 88 06:27 08.03.2020
1533 Clouds 28 1008 83 10000 0.86 88 05:43 08.03.2020
1534 Rain 28 1008 88 0 2.43 108 03:52 08.03.2020
1535 Rain 28 1008 88 0 2.43 108 02:59 08.03.2020
1536 Rain 28 1010 84 0 2 127 01:38 08.03.2020
1537 Clouds 29 1011 79 10000 2.06 125 01:19 08.03.2020
1538 Clouds 29 1011 79 10000 2.06 125 00:32 08.03.2020
1539 Clouds 30 1011 74 10000 2.06 125 23:58 07.03.2020
1540 Clouds 30 1011 74 10000 2.06 125 23:37 07.03.2020
1541 Clouds 30 1011 74 10000 1.08 207 23:18 07.03.2020
1542 Clouds 28 1011 83 10000 2.1 290 22:38 07.03.2020
1543 Clouds 28 1011 83 10000 2.1 290 22:19 07.03.2020
1544 Clouds 28 1011 83 10000 2.1 290 22:19 07.03.2020
1545 Clouds 25 1010 88 10000 2.1 290 21:45 07.03.2020
1546 Clouds 25 1010 88 10000 2.1 290 21:23 07.03.2020
1547 Clouds 24 1010 94 10000 1.08 207 20:41 07.03.2020
1548 Clouds 24 1010 94 10000 1.08 207 20:22 07.03.2020
1549 Rain 23 1009 94 0 1.33 285 19:54 07.03.2020
1550 Rain 23 1009 94 0 1.33 285 19:36 07.03.2020
1551 Clouds 23 1009 100 10000 1.33 285 19:18 07.03.2020
1552 Clouds 23 1009 100 10000 1.33 285 18:39 07.03.2020
1553 Clouds 23 1009 100 10000 1.33 285 18:21 07.03.2020
1554 Clouds 24 1009 94 10000 1.33 285 17:42 07.03.2020
1555 Clouds 24 1009 94 10000 1.19 293 17:20 07.03.2020
1556 Clouds 24 1009 94 10000 1.19 293 16:57 07.03.2020
1557 Clouds 24 1009 94 10000 1.19 293 16:57 07.03.2020
1558 Clouds 24 1009 94 10000 1.19 293 16:39 07.03.2020
1559 Clouds 24 1009 94 10000 1.19 293 16:21 07.03.2020
1560 Clouds 24 1009 100 10000 1.19 293 15:55 07.03.2020
1561 Clouds 24 1009 100 10000 1.19 293 15:37 07.03.2020
1562 Clouds 24 1009 100 10000 1.19 293 15:19 07.03.2020
1563 Clouds 24 1010 100 10000 1.19 293 14:44 07.03.2020
1564 Clouds 24 1010 100 10000 1.19 293 14:23 07.03.2020
1565 Rain 23 1010 96 0 1.09 295 13:55 07.03.2020
1566 Rain 23 1010 96 0 1.09 295 13:37 07.03.2020
1567 Clouds 25 1010 100 10000 1.09 295 13:18 07.03.2020
1568 Clouds 25 1010 100 10000 1.2 292 12:39 07.03.2020
1569 Clouds 25 1010 100 10000 1.2 292 12:19 07.03.2020
1570 Clouds 25 1010 100 10000 1.2 292 11:55 07.03.2020
1571 Clouds 25 1010 100 10000 1.2 292 11:36 07.03.2020
1572 Clouds 25 1010 100 10000 1.2 292 11:36 07.03.2020
1573 Clouds 25 1010 100 10000 0.7 341 11:18 07.03.2020
1574 Clouds 25 1010 94 10000 0.7 341 10:39 07.03.2020
1575 Clouds 25 1010 94 10000 0.7 341 10:19 07.03.2020
1576 Clouds 26 1009 94 10000 0.7 341 09:41 07.03.2020
1577 Clouds 26 1009 94 10000 0.7 341 09:20 07.03.2020
1578 Clouds 27 1009 94 10000 0.7 341 08:59 07.03.2020
1579 Clouds 27 1009 94 10000 0.7 341 08:41 07.03.2020
1580 Clouds 27 1009 94 10000 1.05 52 08:20 07.03.2020
1581 Rain 25 1008 91 0 1.05 52 07:47 07.03.2020
1582 Rain 25 1008 91 0 1.05 52 07:22 07.03.2020
1583 Rain 25 1008 91 0 1.05 52 06:52 07.03.2020
1584 Rain 25 1008 91 0 1.05 52 06:28 07.03.2020
1585 Rain 25 1008 91 0 1.05 52 05:41 07.03.2020
1586 Clouds 28 1009 83 10000 2.1 60 03:57 07.03.2020
1587 Rain 28 1007 73 0 2.15 75 02:45 07.03.2020
1588 Rain 29 1009 76 0 2.19 77 01:58 07.03.2020
1589 Clouds 27 1011 83 10000 2.1 30 01:18 07.03.2020
1590 Clouds 27 1011 83 10000 2.1 30 00:28 07.03.2020
1591 Rain 25 1011 100 10000 2.1 30 23:59 06.03.2020
1592 Rain 25 1011 100 10000 2.1 30 23:40 06.03.2020
1593 Rain 25 1011 100 10000 2.1 30 23:22 06.03.2020
1594 Clouds 25 1011 94 10000 2.1 20 22:46 06.03.2020
1595 Clouds 25 1011 94 10000 2.1 20 22:20 06.03.2020
1596 Clouds 24 1011 94 10000 1.5 20 21:47 06.03.2020
1597 Clouds 24 1011 94 10000 1.5 20 21:21 06.03.2020
1598 Clouds 24 1010 94 10000 2.1 330 20:45 06.03.2020
1599 Clouds 24 1010 94 10000 2.1 330 20:23 06.03.2020
1600 Clouds 23 1009 95 0 1.01 329 19:58 06.03.2020
1601 Clouds 23 1009 95 0 1.01 329 19:40 06.03.2020
1602 Clouds 23 1009 100 10000 1.01 329 19:21 06.03.2020
1603 Clouds 23 1009 100 10000 1.01 329 18:42 06.03.2020
1604 Clouds 23 1009 100 10000 1.01 329 18:20 06.03.2020
1605 Clouds 23 1008 100 10000 1 0 17:56 06.03.2020
1606 Clouds 23 1008 100 10000 1 0 17:38 06.03.2020
1607 Clouds 23 1008 100 10000 1 0 17:20 06.03.2020
1608 Clouds 23 1008 100 10000 1 0 16:54 06.03.2020
1609 Clouds 23 1008 100 10000 1 0 16:36 06.03.2020
1610 Clouds 23 1008 100 10000 1 0 16:18 06.03.2020
1611 Clouds 24 1008 94 10000 3.1 60 15:41 06.03.2020
1612 Clouds 24 1008 94 10000 3.1 60 15:22 06.03.2020
1613 Rain 24 1010 100 8000 4.6 40 14:40 06.03.2020
1614 Rain 24 1010 100 8000 4.6 40 14:22 06.03.2020
1615 Rain 24 1009 94 0 0.99 37 13:55 06.03.2020
1616 Rain 24 1009 94 0 0.99 37 13:36 06.03.2020
1617 Rain 24 1009 94 0 0.99 37 13:18 06.03.2020
1618 Clouds 23 1009 95 0 0.8 29 12:40 06.03.2020
1619 Clouds 23 1009 95 0 0.8 29 12:20 06.03.2020
1620 Clouds 23 1009 95 0 0.8 29 11:59 06.03.2020
1621 Clouds 23 1009 95 0 0.8 29 11:40 06.03.2020
1622 Clouds 26 1010 100 10000 0.97 35 11:20 06.03.2020
1623 Clouds 26 1010 100 10000 0.97 35 10:42 06.03.2020
1624 Clouds 26 1010 100 10000 0.97 35 10:21 06.03.2020
1625 Clouds 27 1009 88 10000 0.97 35 09:58 06.03.2020
1626 Clouds 27 1009 88 10000 0.97 35 09:39 06.03.2020
1627 Clouds 27 1009 88 10000 0.97 35 09:21 06.03.2020
1628 Clouds 27 1009 94 10000 0.97 35 08:47 06.03.2020
1629 Clouds 27 1009 94 10000 0.97 35 08:28 06.03.2020
1630 Clouds 27 1008 80 0 1.48 90 07:59 06.03.2020
1631 Clouds 27 1008 80 0 1.48 90 07:39 06.03.2020
1632 Rain 28 1007 83 10000 1.48 90 07:20 06.03.2020
1633 Rain 28 1007 83 10000 1.48 90 06:41 06.03.2020
1634 Clouds 30 1007 74 10000 1.48 90 05:50 06.03.2020
1635 Clouds 30 1007 74 10000 1.48 90 05:31 06.03.2020
1636 Clouds 29 1007 79 10000 2.72 87 04:58 06.03.2020
1637 Clouds 28 1008 83 10000 3.1 70 02:56 06.03.2020
1638 Clouds 31 1009 60 0 1.97 92 01:42 06.03.2020
1639 Clouds 29 1009 79 10000 2.1 90 01:23 06.03.2020
1640 Clouds 29 1009 79 10000 2.1 90 00:39 06.03.2020
1641 Clouds 29 1009 79 10000 2.1 90 00:19 06.03.2020
1642 Clouds 27 1010 88 10000 1 0 23:42 05.03.2020
1643 Clouds 27 1010 88 10000 1 0 23:22 05.03.2020
1644 Clouds 26 1010 94 10000 2.1 140 22:41 05.03.2020
1645 Clouds 26 1010 94 10000 2.1 140 22:23 05.03.2020
1646 Clouds 25 1010 94 10000 0.23 238 21:58 05.03.2020
1647 Clouds 25 1010 94 10000 0.23 238 21:39 05.03.2020
1648 Clouds 25 1010 94 10000 0.23 238 21:21 05.03.2020
1649 Clouds 24 1009 100 10000 0.23 238 20:59 05.03.2020
1650 Clouds 24 1009 100 10000 0.23 238 20:40 05.03.2020
1651 Clouds 24 1009 100 10000 0.72 303 20:20 05.03.2020
1652 Clouds 23 1009 95 0 0.72 303 19:58 05.03.2020
1653 Clouds 24 1008 100 10000 0.72 303 19:39 05.03.2020
1654 Clouds 24 1008 100 10000 0.72 303 19:19 05.03.2020
1655 Clouds 24 1008 100 10000 0.72 303 18:55 05.03.2020
1656 Clouds 24 1008 100 10000 0.72 303 18:36 05.03.2020
1657 Clouds 24 1008 100 10000 0.72 303 18:18 05.03.2020
1658 Rain 24 1008 100 10000 0.72 303 17:42 05.03.2020
1659 Rain 24 1008 100 10000 0.72 303 17:42 05.03.2020
1660 Rain 24 1008 100 10000 0.72 303 17:22 05.03.2020
1661 Clouds 25 1008 94 10000 0.25 312 16:57 05.03.2020
1662 Clouds 25 1008 94 10000 0.25 312 16:38 05.03.2020
1663 Clouds 25 1008 94 10000 0.25 312 16:19 05.03.2020
1664 Clouds 25 1009 94 10000 2.1 330 15:45 05.03.2020
1665 Clouds 25 1009 94 10000 2.1 330 15:23 05.03.2020
1666 Rain 25 1010 94 10000 3.1 330 14:59 05.03.2020
1667 Rain 25 1010 94 10000 3.1 330 14:40 05.03.2020
1668 Rain 25 1010 94 10000 3.1 330 14:21 05.03.2020
1669 Rain 24 1009 94 0 0.21 34 13:56 05.03.2020
1670 Rain 24 1009 94 0 0.21 34 13:37 05.03.2020
1671 Clouds 26 1010 94 10000 0.37 70 13:19 05.03.2020
1672 Clouds 26 1010 94 10000 0.37 70 12:41 05.03.2020
1673 Clouds 26 1010 94 10000 0.37 70 12:20 05.03.2020
1674 Clouds 26 1010 94 10000 0.37 70 11:57 05.03.2020
1675 Clouds 26 1010 94 10000 0.37 70 11:37 05.03.2020
1676 Clouds 26 1010 94 10000 0.97 76 11:19 05.03.2020
1677 Clouds 27 1010 88 10000 1 0 10:57 05.03.2020
1678 Clouds 27 1010 88 10000 1 0 10:39 05.03.2020
1679 Clouds 27 1010 88 10000 1 0 10:20 05.03.2020
1680 Clouds 28 1009 83 10000 2.6 100 09:45 05.03.2020
1681 Clouds 28 1009 83 10000 2.6 100 09:45 05.03.2020
1682 Clouds 28 1009 83 10000 2.6 100 09:27 05.03.2020
1683 Clouds 28 1009 83 10000 0.97 76 08:48 05.03.2020
1684 Clouds 28 1009 83 10000 0.97 76 08:30 05.03.2020
1685 Rain 26 1008 93 0 1.26 102 07:50 05.03.2020
1686 Drizzle 28 1008 78 10000 5.1 90 07:23 05.03.2020
1687 Drizzle 28 1008 78 10000 5.1 90 06:59 05.03.2020
1688 Drizzle 28 1008 78 10000 5.1 90 06:41 05.03.2020
1689 Drizzle 28 1008 78 10000 5.1 90 06:19 05.03.2020
1690 Clouds 29 1007 79 10000 4.1 110 05:32 05.03.2020
1691 Clouds 30 1007 70 10000 4.6 120 04:23 05.03.2020
1692 Clouds 31 1007 62 10000 4.1 100 03:58 05.03.2020
1693 Clouds 31 1008 66 10000 4.1 100 02:25 05.03.2020
1694 Clouds 31 1008 74 10000 3.6 90 01:24 05.03.2020
1695 Clouds 31 1008 74 10000 3.6 90 00:43 05.03.2020
1696 Clouds 30 1009 70 10000 2.1 90 23:56 04.03.2020
1697 Clouds 30 1009 70 10000 2.1 90 23:38 04.03.2020
1698 Clouds 30 1009 70 10000 2.1 90 23:19 04.03.2020
1699 Clouds 29 1009 83 10000 1.79 71 22:40 04.03.2020
1700 Clouds 29 1009 83 10000 1.79 71 22:19 04.03.2020
1701 Clouds 26 1009 94 10000 1.79 71 21:59 04.03.2020
1702 Clouds 26 1009 94 10000 1.79 71 21:41 04.03.2020
1703 Clouds 26 1009 94 10000 1.79 71 21:20 04.03.2020
1704 Rain 25 1009 94 10000 1.79 71 20:57 04.03.2020
1705 Rain 25 1009 94 10000 1.79 71 20:39 04.03.2020
1706 Rain 25 1009 94 10000 0.51 10 20:20 04.03.2020
1707 Clouds 23 1008 94 0 0.51 10 19:42 04.03.2020
1708 Clouds 24 1008 100 10000 0.51 10 19:24 04.03.2020
1709 Clouds 24 1008 100 10000 0.51 10 18:57 04.03.2020
1710 Clouds 24 1008 100 10000 0.51 10 18:37 04.03.2020
1711 Clouds 24 1008 100 10000 0.51 10 18:18 04.03.2020
1712 Clouds 24 1008 100 10000 0.51 10 17:55 04.03.2020
1713 Clouds 24 1008 100 10000 0.51 10 17:37 04.03.2020
1714 Clouds 24 1008 100 10000 0.76 339 17:19 04.03.2020
1715 Clouds 24 1008 100 10000 0.76 339 16:44 04.03.2020
1716 Clouds 24 1008 100 10000 0.76 339 16:25 04.03.2020
1717 Clouds 25 1008 100 10000 0.76 339 15:59 04.03.2020
1718 Clouds 25 1008 100 10000 0.76 339 15:40 04.03.2020
1719 Clouds 25 1008 100 10000 0.76 339 15:21 04.03.2020
1720 Clouds 25 1009 94 10000 0.76 339 14:55 04.03.2020
1721 Clouds 25 1009 94 10000 0.76 339 14:36 04.03.2020
1722 Clouds 25 1009 94 10000 0.59 12 14:18 04.03.2020
1723 Clouds 23 1009 92 0 0.59 12 13:55 04.03.2020
1724 Clouds 23 1009 92 0 0.59 12 13:36 04.03.2020
1725 Clouds 26 1010 88 10000 0.77 359 13:18 04.03.2020
1726 Clouds 26 1010 88 10000 0.77 359 12:43 04.03.2020
1727 Clouds 26 1010 88 10000 0.77 359 12:24 04.03.2020
1728 Clouds 27 1010 83 10000 0.77 359 11:55 04.03.2020
1729 Clouds 27 1010 83 10000 0.77 359 11:37 04.03.2020
1730 Clouds 27 1010 83 10000 0.89 60 11:19 04.03.2020
1731 Clouds 27 1009 83 10000 1.5 110 10:45 04.03.2020
1732 Clouds 27 1009 83 10000 1.5 110 10:25 04.03.2020
1733 Clouds 28 1008 78 10000 2.1 120 09:58 04.03.2020
1734 Clouds 28 1008 78 10000 2.1 120 09:39 04.03.2020
1735 Clouds 28 1008 78 10000 2.1 120 09:19 04.03.2020
1736 Clouds 28 1008 78 10000 2.6 100 08:42 04.03.2020
1737 Clouds 28 1008 78 10000 2.6 100 08:24 04.03.2020
1738 Clouds 26 1007 78 0 1.68 77 07:48 04.03.2020
1739 Clouds 31 1007 62 10000 3.6 100 07:29 04.03.2020
1740 Clouds 31 1007 62 10000 3.6 100 06:53 04.03.2020
1741 Clouds 31 1007 62 10000 3.6 100 06:26 04.03.2020
1742 Clouds 31 1007 62 10000 3.6 100 06:26 04.03.2020
1743 Clouds 31 1006 62 10000 4.1 60 05:58 04.03.2020
1744 Clouds 31 1006 62 10000 4.1 60 05:21 04.03.2020
1745 Clouds 32 1007 55 10000 3.1 60 03:54 04.03.2020
1746 Clouds 32 1007 55 10000 3.1 60 03:35 04.03.2020
1747 Clouds 32 1007 62 10000 3.6 50 02:58 04.03.2020
1748 Clouds 32 1007 62 10000 3.6 50 02:27 04.03.2020
1749 Clouds 30 1007 62 0 2.77 73 01:56 04.03.2020
1750 Clouds 30 1007 62 0 2.77 73 01:33 04.03.2020
1751 Clouds 31 1008 55 10000 3.1 70 00:41 04.03.2020
1752 Clouds 31 1008 55 10000 3.1 70 00:22 04.03.2020
1753 Clouds 30 1008 70 10000 1.5 60 23:43 03.03.2020
1754 Clouds 30 1008 70 10000 1.5 60 23:23 03.03.2020
1755 Clouds 29 1009 79 10000 1.5 330 22:56 03.03.2020
1756 Clouds 29 1009 79 10000 1.5 330 22:37 03.03.2020
1757 Clouds 29 1009 79 10000 1.5 330 22:19 03.03.2020
1758 Clouds 26 1008 88 10000 1.23 50 21:43 03.03.2020
1759 Clouds 26 1008 88 10000 1.23 50 21:22 03.03.2020
1760 Clouds 23 1008 100 10000 1.23 50 20:58 03.03.2020
1761 Clouds 23 1008 100 10000 1.23 50 20:39 03.03.2020
1762 Clouds 23 1008 100 10000 0.8 310 20:19 03.03.2020
1763 Clouds 22 1007 93 0 0.8 310 19:56 03.03.2020
1764 Clouds 22 1007 93 0 1.07 301 19:37 03.03.2020
1765 Clouds 22 1007 93 0 1.07 301 19:37 03.03.2020
1766 Clouds 23 1007 100 10000 1.07 301 19:18 03.03.2020
1767 Clouds 23 1007 100 10000 1.07 301 18:56 03.03.2020
1768 Clouds 23 1007 100 10000 1.07 301 18:38 03.03.2020
1769 Clouds 23 1007 100 10000 0.8 310 18:19 03.03.2020
1770 Clouds 23 1007 100 10000 1.07 301 17:54 03.03.2020
1771 Clouds 23 1007 100 10000 0.8 310 17:36 03.03.2020
1772 Clouds 23 1007 100 10000 1 302 17:18 03.03.2020
1773 Clouds 24 1007 94 10000 1.11 295 16:39 03.03.2020
1774 Clouds 24 1007 94 10000 1.11 295 16:21 03.03.2020
1775 Clouds 24 1007 94 10000 1.11 295 15:59 03.03.2020
1776 Clouds 24 1007 94 10000 1 302 15:59 03.03.2020
1777 Clouds 24 1007 94 10000 1.11 295 15:41 03.03.2020
1778 Clouds 24 1007 94 10000 1.11 295 15:20 03.03.2020
1779 Clouds 24 1008 94 10000 1.11 295 14:43 03.03.2020
1780 Clouds 24 1008 94 10000 1.11 295 14:21 03.03.2020
1781 Clouds 22 1008 93 0 0.94 303 13:59 03.03.2020
1782 Clouds 22 1008 93 0 0.94 303 13:41 03.03.2020
1783 Clouds 24 1009 100 10000 0.94 303 13:23 03.03.2020
1784 Clouds 24 1009 100 10000 0.94 303 12:49 03.03.2020
1785 Clouds 24 1009 100 10000 0.94 303 12:27 03.03.2020
1786 Clouds 24 1009 100 10000 0.94 303 11:59 03.03.2020
1787 Clouds 24 1009 100 10000 0.94 303 11:38 03.03.2020
1788 Clouds 24 1009 100 10000 0.48 319 11:19 03.03.2020
1789 Clouds 25 1009 94 10000 0.48 319 10:56 03.03.2020
1790 Clouds 25 1009 94 10000 0.48 319 10:38 03.03.2020
1791 Clouds 25 1009 94 10000 0.48 319 10:19 03.03.2020
1792 Clouds 26 1008 83 10000 0.48 319 09:45 03.03.2020
1793 Clouds 26 1008 83 10000 0.48 319 09:23 03.03.2020
1794 Clouds 27 1008 88 10000 0.48 319 08:59 03.03.2020
1795 Clouds 27 1008 88 10000 0.48 319 08:39 03.03.2020
1796 Clouds 27 1008 88 10000 0.48 319 08:39 03.03.2020
1797 Clouds 27 1008 88 10000 1.23 121 08:21 03.03.2020
1798 Clouds 26 1006 77 0 1.23 121 07:44 03.03.2020
1799 Clouds 30 1006 66 10000 2.6 140 07:23 03.03.2020
1800 Clouds 30 1006 66 10000 2.6 140 06:53 03.03.2020
1801 Clouds 30 1006 66 10000 2.6 140 06:25 03.03.2020
1802 Clouds 30 1006 66 10000 2.6 150 05:48 03.03.2020
1803 Clouds 30 1006 66 10000 2.6 150 05:29 03.03.2020
1804 Clouds 31 1006 58 10000 3.6 110 04:37 03.03.2020
1805 Clouds 29 1008 62 0 2.7 119 01:40 03.03.2020
1806 Clouds 30 1009 66 10000 3.1 110 00:49 03.03.2020
1807 Clouds 30 1009 66 10000 3.1 110 00:27 03.03.2020
1808 Clouds 30 1009 66 10000 2.6 100 23:59 02.03.2020
1809 Clouds 30 1009 66 10000 2.6 100 23:41 02.03.2020
1810 Clouds 30 1009 66 10000 2.6 100 23:22 02.03.2020
1811 Clouds 30 1009 74 10000 2.6 90 22:55 02.03.2020
1812 Clouds 30 1009 74 10000 2.6 90 22:37 02.03.2020
1813 Clouds 30 1009 74 10000 2.6 90 22:19 02.03.2020
1814 Clouds 26 1009 94 10000 2.1 120 21:42 02.03.2020
1815 Clouds 26 1009 94 10000 2.1 120 21:24 02.03.2020
1816 Clouds 24 1009 94 10000 2.06 110 20:59 02.03.2020
1817 Clouds 24 1009 94 10000 2.06 110 20:41 02.03.2020
1818 Clouds 24 1009 94 10000 0.76 106 20:21 02.03.2020
1819 Clouds 23 1008 92 0 0.76 106 19:57 02.03.2020
1820 Clouds 23 1008 92 0 0.76 106 19:39 02.03.2020
1821 Clouds 25 1008 100 10000 0.76 106 19:20 02.03.2020
1822 Clouds 25 1008 100 10000 0.76 106 18:54 02.03.2020
1823 Clouds 25 1008 100 10000 0.76 106 18:36 02.03.2020
1824 Clouds 25 1008 100 10000 0.76 106 18:18 02.03.2020
1825 Clouds 25 1008 100 10000 0.76 106 17:54 02.03.2020
1826 Clouds 25 1008 100 10000 0.76 106 17:36 02.03.2020
1827 Clouds 25 1008 100 10000 1.05 132 17:18 02.03.2020
1828 Clouds 25 1009 94 10000 1.05 132 16:39 02.03.2020
1829 Clouds 25 1009 94 10000 1.05 132 16:20 02.03.2020
1830 Clouds 26 1009 94 10000 1.05 132 15:44 02.03.2020
1831 Clouds 26 1009 94 10000 1.05 132 15:21 02.03.2020
1832 Clouds 26 1010 94 10000 1.05 132 14:56 02.03.2020
1833 Clouds 26 1010 94 10000 1.05 132 14:37 02.03.2020
1834 Clouds 26 1010 94 10000 1.05 132 14:37 02.03.2020
1835 Clouds 26 1010 94 10000 0.59 73 14:18 02.03.2020
1836 Rain 24 1009 95 0 0.59 73 13:40 02.03.2020
1837 Clouds 27 1010 83 10000 0.61 89 13:19 02.03.2020
1838 Clouds 27 1010 83 10000 0.61 89 12:55 02.03.2020
1839 Clouds 27 1010 83 10000 0.61 89 12:36 02.03.2020
1840 Clouds 27 1010 83 10000 0.61 89 12:18 02.03.2020
1841 Clouds 27 1010 83 10000 0.61 89 11:38 02.03.2020
1842 Clouds 27 1010 83 10000 0.72 136 11:19 02.03.2020
1843 Clouds 28 1010 83 10000 0.72 136 10:55 02.03.2020
1844 Clouds 28 1010 83 10000 0.72 136 10:36 02.03.2020
1845 Clouds 28 1010 83 10000 0.72 136 10:18 02.03.2020
1846 Clouds 28 1010 78 10000 4.1 90 09:44 02.03.2020
1847 Clouds 28 1010 78 10000 4.1 90 09:25 02.03.2020
1848 Clouds 28 1009 78 10000 2.6 100 08:47 02.03.2020
1849 Clouds 28 1009 78 10000 2.6 100 08:22 02.03.2020
1850 Rain 25 1008 92 0 1.96 118 07:44 02.03.2020
1851 Clouds 29 1008 79 10000 2.6 100 07:20 02.03.2020
1852 Clouds 29 1008 79 10000 2.6 100 06:47 02.03.2020
1853 Clouds 29 1008 83 10000 2.6 120 05:55 02.03.2020
1854 Clouds 26 1008 94 10000 2.6 110 04:26 02.03.2020
1855 Rain 27 1008 88 10000 7.2 130 03:23 02.03.2020
1856 Clouds 31 1008 70 10000 6.2 130 02:49 02.03.2020
1857 Rain 27 1009 88 0 2.68 112 01:52 02.03.2020
1858 Rain 27 1009 87 0 2.49 117 01:31 02.03.2020
1859 Rain 30 1010 79 10000 6.2 130 00:24 02.03.2020
1860 Clouds 31 1010 74 10000 5.1 120 23:58 01.03.2020
1861 Clouds 31 1010 74 10000 5.1 120 23:40 01.03.2020
1862 Clouds 31 1010 74 10000 5.1 120 23:20 01.03.2020
1863 Clouds 30 1010 79 10000 2.6 140 22:43 01.03.2020
1864 Clouds 30 1010 79 10000 2.6 140 22:20 01.03.2020
1865 Clouds 27 1010 94 10000 1 0 21:56 01.03.2020
1866 Clouds 27 1010 94 10000 1 0 21:38 01.03.2020
1867 Clouds 27 1010 94 10000 1 0 21:19 01.03.2020
1868 Clouds 25 1010 94 10000 2.17 120 20:44 01.03.2020
1869 Clouds 25 1010 94 10000 2.23 112 20:25 01.03.2020
1870 Rain 24 1009 95 0 1.01 107 19:56 01.03.2020
1871 Rain 24 1009 95 0 1.01 107 19:37 01.03.2020
1872 Clouds 24 1009 100 10000 1.01 107 19:19 01.03.2020
1873 Clouds 24 1009 100 10000 1.01 107 18:41 01.03.2020
1874 Clouds 24 1009 100 10000 1.01 107 18:20 01.03.2020
1875 Clouds 24 1008 100 10000 1.01 107 17:58 01.03.2020
1876 Clouds 24 1008 100 10000 1.01 107 17:40 01.03.2020
1877 Clouds 24 1008 100 10000 0.7 118 17:21 01.03.2020
1878 Clouds 24 1009 100 10000 0.7 118 16:57 01.03.2020
1879 Clouds 24 1009 100 10000 0.7 118 16:39 01.03.2020
1880 Clouds 24 1009 100 10000 0.7 118 16:19 01.03.2020
1881 Clouds 25 1009 94 10000 0.7 118 15:57 01.03.2020
1882 Clouds 25 1009 94 10000 0.7 118 15:39 01.03.2020
1883 Clouds 25 1009 94 10000 0.7 118 15:20 01.03.2020
1884 Clouds 25 1010 94 10000 0.7 118 14:57 01.03.2020
1885 Clouds 25 1010 94 10000 0.7 118 14:57 01.03.2020
1886 Clouds 25 1010 94 10000 0.7 118 14:38 01.03.2020
1887 Clouds 25 1010 94 10000 0.66 152 14:20 01.03.2020
1888 Rain 24 1010 94 0 0.66 152 13:56 01.03.2020
1889 Rain 24 1010 94 0 0.66 152 13:37 01.03.2020
1890 Rain 24 1010 94 0 0.66 152 13:37 01.03.2020
1891 Clouds 26 1011 94 10000 0.92 140 13:18 01.03.2020
1892 Clouds 26 1011 94 10000 0.91 154 12:42 01.03.2020
1893 Clouds 26 1011 94 10000 0.91 154 12:21 01.03.2020
1894 Clouds 26 1011 94 10000 0.92 140 11:43 01.03.2020
1895 Clouds 26 1011 94 10000 0.91 154 11:25 01.03.2020
1896 Clouds 26 1011 88 10000 0.51 144 10:57 01.03.2020
1897 Clouds 26 1011 88 10000 0.51 144 10:38 01.03.2020
1898 Clouds 26 1011 88 10000 0.77 120 10:20 01.03.2020
1899 Clouds 27 1011 83 10000 0.51 144 09:58 01.03.2020
1900 Clouds 27 1011 83 10000 0.77 120 09:58 01.03.2020
1901 Clouds 27 1011 83 10000 0.51 144 09:40 01.03.2020
1902 Clouds 27 1011 83 10000 0.51 144 09:21 01.03.2020
1903 Clouds 28 1010 78 10000 0.77 120 08:42 01.03.2020
1904 Clouds 28 1010 78 10000 0.77 120 08:21 01.03.2020
1905 Rain 27 1009 85 0 1.75 131 07:43 01.03.2020
1906 Clouds 31 1009 66 10000 6.2 130 07:24 01.03.2020
1907 Clouds 31 1009 66 10000 6.2 130 06:58 01.03.2020
1908 Clouds 31 1009 66 10000 6.2 130 06:38 01.03.2020
1909 Clouds 32 1010 62 10000 3.6 120 04:27 01.03.2020
1910 Clouds 32 1010 62 10000 3.6 120 04:27 01.03.2020
1911 Clouds 32 1010 59 10000 5.1 80 02:55 01.03.2020
1912 Rain 30 1011 74 0 2.53 161 01:54 01.03.2020
1913 Rain 30 1011 74 0 2.53 161 01:31 01.03.2020
1914 Clouds 32 1011 66 10000 3.1 80 00:45 01.03.2020
1915 Clouds 32 1011 66 10000 3.1 80 00:22 01.03.2020
1916 Clouds 31 1011 70 10000 1 0 23:54 29.02.2020
1917 Clouds 31 1011 70 10000 1 0 23:33 29.02.2020
1918 Clouds 29 1011 79 10000 2.1 270 22:45 29.02.2020
1919 Clouds 29 1011 79 10000 2.1 270 22:25 29.02.2020
1920 Clouds 26 1011 94 10000 1.64 245 21:44 29.02.2020
1921 Clouds 26 1011 94 10000 1.64 245 21:26 29.02.2020
1922 Clouds 24 1011 100 10000 1.64 245 20:45 29.02.2020
1923 Clouds 24 1011 100 10000 1.55 264 20:22 29.02.2020
1924 Clouds 23 1010 90 0 1.55 264 19:59 29.02.2020
1925 Clouds 23 1010 90 0 1.55 264 19:41 29.02.2020
1926 Clouds 24 1010 100 10000 1.55 264 19:22 29.02.2020
1927 Clouds 24 1010 100 10000 1.55 264 18:56 29.02.2020
1928 Clouds 24 1010 100 10000 1.55 264 18:38 29.02.2020
1929 Clouds 24 1010 100 10000 1.55 264 18:19 29.02.2020
1930 Clouds 24 1010 100 10000 1.55 264 17:54 29.02.2020
1931 Clouds 24 1010 100 10000 1.55 264 17:54 29.02.2020
1932 Clouds 24 1010 100 10000 1.55 264 17:36 29.02.2020
1933 Clouds 24 1010 100 10000 1.55 264 17:36 29.02.2020
1934 Clouds 24 1010 100 10000 1.36 260 17:18 29.02.2020
1935 Clouds 24 1010 100 10000 1.36 260 16:42 29.02.2020
1936 Clouds 24 1010 100 10000 1.36 260 16:18 29.02.2020
1937 Clouds 26 1010 94 10000 1.36 260 15:42 29.02.2020
1938 Clouds 26 1010 94 10000 1.36 260 15:24 29.02.2020
1939 Clouds 26 1010 100 10000 1.36 260 14:56 29.02.2020
1940 Clouds 26 1010 100 10000 1.36 260 14:38 29.02.2020
1941 Clouds 26 1010 100 10000 0.93 233 14:20 29.02.2020
1942 Clouds 26 1011 100 10000 0.93 233 13:42 29.02.2020
1943 Clouds 26 1011 100 10000 0.93 233 13:23 29.02.2020
1944 Clouds 27 1011 88 10000 0.93 233 12:43 29.02.2020
1945 Clouds 27 1011 88 10000 0.93 233 12:23 29.02.2020
1946 Rain 27 1011 88 10000 2.1 230 11:59 29.02.2020
1947 Rain 27 1011 88 10000 2.1 230 11:40 29.02.2020
1948 Rain 27 1011 88 10000 2.1 230 11:22 29.02.2020
1949 Clouds 27 1011 88 10000 1.28 187 10:49 29.02.2020
1950 Clouds 27 1011 88 10000 1.28 187 10:29 29.02.2020
1951 Clouds 27 1011 88 10000 1.28 187 10:29 29.02.2020
1952 Clouds 27 1010 88 10000 1.28 187 09:51 29.02.2020
1953 Clouds 27 1010 88 10000 1.28 187 09:27 29.02.2020
1954 Clouds 28 1010 83 10000 1.28 187 08:58 29.02.2020
1955 Clouds 28 1010 83 10000 1.28 187 08:38 29.02.2020
1956 Clouds 28 1010 83 10000 1.63 172 08:19 29.02.2020
1957 Clouds 27 1009 80 0 1.63 172 07:45 29.02.2020
1958 Clouds 30 1009 70 10000 3.6 180 07:19 29.02.2020
1959 Clouds 30 1009 70 10000 3.6 180 06:50 29.02.2020
1960 Clouds 30 1009 70 10000 3.6 180 06:26 29.02.2020
1961 Clouds 31 1008 62 10000 3.6 160 05:48 29.02.2020
1962 Clouds 31 1008 62 10000 3.6 160 05:18 29.02.2020
1963 Clouds 32 1009 59 10000 3.6 160 03:43 29.02.2020
1964 Clouds 32 1009 59 10000 3.6 160 03:22 29.02.2020
1965 Clouds 31 1010 70 10000 3.6 160 02:39 29.02.2020
1966 Clouds 31 1010 70 10000 3.6 160 02:39 29.02.2020
1967 Clouds 31 1011 66 10000 2.1 120 01:26 29.02.2020
1968 Clouds 31 1011 66 10000 2.1 120 00:37 29.02.2020
1969 Clouds 30 1011 74 10000 2.6 120 23:56 28.02.2020
1970 Clouds 30 1011 74 10000 2.6 120 23:36 28.02.2020
1971 Clouds 30 1011 74 10000 2.6 120 23:18 28.02.2020
1972 Clouds 30 1012 74 10000 1.52 165 22:41 28.02.2020
1973 Clouds 30 1012 74 10000 1.52 165 22:19 28.02.2020
1974 Clouds 28 1011 83 10000 1.52 165 21:41 28.02.2020
1975 Clouds 28 1011 83 10000 1.52 165 21:21 28.02.2020
1976 Clouds 27 1011 88 10000 1.52 165 20:54 28.02.2020
1977 Clouds 27 1011 88 10000 1.52 165 20:36 28.02.2020
1978 Clouds 27 1011 88 10000 1.23 209 20:18 28.02.2020
1979 Clouds 25 1010 92 0 1.23 209 19:55 28.02.2020
1980 Clouds 25 1010 92 0 1.23 209 19:37 28.02.2020
1981 Clouds 26 1010 94 10000 1.23 209 19:18 28.02.2020
1982 Clouds 26 1010 94 10000 1.23 209 18:43 28.02.2020
1983 Clouds 26 1010 94 10000 1.23 209 18:22 28.02.2020
1984 Clouds 26 1010 94 10000 1.23 209 17:41 28.02.2020
1985 Clouds 26 1010 94 10000 1.23 209 17:23 28.02.2020
1986 Clouds 27 1010 88 10000 1.12 223 16:55 28.02.2020
1987 Clouds 27 1010 88 10000 1.12 223 16:36 28.02.2020
1988 Clouds 27 1010 88 10000 1.12 223 16:18 28.02.2020
1989 Clouds 28 1010 83 10000 1.12 223 15:42 28.02.2020
1990 Clouds 28 1010 83 10000 1.12 223 15:20 28.02.2020
1991 Clouds 28 1011 83 10000 1.12 223 14:58 28.02.2020
1992 Clouds 28 1011 83 10000 1.12 223 14:39 28.02.2020
1993 Clouds 28 1011 83 10000 0.76 263 14:19 28.02.2020
1994 Clouds 24 1011 92 0 0.76 263 13:57 28.02.2020
1995 Clouds 24 1011 92 0 0.76 263 13:39 28.02.2020
1996 Clouds 27 1011 94 10000 0.76 263 13:19 28.02.2020
1997 Clouds 27 1011 94 10000 0.78 268 12:41 28.02.2020
1998 Clouds 27 1011 94 10000 0.78 268 12:22 28.02.2020
1999 Clouds 28 1011 88 10000 0.78 268 11:43 28.02.2020
2000 Clouds 28 1011 88 10000 0.78 268 11:24 28.02.2020
2001 Clouds 28 1011 88 10000 0.23 102 10:59 28.02.2020
2002 Clouds 28 1011 88 10000 0.23 102 10:39 28.02.2020
2003 Clouds 28 1011 88 10000 0.23 102 10:20 28.02.2020
2004 Clouds 28 1010 88 10000 0.23 102 09:46 28.02.2020
2005 Clouds 28 1010 88 10000 0.23 102 09:21 28.02.2020
2006 Clouds 29 1009 79 10000 0.23 102 08:56 28.02.2020
2007 Clouds 29 1009 79 10000 0.23 102 08:37 28.02.2020
2008 Clouds 29 1009 79 10000 1.42 50 08:18 28.02.2020
2009 Clouds 27 1009 84 0 1.42 50 07:40 28.02.2020
2010 Clouds 31 1008 70 10000 1.42 50 07:20 28.02.2020
2011 Clouds 31 1008 70 10000 1.42 50 06:44 28.02.2020
2012 Clouds 32 1008 62 10000 1.42 50 05:51 28.02.2020
2013 Clouds 32 1009 62 10000 2.1 100 04:34 28.02.2020
2014 Clouds 33 1009 63 10000 2.6 80 03:48 28.02.2020
2015 Clouds 32 1010 62 10000 2.6 70 02:46 28.02.2020
2016 Clouds 32 1010 62 10000 2.6 70 02:46 28.02.2020
2017 Clouds 32 1010 62 10000 2.6 70 02:25 28.02.2020
2018 Rain 30 1012 70 10000 3.1 70 00:46 28.02.2020
2019 Rain 30 1012 70 10000 3.1 70 00:25 28.02.2020
2020 Clouds 31 1012 70 10000 2.19 118 23:42 27.02.2020
2021 Clouds 31 1012 70 10000 0.67 198 23:19 27.02.2020
2022 Clouds 29 1012 79 10000 0.67 198 22:43 27.02.2020
2023 Clouds 29 1012 79 10000 0.67 198 22:24 27.02.2020
2024 Clouds 27 1011 88 10000 0.67 198 21:56 27.02.2020
2025 Clouds 27 1011 88 10000 0.67 198 21:38 27.02.2020
2026 Clouds 27 1011 88 10000 0.67 198 21:18 27.02.2020
2027 Clouds 25 1010 100 10000 0.67 198 20:56 27.02.2020
2028 Clouds 25 1010 100 10000 0.67 198 20:56 27.02.2020
2029 Clouds 25 1010 100 10000 0.67 198 20:37 27.02.2020
2030 Clouds 25 1010 100 10000 0.67 198 20:37 27.02.2020
2031 Clouds 25 1010 100 10000 0.72 276 20:19 27.02.2020
2032 Clouds 23 1009 94 0 0.82 291 19:42 27.02.2020
2033 Clouds 24 1009 100 10000 0.82 291 19:23 27.02.2020
2034 Clouds 24 1009 100 10000 0.82 291 18:58 27.02.2020
2035 Clouds 24 1009 100 10000 0.82 291 18:40 27.02.2020
2036 Clouds 24 1009 100 10000 0.82 291 18:20 27.02.2020
2037 Clouds 24 1009 100 10000 0.82 291 17:56 27.02.2020
2038 Clouds 24 1009 100 10000 0.82 291 17:38 27.02.2020
2039 Clouds 24 1009 100 10000 0.93 265 17:19 27.02.2020
2040 Clouds 24 1009 100 10000 0.93 265 16:54 27.02.2020
2041 Clouds 24 1009 100 10000 0.93 265 16:36 27.02.2020
2042 Clouds 24 1009 100 10000 0.93 265 16:18 27.02.2020
2043 Clouds 24 1010 100 10000 0.93 265 15:40 27.02.2020
2044 Clouds 24 1010 100 10000 0.93 265 15:21 27.02.2020
2045 Clouds 24 1010 100 10000 0.93 265 15:21 27.02.2020
2046 Clouds 25 1010 94 10000 0.93 265 14:59 27.02.2020
2047 Clouds 25 1010 94 10000 0.93 265 14:40 27.02.2020
2048 Clouds 25 1010 94 10000 0.44 245 14:21 27.02.2020
2049 Clouds 24 1010 91 0 0.44 245 13:55 27.02.2020
2050 Clouds 24 1010 91 0 0.44 245 13:37 27.02.2020
2051 Clouds 25 1011 100 10000 0.44 245 13:19 27.02.2020
2052 Clouds 25 1011 100 10000 0.6 231 12:43 27.02.2020
2053 Clouds 25 1011 100 10000 0.6 231 12:19 27.02.2020
2054 Clouds 26 1011 94 10000 0.6 231 11:46 27.02.2020
2055 Clouds 26 1011 94 10000 0.6 231 11:23 27.02.2020
2056 Clouds 27 1011 88 10000 0.77 202 10:56 27.02.2020
2057 Clouds 27 1011 88 10000 0.77 202 10:37 27.02.2020
2058 Clouds 27 1011 88 10000 0.77 202 10:18 27.02.2020
2059 Clouds 27 1010 88 10000 0.77 202 09:41 27.02.2020
2060 Clouds 27 1010 88 10000 0.77 202 09:22 27.02.2020
2061 Clouds 28 1009 83 10000 0.77 202 08:44 27.02.2020
2062 Clouds 28 1009 83 10000 0.77 202 08:25 27.02.2020
2063 Clouds 27 1009 81 0 1.71 158 07:48 27.02.2020
2064 Clouds 29 1008 79 10000 3.1 150 07:28 27.02.2020
2065 Clouds 29 1008 79 10000 3.1 150 06:59 27.02.2020
2066 Clouds 29 1008 79 10000 3.1 150 06:20 27.02.2020
2067 Clouds 31 1008 70 10000 3.6 140 04:22 27.02.2020
2068 Clouds 31 1009 70 10000 3.1 150 02:54 27.02.2020
2069 Clouds 31 1010 70 10000 2.6 140 00:47 27.02.2020
2070 Clouds 31 1010 70 10000 2.6 140 00:29 27.02.2020
2071 Clouds 31 1010 70 10000 2.6 110 23:41 26.02.2020
2072 Clouds 31 1010 70 10000 2.6 110 23:20 26.02.2020
2073 Clouds 29 1010 83 10000 1.58 146 22:58 26.02.2020
2074 Clouds 29 1010 83 10000 1.58 146 22:58 26.02.2020
2075 Clouds 29 1010 83 10000 1.58 146 22:39 26.02.2020
2076 Clouds 29 1010 83 10000 1.58 146 22:21 26.02.2020
2077 Clouds 27 1010 94 10000 1.58 146 21:56 26.02.2020
2078 Clouds 27 1010 94 10000 1.58 146 21:38 26.02.2020
2079 Clouds 27 1010 94 10000 1.58 146 21:18 26.02.2020
2080 Clouds 26 1009 94 10000 1 0 20:55 26.02.2020
2081 Clouds 26 1009 94 10000 1 0 20:37 26.02.2020
2082 Clouds 26 1009 94 10000 1 0 20:18 26.02.2020
2083 Rain 24 1009 94 0 0.6 162 19:46 26.02.2020
2084 Clouds 25 1009 100 10000 2.1 320 19:21 26.02.2020
2085 Clouds 25 1009 100 10000 2.1 320 18:59 26.02.2020
2086 Clouds 25 1009 100 10000 2.1 320 18:40 26.02.2020
2087 Clouds 25 1009 100 10000 2.1 320 18:22 26.02.2020
2088 Clouds 25 1008 100 10000 1 0 17:56 26.02.2020
2089 Clouds 25 1008 100 10000 1 0 17:37 26.02.2020
2090 Clouds 25 1008 100 10000 1 0 17:18 26.02.2020
2091 Clouds 26 1008 94 10000 0.44 189 16:43 26.02.2020
2092 Clouds 26 1008 94 10000 0.44 189 16:22 26.02.2020
2093 Clouds 26 1009 94 10000 1.5 310 15:56 26.02.2020
2094 Clouds 26 1009 94 10000 1.5 310 15:37 26.02.2020
2095 Clouds 26 1009 94 10000 1.5 310 15:18 26.02.2020
2096 Clouds 26 1010 94 10000 1 0 14:42 26.02.2020
2097 Clouds 26 1010 94 10000 1 0 14:22 26.02.2020
2098 Rain 25 1010 95 0 0.94 227 13:43 26.02.2020
2099 Clouds 26 1010 100 10000 0.89 216 13:22 26.02.2020
2100 Clouds 26 1010 100 10000 0.89 216 12:42 26.02.2020
2101 Clouds 26 1010 100 10000 0.89 216 12:23 26.02.2020
2102 Clouds 26 1010 100 10000 0.89 216 11:59 26.02.2020
2103 Clouds 26 1010 100 10000 0.89 216 11:41 26.02.2020
2104 Clouds 26 1010 100 10000 0.89 216 11:22 26.02.2020
2105 Clouds 27 1010 94 10000 1.5 300 10:43 26.02.2020
2106 Clouds 27 1010 94 10000 1.5 300 10:24 26.02.2020
2107 Clouds 27 1009 94 10000 0.77 233 09:59 26.02.2020
2108 Clouds 27 1009 94 10000 0.77 233 09:41 26.02.2020
2109 Clouds 27 1009 94 10000 0.77 233 09:21 26.02.2020
2110 Clouds 27 1009 94 10000 0.77 233 08:54 26.02.2020
2111 Clouds 27 1009 94 10000 0.77 233 08:36 26.02.2020
2112 Clouds 27 1009 94 10000 1.29 191 08:18 26.02.2020
2113 Rain 26 1008 92 0 1.29 191 07:41 26.02.2020
2114 Rain 27 1007 88 10000 3.1 180 07:21 26.02.2020
2115 Rain 27 1007 88 10000 3.1 180 06:48 26.02.2020
2116 Rain 27 1007 88 10000 3.1 180 06:27 26.02.2020
2117 Clouds 30 1007 74 10000 3.6 160 05:48 26.02.2020
2118 Clouds 30 1007 74 10000 3.6 160 05:19 26.02.2020
2119 Clouds 30 1007 79 10000 4.1 200 03:34 26.02.2020
2120 Rain 30 1009 69 0 2.75 160 01:59 26.02.2020
2121 Rain 30 1009 69 0 2.75 160 01:34 26.02.2020
2122 Clouds 29 1009 83 10000 1 0 00:46 26.02.2020
2123 Clouds 29 1009 83 10000 1 0 00:46 26.02.2020
2124 Clouds 29 1009 83 10000 1 0 00:21 26.02.2020
2125 Clouds 28 1009 88 10000 1.5 230 23:42 25.02.2020
2126 Clouds 28 1009 88 10000 1.5 230 23:24 25.02.2020
2127 Clouds 28 1009 88 10000 2.6 170 22:57 25.02.2020
2128 Clouds 28 1009 88 10000 2.6 170 22:37 25.02.2020
2129 Clouds 28 1009 88 10000 2.6 170 22:18 25.02.2020
2130 Clouds 27 1009 94 10000 2.6 150 21:38 25.02.2020
2131 Clouds 27 1009 94 10000 2.6 150 21:20 25.02.2020
2132 Rain 26 1009 94 10000 2.1 168 20:57 25.02.2020
2133 Rain 26 1009 94 10000 2.1 168 20:39 25.02.2020
2134 Rain 26 1009 94 10000 1.32 183 20:20 25.02.2020
2135 Rain 24 1008 95 0 1.25 184 19:56 25.02.2020
2136 Rain 24 1008 95 0 1.25 184 19:37 25.02.2020
2137 Clouds 25 1008 100 10000 1.25 184 19:18 25.02.2020
2138 Clouds 25 1008 100 10000 1.25 184 18:40 25.02.2020
2139 Clouds 25 1008 100 10000 1.25 184 18:21 25.02.2020
2140 Clouds 25 1008 100 10000 1.25 184 18:21 25.02.2020
2141 Clouds 26 1008 94 10000 1.5 230 17:56 25.02.2020
2142 Clouds 26 1008 94 10000 1.5 230 17:37 25.02.2020
2143 Clouds 26 1008 94 10000 1.5 230 17:18 25.02.2020
2144 Clouds 26 1008 94 10000 1.5 170 16:56 25.02.2020
2145 Clouds 26 1008 94 10000 1.5 170 16:37 25.02.2020
2146 Clouds 26 1008 94 10000 1.5 170 16:19 25.02.2020
2147 Clouds 26 1008 94 10000 1.34 184 15:45 25.02.2020
2148 Clouds 26 1008 94 10000 1.34 184 15:20 25.02.2020
2149 Clouds 26 1009 94 10000 1.34 184 14:59 25.02.2020
2150 Clouds 26 1009 94 10000 1.34 184 14:39 25.02.2020
2151 Clouds 26 1009 94 10000 1.39 199 14:18 25.02.2020
2152 Clouds 26 1009 94 10000 1.39 199 14:18 25.02.2020
2153 Rain 24 1009 96 0 1.39 199 13:58 25.02.2020
2154 Rain 24 1009 96 0 1.39 199 13:40 25.02.2020
2155 Clouds 27 1010 88 10000 1 0 13:20 25.02.2020
2156 Clouds 27 1010 88 10000 1 0 12:59 25.02.2020
2157 Clouds 27 1010 88 10000 1 0 12:39 25.02.2020
2158 Clouds 27 1010 88 10000 1 0 12:20 25.02.2020
2159 Clouds 27 1010 88 10000 2.6 150 11:56 25.02.2020
2160 Clouds 27 1010 88 10000 2.6 150 11:37 25.02.2020
2161 Clouds 27 1010 88 10000 2.6 150 11:18 25.02.2020
2162 Clouds 27 1009 88 10000 1 0 10:42 25.02.2020
2163 Clouds 27 1009 88 10000 1 0 10:23 25.02.2020
2164 Clouds 27 1009 88 10000 1 0 09:43 25.02.2020
2165 Clouds 27 1009 88 10000 1 0 09:23 25.02.2020
2166 Clouds 29 1009 79 10000 1.5 170 09:00 25.02.2020
2167 Clouds 29 1009 79 10000 1.5 170 08:41 25.02.2020
2168 Clouds 29 1009 79 10000 1.5 170 08:22 25.02.2020
2169 Rain 27 1008 84 0 2.55 161 07:48 25.02.2020
2170 Clouds 28 1007 88 10000 3.1 170 07:23 25.02.2020
2171 Clouds 28 1007 88 10000 3.1 170 06:53 25.02.2020
2172 Rain 27 1007 94 10000 3.1 170 05:44 25.02.2020
2173 Clouds 29 1008 79 10000 2.6 190 03:56 25.02.2020
2174 Clouds 29 1008 79 10000 1.5 160 02:32 25.02.2020
2175 Clouds 29 1009 74 10000 2.6 200 00:57 25.02.2020
2176 Clouds 29 1009 74 10000 2.6 200 00:30 25.02.2020
2177 Clouds 30 1009 70 10000 3.1 200 23:47 24.02.2020
2178 Clouds 30 1009 70 10000 3.1 200 23:28 24.02.2020
2179 Clouds 27 1009 78 10000 1.5 280 22:56 24.02.2020
2180 Clouds 27 1009 78 10000 1.5 280 22:36 24.02.2020
2181 Clouds 27 1009 78 10000 1.5 280 22:18 24.02.2020
2182 Clouds 25 1009 88 10000 2.1 280 21:54 24.02.2020
2183 Clouds 25 1009 88 10000 2.1 280 21:36 24.02.2020
2184 Clouds 25 1009 88 10000 2.1 280 21:18 24.02.2020
2185 Clouds 22 1009 94 10000 1.2 228 20:41 24.02.2020
2186 Clouds 22 1009 94 10000 1.45 283 20:20 24.02.2020
2187 Clouds 22 1009 94 10000 1.55 282 20:20 24.02.2020
2188 Clouds 21 1008 93 0 1.55 282 19:58 24.02.2020
2189 Clouds 21 1008 93 0 1.55 282 19:40 24.02.2020
2190 Clouds 22 1008 94 10000 2.1 290 19:22 24.02.2020
2191 Clouds 22 1008 94 10000 2.1 290 18:56 24.02.2020
2192 Clouds 22 1008 94 10000 2.1 290 18:37 24.02.2020
2193 Clouds 22 1008 94 10000 2.1 290 18:19 24.02.2020
2194 Clouds 22 1008 94 10000 2.6 330 17:42 24.02.2020
2195 Clouds 22 1008 94 10000 2.6 330 17:20 24.02.2020
2196 Clouds 22 1008 94 10000 2.1 330 16:58 24.02.2020
2197 Clouds 22 1008 94 10000 2.1 330 16:39 24.02.2020
2198 Clouds 22 1008 94 10000 2.1 330 16:20 24.02.2020
2199 Clouds 22 1008 94 10000 1.5 330 15:58 24.02.2020
2200 Clouds 22 1008 94 10000 1.5 330 15:39 24.02.2020
2201 Clouds 22 1008 94 10000 1.5 330 15:21 24.02.2020
2202 Clouds 22 1009 94 10000 1.5 340 14:58 24.02.2020
2203 Clouds 22 1009 94 10000 1.5 340 14:58 24.02.2020
2204 Clouds 22 1009 94 10000 1.5 340 14:39 24.02.2020
2205 Clouds 22 1009 94 10000 1.5 340 14:19 24.02.2020
2206 Clear 22 1009 90 0 1.11 269 13:56 24.02.2020
2207 Clear 22 1009 90 0 1.11 269 13:36 24.02.2020
2208 Clouds 24 1010 88 10000 1.5 270 13:18 24.02.2020
2209 Clouds 24 1010 88 10000 1.5 270 13:18 24.02.2020
2210 Clouds 24 1010 88 10000 1.5 270 12:43 24.02.2020
2211 Clouds 24 1010 88 10000 1.5 270 12:43 24.02.2020
2212 Clouds 24 1010 88 10000 1.5 270 12:24 24.02.2020
2213 Clouds 26 1010 78 10000 0.93 264 11:56 24.02.2020
2214 Clouds 26 1010 78 10000 0.93 264 11:38 24.02.2020
2215 Clouds 26 1010 78 10000 0.87 214 11:19 24.02.2020
2216 Clouds 26 1009 78 10000 1 210 10:41 24.02.2020
2217 Clouds 26 1009 78 10000 1 210 10:22 24.02.2020
2218 Clouds 26 1009 74 10000 1.5 200 09:40 24.02.2020
2219 Clouds 26 1009 74 10000 1.5 200 09:19 24.02.2020
2220 Clouds 27 1009 69 10000 2.1 180 08:53 24.02.2020
2221 Clouds 27 1009 69 10000 2.1 180 08:30 24.02.2020
2222 Clear 26 1008 77 0 2.44 197 07:56 24.02.2020
2223 Clear 26 1008 77 0 2.44 197 07:36 24.02.2020
2224 Clear 26 1008 77 0 2.44 197 07:36 24.02.2020
2225 Clouds 29 1008 58 10000 3.6 190 06:55 24.02.2020
2226 Clouds 29 1008 58 10000 3.6 190 06:28 24.02.2020
2227 Clouds 29 1008 54 10000 4.1 190 05:46 24.02.2020
2228 Clouds 29 1008 54 10000 4.1 190 05:27 24.02.2020
2229 Clouds 30 1009 62 10000 3.1 230 02:58 24.02.2020
2230 Clouds 30 1009 62 10000 3.1 230 02:31 24.02.2020
2231 Clear 29 1009 61 0 3.06 188 01:39 24.02.2020
2232 Clouds 29 1010 62 10000 2.1 220 00:50 24.02.2020
2233 Clouds 29 1010 62 10000 2.1 220 00:21 24.02.2020
2234 Clouds 29 1010 66 10000 3.1 230 23:55 23.02.2020
2235 Clouds 29 1010 66 10000 3.1 230 23:36 23.02.2020
2236 Clouds 29 1010 66 10000 3.1 230 23:18 23.02.2020
2237 Clouds 28 1010 65 10000 3.1 220 22:42 23.02.2020
2238 Clouds 28 1010 65 10000 3.1 220 22:22 23.02.2020
2239 Clouds 28 1010 69 10000 2.1 190 21:55 23.02.2020
2240 Clouds 28 1010 69 10000 2.1 190 21:36 23.02.2020
2241 Clouds 28 1010 69 10000 2.1 190 21:18 23.02.2020
2242 Clouds 23 1009 94 10000 1.71 190 20:55 23.02.2020
2243 Clouds 23 1009 94 10000 1.71 190 20:36 23.02.2020
2244 Clouds 23 1009 94 10000 1.26 198 20:18 23.02.2020
2245 Clouds 22 1009 85 0 1.26 198 19:41 23.02.2020
2246 Clouds 23 1009 94 10000 1.5 330 19:20 23.02.2020
2247 Clouds 23 1009 94 10000 1.5 330 18:59 23.02.2020
2248 Clouds 23 1009 94 10000 1.5 330 18:40 23.02.2020
2249 Clouds 23 1009 94 10000 1.5 330 18:20 23.02.2020
2250 Clouds 23 1009 94 10000 1.5 320 17:58 23.02.2020
2251 Clouds 23 1009 94 10000 1.5 320 17:39 23.02.2020
2252 -273 0 0 0 0 0 17:21 23.02.2020
2253 Clouds 23 1009 94 10000 1.5 320 17:21 23.02.2020
2254 Clouds 24 1009 94 10000 1.41 223 16:56 23.02.2020
2255 Clouds 24 1009 94 10000 1.41 223 16:36 23.02.2020
2256 Clouds 24 1009 94 10000 1.41 223 16:18 23.02.2020
2257 Clouds 25 1009 88 10000 1.41 223 15:40 23.02.2020
2258 Clouds 25 1009 88 10000 1.41 223 15:22 23.02.2020
2259 Clouds 25 1010 88 10000 1 340 14:59 23.02.2020
2260 Clouds 25 1010 88 10000 1 340 14:41 23.02.2020
2261 Clouds 25 1010 88 10000 1 340 14:23 23.02.2020
2262 Clouds 23 1010 91 0 1.43 185 13:58 23.02.2020
2263 Clouds 23 1010 91 0 1.43 185 13:39 23.02.2020
2264 Clouds 26 1011 78 10000 1.4 192 13:21 23.02.2020
2265 Clouds 26 1011 78 10000 1.4 192 12:44 23.02.2020
2266 Clouds 26 1011 78 10000 1.4 192 12:24 23.02.2020
2267 Clouds 26 1011 78 10000 1.5 180 11:59 23.02.2020
2268 Clouds 26 1011 78 10000 1.5 180 11:38 23.02.2020
2269 Clouds 26 1011 78 10000 1.5 180 11:19 23.02.2020
2270 Clouds 27 1011 74 10000 1.5 150 10:56 23.02.2020
2271 Clouds 27 1011 74 10000 1.5 150 10:56 23.02.2020
2272 Clouds 27 1011 74 10000 1.5 150 10:37 23.02.2020
2273 Clouds 27 1011 74 10000 1.5 150 10:19 23.02.2020
2274 Clouds 27 1010 74 10000 2.6 170 09:40 23.02.2020
2275 Clouds 27 1010 74 10000 2.6 170 09:21 23.02.2020
2276 Clouds 27 1010 74 10000 2.1 180 08:57 23.02.2020
2277 Clouds 27 1010 74 10000 2.1 180 08:39 23.02.2020
2278 Clouds 27 1010 74 10000 2.1 180 08:19 23.02.2020
2279 Rain 25 1009 79 0 2.45 178 07:40 23.02.2020
2280 Rain 25 1009 79 0 2.45 178 07:40 23.02.2020
2281 Clouds 27 1009 78 10000 3.1 170 06:54 23.02.2020
2282 Rain 27 1009 83 10000 3.6 180 05:54 23.02.2020
2283 Clouds 29 1009 70 10000 3.1 160 04:48 23.02.2020
2284 Clouds 29 1010 70 10000 3.1 170 03:35 23.02.2020
2285 Clouds 28 1010 78 10000 1.5 100 02:35 23.02.2020
2286 Clouds 28 1011 78 10000 1.5 310 01:25 23.02.2020
2287 Clouds 28 1011 78 10000 1.5 310 00:49 23.02.2020
2288 Clouds 28 1011 78 10000 1.5 310 00:27 23.02.2020
2289 Clouds 28 1011 78 10000 1.5 310 00:27 23.02.2020
2290 Clouds 27 1011 83 10000 2.19 146 23:48 22.02.2020
2291 Clouds 27 1011 83 10000 2.19 146 23:30 22.02.2020
2292 Clouds 28 1011 78 10000 1.5 350 23:00 22.02.2020
2293 Clouds 28 1011 78 10000 1.5 350 22:40 22.02.2020
2294 Clouds 28 1011 78 10000 1.5 350 22:18 22.02.2020
2295 Clouds 25 1011 94 10000 2.6 310 21:41 22.02.2020
2296 Clouds 25 1011 94 10000 2.6 310 21:23 22.02.2020
2297 Clouds 24 1011 94 10000 1.5 290 20:46 22.02.2020
2298 Clouds 24 1011 94 10000 1.5 290 20:25 22.02.2020
2299 Rain 22 1010 92 0 0.24 254 19:58 22.02.2020
2300 Rain 22 1010 92 0 0.24 254 19:39 22.02.2020
2301 Clouds 24 1010 94 10000 0.24 254 19:20 22.02.2020
2302 Clouds 24 1010 94 10000 0.24 254 18:40 22.02.2020
2303 Clouds 24 1010 94 10000 0.24 254 18:22 22.02.2020
2304 Rain 23 1010 100 10000 2.1 150 17:58 22.02.2020
2305 Rain 23 1010 100 10000 2.1 150 17:39 22.02.2020
2306 Rain 23 1010 100 10000 2.1 150 17:21 22.02.2020
2307 Clouds 23 1010 100 10000 0.69 108 16:57 22.02.2020
2308 Clouds 23 1010 100 10000 0.69 108 16:39 22.02.2020
2309 Clouds 23 1010 100 10000 0.69 108 16:20 22.02.2020
2310 Clouds 23 1010 100 10000 0.69 108 16:20 22.02.2020
2311 Clouds 23 1011 94 10000 0.69 108 15:43 22.02.2020
2312 Clouds 23 1011 94 10000 0.69 108 15:25 22.02.2020
2313 Clouds 24 1012 94 10000 0.69 108 14:45 22.02.2020
2314 Clouds 24 1012 94 10000 0.69 108 14:24 22.02.2020
2315 Clouds 23 1012 91 0 0.17 65 13:59 22.02.2020
2316 Clouds 23 1012 91 0 0.17 65 13:40 22.02.2020
2317 Clouds 25 1012 88 10000 0.17 124 13:19 22.02.2020
2318 Clouds 25 1012 88 10000 0.17 124 12:44 22.02.2020
2319 Clouds 25 1012 88 10000 0.17 124 12:24 22.02.2020
2320 Clouds 25 1012 88 10000 0.17 124 12:24 22.02.2020
2321 Clouds 26 1012 83 10000 1.5 110 11:55 22.02.2020
2322 Clouds 26 1012 83 10000 1.5 110 11:36 22.02.2020
2323 Clouds 26 1012 83 10000 1.5 110 11:18 22.02.2020
2324 Clouds 26 1012 78 10000 1.5 110 10:40 22.02.2020
2325 Clouds 26 1012 78 10000 1.5 110 10:20 22.02.2020
2326 Clouds 27 1011 74 10000 2.1 120 09:58 22.02.2020
2327 Clouds 27 1011 74 10000 2.1 120 09:39 22.02.2020
2328 Clouds 27 1011 74 10000 2.1 120 09:20 22.02.2020
2329 Clouds 28 1010 69 10000 2.6 110 08:47 22.02.2020
2330 Clouds 28 1010 69 10000 2.6 110 08:28 22.02.2020
2331 Clouds 26 1009 80 0 2.6 107 07:48 22.02.2020
2332 Clouds 29 1009 74 10000 4.1 120 07:19 22.02.2020
2333 Clouds 29 1009 74 10000 4.1 120 06:47 22.02.2020
2334 Clouds 29 1009 74 10000 4.1 120 06:28 22.02.2020
2335 Clouds 31 1009 58 10000 4.1 130 04:33 22.02.2020
2336 Clouds 31 1010 62 10000 4.1 130 03:21 22.02.2020
2337 Clouds 30 1010 62 10000 5.1 100 02:28 22.02.2020
2338 Rain 29 1010 64 0 3.54 93 01:43 22.02.2020
2339 Clouds 30 1011 66 10000 5.1 110 01:24 22.02.2020
2340 Clouds 30 1011 66 10000 5.1 110 00:43 22.02.2020
2341 Clouds 30 1011 66 10000 5.1 110 00:24 22.02.2020
2342 Clouds 30 1011 66 10000 5.7 100 23:43 21.02.2020
2343 Clouds 30 1011 66 10000 5.7 100 23:21 21.02.2020
2344 Clouds 27 1011 83 10000 2.73 91 22:45 21.02.2020
2345 Clouds 27 1011 83 10000 2.73 91 22:27 21.02.2020
2346 Clouds 25 1011 88 10000 1.5 280 21:58 21.02.2020
2347 Clouds 25 1011 88 10000 1.5 280 21:40 21.02.2020
2348 Clouds 25 1011 88 10000 1.5 280 21:21 21.02.2020
2349 Clouds 23 1011 88 10000 2.1 350 20:48 21.02.2020
2350 Clouds 23 1011 88 10000 2.1 350 20:27 21.02.2020
2351 Clouds 22 1010 91 0 0.72 301 19:41 21.02.2020
2352 Clouds 22 1010 100 10000 1.5 310 19:23 21.02.2020
2353 Clouds 22 1010 100 10000 1.5 310 18:55 21.02.2020
2354 Clouds 22 1010 100 10000 1.5 310 18:55 21.02.2020
2355 Clouds 22 1010 100 10000 1.5 310 18:36 21.02.2020
2356 Clouds 22 1010 100 10000 1.5 310 18:18 21.02.2020
2357 Clouds 23 1010 94 10000 1.5 320 17:39 21.02.2020
2358 Clouds 23 1010 94 10000 1.5 320 17:21 21.02.2020
2359 Clouds 23 1010 94 10000 2.1 320 16:57 21.02.2020
2360 Clouds 23 1010 94 10000 2.1 320 16:39 21.02.2020
2361 Clouds 23 1010 94 10000 2.1 320 16:20 21.02.2020
2362 Clouds 23 1010 94 10000 1.5 320 15:44 21.02.2020
2363 Clouds 23 1010 94 10000 1.5 320 15:19 21.02.2020
2364 Clouds 23 1011 94 10000 1.5 310 14:55 21.02.2020
2365 Clouds 23 1011 94 10000 1.5 310 14:37 21.02.2020
2366 Clouds 23 1011 94 10000 1.5 310 14:18 21.02.2020
2367 Clear 22 1011 91 0 0.62 335 13:42 21.02.2020
2368 Clouds 24 1012 94 10000 1.5 330 13:21 21.02.2020
2369 Clouds 24 1012 94 10000 1.5 330 12:47 21.02.2020
2370 Clouds 24 1012 94 10000 1.5 330 12:27 21.02.2020
2371 Clouds 25 1012 94 10000 0.79 328 11:59 21.02.2020
2372 Clouds 25 1012 94 10000 0.79 328 11:40 21.02.2020
2373 Clouds 25 1012 94 10000 0.4 46 11:21 21.02.2020
2374 Clouds 26 1011 83 10000 0.4 46 10:55 21.02.2020
2375 Clouds 26 1011 83 10000 0.4 46 10:36 21.02.2020
2376 Clouds 26 1011 83 10000 0.4 46 10:18 21.02.2020
2377 Clouds 27 1010 78 10000 0.4 46 09:42 21.02.2020
2378 Clouds 27 1010 78 10000 0.4 46 09:23 21.02.2020
2379 Clouds 27 1009 74 10000 0.4 46 08:56 21.02.2020
2380 Clouds 27 1009 74 10000 0.4 46 08:37 21.02.2020
2381 Clouds 27 1009 74 10000 1.79 104 08:19 21.02.2020
2382 Clear 26 1008 75 0 1.79 104 07:43 21.02.2020
2383 Clouds 30 1008 62 10000 4.6 110 07:22 21.02.2020
2384 Clouds 30 1008 62 10000 4.6 110 06:57 21.02.2020
2385 Clouds 30 1008 62 10000 4.6 110 06:33 21.02.2020
2386 Clouds 30 1007 62 10000 4.1 110 05:58 21.02.2020
2387 Clouds 30 1007 62 10000 4.1 110 05:31 21.02.2020
2388 Clouds 31 1008 55 10000 3.1 130 04:26 21.02.2020
2389 Clouds 31 1008 58 10000 4.6 120 03:52 21.02.2020
2390 Clouds 30 1009 62 10000 4.1 110 02:59 21.02.2020
2391 Clear 30 1009 57 0 2.31 95 01:44 21.02.2020
2392 Clouds 30 1010 62 10000 2.6 100 01:22 21.02.2020
2393 Clouds 30 1010 62 10000 2.6 100 00:39 21.02.2020
2394 Clouds 30 1010 62 10000 2.6 100 00:39 21.02.2020
2395 Clouds 30 1010 62 10000 2.6 100 00:19 21.02.2020
2396 Clouds 29 1010 74 10000 1 0 23:41 20.02.2020
2397 Clouds 29 1010 74 10000 1 0 23:22 20.02.2020
2398 Clouds 28 1010 74 10000 0.82 120 22:42 20.02.2020
2399 Clouds 28 1010 74 10000 0.82 120 22:23 20.02.2020
2400 Clouds 25 1010 88 10000 1 0 21:58 20.02.2020
2401 Clouds 25 1010 88 10000 1 0 21:39 20.02.2020
2402 Clouds 25 1010 88 10000 1 0 21:39 20.02.2020
2403 Clouds 25 1010 88 10000 1 0 21:20 20.02.2020
2404 Clouds 22 1009 100 10000 1.5 320 20:56 20.02.2020
2405 Clouds 22 1009 100 10000 1.5 320 20:38 20.02.2020
2406 Clouds 22 1009 100 10000 1.5 320 20:19 20.02.2020
2407 Clouds 22 1009 100 10000 1.5 320 20:19 20.02.2020
2408 Clouds 22 1009 100 10000 1.5 320 20:19 20.02.2020
2409 Clear 21 1009 89 0 1.03 288 19:58 20.02.2020
2410 Clear 21 1009 89 0 1.03 288 19:40 20.02.2020
2411 Clouds 22 1008 100 10000 2.1 320 19:22 20.02.2020
2412 Clouds 22 1008 100 10000 2.1 320 18:55 20.02.2020
2413 Clouds 22 1008 100 10000 2.1 320 18:37 20.02.2020
2414 Clouds 22 1008 100 10000 2.1 320 18:18 20.02.2020
2415 Clouds 22 1008 100 10000 2.1 320 17:39 20.02.2020
2416 Clouds 22 1008 100 10000 2.1 320 17:19 20.02.2020
2417 Clouds 22 1008 100 10000 2.1 320 16:56 20.02.2020
2418 Clouds 22 1008 100 10000 2.1 320 16:38 20.02.2020
2419 Clouds 22 1008 100 10000 2.1 320 16:19 20.02.2020
2420 Clouds 23 1008 94 10000 1.5 320 15:43 20.02.2020
2421 Clouds 23 1008 94 10000 1.5 320 15:24 20.02.2020
2422 Clouds 23 1009 94 10000 1.5 320 14:58 20.02.2020
2423 Clouds 23 1009 94 10000 1.5 320 14:40 20.02.2020
2424 Clouds 23 1009 94 10000 1.5 320 14:21 20.02.2020
2425 Clouds 22 1009 86 0 0.55 325 13:55 20.02.2020
2426 Clouds 22 1009 86 0 0.55 325 13:37 20.02.2020
2427 Clouds 25 1010 94 10000 1 0 13:18 20.02.2020
2428 Clouds 25 1010 94 10000 1 0 13:18 20.02.2020
2429 Clouds 25 1010 94 10000 1 0 12:42 20.02.2020
2430 Clouds 25 1010 94 10000 1 0 12:21 20.02.2020
2431 Clouds 25 1010 88 10000 1 0 11:58 20.02.2020
2432 Clouds 25 1010 88 10000 1 0 11:39 20.02.2020
2433 Clouds 25 1010 88 10000 1 0 11:20 20.02.2020
2434 Clouds 25 1009 88 10000 0.44 107 10:56 20.02.2020
2435 Clouds 25 1009 88 10000 0.44 107 10:37 20.02.2020
2436 Clouds 25 1009 88 10000 0.44 107 10:19 20.02.2020
2437 Clouds 25 1008 78 10000 1.5 300 09:38 20.02.2020
2438 Clouds 27 1007 69 10000 1.5 130 09:20 20.02.2020
2439 Clouds 27 1007 69 10000 1.5 130 08:42 20.02.2020
2440 Clouds 23 1008 83 0 0.44 107 08:24 20.02.2020
2441 Clear 26 1006 74 0 1.6 99 07:47 20.02.2020
2442 Clouds 30 1005 55 10000 3.6 110 07:27 20.02.2020
2443 Clouds 30 1005 55 10000 3.6 110 07:27 20.02.2020
2444 Clouds 30 1005 55 10000 3.6 110 06:57 20.02.2020
2445 Clouds 30 1005 55 10000 3.6 110 06:37 20.02.2020
2446 Clouds 30 1005 55 10000 3.6 130 05:47 20.02.2020
2447 Clouds 30 1005 55 10000 3.6 130 05:20 20.02.2020
2448 Clouds 30 1005 51 10000 3.6 120 04:37 20.02.2020
2449 Clouds 31 1006 58 10000 3.6 130 03:46 20.02.2020
2450 Clouds 31 1006 55 10000 3.6 130 02:45 20.02.2020
2451 Clouds 30 1007 55 10000 4.1 100 01:23 20.02.2020
2452 Clouds 30 1007 55 10000 4.1 100 00:37 20.02.2020
2453 Clouds 30 1007 58 10000 3.6 90 23:55 19.02.2020
2454 Clouds 30 1007 58 10000 3.6 90 23:24 19.02.2020
2455 Clouds 27 1007 74 10000 1 0 22:59 19.02.2020
2456 Clouds 27 1007 74 10000 1 0 22:41 19.02.2020
2457 Clouds 27 1007 74 10000 1 0 22:41 19.02.2020
2458 Clouds 27 1007 74 10000 1 0 22:21 19.02.2020
2459 Clouds 24 1006 88 10000 0.42 64 21:57 19.02.2020
2460 Clouds 24 1006 88 10000 0.42 64 21:38 19.02.2020
2461 Clouds 24 1006 88 10000 0.42 64 21:18 19.02.2020
2462 Clouds 24 1006 88 10000 0.42 64 21:18 19.02.2020
2463 Clouds 22 1006 94 10000 2.1 330 20:56 19.02.2020
2464 Clouds 22 1006 94 10000 2.1 330 20:37 19.02.2020
2465 Clouds 22 1006 94 10000 2.1 330 20:18 19.02.2020
2466 Clouds 21 1006 94 10000 2.1 330 19:56 19.02.2020
2467 Clouds 21 1006 94 10000 2.1 330 19:37 19.02.2020
2468 Clouds 21 1006 94 10000 2.1 330 19:18 19.02.2020
2469 Clouds 21 1005 94 10000 2.1 330 18:56 19.02.2020
2470 Clouds 21 1005 94 10000 2.1 330 18:38 19.02.2020
2471 Clouds 21 1005 94 10000 2.1 330 18:19 19.02.2020
2472 Clouds 21 1005 94 10000 2.1 330 17:42 19.02.2020
2473 Clouds 21 1005 94 10000 2.1 330 17:19 19.02.2020
2474 Clouds 21 1005 100 10000 2.1 330 16:44 19.02.2020
2475 Clouds 21 1005 100 10000 2.1 330 16:20 19.02.2020
2476 Clouds 22 1006 94 10000 2.1 330 15:58 19.02.2020
2477 Clouds 22 1006 94 10000 2.1 330 15:39 19.02.2020
2478 Clouds 22 1006 94 10000 2.1 330 15:20 19.02.2020
2479 Clouds 22 1006 94 10000 2.1 330 14:55 19.02.2020
2480 Clouds 22 1006 94 10000 2.1 330 14:36 19.02.2020
2481 Clouds 22 1006 94 10000 2.1 330 14:18 19.02.2020
2482 Clouds 22 1007 94 10000 1.5 330 13:41 19.02.2020
2483 Clouds 22 1007 94 10000 1.5 330 13:20 19.02.2020
2484 Clouds 23 1007 94 10000 0.32 292 12:41 19.02.2020
2485 Clouds 23 1007 94 10000 0.32 292 12:19 19.02.2020
2486 Clouds 23 1007 94 10000 0.32 292 11:58 19.02.2020
2487 Clouds 23 1007 94 10000 0.32 292 11:37 19.02.2020
2488 Clouds 23 1007 94 10000 0.46 128 11:19 19.02.2020
2489 Clouds 24 1006 88 10000 0.46 128 10:57 19.02.2020
2490 Clouds 24 1006 88 10000 0.46 128 10:38 19.02.2020
2491 Clouds 24 1006 88 10000 0.46 128 10:19 19.02.2020
2492 Clouds 25 1006 78 10000 0.46 128 09:57 19.02.2020
2493 Clouds 25 1006 78 10000 0.46 128 09:37 19.02.2020
2494 Clouds 25 1006 78 10000 0.46 128 09:18 19.02.2020
2495 Clouds 26 1005 74 10000 2.1 140 08:44 19.02.2020
2496 Clouds 26 1005 74 10000 2.1 140 08:24 19.02.2020
2497 Clear 25 1004 72 0 1.63 136 07:41 19.02.2020
2498 Clouds 28 1003 61 10000 2.6 130 07:21 19.02.2020
2499 Clouds 28 1003 61 10000 2.6 130 06:53 19.02.2020
2500 Clouds 28 1003 61 10000 2.6 130 06:20 19.02.2020
2501 Clouds 30 1003 48 10000 4.1 140 04:21 19.02.2020
2502 Clouds 30 1004 55 10000 2.93 151 02:56 19.02.2020
2503 Clouds 30 1004 55 10000 2.93 151 02:30 19.02.2020
2504 Clouds 30 1005 51 10000 3.1 150 01:24 19.02.2020
2505 Clouds 29 1005 58 10000 2.6 140 00:49 19.02.2020
2506 Clouds 29 1005 58 10000 2.6 140 00:29 19.02.2020
2507 Clouds 28 1005 61 10000 2.1 130 23:44 18.02.2020
2508 Clouds 28 1005 61 10000 2.1 130 23:20 18.02.2020
2509 Clouds 27 1006 74 10000 2.04 133 22:57 18.02.2020
2510 Clouds 27 1006 74 10000 2.04 133 22:39 18.02.2020
2511 Clouds 27 1006 74 10000 2.04 133 22:19 18.02.2020
2512 Clouds 26 1005 83 10000 2.04 133 21:55 18.02.2020
2513 Clouds 26 1005 83 10000 2.04 133 21:37 18.02.2020
2514 Clouds 26 1005 83 10000 2.04 133 21:37 18.02.2020
2515 Clouds 26 1005 83 10000 2.04 133 21:18 18.02.2020
2516 Clouds 26 1005 83 10000 2.04 133 21:18 18.02.2020
2517 Clouds 23 1005 94 10000 1.5 320 20:56 18.02.2020
2518 Clouds 23 1005 94 10000 1.5 320 20:56 18.02.2020
2519 Clouds 23 1005 94 10000 1.5 320 20:37 18.02.2020
2520 Clouds 23 1005 94 10000 1.5 320 20:19 18.02.2020
2521 Clouds 22 1004 100 10000 1 119 19:42 18.02.2020
2522 Clouds 22 1004 100 10000 1 119 19:20 18.02.2020
2523 Clouds 22 1004 100 10000 1 119 18:59 18.02.2020
2524 Clouds 22 1004 100 10000 1 119 18:59 18.02.2020
2525 Clouds 22 1004 100 10000 1 119 18:40 18.02.2020
2526 Clouds 22 1004 100 10000 1 119 18:20 18.02.2020
2527 Clouds 23 1004 94 10000 1 119 17:43 18.02.2020
2528 Clouds 23 1004 94 10000 1.02 128 17:20 18.02.2020
2529 Clouds 24 1003 94 10000 1.02 128 16:58 18.02.2020
2530 Clouds 24 1003 94 10000 1.02 128 16:38 18.02.2020
2531 Clouds 24 1003 94 10000 1.02 128 16:18 18.02.2020
2532 Clouds 24 1004 88 10000 1.02 128 15:40 18.02.2020
2533 Clouds 24 1004 88 10000 1.02 128 15:20 18.02.2020
2534 Clouds 25 1004 83 10000 1.02 128 14:57 18.02.2020
2535 Clouds 25 1004 83 10000 1.02 128 14:38 18.02.2020
2536 Clouds 25 1004 83 10000 1.12 138 14:20 18.02.2020
2537 Clouds 26 1005 74 10000 1.5 120 13:41 18.02.2020
2538 Clouds 26 1005 74 10000 1.5 120 13:22 18.02.2020
2539 Clouds 26 1005 74 10000 1.5 140 12:56 18.02.2020
2540 Clouds 26 1005 74 10000 1.5 140 12:38 18.02.2020
2541 Clouds 26 1005 74 10000 1.5 140 12:19 18.02.2020
2542 Clouds 26 1005 74 10000 2.1 140 11:44 18.02.2020
2543 Clouds 26 1005 74 10000 2.1 140 11:26 18.02.2020
2544 Clouds 27 1005 74 10000 3.1 140 10:57 18.02.2020
2545 Clouds 27 1005 74 10000 3.1 140 10:38 18.02.2020
2546 Clouds 27 1005 74 10000 3.1 140 10:18 18.02.2020
2547 Clouds 27 1004 74 10000 2.6 140 09:56 18.02.2020
2548 Clouds 27 1004 74 10000 2.6 140 09:37 18.02.2020
2549 Clouds 27 1004 74 10000 2.6 140 09:18 18.02.2020
2550 Clouds 27 1003 74 10000 3.1 140 08:43 18.02.2020
2551 Clouds 27 1003 74 10000 3.1 140 08:21 18.02.2020
2552 Clouds 28 1003 69 10000 4.1 150 07:56 18.02.2020
2553 Clouds 28 1003 69 10000 4.1 150 07:33 18.02.2020
2554 Clouds 29 1002 66 10000 4.6 150 06:57 18.02.2020
2555 Clouds 29 1002 66 10000 4.6 150 06:39 18.02.2020
2556 Clouds 29 1002 66 10000 4.6 150 06:19 18.02.2020
2557 Clouds 30 1002 62 10000 4.1 140 05:33 18.02.2020
2558 Clouds 30 1003 66 10000 6.2 140 04:26 18.02.2020
2559 Clouds 30 1003 62 10000 6.2 120 02:59 18.02.2020
2560 Clouds 30 1004 70 10000 4.6 140 01:59 18.02.2020
2561 Clouds 29 1004 70 10000 5.7 120 00:56 18.02.2020
2562 Clouds 29 1004 70 10000 5.7 120 00:22 18.02.2020
2563 Clouds 29 1004 74 10000 6.2 120 23:55 17.02.2020
2564 Clouds 29 1004 74 10000 6.2 120 23:37 17.02.2020
2565 Clouds 29 1004 74 10000 6.2 120 23:18 17.02.2020
2566 Clouds 29 1004 74 10000 4.1 130 22:41 17.02.2020
2567 Clouds 29 1004 74 10000 4.1 130 22:21 17.02.2020
2568 Clouds 25 1004 94 10000 4 129 21:58 17.02.2020
2569 Clouds 25 1004 94 10000 4 129 21:38 17.02.2020
2570 Clouds 25 1004 94 10000 4 129 21:18 17.02.2020
2571 Rain 25 1003 94 10000 3.1 300 20:41 17.02.2020
2572 -273 0 0 0 0 0 20:21 17.02.2020
2573 Clouds 24 1003 94 10000 2.29 123 19:58 17.02.2020
2574 Clouds 24 1003 94 10000 2.29 123 19:38 17.02.2020
2575 Clouds 24 1003 94 10000 2.29 123 19:20 17.02.2020
2576 Rain 24 1003 94 10000 2.29 123 18:37 17.02.2020
2577 Rain 24 1003 94 10000 2.29 123 18:37 17.02.2020
2578 Rain 24 1003 94 10000 2.29 123 18:37 17.02.2020
2579 Rain 24 1003 94 10000 2.29 123 18:19 17.02.2020
2580 Rain 24 1003 94 10000 2.29 123 18:19 17.02.2020
2581 Clouds 25 1002 94 10000 2.29 123 17:57 17.02.2020
2582 Clouds 25 1002 94 10000 2.29 123 17:37 17.02.2020
2583 Clouds 25 1002 94 10000 2.54 128 17:18 17.02.2020
2584 Clouds 25 1002 94 10000 2.54 128 17:18 17.02.2020
2585 Clouds 24 1003 94 10000 2.54 128 16:54 17.02.2020
2586 Clouds 24 1003 94 10000 2.54 128 16:36 17.02.2020
2587 Clouds 24 1003 94 10000 2.54 128 16:18 17.02.2020
2588 Clouds 25 1003 94 10000 2.54 128 15:42 17.02.2020
2589 Clouds 25 1003 94 10000 2.54 128 15:23 17.02.2020
2590 Clouds 25 1004 94 10000 2.54 128 14:46 17.02.2020
2591 Clouds 25 1004 94 10000 2.54 128 14:28 17.02.2020
2592 Clouds 26 1005 83 10000 1.37 132 13:59 17.02.2020
2593 Clouds 26 1005 83 10000 1.37 132 13:40 17.02.2020
2594 Clouds 26 1005 83 10000 1.37 132 13:19 17.02.2020
2595 Clouds 26 1005 78 10000 1.5 150 12:54 17.02.2020
2596 Clouds 26 1005 78 10000 1.5 150 12:54 17.02.2020
2597 Clouds 26 1005 78 10000 1.5 150 12:36 17.02.2020
2598 Clouds 26 1005 78 10000 1.5 150 12:36 17.02.2020
2599 Clouds 26 1005 78 10000 1.5 150 12:18 17.02.2020
2600 Clouds 26 1005 78 10000 1.5 140 11:43 17.02.2020
2601 Clouds 26 1005 78 10000 1.5 140 11:24 17.02.2020
2602 Clouds 27 1005 74 10000 2.1 140 10:56 17.02.2020
2603 Clouds 27 1005 74 10000 2.1 140 10:38 17.02.2020
2604 Clouds 27 1005 74 10000 2.1 140 10:19 17.02.2020
2605 Clouds 27 1004 83 10000 1.5 150 09:55 17.02.2020
2606 Clouds 27 1004 83 10000 1.5 150 09:36 17.02.2020
2607 Clouds 27 1004 83 10000 1.5 150 09:18 17.02.2020
2608 Clouds 27 1004 78 10000 2.6 130 08:41 17.02.2020
2609 Clouds 27 1004 78 10000 2.6 130 08:22 17.02.2020
2610 Clouds 28 1003 74 10000 4.1 100 07:55 17.02.2020
2611 Clouds 28 1003 74 10000 4.1 100 07:26 17.02.2020
2612 Clouds 28 1003 74 10000 3.1 130 06:56 17.02.2020
2613 Clouds 28 1003 74 10000 3.1 130 06:36 17.02.2020
2614 Clouds 29 1002 66 10000 5.1 120 05:59 17.02.2020
2615 Clouds 29 1002 66 10000 5.1 120 05:38 17.02.2020
2616 Clouds 31 1003 58 10000 5.1 130 03:53 17.02.2020
2617 Clouds 31 1004 58 10000 4.6 140 02:19 17.02.2020
2618 Clouds 30 1004 58 10000 6.2 120 00:55 17.02.2020
2619 Clouds 30 1004 58 10000 6.2 120 00:23 17.02.2020
2620 Clouds 30 1005 62 10000 4.6 130 23:54 16.02.2020
2621 Clouds 30 1005 62 10000 4.6 130 23:54 16.02.2020
2622 Clouds 30 1005 62 10000 4.6 130 23:33 16.02.2020
2623 Clouds 29 1005 66 10000 4.6 130 22:58 16.02.2020
2624 Clouds 29 1005 66 10000 4.6 130 22:58 16.02.2020
2625 Clouds 29 1005 66 10000 4.6 130 22:39 16.02.2020
2626 Clouds 29 1005 66 10000 4.6 130 22:21 16.02.2020
2627 Clouds 29 1005 66 10000 2.1 130 21:59 16.02.2020
2628 Clouds 29 1005 66 10000 2.1 130 21:40 16.02.2020
2629 Clouds 29 1005 66 10000 2.1 130 21:22 16.02.2020
2630 Clouds 25 1005 94 10000 3.69 106 20:58 16.02.2020
2631 Clouds 25 1005 94 10000 3.69 106 20:58 16.02.2020
2632 Clouds 25 1005 94 10000 3.69 106 20:40 16.02.2020
2633 Clouds 25 1005 94 10000 2.03 103 20:21 16.02.2020
2634 Clouds 23 1004 94 10000 2.03 103 19:58 16.02.2020
2635 Clouds 23 1004 94 10000 2.03 103 19:38 16.02.2020
2636 Clouds 23 1004 94 10000 2.03 103 19:19 16.02.2020
2637 Clouds 23 1004 94 10000 2.03 103 18:45 16.02.2020
2638 Clouds 23 1004 94 10000 2.03 103 18:26 16.02.2020
2639 Clouds 23 1004 94 10000 2.03 103 17:57 16.02.2020
2640 Clouds 23 1004 94 10000 2.03 103 17:39 16.02.2020
2641 Clouds 23 1004 94 10000 2.37 123 17:19 16.02.2020
2642 Clouds 26 1004 83 10000 2.37 123 16:55 16.02.2020
2643 Clouds 26 1004 83 10000 2.37 123 16:36 16.02.2020
2644 Clouds 26 1004 83 10000 2.37 123 16:18 16.02.2020
2645 Clouds 26 1005 78 10000 2.37 123 15:41 16.02.2020
2646 Clouds 26 1005 78 10000 2.37 123 15:22 16.02.2020
2647 Clouds 26 1005 78 10000 2.37 123 14:45 16.02.2020
2648 Clouds 26 1005 78 10000 2.37 123 14:24 16.02.2020
2649 Clouds 26 1006 78 10000 2.92 115 13:59 16.02.2020
2650 Clouds 26 1006 78 10000 2.92 115 13:41 16.02.2020
2651 Clouds 26 1006 78 10000 3.06 112 13:22 16.02.2020
2652 Clouds 26 1006 83 10000 2.6 130 12:39 16.02.2020
2653 Clouds 26 1006 83 10000 2.6 130 12:20 16.02.2020
2654 Clouds 26 1006 83 10000 2.6 120 11:41 16.02.2020
2655 Clouds 26 1006 83 10000 2.6 120 11:20 16.02.2020
2656 Clouds 25 1006 88 10000 3.1 130 10:59 16.02.2020
2657 Clouds 25 1006 88 10000 3.1 130 10:41 16.02.2020
2658 Clouds 25 1006 88 10000 3.1 130 10:22 16.02.2020
2659 Clouds 26 1005 88 10000 3.1 130 09:59 16.02.2020
2660 Clouds 26 1005 88 10000 3.1 130 09:38 16.02.2020
2661 Clouds 26 1005 88 10000 3.1 130 09:38 16.02.2020
2662 Clouds 26 1005 88 10000 3.1 130 09:38 16.02.2020
2663 Clouds 26 1005 88 10000 3.1 130 09:20 16.02.2020
2664 Rain 27 1005 83 10000 3.1 150 08:56 16.02.2020
2665 Rain 27 1005 83 10000 3.1 150 08:38 16.02.2020
2666 Rain 27 1005 83 10000 3.1 150 08:18 16.02.2020
2667 Clouds 27 1004 83 10000 4.1 110 07:41 16.02.2020
2668 Rain 27 1004 78 10000 6.7 100 06:54 16.02.2020
2669 Clouds 29 1004 70 10000 7.2 120 05:53 16.02.2020
2670 Clouds 29 1004 70 10000 7.2 120 04:37 16.02.2020
2671 Clouds 30 1004 66 10000 6.7 110 03:19 16.02.2020
2672 Clouds 29 1005 66 10000 5.1 100 01:58 16.02.2020
2673 Clouds 29 1005 66 10000 5.1 100 01:58 16.02.2020
2674 Clouds 29 1005 66 10000 5.1 100 01:38 16.02.2020
2675 Clouds 29 1005 66 10000 5.1 100 01:19 16.02.2020
2676 Clouds 30 1005 66 10000 5.1 130 00:41 16.02.2020
2677 Clouds 30 1005 66 10000 5.1 130 00:22 16.02.2020
2678 Clouds 31 1006 62 10000 6.2 110 23:43 15.02.2020
2679 Clouds 31 1006 62 10000 6.2 110 23:25 15.02.2020
2680 Clouds 31 1006 62 10000 6.2 110 23:25 15.02.2020
2681 Clouds 30 1006 66 10000 6.2 90 22:57 15.02.2020
2682 Clouds 30 1006 66 10000 6.2 90 22:57 15.02.2020
2683 Clouds 30 1006 66 10000 6.2 90 22:39 15.02.2020
2684 Clouds 30 1006 66 10000 6.2 90 22:19 15.02.2020
2685 Rain 26 1006 88 10000 2.6 120 21:44 15.02.2020
2686 Rain 26 1006 88 10000 2.6 120 21:24 15.02.2020
2687 Clouds 27 1005 78 10000 2.1 130 20:58 15.02.2020
2688 Clouds 27 1005 78 10000 2.1 130 20:37 15.02.2020
2689 Clouds 27 1005 78 10000 2.1 130 20:19 15.02.2020
2690 Rain 23 1004 90 0 2 87 19:42 15.02.2020
2691 Clouds 26 1004 83 10000 2.1 130 19:22 15.02.2020
2692 Clouds 26 1004 83 10000 2.1 130 18:42 15.02.2020
2693 Clouds 26 1004 83 10000 2.1 130 18:21 15.02.2020
2694 Clouds 26 1004 78 10000 2.6 120 17:57 15.02.2020
2695 Clouds 26 1004 78 10000 2.6 120 17:37 15.02.2020
2696 Clouds 26 1004 78 10000 2.6 120 17:19 15.02.2020
2697 Clouds 26 1004 83 10000 2.6 120 16:41 15.02.2020
2698 Clouds 26 1004 83 10000 2.6 120 16:23 15.02.2020
2699 Clouds 26 1004 83 10000 2.6 130 15:54 15.02.2020
2700 Clouds 26 1004 83 10000 2.6 130 15:36 15.02.2020
2701 Clouds 26 1004 83 10000 2.6 130 15:36 15.02.2020
2702 Clouds 26 1004 83 10000 2.6 130 15:18 15.02.2020
2703 Clouds 27 1005 78 10000 2.6 120 14:39 15.02.2020
2704 Clouds 27 1005 78 10000 2.6 120 14:18 15.02.2020
2705 Rain 24 1006 89 0 2.25 95 13:42 15.02.2020
2706 Clouds 27 1007 78 10000 4.1 110 13:23 15.02.2020
2707 Clouds 27 1007 78 10000 4.1 110 12:57 15.02.2020
2708 Clouds 27 1007 78 10000 4.1 110 12:38 15.02.2020
2709 Clouds 27 1007 78 10000 4.1 110 12:19 15.02.2020
2710 Clouds 27 1007 78 10000 4.6 120 11:46 15.02.2020
2711 Clouds 27 1007 78 10000 4.6 120 11:27 15.02.2020
2712 Clouds 27 1007 74 10000 3.05 106 10:49 15.02.2020
2713 Clouds 27 1007 74 10000 3.05 106 10:30 15.02.2020
2714 Clouds 27 1006 74 10000 4.1 120 09:57 15.02.2020
2715 Clouds 27 1006 74 10000 4.1 120 09:38 15.02.2020
2716 Clouds 27 1006 74 10000 4.1 120 09:20 15.02.2020
2717 Clouds 28 1006 65 10000 3.6 110 08:43 15.02.2020
2718 Clouds 28 1006 65 10000 3.6 110 08:23 15.02.2020
2719 Clouds 29 1005 66 10000 4.1 110 07:50 15.02.2020
2720 Clouds 29 1005 66 10000 4.1 110 07:30 15.02.2020
2721 Clouds 27 1005 74 10000 3.6 110 06:47 15.02.2020
2722 Clouds 27 1005 74 10000 3.6 110 06:28 15.02.2020
2723 Clouds 30 1005 66 10000 5.1 120 05:31 15.02.2020
2724 Clouds 30 1005 66 10000 5.7 120 04:45 15.02.2020
2725 Clouds 31 1005 55 10000 6.7 130 03:23 15.02.2020
2726 Clouds 31 1006 58 10000 6.7 110 02:42 15.02.2020
2727 Clouds 31 1006 58 10000 6.7 110 02:42 15.02.2020
2728 Clouds 31 1006 58 10000 6.7 110 02:19 15.02.2020
2729 Rain 29 1006 70 0 5.08 107 01:38 15.02.2020
2730 Clouds 30 1007 62 10000 6.7 110 00:38 15.02.2020
2731 Clouds 30 1007 62 10000 6.7 110 00:18 15.02.2020
2732 Clouds 30 1007 62 10000 6.2 110 23:39 14.02.2020
2733 Clouds 30 1007 62 10000 6.2 110 23:18 14.02.2020
2734 Clouds 29 1007 66 10000 6.7 110 22:43 14.02.2020
2735 Clouds 29 1007 66 10000 6.7 110 22:23 14.02.2020
2736 Clouds 28 1006 74 10000 3.1 110 21:51 14.02.2020
2737 Clouds 28 1006 74 10000 3.1 110 21:51 14.02.2020
2738 Clouds 28 1006 74 10000 3.1 110 21:33 14.02.2020
2739 Clouds 28 1006 69 10000 3.6 120 20:58 14.02.2020
2740 Clouds 28 1006 69 10000 3.6 120 20:38 14.02.2020
2741 Clouds 28 1006 69 10000 3.6 120 20:19 14.02.2020
2742 Rain 24 1005 90 0 3.27 106 19:42 14.02.2020
2743 Rain 24 1005 90 0 3.27 106 19:42 14.02.2020
2744 Clouds 27 1005 78 10000 3.1 120 19:24 14.02.2020
2745 Clouds 27 1005 78 10000 3.1 120 18:58 14.02.2020
2746 Clouds 27 1005 78 10000 3.1 120 18:40 14.02.2020
2747 Clouds 27 1005 78 10000 3.1 120 18:20 14.02.2020
2748 Clouds 27 1004 78 10000 3.6 110 17:44 14.02.2020
2749 Clouds 27 1004 78 10000 3.6 110 17:44 14.02.2020
2750 Clouds 27 1004 78 10000 3.6 110 17:23 14.02.2020
2751 Clouds 27 1004 78 10000 3.6 110 17:23 14.02.2020
2752 Clouds 27 1004 78 10000 3.6 120 16:59 14.02.2020
2753 Clouds 27 1004 78 10000 3.6 120 16:41 14.02.2020
2754 Clouds 27 1004 78 10000 3.6 120 16:22 14.02.2020
2755 Rain 28 1005 78 10000 3.6 110 15:56 14.02.2020
2756 Rain 28 1005 78 10000 3.6 110 15:38 14.02.2020
2757 Rain 28 1005 78 10000 3.6 110 15:20 14.02.2020
2758 Clouds 28 1006 74 10000 3.6 120 14:58 14.02.2020
2759 Clouds 28 1006 74 10000 3.6 120 14:40 14.02.2020
2760 Clouds 28 1006 74 10000 3.6 120 14:21 14.02.2020
2761 Rain 25 1006 90 0 3.62 99 13:54 14.02.2020
2762 Rain 25 1006 90 0 3.62 99 13:36 14.02.2020
2763 Clouds 28 1006 74 10000 5.1 110 13:18 14.02.2020
2764 Clouds 28 1006 74 10000 5.1 110 12:56 14.02.2020
2765 Clouds 28 1006 74 10000 5.1 110 12:56 14.02.2020
2766 Clouds 28 1006 74 10000 5.1 110 12:37 14.02.2020
2767 Clouds 28 1006 74 10000 5.1 110 12:18 14.02.2020
2768 Clouds 28 1007 65 10000 5.1 100 11:41 14.02.2020
2769 Clouds 28 1007 65 10000 5.1 100 11:21 14.02.2020
2770 Clouds 28 1006 69 10000 7.2 100 10:57 14.02.2020
2771 Clouds 28 1006 69 10000 7.2 100 10:38 14.02.2020
2772 Clouds 28 1006 69 10000 7.2 100 10:20 14.02.2020
2773 Clouds 29 1006 70 10000 7.7 90 09:44 14.02.2020
2774 Clouds 29 1006 70 10000 7.7 90 09:22 14.02.2020
2775 Clouds 28 1005 74 10000 6.2 90 08:56 14.02.2020
2776 Clouds 28 1005 74 10000 6.2 90 08:37 14.02.2020
2777 Clouds 28 1005 74 10000 6.2 90 08:18 14.02.2020
2778 Rain 25 1003 92 0 4.46 105 07:44 14.02.2020
2779 Clouds 29 1004 74 10000 5.7 110 07:24 14.02.2020
2780 Clouds 29 1004 74 10000 5.7 110 06:32 14.02.2020
2781 Clouds 29 1004 70 10000 6.2 110 05:59 14.02.2020
2782 Clouds 29 1004 70 10000 6.2 110 05:25 14.02.2020
2783 Clouds 31 1004 66 10000 7.7 110 03:31 14.02.2020
2784 Clouds 31 1005 66 10000 7.7 110 02:42 14.02.2020
2785 Rain 27 1005 88 0 5.78 102 01:54 14.02.2020
2786 Clouds 29 1006 74 10000 7.7 110 00:44 14.02.2020
2787 Clouds 29 1006 74 10000 7.7 110 00:44 14.02.2020
2788 Clouds 29 1006 74 10000 7.7 110 00:24 14.02.2020
2789 Clouds 30 1006 74 10000 7.2 110 23:51 13.02.2020
2790 Clouds 30 1006 74 10000 7.2 110 23:23 13.02.2020
2791 Clouds 29 1006 83 10000 6.7 90 22:56 13.02.2020
2792 Clouds 29 1006 83 10000 6.7 90 22:37 13.02.2020
2793 Clouds 29 1006 83 10000 6.7 90 22:18 13.02.2020
2794 Clouds 29 1006 83 10000 2.1 100 21:41 13.02.2020
2795 Clouds 29 1006 83 10000 2.1 100 21:23 13.02.2020
2796 Clouds 28 1005 88 10000 4.99 121 20:58 13.02.2020
2797 Clouds 28 1005 88 10000 4.99 121 20:39 13.02.2020
2798 Clouds 28 1005 88 10000 2.87 108 20:21 13.02.2020
2799 Rain 25 1004 94 0 2.87 108 19:56 13.02.2020
2800 Rain 25 1004 94 0 2.87 108 19:37 13.02.2020
2801 Clouds 27 1004 88 10000 2.87 108 19:18 13.02.2020
2802 Clouds 27 1004 88 10000 2.87 108 19:18 13.02.2020
2803 Clouds 27 1004 88 10000 2.87 108 18:44 13.02.2020
2804 Clouds 27 1004 88 10000 2.87 108 18:44 13.02.2020
2805 Clouds 27 1004 88 10000 2.87 108 18:24 13.02.2020
2806 Clouds 27 1004 94 10000 2.87 108 17:59 13.02.2020
2807 Clouds 27 1004 94 10000 2.87 108 17:40 13.02.2020
2808 Clouds 27 1004 94 10000 2.24 100 17:20 13.02.2020
2809 Clouds 28 1004 83 10000 2.24 100 16:58 13.02.2020
2810 Clouds 28 1004 83 10000 2.24 100 16:38 13.02.2020
2811 Clouds 28 1004 83 10000 2.24 100 16:19 13.02.2020
2812 Clouds 28 1004 83 10000 2.6 100 15:56 13.02.2020
2813 Clouds 28 1004 83 10000 2.6 100 15:37 13.02.2020
2814 Clouds 28 1004 83 10000 2.6 100 15:19 13.02.2020
2815 Clouds 28 1005 83 10000 4.1 110 14:55 13.02.2020
2816 Clouds 28 1005 83 10000 4.1 110 14:37 13.02.2020
2817 Clouds 28 1005 83 10000 4.1 110 14:19 13.02.2020
2818 Rain 25 1005 95 0 1.82 110 13:44 13.02.2020
2819 Rain 25 1005 95 0 1.82 110 13:44 13.02.2020
2820 Clouds 27 1006 88 10000 4.1 100 13:18 13.02.2020
2821 Clouds 27 1006 88 10000 4.1 100 12:55 13.02.2020
2822 Clouds 27 1006 88 10000 4.1 100 12:37 13.02.2020
2823 Clouds 27 1006 88 10000 4.1 100 12:18 13.02.2020
2824 Clouds 28 1006 88 10000 3.6 110 11:43 13.02.2020
2825 Clouds 28 1006 88 10000 3.6 110 11:43 13.02.2020
2826 Clouds 28 1006 88 10000 3.6 110 11:20 13.02.2020
2827 Clouds 28 1006 83 10000 4.1 110 10:46 13.02.2020
2828 Clouds 28 1006 83 10000 4.1 110 10:27 13.02.2020
2829 Clouds 28 1005 83 10000 3.6 150 09:51 13.02.2020
2830 Clouds 28 1005 83 10000 3.6 150 09:28 13.02.2020
2831 Clouds 28 1005 83 10000 3.6 150 08:58 13.02.2020
2832 Clouds 28 1005 83 10000 3.6 150 08:37 13.02.2020
2833 Clouds 28 1005 83 10000 3.6 150 08:18 13.02.2020
2834 Rain 27 1003 92 0 2.67 141 07:39 13.02.2020
2835 Clouds 30 1003 74 10000 1.5 150 07:20 13.02.2020
2836 Clouds 30 1003 74 10000 1.5 150 06:44 13.02.2020
2837 Clouds 30 1003 74 10000 1.5 150 06:19 13.02.2020
2838 Clouds 30 1003 74 10000 4.6 150 05:33 13.02.2020
2839 Clouds 31 1004 84 10000 4.1 140 04:26 13.02.2020
2840 Clouds 31 1004 74 10000 3.6 150 03:52 13.02.2020
2841 Clouds 31 1004 74 10000 3.6 150 03:24 13.02.2020
2842 Clouds 31 1004 70 10000 4.1 150 02:50 13.02.2020
2843 Clouds 31 1004 70 10000 4.1 150 02:19 13.02.2020
2844 Rain 29 1005 87 0 2.59 143 01:32 13.02.2020
2845 Clouds 31 1006 74 10000 2.1 150 00:39 13.02.2020
2846 Clouds 31 1006 74 10000 2.1 150 00:21 13.02.2020
2847 Rain 30 1006 79 10000 2.6 160 23:39 12.02.2020
2848 Rain 30 1006 79 10000 2.6 160 23:21 12.02.2020
2849 Clouds 30 1006 70 10000 1.5 170 22:45 12.02.2020
2850 Clouds 30 1006 70 10000 1.5 170 22:25 12.02.2020
2851 Clouds 28 1006 94 10000 0.82 150 21:58 12.02.2020
2852 Clouds 28 1006 94 10000 0.82 150 21:40 12.02.2020
2853 Clouds 28 1006 94 10000 0.82 150 21:19 12.02.2020
2854 Clouds 27 1005 94 10000 0.82 150 20:56 12.02.2020
2855 Clouds 27 1005 94 10000 0.82 150 20:37 12.02.2020
2856 Clouds 27 1005 94 10000 0.71 287 20:19 12.02.2020
2857 Clouds 25 1005 95 0 0.85 295 19:45 12.02.2020
2858 Clouds 26 1004 94 10000 0.85 295 19:24 12.02.2020
2859 Clouds 26 1004 94 10000 0.71 287 18:56 12.02.2020
2860 Clouds 26 1004 94 10000 0.71 287 18:37 12.02.2020
2861 Clouds 26 1004 94 10000 0.71 287 18:18 12.02.2020
2862 Clouds 26 1004 94 10000 0.85 295 17:42 12.02.2020
2863 Clouds 26 1004 94 10000 0.33 264 17:20 12.02.2020
2864 Clouds 26 1004 94 10000 0.86 285 17:20 12.02.2020
2865 Clouds 26 1005 100 10000 0.86 285 16:58 12.02.2020
2866 Clouds 26 1005 100 10000 0.33 264 16:38 12.02.2020
2867 Clouds 26 1005 100 10000 0.86 285 16:19 12.02.2020
2868 Clouds 26 1005 100 10000 0.33 264 16:19 12.02.2020
2869 Clouds 26 1005 100 10000 0.86 285 15:41 12.02.2020
2870 Clouds 26 1005 100 10000 0.33 264 15:20 12.02.2020
2871 Clouds 27 1006 94 10000 0.33 264 14:56 12.02.2020
2872 Clouds 27 1006 94 10000 0.86 285 14:38 12.02.2020
2873 Clouds 27 1006 94 10000 0.61 273 14:19 12.02.2020
2874 Rain 25 1006 96 0 0.61 273 13:56 12.02.2020
2875 Rain 25 1006 96 0 0.61 273 13:37 12.02.2020
2876 Clouds 27 1007 94 10000 0.87 279 13:18 12.02.2020
2877 Clouds 27 1007 94 10000 0.87 279 13:18 12.02.2020
2878 Clouds 27 1007 94 10000 0.87 279 12:55 12.02.2020
2879 Clouds 27 1007 94 10000 0.87 279 12:36 12.02.2020
2880 Clouds 27 1007 94 10000 0.87 279 12:18 12.02.2020
2881 Clouds 27 1007 100 10000 1 0 11:42 12.02.2020
2882 Clouds 27 1007 100 10000 1 0 11:21 12.02.2020
2883 Clouds 28 1006 94 10000 1 0 10:59 12.02.2020
2884 Clouds 28 1006 94 10000 1 0 10:41 12.02.2020
2885 Clouds 28 1006 94 10000 1 0 10:21 12.02.2020
2886 Clouds 28 1006 94 10000 1.5 180 09:57 12.02.2020
2887 Clouds 28 1006 94 10000 1.5 180 09:57 12.02.2020
2888 Clouds 28 1006 94 10000 1.5 180 09:39 12.02.2020
2889 Clouds 28 1006 94 10000 1.5 180 09:19 12.02.2020
2890 Clouds 29 1005 89 10000 2.1 140 08:55 12.02.2020
2891 Clouds 29 1005 89 10000 2.1 140 08:37 12.02.2020
2892 Clouds 29 1005 89 10000 2.1 140 08:19 12.02.2020
2893 Rain 28 1004 89 0 1.54 103 07:43 12.02.2020
2894 Clouds 31 1005 79 10000 3.1 150 07:22 12.02.2020
2895 Clouds 31 1005 79 10000 3.1 150 06:52 12.02.2020
2896 Clouds 31 1005 79 10000 3.1 150 06:20 12.02.2020
2897 Clouds 32 1005 70 10000 3.6 120 05:35 12.02.2020
2898 Clouds 32 1005 66 10000 4.1 130 04:56 12.02.2020
2899 Clouds 32 1005 66 10000 4.1 130 04:38 12.02.2020
2900 Clouds 32 1005 70 10000 3.6 130 03:31 12.02.2020
2901 Clouds 32 1005 75 10000 3.1 120 02:58 12.02.2020
2902 Clouds 32 1005 75 10000 3.1 120 02:28 12.02.2020
2903 Clouds 31 1006 74 10000 4.1 100 01:40 12.02.2020
2904 Clouds 32 1006 75 10000 3.1 130 00:44 12.02.2020
2905 Clouds 32 1006 75 10000 3.1 130 00:25 12.02.2020
2906 Clouds 30 1007 79 10000 1.5 160 23:53 11.02.2020
2907 Clouds 30 1007 79 10000 1.5 160 23:35 11.02.2020
2908 Clouds 30 1007 84 10000 1.78 101 22:59 11.02.2020
2909 Clouds 30 1007 84 10000 1.78 101 22:40 11.02.2020
2910 Clouds 30 1007 84 10000 1.78 101 22:20 11.02.2020
2911 Clouds 30 1007 84 10000 1.78 101 22:20 11.02.2020
2912 Clouds 28 1007 83 10000 1.78 101 21:57 11.02.2020
2913 Clouds 28 1007 83 10000 1.78 101 21:39 11.02.2020
2914 Clouds 28 1007 83 10000 1.78 101 21:19 11.02.2020
2915 Clouds 26 1007 94 10000 2.1 320 20:59 11.02.2020
2916 Clouds 26 1007 94 10000 2.1 320 20:39 11.02.2020
2917 Clouds 26 1007 94 10000 2.1 320 20:19 11.02.2020
2918 Clouds 25 1006 100 10000 1.5 320 19:58 11.02.2020
2919 Clouds 25 1006 100 10000 1.5 320 19:39 11.02.2020
2920 Clouds 25 1006 100 10000 1.5 320 19:39 11.02.2020
2921 Clouds 25 1006 100 10000 1.5 320 19:21 11.02.2020
2922 Clouds 25 1006 94 10000 1 0 18:45 11.02.2020
2923 Clouds 25 1006 94 10000 1 0 18:27 11.02.2020
2924 Clouds 25 1006 94 10000 1 330 17:57 11.02.2020
2925 Clouds 25 1006 94 10000 1 330 17:39 11.02.2020
2926 Clouds 25 1006 94 10000 1 330 17:19 11.02.2020
2927 Clouds 26 1006 94 10000 0.16 177 16:58 11.02.2020
2928 Clouds 26 1006 94 10000 0.16 177 16:39 11.02.2020
2929 Clouds 26 1006 94 10000 0.16 177 16:21 11.02.2020
2930 Clouds 26 1006 94 10000 0.16 177 16:21 11.02.2020
2931 Clouds 26 1006 100 10000 1 0 15:57 11.02.2020
2932 Clouds 26 1006 100 10000 1 0 15:39 11.02.2020
2933 Clouds 26 1006 100 10000 1 0 15:20 11.02.2020
2934 Clouds 27 1007 94 10000 1.5 290 14:41 11.02.2020
2935 Clouds 27 1007 94 10000 1.5 290 14:19 11.02.2020
2936 Rain 25 1007 96 0 0.09 91 13:55 11.02.2020
2937 Rain 25 1007 96 0 0.09 91 13:37 11.02.2020
2938 Clouds 27 1009 94 10000 0.63 67 13:18 11.02.2020
2939 Clouds 27 1009 94 10000 0.63 67 12:41 11.02.2020
2940 Clouds 27 1009 94 10000 0.63 67 12:22 11.02.2020
2941 Clouds 27 1008 94 10000 0.63 67 11:58 11.02.2020
2942 Clouds 27 1008 94 10000 0.63 67 11:40 11.02.2020
2943 Clouds 27 1008 94 10000 0.92 102 11:19 11.02.2020
2944 Clouds 27 1008 94 10000 0.92 102 10:40 11.02.2020
2945 Clouds 27 1008 94 10000 0.92 102 10:40 11.02.2020
2946 Clouds 27 1008 94 10000 0.92 102 10:21 11.02.2020
2947 Clouds 28 1007 88 10000 0.92 102 09:58 11.02.2020
2948 Clouds 28 1007 88 10000 0.92 102 09:58 11.02.2020
2949 Clouds 28 1007 88 10000 0.92 102 09:40 11.02.2020
2950 Clouds 28 1007 88 10000 0.92 102 09:22 11.02.2020
2951 Clouds 29 1007 83 10000 0.92 102 08:49 11.02.2020
2952 Clouds 29 1007 83 10000 1.11 72 08:25 11.02.2020
2953 Rain 28 1005 85 0 2.1 78 07:55 11.02.2020
2954 Rain 28 1005 85 0 2.1 78 07:34 11.02.2020
2955 Clouds 31 1006 74 10000 2.6 140 06:58 11.02.2020
2956 Clouds 31 1006 74 10000 2.6 140 06:58 11.02.2020
2957 Clouds 31 1006 74 10000 2.6 140 06:38 11.02.2020
2958 Clouds 31 1006 74 10000 2.6 140 06:20 11.02.2020
2959 Clouds 32 1006 70 10000 3.6 130 05:41 11.02.2020
2960 Clouds 32 1006 70 10000 3.6 130 05:20 11.02.2020
2961 Clouds 32 1006 62 10000 4.6 110 03:32 11.02.2020
2962 Clouds 32 1007 66 10000 3.6 120 02:38 11.02.2020
2963 Rain 31 1007 70 0 2.57 90 01:53 11.02.2020
2964 Clouds 31 1008 74 10000 3.6 170 01:30 11.02.2020
2965 Clouds 31 1008 74 10000 3.6 170 00:26 11.02.2020
2966 Clouds 31 1008 70 10000 3.1 130 23:48 10.02.2020
2967 Clouds 31 1008 70 10000 3.1 130 23:29 10.02.2020
2968 Clouds 31 1008 74 10000 3.6 110 22:57 10.02.2020
2969 Clouds 31 1008 74 10000 3.6 110 22:37 10.02.2020
2970 Clouds 31 1008 74 10000 3.6 110 22:19 10.02.2020
2971 Clouds 29 1009 83 10000 1.5 160 21:40 10.02.2020
2972 Clouds 29 1009 83 10000 1.5 160 21:40 10.02.2020
2973 Clouds 29 1009 83 10000 1.5 160 21:22 10.02.2020
2974 Clouds 25 1008 100 10000 1 0 20:56 10.02.2020
2975 Clouds 25 1008 100 10000 1 0 20:38 10.02.2020
2976 Clouds 25 1008 100 10000 1 0 20:19 10.02.2020
2977 Rain 25 1007 95 0 0.83 75 19:57 10.02.2020
2978 Rain 25 1007 95 0 0.83 75 19:57 10.02.2020
2979 Rain 25 1007 95 0 0.83 75 19:37 10.02.2020
2980 Clouds 25 1007 94 10000 1 0 19:18 10.02.2020
2981 Clouds 25 1007 94 10000 1 0 18:56 10.02.2020
2982 Clouds 25 1007 94 10000 1 0 18:38 10.02.2020
2983 Clouds 25 1007 94 10000 1 0 18:20 10.02.2020
2984 Clouds 25 1007 94 10000 0.83 75 17:54 10.02.2020
2985 Clouds 25 1007 94 10000 0.83 75 17:36 10.02.2020
2986 Clouds 25 1007 94 10000 1.11 96 17:18 10.02.2020
2987 Clouds 25 1007 100 10000 1.11 96 16:41 10.02.2020
2988 Clouds 25 1007 100 10000 1.11 96 16:20 10.02.2020
2989 Clouds 25 1007 100 10000 1.11 96 16:20 10.02.2020
2990 Clouds 25 1007 100 10000 1.11 96 16:20 10.02.2020
2991 Clouds 25 1008 100 10000 1.11 96 15:59 10.02.2020
2992 Clouds 25 1008 100 10000 1.11 96 15:59 10.02.2020
2993 Clouds 25 1008 100 10000 1.11 96 15:40 10.02.2020
2994 Clouds 25 1008 100 10000 1.11 96 15:22 10.02.2020
2995 Clouds 26 1009 94 10000 1 0 14:58 10.02.2020
2996 Clouds 26 1009 94 10000 1 0 14:58 10.02.2020
2997 Clouds 26 1009 94 10000 1 0 14:39 10.02.2020
2998 Clouds 26 1009 94 10000 1 0 14:19 10.02.2020
2999 Clouds 27 1009 88 10000 2.1 130 13:44 10.02.2020
3000 Clouds 27 1009 88 10000 2.1 130 13:26 10.02.2020
3001 Clouds 28 1010 83 10000 2.1 110 12:57 10.02.2020
3002 Clouds 28 1010 83 10000 2.1 110 12:39 10.02.2020
3003 Clouds 28 1010 83 10000 2.1 110 12:20 10.02.2020
3004 Clouds 28 1010 88 10000 2.6 130 11:45 10.02.2020
3005 Clouds 28 1010 88 10000 2.6 130 11:21 10.02.2020
3006 Rain 26 1008 93 0 2.08 103 10:57 10.02.2020
3007 Rain 26 1008 93 0 2.08 103 10:38 10.02.2020
3008 Clouds 28 1009 83 10000 2.6 130 10:20 10.02.2020
3009 Clouds 28 1009 83 10000 2.6 130 09:42 10.02.2020
3010 Clouds 28 1009 83 10000 2.6 130 09:23 10.02.2020
3011 Clouds 28 1008 83 10000 4.1 120 08:41 10.02.2020
3012 Clouds 28 1008 83 10000 4.1 120 08:22 10.02.2020
3013 Clouds 29 1008 74 10000 5.1 110 07:55 10.02.2020
3014 Clouds 29 1008 74 10000 5.1 110 07:35 10.02.2020
3015 Rain 29 1007 74 10000 6.2 120 06:50 10.02.2020
3016 Clouds 31 1007 74 10000 5.7 120 05:35 10.02.2020
3017 Clouds 31 1007 70 10000 5.1 120 03:55 10.02.2020
3018 Clouds 31 1007 70 10000 5.1 120 03:18 10.02.2020
3019 Clouds 31 1008 70 10000 6.2 110 02:42 10.02.2020
3020 Clouds 31 1008 70 10000 5.7 110 01:25 10.02.2020
3021 Clouds 31 1008 70 10000 5.7 110 00:40 10.02.2020
3022 Clouds 31 1008 70 10000 5.7 110 00:21 10.02.2020
3023 Clouds 30 1009 74 10000 5.1 120 23:41 09.02.2020
3024 Clouds 30 1009 74 10000 5.1 120 23:23 09.02.2020
3025 Clouds 30 1009 74 10000 5.7 110 22:44 09.02.2020
3026 Clouds 30 1009 74 10000 5.7 110 22:22 09.02.2020
3027 Clouds 30 1009 74 10000 3.6 10 21:55 09.02.2020
3028 Clouds 30 1009 74 10000 3.6 10 21:36 09.02.2020
3029 Clouds 30 1009 74 10000 3.6 10 21:18 09.02.2020
3030 Clouds 28 1008 83 10000 2.6 100 20:44 09.02.2020
3031 Clouds 28 1008 83 10000 2.6 100 20:21 09.02.2020
3032 Rain 24 1007 95 0 1.16 67 19:54 09.02.2020
3033 Rain 24 1007 95 0 1.16 67 19:36 09.02.2020
3034 Clouds 26 1007 88 10000 1.16 67 19:18 09.02.2020
3035 Clouds 26 1007 88 10000 1.16 67 18:41 09.02.2020
3036 Clouds 26 1007 88 10000 1.16 67 18:23 09.02.2020
3037 Clouds 27 1007 88 10000 1.16 67 17:44 09.02.2020
3038 Clouds 27 1007 88 10000 1.16 67 17:24 09.02.2020
3039 Clouds 27 1007 88 10000 0.97 80 16:59 09.02.2020
3040 Clouds 27 1007 88 10000 0.97 80 16:40 09.02.2020
3041 Clouds 27 1007 88 10000 0.97 80 16:21 09.02.2020
3042 -273 0 0 0 0 0 15:57 09.02.2020
3043 Clouds 27 1008 88 10000 2.1 100 15:57 09.02.2020
3044 Clouds 27 1008 88 10000 2.1 100 15:39 09.02.2020
3045 Clouds 27 1008 88 10000 2.1 100 15:20 09.02.2020
3046 Clouds 27 1008 88 10000 3.6 100 14:55 09.02.2020
3047 Clouds 27 1008 88 10000 3.6 100 14:36 09.02.2020
3048 Clouds 27 1008 88 10000 3.6 100 14:18 09.02.2020
3049 Rain 24 1008 96 0 1 69 13:41 09.02.2020
3050 Clouds 28 1009 83 10000 4.1 120 13:21 09.02.2020
3051 Clouds 28 1009 83 10000 4.1 120 12:54 09.02.2020
3052 Clouds 28 1009 83 10000 4.1 120 12:36 09.02.2020
3053 Clouds 28 1009 83 10000 4.1 120 12:18 09.02.2020
3054 Clouds 27 1009 88 10000 3.1 120 11:39 09.02.2020
3055 Clouds 27 1009 88 10000 3.1 120 11:19 09.02.2020
3056 Clouds 27 1009 88 10000 5.1 110 10:43 09.02.2020
3057 Clouds 27 1009 88 10000 5.1 110 10:23 09.02.2020
3058 Clouds 28 1008 83 10000 3.6 120 09:58 09.02.2020
3059 Clouds 28 1008 83 10000 3.6 120 09:38 09.02.2020
3060 Clouds 28 1008 83 10000 3.6 120 09:20 09.02.2020
3061 Clouds 28 1007 88 10000 4.1 100 08:41 09.02.2020
3062 Clouds 28 1007 88 10000 4.1 100 08:23 09.02.2020
3063 Rain 26 1006 92 0 2.26 98 07:52 09.02.2020
3064 Clouds 29 1006 83 10000 6.7 110 07:26 09.02.2020
3065 Clouds 29 1006 83 10000 6.7 110 06:37 09.02.2020
3066 Clouds 29 1006 83 10000 4.1 110 05:55 09.02.2020
3067 Clouds 29 1006 83 10000 4.1 110 05:33 09.02.2020
3068 Clouds 30 1006 74 10000 6.2 100 04:48 09.02.2020
3069 Rain 30 1007 84 10000 4.6 80 02:58 09.02.2020
3070 Rain 30 1007 84 10000 4.6 80 02:36 09.02.2020
3071 Rain 28 1007 87 0 3.53 88 01:39 09.02.2020
3072 Clouds 30 1008 70 10000 6.2 100 00:56 09.02.2020
3073 Clouds 30 1008 70 10000 6.2 100 00:30 09.02.2020
3074 Clouds 31 1008 70 10000 5.1 90 23:50 08.02.2020
3075 Clouds 31 1008 70 10000 5.1 90 23:25 08.02.2020
3076 Clouds 29 1008 83 10000 4.6 90 22:58 08.02.2020
3077 Clouds 29 1008 83 10000 4.6 90 22:40 08.02.2020
3078 Clouds 29 1008 83 10000 4.6 90 22:20 08.02.2020
3079 Clouds 30 1008 74 10000 2.6 100 21:46 08.02.2020
3080 Clouds 30 1008 74 10000 2.6 100 21:27 08.02.2020
3081 Clouds 28 1008 83 10000 3.59 96 20:59 08.02.2020
3082 Clouds 28 1008 83 10000 3.59 96 20:40 08.02.2020
3083 Clouds 28 1008 83 10000 1.82 102 20:20 08.02.2020
3084 Rain 24 1007 95 0 1.82 102 19:58 08.02.2020
3085 Rain 24 1007 95 0 1.82 102 19:38 08.02.2020
3086 Rain 24 1007 95 0 1.82 102 19:38 08.02.2020
3087 Clouds 27 1006 88 10000 1.82 102 19:20 08.02.2020
3088 Clouds 27 1006 88 10000 1.82 102 18:56 08.02.2020
3089 Clouds 27 1006 88 10000 1.82 102 18:37 08.02.2020
3090 Clouds 27 1006 88 10000 1.82 102 18:19 08.02.2020
3091 Clouds 27 1006 88 10000 1.82 102 17:41 08.02.2020
3092 Clouds 27 1006 88 10000 0.65 55 17:19 08.02.2020
3093 Clouds 27 1006 88 10000 2.6 100 16:41 08.02.2020
3094 Clouds 27 1006 88 10000 2.6 100 16:23 08.02.2020
3095 Clouds 27 1006 88 10000 2.6 100 16:23 08.02.2020
3096 Clouds 27 1007 88 10000 0.65 55 15:58 08.02.2020
3097 Clouds 27 1007 88 10000 0.65 55 15:39 08.02.2020
3098 Clouds 27 1007 88 10000 0.65 55 15:18 08.02.2020
3099 Clouds 27 1007 88 10000 0.65 55 15:18 08.02.2020
3100 Clouds 27 1007 88 10000 0.65 55 15:18 08.02.2020
3101 Clouds 27 1007 88 10000 0.65 55 14:44 08.02.2020
3102 Clouds 27 1007 88 10000 0.65 55 14:22 08.02.2020
3103 Rain 24 1008 95 0 1.29 74 13:57 08.02.2020
3104 Rain 24 1008 95 0 1.29 74 13:38 08.02.2020
3105 Rain 24 1008 95 0 1.29 74 13:38 08.02.2020
3106 Clouds 28 1008 88 10000 1.5 90 13:20 08.02.2020
3107 Clouds 28 1008 88 10000 1.5 90 12:40 08.02.2020
3108 Clouds 28 1008 88 10000 1.5 90 12:21 08.02.2020
3109 Clouds 28 1008 83 10000 2.6 110 11:56 08.02.2020
3110 Clouds 28 1008 83 10000 2.6 110 11:37 08.02.2020
3111 Clouds 28 1008 83 10000 2.6 110 11:18 08.02.2020
3112 Clouds 28 1008 83 10000 2.6 110 10:42 08.02.2020
3113 Clouds 28 1008 83 10000 2.6 110 10:21 08.02.2020
3114 Clouds 28 1008 83 10000 2.6 100 09:51 08.02.2020
3115 Clouds 28 1008 83 10000 2.6 100 09:27 08.02.2020
3116 Clouds 28 1007 83 10000 2.6 100 08:54 08.02.2020
3117 Clouds 28 1007 83 10000 2.6 100 08:36 08.02.2020
3118 Clouds 28 1007 83 10000 2.6 100 08:36 08.02.2020
3119 Clouds 28 1007 83 10000 2.6 100 08:18 08.02.2020
3120 Rain 26 1006 90 0 3.26 102 07:43 08.02.2020
3121 Clouds 30 1006 74 10000 2.6 80 07:18 08.02.2020
3122 Clouds 30 1006 74 10000 2.6 80 06:24 08.02.2020
3123 Rain 31 1006 74 10000 5.1 110 05:47 08.02.2020
3124 Rain 31 1006 74 10000 5.1 110 05:28 08.02.2020
3125 Clouds 31 1006 74 10000 5.1 110 04:37 08.02.2020
3126 Clouds 30 1007 74 10000 6.7 110 03:41 08.02.2020
3127 Clouds 31 1008 70 10000 5.7 100 02:43 08.02.2020
3128 Rain 29 1007 75 0 3.84 91 01:37 08.02.2020
3129 Clouds 30 1009 79 10000 5.1 110 01:19 08.02.2020
3130 Clouds 30 1009 79 10000 5.1 110 00:38 08.02.2020
3131 Clouds 30 1009 79 10000 5.1 110 00:20 08.02.2020
3132 Clouds 31 1009 70 10000 6.2 90 23:42 07.02.2020
3133 Clouds 31 1009 70 10000 6.2 90 23:20 07.02.2020
3134 Clouds 30 1009 74 10000 6.7 90 22:56 07.02.2020
3135 Clouds 30 1009 74 10000 6.7 90 22:37 07.02.2020
3136 Clouds 30 1009 74 10000 6.7 90 22:18 07.02.2020
3137 Clouds 30 1008 74 10000 6.2 80 21:42 07.02.2020
3138 Clouds 30 1008 74 10000 6.2 80 21:22 07.02.2020
3139 Clouds 28 1008 83 10000 3.1 80 20:41 07.02.2020
3140 Clouds 28 1008 83 10000 3.1 80 20:22 07.02.2020
3141 Clouds 28 1008 83 10000 3.1 80 20:22 07.02.2020
3142 Clouds 27 1008 88 10000 2.6 90 19:57 07.02.2020
3143 Clouds 27 1008 88 10000 2.6 90 19:38 07.02.2020
3144 Clouds 27 1008 88 10000 2.6 90 19:19 07.02.2020
3145 Clouds 27 1008 88 10000 1.58 73 18:46 07.02.2020
3146 Clouds 27 1008 88 10000 1.58 73 18:26 07.02.2020
3147 Rain 27 1008 88 10000 1 100 17:57 07.02.2020
3148 Rain 27 1008 88 10000 1 100 17:39 07.02.2020
3149 Rain 27 1008 88 10000 1 100 17:20 07.02.2020
3150 Clouds 27 1008 88 10000 1.5 120 16:52 07.02.2020
3151 Clouds 27 1008 88 10000 1.5 120 16:24 07.02.2020
3152 Clouds 27 1008 88 10000 1.5 100 15:55 07.02.2020
3153 Clouds 27 1008 88 10000 1.5 100 15:29 07.02.2020
3154 Clouds 28 1009 83 10000 3.6 100 14:58 07.02.2020
3155 Clouds 28 1009 83 10000 3.6 100 14:40 07.02.2020
3156 Clouds 28 1009 83 10000 3.6 100 14:21 07.02.2020
3157 Clouds 28 1010 88 10000 3.6 110 13:57 07.02.2020
3158 Clouds 28 1010 88 10000 3.6 110 13:38 07.02.2020
3159 Clouds 28 1010 88 10000 3.6 110 13:38 07.02.2020
3160 Clouds 28 1010 88 10000 3.6 110 13:20 07.02.2020
3161 Clouds 28 1010 88 10000 3.1 90 12:42 07.02.2020
3162 Clouds 28 1010 88 10000 3.1 90 12:23 07.02.2020
3163 Clouds 28 1010 83 10000 3.6 100 11:45 07.02.2020
3164 Clouds 28 1010 83 10000 3.6 100 11:24 07.02.2020
3165 Clouds 28 1010 88 10000 2.1 110 10:59 07.02.2020
3166 Clouds 28 1010 88 10000 2.1 110 10:39 07.02.2020
3167 Clouds 28 1010 88 10000 2.1 110 10:20 07.02.2020
3168 Clouds 28 1009 83 10000 4.1 100 09:45 07.02.2020
3169 Clouds 28 1009 83 10000 4.1 100 09:25 07.02.2020
3170 Clouds 29 1008 83 10000 3.6 100 08:57 07.02.2020
3171 Clouds 29 1008 83 10000 3.6 100 08:36 07.02.2020
3172 Clouds 29 1008 83 10000 3.6 100 08:18 07.02.2020
3173 Clouds 29 1008 79 10000 5.7 110 07:40 07.02.2020
3174 Clouds 29 1008 79 10000 5.7 110 07:19 07.02.2020
3175 Clouds 30 1007 79 10000 4.6 110 06:42 07.02.2020
3176 Clouds 30 1007 79 10000 4.6 110 06:22 07.02.2020
3177 Clouds 31 1007 70 10000 5.1 110 05:43 07.02.2020
3178 Clouds 31 1008 74 10000 6.2 110 03:57 07.02.2020
3179 Clouds 31 1008 70 10000 6.2 110 02:28 07.02.2020
3180 Clouds 31 1009 74 10000 5.1 110 01:25 07.02.2020
3181 Clouds 30 1010 79 10000 4.6 130 00:37 07.02.2020
3182 Clouds 31 1010 70 10000 4.6 100 23:39 06.02.2020
3183 Clouds 31 1010 70 10000 4.6 100 23:39 06.02.2020
3184 Clouds 31 1010 70 10000 4.6 100 23:20 06.02.2020
3185 Clouds 30 1010 79 10000 5.7 100 22:57 06.02.2020
3186 Clouds 30 1010 79 10000 5.7 100 22:39 06.02.2020
3187 Clouds 30 1010 79 10000 5.7 100 22:20 06.02.2020
3188 Clouds 29 1010 83 10000 3.6 120 21:37 06.02.2020
3189 Clouds 29 1010 83 10000 3.6 120 21:19 06.02.2020
3190 Clouds 27 1010 94 10000 3.24 108 20:56 06.02.2020
3191 Clouds 27 1010 94 10000 3.24 108 20:37 06.02.2020
3192 Clouds 27 1010 94 10000 0.57 94 20:18 06.02.2020
3193 Clouds 25 1009 94 10000 0.57 94 19:57 06.02.2020
3194 Clouds 25 1009 94 10000 0.57 94 19:37 06.02.2020
3195 Clouds 25 1009 94 10000 0.57 94 19:19 06.02.2020
3196 Clouds 26 1009 94 10000 0.57 94 18:43 06.02.2020
3197 Clouds 26 1009 94 10000 0.57 94 18:25 06.02.2020
3198 Clouds 27 1009 88 10000 1.5 120 17:59 06.02.2020
3199 Clouds 27 1009 88 10000 1.5 120 17:41 06.02.2020
3200 Clouds 27 1009 88 10000 1.5 120 17:20 06.02.2020
3201 Clouds 27 1009 88 10000 1.5 120 16:43 06.02.2020
3202 Clouds 27 1009 88 10000 1.5 120 16:25 06.02.2020
3203 Clouds 27 1009 88 10000 2.1 110 15:54 06.02.2020
3204 Clouds 27 1009 88 10000 2.1 110 15:36 06.02.2020
3205 Clouds 27 1009 88 10000 2.1 110 15:18 06.02.2020
3206 Clouds 27 1010 94 10000 2.6 110 14:42 06.02.2020
3207 Clouds 27 1010 94 10000 2.6 110 14:24 06.02.2020
3208 Clouds 27 1011 88 10000 2.6 100 13:45 06.02.2020
3209 Clouds 27 1011 88 10000 2.6 100 13:26 06.02.2020
3210 Clouds 27 1012 94 10000 3.1 110 12:45 06.02.2020
3211 Clouds 27 1012 94 10000 3.1 110 12:45 06.02.2020
3212 Clouds 27 1012 94 10000 3.1 110 12:20 06.02.2020
3213 Clouds 27 1012 88 10000 2.6 110 11:59 06.02.2020
3214 Clouds 27 1012 88 10000 2.6 110 11:41 06.02.2020
3215 Clouds 27 1012 88 10000 2.6 110 11:21 06.02.2020
3216 Clouds 27 1011 88 10000 3.6 110 10:58 06.02.2020
3217 Clouds 27 1011 88 10000 3.6 110 10:40 06.02.2020
3218 Clouds 27 1011 88 10000 3.6 110 10:21 06.02.2020
3219 Clouds 26 1011 100 10000 1.5 110 09:57 06.02.2020
3220 Clouds 26 1011 100 10000 1.5 110 09:57 06.02.2020
3221 Clouds 26 1011 100 10000 1.5 110 09:38 06.02.2020
3222 Clouds 26 1011 100 10000 1.5 110 09:19 06.02.2020
3223 Rain 26 1011 94 10000 5.1 120 08:43 06.02.2020
3224 Rain 26 1011 94 10000 5.1 120 08:22 06.02.2020
3225 Rain 26 1011 94 10000 5.1 120 08:22 06.02.2020
3226 Clouds 28 1010 83 10000 5.7 120 07:52 06.02.2020
3227 Clouds 28 1010 83 10000 5.7 120 07:52 06.02.2020
3228 Clouds 28 1010 83 10000 5.7 120 07:29 06.02.2020
3229 Clouds 28 1010 83 10000 5.7 120 07:29 06.02.2020
3230 Clouds 27 1009 83 10000 4.6 120 06:46 06.02.2020
3231 Clouds 27 1009 83 10000 4.6 120 06:18 06.02.2020
3232 Clouds 29 1009 83 10000 6.7 120 04:54 06.02.2020
3233 Clouds 30 1009 74 10000 6.2 100 03:44 06.02.2020
3234 Clouds 30 1010 70 10000 5.7 130 02:44 06.02.2020
3235 Clouds 31 1010 70 10000 6.2 100 01:41 06.02.2020
3236 Clouds 30 1011 74 10000 5.1 110 00:59 06.02.2020
3237 Clouds 30 1011 74 10000 5.1 110 00:27 06.02.2020
3238 Clouds 30 1011 74 10000 3.6 120 23:48 05.02.2020
3239 Clouds 30 1011 74 10000 3.6 120 23:29 05.02.2020
3240 Clouds 29 1011 79 10000 3.6 100 22:59 05.02.2020
3241 Clouds 29 1011 79 10000 3.6 100 22:40 05.02.2020
3242 Clouds 29 1011 79 10000 3.6 100 22:40 05.02.2020
3243 Clouds 29 1011 79 10000 3.6 100 22:22 05.02.2020
3244 Clouds 29 1011 79 10000 3.6 100 22:22 05.02.2020
3245 Clouds 29 1011 79 10000 3.6 100 22:22 05.02.2020
3246 Clouds 26 1011 94 10000 2.34 96 21:54 05.02.2020
3247 Clouds 26 1011 94 10000 2.34 96 21:36 05.02.2020
3248 Clouds 26 1011 94 10000 2.34 96 21:18 05.02.2020
3249 Clouds 25 1010 100 10000 1.5 320 20:39 05.02.2020
3250 Clouds 25 1010 100 10000 1.5 320 20:19 05.02.2020
3251 Clouds 24 1010 94 10000 1 0 19:57 05.02.2020
3252 Clouds 24 1010 94 10000 1 0 19:38 05.02.2020
3253 Clouds 24 1010 94 10000 1 0 19:19 05.02.2020
3254 Clouds 24 1010 94 10000 1 0 19:19 05.02.2020
3255 Clouds 24 1009 100 10000 0.28 41 18:46 05.02.2020
3256 Clouds 24 1009 100 10000 0.28 41 18:22 05.02.2020
3257 Clouds 24 1009 100 10000 1 310 17:59 05.02.2020
3258 Clouds 24 1009 100 10000 1 310 17:38 05.02.2020
3259 Clouds 25 1009 94 10000 0.23 255 17:18 05.02.2020
3260 Clouds 25 1009 94 10000 0.23 255 16:56 05.02.2020
3261 Clouds 25 1009 94 10000 0.23 255 16:37 05.02.2020
3262 Clouds 25 1009 94 10000 0.23 255 16:18 05.02.2020
3263 Clouds 25 1009 100 10000 0.23 255 15:42 05.02.2020
3264 Clouds 25 1009 100 10000 0.23 255 15:19 05.02.2020
3265 Clouds 25 1010 94 10000 0.23 255 14:55 05.02.2020
3266 Clouds 25 1010 94 10000 0.23 255 14:37 05.02.2020
3267 Clouds 25 1010 94 10000 0.21 13 14:19 05.02.2020
3268 Clouds 25 1010 100 10000 1.5 170 13:41 05.02.2020
3269 Clouds 25 1010 100 10000 1.5 170 13:22 05.02.2020
3270 Clouds 26 1011 94 10000 0.43 68 12:44 05.02.2020
3271 Clouds 26 1011 94 10000 0.43 68 12:25 05.02.2020
3272 Clouds 26 1011 88 10000 1 0 11:59 05.02.2020
3273 Clouds 26 1011 88 10000 1 0 11:40 05.02.2020
3274 Clouds 26 1011 88 10000 1 0 11:21 05.02.2020
3275 Clouds 27 1010 78 10000 1.19 75 10:43 05.02.2020
3276 Clouds 27 1010 78 10000 1.19 75 10:25 05.02.2020
3277 Clouds 28 1009 88 10000 1.5 100 09:58 05.02.2020
3278 Clouds 28 1009 88 10000 1.5 100 09:38 05.02.2020
3279 Clouds 28 1009 88 10000 1.5 100 09:20 05.02.2020
3280 Clouds 28 1009 88 10000 2.1 70 08:44 05.02.2020
3281 Clouds 28 1009 88 10000 2.1 70 08:24 05.02.2020
3282 Clouds 29 1008 79 10000 3.6 90 07:55 05.02.2020
3283 Clouds 29 1008 79 10000 3.6 90 07:33 05.02.2020
3284 Clouds 30 1007 70 10000 5.1 100 06:50 05.02.2020
3285 Clouds 30 1007 70 10000 5.1 100 06:23 05.02.2020
3286 Clouds 30 1007 70 10000 5.7 90 05:54 05.02.2020
3287 Clouds 30 1007 70 10000 5.7 90 05:19 05.02.2020
3288 Clouds 30 1007 70 10000 4.6 80 04:45 05.02.2020
3289 Clouds 30 1007 70 10000 4.6 90 03:50 05.02.2020
3290 Clouds 31 1008 66 10000 5.7 90 02:25 05.02.2020
3291 Rain 30 1008 67 0 3.1 84 01:46 05.02.2020
3292 Clouds 27 1009 88 10000 2.6 140 00:43 05.02.2020
3293 Clouds 30 1009 70 10000 5.1 90 23:57 04.02.2020
3294 Clouds 30 1009 70 10000 5.1 90 23:37 04.02.2020
3295 Clouds 30 1009 70 10000 5.1 90 23:18 04.02.2020
3296 Clouds 28 1009 83 10000 1 0 22:42 04.02.2020
3297 Clouds 28 1009 83 10000 1 0 22:22 04.02.2020
3298 Clouds 26 1009 94 10000 2.1 350 21:59 04.02.2020
3299 Clouds 26 1009 94 10000 2.1 350 21:41 04.02.2020
3300 Clouds 26 1009 94 10000 2.1 350 21:19 04.02.2020
3301 Clouds 25 1008 94 10000 2.1 330 20:59 04.02.2020
3302 Clouds 25 1008 94 10000 2.1 330 20:38 04.02.2020
3303 Clouds 25 1008 94 10000 2.1 330 20:20 04.02.2020
3304 Clouds 25 1008 94 10000 2.1 330 20:20 04.02.2020
3305 Rain 24 1008 94 10000 1.5 270 19:56 04.02.2020
3306 Rain 24 1008 94 10000 1.5 270 19:56 04.02.2020
3307 Rain 24 1008 94 10000 1.5 270 19:38 04.02.2020
3308 Rain 24 1008 94 10000 1.5 270 19:20 04.02.2020
3309 Rain 24 1008 94 10000 1.5 330 18:54 04.02.2020
3310 Rain 24 1008 94 10000 1.5 330 18:36 04.02.2020
3311 Rain 24 1008 94 10000 1.5 330 18:18 04.02.2020
3312 Clouds 24 1008 94 10000 0.4 307 17:41 04.02.2020
3313 Clouds 24 1008 94 10000 0.75 294 17:20 04.02.2020
3314 Clouds 24 1007 94 10000 1.5 280 16:40 04.02.2020
3315 Clouds 24 1007 94 10000 1.5 280 16:21 04.02.2020
3316 Thunderstorm 25 1008 88 10000 3.6 20 15:59 04.02.2020
3317 Thunderstorm 25 1008 88 10000 3.6 20 15:41 04.02.2020
3318 Thunderstorm 25 1008 88 10000 3.6 20 15:21 04.02.2020
3319 Clouds 25 1008 94 10000 2.1 40 14:58 04.02.2020
3320 Clouds 25 1008 94 10000 2.1 40 14:40 04.02.2020
3321 Clouds 25 1008 94 10000 2.1 40 14:20 04.02.2020
3322 Clouds 25 1009 94 10000 1.5 330 13:42 04.02.2020
3323 Clouds 25 1009 94 10000 1.5 330 13:23 04.02.2020
3324 Clouds 25 1009 94 10000 0.3 58 12:59 04.02.2020
3325 Clouds 25 1009 94 10000 0.3 58 12:41 04.02.2020
3326 Clouds 25 1009 94 10000 0.3 58 12:41 04.02.2020
3327 Clouds 25 1009 94 10000 0.3 58 12:22 04.02.2020
3328 Clouds 25 1008 94 10000 1 0 11:56 04.02.2020
3329 Clouds 25 1008 94 10000 1 0 11:37 04.02.2020
3330 Clouds 25 1008 94 10000 1 0 11:37 04.02.2020
3331 Clouds 25 1008 94 10000 1 0 11:19 04.02.2020
3332 Clouds 26 1008 88 10000 3.1 340 10:45 04.02.2020
3333 Clouds 26 1008 88 10000 3.1 340 10:26 04.02.2020
3334 Clouds 27 1008 83 10000 1 0 09:57 04.02.2020
3335 Clouds 27 1008 83 10000 1 0 09:38 04.02.2020
3336 Clouds 27 1008 83 10000 1 0 09:19 04.02.2020
3337 Clouds 28 1007 83 10000 2.6 120 08:45 04.02.2020
3338 Clouds 28 1007 83 10000 2.6 120 08:45 04.02.2020
3339 Clouds 28 1007 83 10000 2.6 120 08:27 04.02.2020
3340 Clouds 29 1006 74 10000 3.6 90 07:50 04.02.2020
3341 Clouds 29 1006 74 10000 3.6 90 07:24 04.02.2020
3342 Clouds 29 1006 74 10000 3.6 90 07:24 04.02.2020
3343 Clouds 30 1005 66 10000 4.1 100 06:53 04.02.2020
3344 Clouds 30 1005 66 10000 4.1 100 06:34 04.02.2020
3345 Clouds 31 1005 62 10000 5.1 80 05:33 04.02.2020
3346 Clouds 31 1005 62 10000 5.1 70 04:27 04.02.2020
3347 Clouds 31 1006 62 10000 5.1 70 03:43 04.02.2020
3348 Clouds 31 1006 62 10000 5.1 70 03:25 04.02.2020
3349 Clouds 31 1006 62 10000 5.1 60 02:34 04.02.2020
3350 Clouds 31 1007 70 10000 5.1 60 01:56 04.02.2020
3351 Clouds 31 1007 70 10000 5.1 60 01:36 04.02.2020
3352 Clouds 30 1008 70 10000 4.1 50 00:52 04.02.2020
3353 Clouds 30 1008 70 10000 4.1 50 00:22 04.02.2020
3354 Clouds 30 1008 70 10000 4.1 50 00:22 04.02.2020
3355 Clouds 29 1008 79 10000 4.1 50 23:42 03.02.2020
3356 Clouds 29 1008 79 10000 4.1 50 23:42 03.02.2020
3357 Clouds 29 1008 79 10000 4.1 50 23:23 03.02.2020
3358 Clouds 29 1008 79 10000 2.6 10 22:40 03.02.2020
3359 Clouds 29 1008 79 10000 2.6 10 22:40 03.02.2020
3360 Clouds 29 1008 79 10000 2.6 10 22:21 03.02.2020
3361 Clouds 29 1008 83 10000 1.5 70 21:59 03.02.2020
3362 Clouds 29 1008 83 10000 1.5 70 21:39 03.02.2020
3363 Clouds 29 1008 83 10000 1.5 70 21:19 03.02.2020
3364 Clouds 25 1008 100 10000 2.06 94 20:42 03.02.2020
3365 Clouds 25 1008 100 10000 1.36 97 20:20 03.02.2020
3366 Clouds 24 1007 100 10000 1.5 270 19:58 03.02.2020
3367 Clouds 24 1007 100 10000 1.5 270 19:58 03.02.2020
3368 Clouds 24 1007 100 10000 1.5 270 19:40 03.02.2020
3369 Clouds 24 1007 100 10000 1.5 270 19:20 03.02.2020
3370 Clouds 24 1007 100 10000 1.36 97 18:56 03.02.2020
3371 Clouds 24 1007 100 10000 1.36 97 18:37 03.02.2020
3372 Clouds 24 1007 100 10000 1.36 97 18:18 03.02.2020
3373 Clouds 25 1007 94 10000 1.36 97 17:40 03.02.2020
3374 Clouds 25 1007 94 10000 0.58 106 17:20 03.02.2020
3375 Rain 25 1007 100 10000 1.5 140 16:59 03.02.2020
3376 Rain 25 1007 100 10000 1.5 140 16:39 03.02.2020
3377 Rain 25 1007 100 10000 1.5 140 16:20 03.02.2020
3378 Clouds 26 1007 88 10000 2.6 90 15:56 03.02.2020
3379 Clouds 26 1007 88 10000 2.6 90 15:37 03.02.2020
3380 Clouds 26 1007 88 10000 2.6 90 15:18 03.02.2020
3381 Clouds 26 1008 94 10000 0.58 106 14:42 03.02.2020
3382 Clouds 26 1008 94 10000 1.21 106 14:23 03.02.2020
3383 Rain 26 1008 94 10000 3.1 130 13:56 03.02.2020
3384 Rain 26 1008 94 10000 3.1 130 13:37 03.02.2020
3385 Rain 26 1008 94 10000 3.1 130 13:37 03.02.2020
3386 Rain 26 1008 94 10000 3.1 130 13:19 03.02.2020
3387 Clouds 26 1009 94 10000 2.6 140 12:42 03.02.2020
3388 Clouds 26 1009 94 10000 2.6 140 12:23 03.02.2020
3389 Clouds 26 1009 88 10000 3.1 150 11:59 03.02.2020
3390 Clouds 26 1009 88 10000 3.1 150 11:38 03.02.2020
3391 Clouds 26 1009 88 10000 3.1 150 11:19 03.02.2020
3392 Clouds 26 1009 88 10000 2 130 10:55 03.02.2020
3393 Clouds 26 1009 88 10000 2 130 10:37 03.02.2020
3394 Clouds 26 1009 88 10000 2 130 10:18 03.02.2020
3395 Clouds 26 1009 88 10000 2 130 10:18 03.02.2020
3396 Clouds 27 1009 88 10000 2.6 150 09:38 03.02.2020
3397 Clouds 27 1009 88 10000 2.6 150 09:19 03.02.2020
3398 Clouds 27 1008 88 10000 3.1 150 08:40 03.02.2020
3399 Clouds 27 1008 88 10000 3.1 150 08:22 03.02.2020
3400 Rain 29 1008 79 10000 3.6 170 07:42 03.02.2020
3401 Rain 29 1008 79 10000 3.6 170 07:23 03.02.2020
3402 Rain 29 1007 70 10000 3.6 160 06:56 03.02.2020
3403 Rain 29 1007 70 10000 3.6 160 06:31 03.02.2020
3404 Clouds 30 1007 66 10000 3.1 170 05:51 03.02.2020
3405 Clouds 30 1007 66 10000 3.1 170 05:31 03.02.2020
3406 Clouds 31 1008 66 10000 3.6 160 04:45 03.02.2020
3407 Clouds 30 1008 74 10000 3.6 150 02:48 03.02.2020
3408 Clouds 30 1008 74 10000 3.6 150 02:27 03.02.2020
3409 Clouds 31 1010 66 10000 3.1 130 00:49 03.02.2020
3410 Clouds 31 1010 66 10000 3.1 130 00:27 03.02.2020
3411 Clouds 30 1010 66 10000 3.1 150 23:56 02.02.2020
3412 Clouds 30 1010 66 10000 3.1 150 23:36 02.02.2020
3413 Clouds 30 1010 66 10000 3.1 150 23:18 02.02.2020
3414 Clouds 30 1010 66 10000 3.1 130 22:39 02.02.2020
3415 Clouds 30 1010 66 10000 3.1 130 22:39 02.02.2020
3416 Clouds 30 1010 66 10000 3.1 130 22:21 02.02.2020
3417 Clouds 28 1010 78 10000 2.36 139 21:58 02.02.2020
3418 Clouds 28 1010 78 10000 2.36 139 21:39 02.02.2020
3419 Clouds 28 1010 78 10000 2.36 139 21:20 02.02.2020
3420 Clouds 24 1010 94 10000 2.36 139 20:57 02.02.2020
3421 Clouds 24 1010 94 10000 2.36 139 20:39 02.02.2020
3422 Clouds 24 1010 94 10000 0.74 122 20:20 02.02.2020
3423 Clouds 23 1010 94 10000 0.74 122 19:56 02.02.2020
3424 Clouds 23 1010 94 10000 0.74 122 19:38 02.02.2020
3425 Clouds 23 1010 94 10000 0.74 122 19:19 02.02.2020
3426 Clouds 24 1009 94 10000 0.74 122 18:54 02.02.2020
3427 Clouds 24 1009 94 10000 0.74 122 18:36 02.02.2020
3428 Clouds 24 1009 94 10000 0.74 122 18:36 02.02.2020
3429 Clouds 24 1009 94 10000 0.74 122 18:18 02.02.2020
3430 Clouds 25 1009 83 10000 0.74 122 17:55 02.02.2020
3431 Clouds 25 1009 83 10000 0.74 122 17:36 02.02.2020
3432 Clouds 25 1009 83 10000 2.07 117 17:18 02.02.2020
3433 Clouds 26 1009 83 10000 2.07 117 16:54 02.02.2020
3434 Clouds 26 1009 83 10000 2.07 117 16:36 02.02.2020
3435 Clouds 26 1009 83 10000 2.07 117 16:18 02.02.2020
3436 Clouds 26 1009 83 10000 2.07 117 16:18 02.02.2020
3437 Clouds 26 1010 83 10000 2.07 117 15:40 02.02.2020
3438 Clouds 26 1010 83 10000 2.07 117 15:20 02.02.2020
3439 Clouds 26 1011 83 10000 2.6 140 14:59 02.02.2020
3440 Clouds 26 1011 83 10000 2.6 140 14:40 02.02.2020
3441 Clouds 26 1011 83 10000 2.6 140 14:18 02.02.2020
3442 Clouds 27 1011 78 10000 3.1 140 13:56 02.02.2020
3443 Clouds 27 1011 78 10000 3.1 140 13:37 02.02.2020
3444 Clouds 27 1011 78 10000 3.1 140 13:19 02.02.2020
3445 Clouds 27 1011 78 10000 3.1 140 12:45 02.02.2020
3446 Clouds 27 1011 78 10000 3.1 140 12:23 02.02.2020
3447 Clouds 27 1012 88 10000 3.1 130 11:59 02.02.2020
3448 Clouds 27 1012 88 10000 3.1 130 11:40 02.02.2020
3449 Clouds 27 1012 88 10000 3.1 130 11:19 02.02.2020
3450 Clouds 26 1011 94 10000 1 0 10:56 02.02.2020
3451 Clouds 26 1011 94 10000 1 0 10:37 02.02.2020
3452 Clouds 26 1011 94 10000 1 0 10:19 02.02.2020
3453 Clouds 26 1011 94 10000 2.6 160 09:55 02.02.2020
3454 Clouds 26 1011 94 10000 2.6 160 09:36 02.02.2020
3455 Clouds 26 1011 94 10000 2.6 160 09:36 02.02.2020
3456 Clouds 26 1011 94 10000 2.6 160 09:18 02.02.2020
3457 Rain 26 1011 94 10000 2.1 150 08:41 02.02.2020
3458 Rain 26 1011 94 10000 2.1 150 08:22 02.02.2020
3459 Clouds 28 1010 88 10000 3.6 120 07:46 02.02.2020
3460 Clouds 28 1010 88 10000 3.6 120 07:46 02.02.2020
3461 Clouds 28 1010 88 10000 3.6 120 07:28 02.02.2020
3462 Clouds 28 1009 88 10000 4.1 120 06:43 02.02.2020
3463 Clouds 28 1009 88 10000 4.1 120 06:25 02.02.2020
3464 Clouds 28 1009 88 10000 2.1 160 05:47 02.02.2020
3465 Clouds 29 1009 94 10000 4.6 120 04:42 02.02.2020
3466 Rain 27 1010 94 10000 4.6 130 03:25 02.02.2020
3467 Clouds 28 1010 88 10000 4.1 130 02:29 02.02.2020
3468 Rain 27 1011 94 10000 6.2 130 01:52 02.02.2020
3469 Rain 27 1011 94 10000 6.2 130 01:52 02.02.2020
3470 Rain 27 1011 94 10000 6.2 130 01:19 02.02.2020
3471 Rain 28 1011 88 10000 3.6 110 00:43 02.02.2020
3472 Rain 28 1011 88 10000 3.6 110 00:20 02.02.2020
3473 Drizzle 28 1011 88 10000 3.7 111 23:45 01.02.2020
3474 Drizzle 28 1011 88 10000 2.36 104 23:21 01.02.2020
3475 Clouds 27 1012 94 10000 2.1 40 22:50 01.02.2020
3476 Clouds 27 1012 94 10000 2.1 40 22:19 01.02.2020
3477 Rain 26 1012 94 10000 1.5 60 21:45 01.02.2020
3478 Rain 26 1012 94 10000 1.5 60 21:20 01.02.2020
3479 Rain 26 1012 94 10000 1.5 60 21:20 01.02.2020
3480 Rain 25 1011 94 10000 2.6 100 20:58 01.02.2020
3481 Rain 25 1011 94 10000 2.6 100 20:40 01.02.2020
3482 Rain 25 1011 94 10000 2.6 100 20:20 01.02.2020
3483 Rain 27 1012 83 5000 5.7 70 19:56 01.02.2020
3484 Rain 27 1011 83 8000 2.6 70 19:38 01.02.2020
3485 Rain 27 1011 83 8000 2.6 70 19:19 01.02.2020
3486 Rain 26 1011 94 8000 2.1 100 18:57 01.02.2020
3487 Thunderstorm 26 1011 94 8000 3.1 110 18:38 01.02.2020
3488 Thunderstorm 26 1011 94 8000 3.1 110 18:19 01.02.2020
3489 Thunderstorm 26 1010 94 10000 1 150 17:55 01.02.2020
3490 Thunderstorm 26 1010 94 10000 1 150 17:37 01.02.2020
3491 Thunderstorm 26 1010 94 10000 1 150 17:18 01.02.2020
3492 Rain 26 1010 94 10000 2.6 110 16:42 01.02.2020
3493 Rain 26 1010 94 10000 2.6 110 16:22 01.02.2020
3494 Rain 26 1010 94 10000 4.6 120 15:55 01.02.2020
3495 Rain 26 1010 94 10000 4.6 120 15:37 01.02.2020
3496 Rain 26 1010 94 10000 4.6 120 15:18 01.02.2020
3497 Clouds 27 1010 83 10000 1.5 120 14:40 01.02.2020
3498 Clouds 27 1010 83 10000 1.5 120 14:20 01.02.2020
3499 Clouds 27 1011 88 10000 4.6 120 13:45 01.02.2020
3500 Clouds 27 1011 88 10000 4.6 120 13:23 01.02.2020
3501 Clouds 27 1011 88 10000 4.6 120 13:23 01.02.2020
3502 Clouds 28 1012 83 10000 2.6 140 12:50 01.02.2020
3503 Clouds 28 1012 83 10000 2.6 140 12:32 01.02.2020
3504 Clouds 27 1012 94 10000 2.6 130 11:59 01.02.2020
3505 Clouds 27 1012 94 10000 2.6 130 11:39 01.02.2020
3506 Clouds 27 1012 94 10000 2.6 130 11:20 01.02.2020
3507 Clouds 27 1012 94 10000 2.6 130 11:20 01.02.2020
3508 Clouds 27 1012 94 10000 2.1 150 10:58 01.02.2020
3509 Clouds 27 1012 94 10000 2.1 150 10:39 01.02.2020
3510 Clouds 27 1012 94 10000 2.1 150 10:21 01.02.2020
3511 Clouds 27 1011 94 10000 1.5 150 09:58 01.02.2020
3512 Clouds 27 1011 94 10000 1.5 150 09:39 01.02.2020
3513 Clouds 27 1011 94 10000 1.5 150 09:20 01.02.2020
3514 Rain 27 1011 88 10000 4.6 130 08:45 01.02.2020
3515 Rain 27 1010 92 0 2.02 139 07:49 01.02.2020
3516 Clouds 29 1010 83 10000 4.1 170 07:27 01.02.2020
3517 Clouds 29 1010 83 10000 4.1 170 06:56 01.02.2020
3518 Clouds 29 1010 83 10000 4.1 170 06:56 01.02.2020
3519 Clouds 29 1010 83 10000 4.1 170 06:32 01.02.2020
3520 Clouds 30 1010 79 10000 3.6 170 05:52 01.02.2020
3521 Clouds 30 1010 70 10000 2.86 130 03:53 01.02.2020
3522 Clouds 30 1010 70 10000 2.86 130 03:21 01.02.2020
3523 Clouds 31 1011 70 10000 4.1 140 02:45 01.02.2020
3524 Clouds 31 1011 70 10000 4.1 140 02:26 01.02.2020
3525 Clouds 30 1011 70 10000 3.6 150 01:52 01.02.2020
3526 Clouds 30 1011 70 10000 3.6 150 01:31 01.02.2020
3527 Clouds 30 1012 74 10000 3.6 170 00:30 01.02.2020
3528 Rain 29 1012 83 10000 3.6 170 23:43 31.01.2020
3529 Rain 29 1012 83 10000 3.6 170 23:20 31.01.2020
3530 Clouds 29 1012 79 10000 3.6 160 22:59 31.01.2020
3531 Clouds 29 1012 79 10000 3.6 160 22:40 31.01.2020
3532 Clouds 29 1012 79 10000 3.6 160 22:22 31.01.2020
3533 Clouds 29 1013 74 10000 3.1 150 21:56 31.01.2020
3534 Clouds 29 1013 74 10000 3.1 150 21:38 31.01.2020
3535 Clouds 29 1013 74 10000 3.1 150 21:19 31.01.2020
3536 Clouds 28 1012 83 10000 2.1 150 20:56 31.01.2020
3537 Clouds 28 1012 83 10000 2.1 150 20:37 31.01.2020
3538 Rain 24 1011 95 0 1.49 129 20:18 31.01.2020
3539 Rain 24 1011 95 0 1.49 129 19:55 31.01.2020
3540 Rain 24 1011 95 0 1.49 129 19:37 31.01.2020
3541 Clouds 27 1012 88 10000 2.1 140 19:18 31.01.2020
3542 Clouds 27 1012 88 10000 2.1 140 18:40 31.01.2020
3543 Clouds 27 1012 88 10000 2.1 140 18:22 31.01.2020
3544 Clouds 27 1012 88 10000 1.49 129 17:47 31.01.2020
3545 Clouds 27 1012 88 10000 1.49 129 17:28 31.01.2020
3546 Clouds 27 1012 88 10000 1.5 170 16:59 31.01.2020
3547 Clouds 27 1012 88 10000 1.5 170 16:39 31.01.2020
3548 Clouds 27 1012 88 10000 1.5 170 16:39 31.01.2020
3549 Clouds 27 1012 88 10000 1.5 170 16:19 31.01.2020
3550 Clouds 27 1013 88 10000 1.5 180 15:59 31.01.2020
3551 Clouds 27 1013 88 10000 1.5 180 15:59 31.01.2020
3552 Clouds 27 1013 88 10000 1.5 180 15:41 31.01.2020
3553 Clouds 27 1013 88 10000 1.5 180 15:20 31.01.2020
3554 Clouds 26 1013 94 10000 1.73 148 14:45 31.01.2020
3555 Clouds 26 1013 94 10000 1.73 148 14:26 31.01.2020
3556 Rain 25 1014 94 0 1.45 171 13:59 31.01.2020
3557 Rain 25 1014 94 0 1.45 171 13:38 31.01.2020
3558 Clouds 27 1014 94 10000 1.5 150 13:20 31.01.2020
3559 Clouds 27 1014 94 10000 1.5 150 12:45 31.01.2020
3560 Clouds 27 1014 94 10000 1.5 150 12:24 31.01.2020
3561 Rain 27 1014 88 10000 1.5 140 11:56 31.01.2020
3562 Rain 27 1014 88 10000 1.5 140 11:37 31.01.2020
3563 Rain 27 1014 88 10000 1.5 140 11:19 31.01.2020
3564 Clouds 28 1014 83 10000 2.1 150 10:44 31.01.2020
3565 Clouds 28 1014 83 10000 2.1 150 10:23 31.01.2020
3566 Clouds 28 1013 83 10000 2.1 150 09:59 31.01.2020
3567 Clouds 28 1013 83 10000 2.1 150 09:41 31.01.2020
3568 Clouds 28 1013 83 10000 2.1 150 09:41 31.01.2020
3569 Clouds 28 1013 83 10000 2.1 150 09:21 31.01.2020
3570 Clouds 28 1013 83 10000 1.5 150 08:54 31.01.2020
3571 Clouds 28 1013 83 10000 1.5 150 08:54 31.01.2020
3572 Clouds 28 1013 83 10000 1.5 150 08:28 31.01.2020
3573 Rain 26 1011 91 0 2.3 149 07:58 31.01.2020
3574 Rain 26 1011 91 0 2.3 149 07:39 31.01.2020
3575 Clouds 29 1011 74 10000 2.6 130 07:18 31.01.2020
3576 Clouds 29 1011 74 10000 2.6 130 06:27 31.01.2020
3577 Clouds 29 1011 74 10000 2.6 130 06:27 31.01.2020
3578 Clouds 30 1011 70 10000 4.1 120 05:50 31.01.2020
3579 Clouds 30 1011 70 10000 4.1 120 05:18 31.01.2020
3580 Clouds 32 1011 66 10000 4.6 120 03:29 31.01.2020
3581 Rain 31 1012 64 0 2.54 95 01:40 31.01.2020
3582 Clouds 31 1013 62 10000 4.6 100 00:47 31.01.2020
3583 Clouds 31 1013 62 10000 4.6 100 00:28 31.01.2020
3584 Clouds 31 1013 66 10000 4.6 70 23:57 30.01.2020
3585 Clouds 31 1013 66 10000 4.6 70 23:26 30.01.2020
3586 Clouds 31 1013 70 10000 2.1 120 22:58 30.01.2020
3587 Clouds 31 1013 70 10000 2.1 120 22:38 30.01.2020
3588 Clouds 31 1013 70 10000 2.1 120 22:19 30.01.2020
3589 Clouds 27 1013 88 10000 2.1 330 21:57 30.01.2020
3590 Clouds 27 1013 88 10000 2.1 330 21:38 30.01.2020
3591 Clouds 27 1013 88 10000 2.1 330 21:18 30.01.2020
3592 Clouds 27 1013 88 10000 2.1 330 21:18 30.01.2020
3593 Clouds 25 1013 94 10000 2.1 330 21:18 30.01.2020
3594 Clouds 25 1013 94 10000 2.1 330 20:41 30.01.2020
3595 Clouds 25 1013 94 10000 2.1 330 20:22 30.01.2020
3596 Clouds 25 1013 94 10000 2.1 330 20:22 30.01.2020
3597 Clouds 25 1013 94 10000 2.1 330 20:22 30.01.2020
3598 Clouds 24 1012 93 0 0.11 283 19:57 30.01.2020
3599 Clouds 24 1012 93 0 0.11 283 19:39 30.01.2020
3600 Fog 24 1011 100 10000 1.5 330 19:19 30.01.2020
3601 Fog 24 1011 100 10000 1.5 330 18:42 30.01.2020
3602 Fog 24 1011 100 10000 1.5 330 18:23 30.01.2020
3603 Clouds 24 1011 100 10000 0.11 283 17:58 30.01.2020
3604 Clouds 24 1011 100 10000 0.11 283 17:39 30.01.2020
3605 Clouds 24 1011 100 10000 0.65 10 17:19 30.01.2020
3606 Clouds 24 1011 100 10000 0.65 10 17:19 30.01.2020
3607 Clouds 24 1011 100 10000 0.65 10 16:56 30.01.2020
3608 Clouds 24 1011 100 10000 0.65 10 16:38 30.01.2020
3609 Clouds 24 1011 100 10000 0.65 10 16:20 30.01.2020
3610 Clouds 25 1011 94 10000 1.5 330 15:43 30.01.2020
3611 Clouds 25 1011 94 10000 1.5 330 15:20 30.01.2020
3612 Clouds 25 1012 94 10000 1.5 330 14:50 30.01.2020
3613 Clouds 25 1012 94 10000 1.5 330 14:27 30.01.2020
3614 Rain 24 1012 93 0 1.44 40 13:57 30.01.2020
3615 Rain 24 1012 93 0 1.44 40 13:38 30.01.2020
3616 Rain 24 1012 93 0 1.44 40 13:38 30.01.2020
3617 Clouds 25 1013 94 10000 1 290 13:19 30.01.2020
3618 Clouds 25 1013 94 10000 1 290 12:43 30.01.2020
3619 Clouds 25 1013 94 10000 1 290 12:24 30.01.2020
3620 Clouds 26 1013 88 10000 1 0 11:58 30.01.2020
3621 Clouds 26 1013 88 10000 1 0 11:40 30.01.2020
3622 Clouds 26 1013 88 10000 1 0 11:21 30.01.2020
3623 Clouds 27 1012 88 10000 2.1 360 10:42 30.01.2020
3624 Clouds 27 1012 88 10000 2.1 360 10:24 30.01.2020
3625 Clouds 27 1012 94 10000 1 200 09:49 30.01.2020
3626 Clouds 27 1012 94 10000 1 200 09:30 30.01.2020
3627 Clouds 28 1011 83 10000 1 0 08:59 30.01.2020
3628 Clouds 28 1011 83 10000 1 0 08:41 30.01.2020
3629 Clouds 28 1011 83 10000 1 0 08:20 30.01.2020
3630 Clouds 29 1010 79 10000 1 180 07:49 30.01.2020
3631 Clouds 29 1010 79 10000 1 180 07:29 30.01.2020
3632 Clouds 29 1009 74 10000 2.6 120 06:47 30.01.2020
3633 Clouds 29 1009 74 10000 2.6 120 06:29 30.01.2020
3634 Clouds 29 1009 74 10000 2.6 130 05:44 30.01.2020
3635 Clouds 29 1009 74 10000 2.6 130 05:22 30.01.2020
3636 Clouds 30 1009 70 10000 3.1 120 03:55 30.01.2020
3637 Clouds 30 1009 70 10000 3.1 120 03:36 30.01.2020
3638 Clouds 28 1010 83 10000 2.1 160 02:42 30.01.2020
3639 Rain 29 1011 79 10000 3.1 150 00:43 30.01.2020
3640 Rain 29 1011 79 10000 3.1 150 00:21 30.01.2020
3641 Clouds 29 1011 79 10000 4.1 90 23:46 29.01.2020
3642 Clouds 29 1011 79 10000 4.1 90 23:22 29.01.2020
3643 Clouds 29 1011 79 10000 1.5 170 22:57 29.01.2020
3644 Clouds 29 1011 79 10000 1.5 170 22:39 29.01.2020
3645 Clouds 29 1011 79 10000 1.5 170 22:19 29.01.2020
3646 Clouds 27 1011 88 10000 1 300 21:58 29.01.2020
3647 Clouds 27 1011 88 10000 1 300 21:38 29.01.2020
3648 Clouds 27 1011 88 10000 1 300 21:19 29.01.2020
3649 Clouds 25 1011 94 10000 1.5 310 20:58 29.01.2020
3650 Clouds 25 1011 94 10000 1.5 310 20:58 29.01.2020
3651 Clouds 25 1011 94 10000 1.5 310 20:38 29.01.2020
3652 Clouds 25 1011 94 10000 1.5 310 20:38 29.01.2020
3653 Clouds 25 1011 94 10000 1.5 310 20:19 29.01.2020
3654 Clouds 25 1011 94 10000 1.5 310 20:19 29.01.2020
3655 Clouds 24 1010 100 10000 1.5 310 19:55 29.01.2020
3656 Clouds 24 1010 100 10000 1.5 310 19:37 29.01.2020
3657 Clouds 24 1010 100 10000 1.5 310 19:18 29.01.2020
3658 Clouds 24 1009 100 10000 2.1 320 18:43 29.01.2020
3659 Clouds 24 1009 100 10000 2.1 320 18:19 29.01.2020
3660 Clouds 24 1009 100 10000 1.5 310 17:56 29.01.2020
3661 Clouds 24 1009 100 10000 1.5 310 17:37 29.01.2020
3662 Clouds 24 1009 100 10000 1.5 310 17:19 29.01.2020
3663 Clouds 25 1009 94 10000 0.62 256 16:41 29.01.2020
3664 Clouds 25 1009 94 10000 0.62 256 16:22 29.01.2020
3665 Clouds 25 1009 94 10000 1.5 300 15:41 29.01.2020
3666 Clouds 25 1009 94 10000 1.5 300 15:22 29.01.2020
3667 Clouds 25 1009 94 10000 2.1 300 14:59 29.01.2020
3668 Clouds 25 1009 94 10000 2.1 300 14:40 29.01.2020
3669 Clouds 25 1009 94 10000 2.1 300 14:19 29.01.2020
3670 Clouds 25 1010 94 10000 1 0 13:41 29.01.2020
3671 Clouds 25 1010 94 10000 1 0 13:22 29.01.2020
3672 Clouds 25 1010 100 10000 0.66 311 12:57 29.01.2020
3673 Clouds 25 1010 100 10000 0.66 311 12:39 29.01.2020
3674 Clouds 25 1010 100 10000 0.66 311 12:21 29.01.2020
3675 Clouds 26 1010 94 10000 1.5 330 11:56 29.01.2020
3676 Clouds 26 1010 94 10000 1.5 330 11:37 29.01.2020
3677 Clouds 26 1010 94 10000 1.5 330 11:19 29.01.2020
3678 Clouds 26 1010 94 10000 0.9 197 10:45 29.01.2020
3679 Clouds 28 1009 78 10000 1.5 170 10:22 29.01.2020
3680 Clouds 28 1009 78 10000 1.5 170 09:40 29.01.2020
3681 Clouds 28 1009 78 10000 1.5 170 09:40 29.01.2020
3682 Clouds 28 1009 78 10000 1.5 170 09:22 29.01.2020
3683 Clouds 28 1008 78 10000 1.5 170 08:58 29.01.2020
3684 Clouds 28 1008 78 10000 1.5 170 08:39 29.01.2020
3685 Clouds 28 1008 78 10000 1.5 170 08:20 29.01.2020
3686 Clouds 26 1008 80 0 2.01 183 07:45 29.01.2020
3687 Clouds 28 1008 83 10000 2.1 160 07:25 29.01.2020
3688 Clouds 28 1008 83 10000 2.1 160 06:55 29.01.2020
3689 Clouds 28 1008 83 10000 2.1 160 06:37 29.01.2020
3690 Clouds 28 1008 83 10000 2.1 160 06:18 29.01.2020
3691 Clouds 29 1007 74 10000 3.1 160 05:45 29.01.2020
3692 Clouds 29 1007 74 10000 3.1 160 05:26 29.01.2020
3693 Clouds 31 1008 66 10000 3.1 160 04:38 29.01.2020
3694 Clouds 32 1009 62 10000 3.1 180 03:49 29.01.2020
3695 Clouds 31 1010 66 10000 3.1 190 02:33 29.01.2020
3696 Clouds 30 1010 70 10000 3.1 180 00:43 29.01.2020
3697 Clouds 30 1010 70 10000 3.1 180 00:25 29.01.2020
3698 Clouds 30 1011 74 10000 3.1 180 23:58 28.01.2020
3699 Clouds 30 1011 74 10000 3.1 180 23:37 28.01.2020
3700 Clouds 30 1011 74 10000 3.1 180 23:18 28.01.2020
3701 Clouds 29 1011 79 10000 3.1 180 22:40 28.01.2020
3702 Clouds 29 1011 79 10000 3.1 180 22:21 28.01.2020
3703 Clouds 27 1011 88 10000 2.1 200 21:42 28.01.2020
3704 Clouds 27 1011 88 10000 2.1 200 21:23 28.01.2020
3705 Clouds 27 1011 88 10000 2.1 200 21:23 28.01.2020
3706 Clouds 24 1010 100 10000 1 0 20:58 28.01.2020
3707 Clouds 24 1010 100 10000 1 0 20:40 28.01.2020
3708 Clouds 24 1010 100 10000 1 0 20:21 28.01.2020
3709 Rain 24 1009 96 0 1.53 233 19:39 28.01.2020
3710 Clouds 24 1009 100 10000 1 0 19:21 28.01.2020
3711 Clouds 24 1009 100 10000 1 0 18:58 28.01.2020
3712 Clouds 24 1009 100 10000 1 0 18:40 28.01.2020
3713 Clouds 24 1009 100 10000 1 0 18:21 28.01.2020
3714 Clouds 24 1009 100 10000 1 0 17:57 28.01.2020
3715 Clouds 24 1009 100 10000 1 0 17:37 28.01.2020
3716 Clouds 24 1009 100 10000 1 0 17:19 28.01.2020
3717 Clouds 25 1009 94 10000 1.5 320 16:55 28.01.2020
3718 Clouds 25 1009 94 10000 1.5 320 16:36 28.01.2020
3719 Clouds 25 1009 94 10000 1.5 320 16:18 28.01.2020
3720 Clouds 25 1009 94 10000 2.1 320 15:42 28.01.2020
3721 Clouds 25 1009 94 10000 2.1 320 15:19 28.01.2020
3722 Clouds 25 1010 100 10000 1.5 320 14:54 28.01.2020
3723 Clouds 25 1010 100 10000 1.5 320 14:36 28.01.2020
3724 Clouds 25 1010 100 10000 1.5 320 14:18 28.01.2020
3725 Rain 24 1010 96 0 1.46 216 13:39 28.01.2020
3726 Clouds 26 1010 94 10000 1 0 13:21 28.01.2020
3727 Clouds 26 1010 94 10000 1 0 12:42 28.01.2020
3728 Clouds 26 1010 94 10000 1 0 12:23 28.01.2020
3729 Clouds 26 1010 94 10000 1.44 217 11:48 28.01.2020
3730 Clouds 26 1010 94 10000 1.44 217 11:23 28.01.2020
3731 Clouds 27 1010 88 10000 1.85 221 10:58 28.01.2020
3732 Clouds 27 1010 88 10000 1.85 221 10:39 28.01.2020
3733 Clouds 27 1010 88 10000 1.85 221 10:20 28.01.2020
3734 Clouds 27 1009 83 10000 1.5 190 09:43 28.01.2020
3735 Clouds 27 1009 83 10000 1.5 190 09:21 28.01.2020
3736 Clouds 28 1009 83 10000 2.6 200 08:58 28.01.2020
3737 Clouds 28 1009 83 10000 2.6 200 08:39 28.01.2020
3738 Clouds 28 1009 83 10000 2.6 200 08:18 28.01.2020
3739 Rain 26 1008 92 0 1.98 205 07:37 28.01.2020
3740 Rain 26 1008 92 0 1.98 205 07:37 28.01.2020
3741 Clouds 29 1008 79 10000 3.6 210 06:50 28.01.2020
3742 Clouds 29 1008 79 10000 3.6 210 06:26 28.01.2020
3743 Clouds 30 1008 74 10000 4.1 210 05:54 28.01.2020
3744 Clouds 30 1008 74 10000 4.1 210 05:26 28.01.2020
3745 Clouds 30 1009 66 10000 4.1 210 03:59 28.01.2020
3746 Clouds 30 1009 70 10000 4.1 220 02:58 28.01.2020
3747 Clouds 30 1009 70 10000 4.1 220 02:25 28.01.2020
3748 Rain 29 1009 76 0 2.53 190 01:57 28.01.2020
3749 Clouds 30 1010 70 10000 2.6 200 01:24 28.01.2020
3750 Clouds 30 1010 70 10000 2.6 200 00:48 28.01.2020
3751 Clouds 30 1010 70 10000 2.6 200 00:28 28.01.2020
3752 Clouds 29 1010 74 10000 2.6 220 23:49 27.01.2020
3753 Clouds 29 1010 74 10000 2.6 220 23:30 27.01.2020
3754 Clouds 28 1010 83 10000 2.1 230 22:55 27.01.2020
3755 Clouds 28 1010 83 10000 2.1 230 22:36 27.01.2020
3756 Clouds 28 1010 83 10000 2.1 230 22:18 27.01.2020
3757 Clouds 26 1010 94 10000 2.1 280 21:54 27.01.2020
3758 Clouds 26 1010 94 10000 2.1 280 21:36 27.01.2020
3759 Clouds 26 1010 94 10000 2.1 280 21:18 27.01.2020
3760 Clouds 25 1009 94 10000 2.6 330 20:42 27.01.2020
3761 Clouds 25 1009 94 10000 2.6 330 20:21 27.01.2020
3762 Clouds 25 1009 94 10000 2.6 330 20:21 27.01.2020
3763 Clouds 22 1008 96 0 1.74 270 19:58 27.01.2020
3764 Clouds 22 1008 96 0 1.74 270 19:40 27.01.2020
3765 Clouds 24 1008 94 10000 2.1 330 19:21 27.01.2020
3766 Clouds 24 1008 94 10000 2.1 330 19:21 27.01.2020
3767 Clouds 24 1008 94 10000 2.1 330 18:55 27.01.2020
3768 Clouds 24 1008 94 10000 2.1 330 18:37 27.01.2020
3769 Clouds 24 1008 94 10000 2.1 330 18:37 27.01.2020
3770 Clouds 24 1008 94 10000 2.1 330 18:19 27.01.2020
3771 Clouds 22 1008 96 0 1.74 270 17:39 27.01.2020
3772 Clouds 24 1008 94 10000 2.1 330 17:19 27.01.2020
3773 Clouds 24 1008 94 10000 2.1 330 16:57 27.01.2020
3774 Clouds 24 1008 94 10000 2.1 330 16:39 27.01.2020
3775 Clouds 24 1008 94 10000 2.1 330 16:21 27.01.2020
3776 Clouds 24 1009 94 10000 2.1 330 15:54 27.01.2020
3777 Clouds 24 1009 94 10000 2.1 330 15:36 27.01.2020
3778 Clouds 24 1009 94 10000 2.1 330 15:18 27.01.2020
3779 Clouds 24 1010 94 10000 1.5 330 14:40 27.01.2020
3780 Clouds 24 1010 94 10000 1.5 330 14:21 27.01.2020
3781 Clear 24 1010 95 0 1.81 222 13:54 27.01.2020
3782 Clear 24 1010 95 0 1.81 222 13:36 27.01.2020
3783 Clouds 25 1010 94 10000 1.89 218 13:18 27.01.2020
3784 Clouds 25 1010 94 10000 1.89 218 12:41 27.01.2020
3785 Clouds 25 1010 94 10000 1.89 218 12:22 27.01.2020
3786 Clouds 26 1010 88 10000 1.89 218 11:43 27.01.2020
3787 Clouds 26 1010 88 10000 1.89 218 11:22 27.01.2020
3788 Clouds 27 1010 83 10000 1.5 200 10:57 27.01.2020
3789 Clouds 27 1010 83 10000 1.5 200 10:39 27.01.2020
3790 Clouds 27 1010 83 10000 1.5 200 10:20 27.01.2020
3791 Clouds 27 1009 83 10000 1.5 190 09:40 27.01.2020
3792 Clouds 27 1009 83 10000 1.5 190 09:19 27.01.2020
3793 Rain 24 1009 93 0 2.16 187 08:56 27.01.2020
3794 Rain 24 1009 93 0 2.16 187 08:38 27.01.2020
3795 Rain 26 1006 92 0 2.09 190 08:18 27.01.2020
3796 Rain 26 1006 92 0 2.09 190 07:46 27.01.2020
3797 Clouds 30 1007 66 10000 3.1 180 07:26 27.01.2020
3798 Clouds 30 1007 66 10000 3.1 180 06:38 27.01.2020
3799 Clouds 29 1007 70 10000 3.6 170 05:43 27.01.2020
3800 Clouds 30 1008 70 10000 4.6 170 04:37 27.01.2020
3801 Clouds 28 1008 83 10000 2.1 190 03:35 27.01.2020
3802 Clear 30 1008 65 0 3.31 190 01:54 27.01.2020
3803 Clouds 28 1009 78 10000 3.1 200 01:25 27.01.2020
3804 Clouds 28 1009 78 10000 3.1 200 00:41 27.01.2020
3805 Clouds 28 1009 78 10000 3.1 200 00:21 27.01.2020
3806 Clouds 28 1009 78 10000 3.1 190 23:43 26.01.2020
3807 Clouds 28 1009 78 10000 3.1 190 23:22 26.01.2020
3808 Clouds 27 1009 83 10000 2.6 230 22:58 26.01.2020
3809 Clouds 27 1009 83 10000 2.6 230 22:38 26.01.2020
3810 Clouds 27 1009 83 10000 2.6 230 22:20 26.01.2020
3811 Clouds 26 1009 88 10000 3.6 220 21:57 26.01.2020
3812 Clouds 26 1009 88 10000 3.6 220 21:39 26.01.2020
3813 Clouds 26 1009 88 10000 3.6 220 21:20 26.01.2020
3814 Clouds 24 1009 94 10000 2.6 240 20:57 26.01.2020
3815 Clouds 24 1009 94 10000 2.6 240 20:38 26.01.2020
3816 Clouds 24 1009 94 10000 2.6 240 20:38 26.01.2020
3817 Clouds 24 1009 94 10000 2.6 240 20:19 26.01.2020
3818 Clouds 24 1009 94 10000 2.6 240 20:19 26.01.2020
3819 Clouds 24 1008 94 10000 1.31 236 19:57 26.01.2020
3820 Clouds 24 1008 94 10000 1.31 236 19:38 26.01.2020
3821 Clouds 24 1008 94 10000 1.31 236 19:19 26.01.2020
3822 Clouds 24 1008 94 10000 1.31 236 19:19 26.01.2020
3823 Clouds 24 1008 94 10000 1 0 18:55 26.01.2020
3824 Clouds 24 1008 94 10000 1 0 18:54 26.01.2020
3825 Clouds 24 1008 94 10000 1 0 18:36 26.01.2020
3826 Clouds 24 1008 94 10000 1 0 18:18 26.01.2020
3827 Clouds 24 1008 94 10000 1 0 18:18 26.01.2020
3828 Clouds 24 1008 94 10000 1.5 260 17:54 26.01.2020
3829 Clouds 24 1008 94 10000 1.5 260 17:36 26.01.2020
3830 Clouds 24 1008 94 10000 1.5 260 17:18 26.01.2020
3831 Rain 24 1008 94 10000 1.5 270 16:54 26.01.2020
3832 Rain 24 1008 94 10000 1.5 270 16:36 26.01.2020
3833 Rain 24 1008 94 10000 1.5 270 16:18 26.01.2020
3834 Clear 23 1007 95 0 1.54 250 15:41 26.01.2020
3835 Clear 23 1007 95 0 1.54 250 15:19 26.01.2020
3836 Clear 23 1007 95 0 1.54 250 14:41 26.01.2020
3837 Clear 23 1007 95 0 1.54 250 14:23 26.01.2020
3838 Clear 23 1007 95 0 1.54 250 14:23 26.01.2020
3839 Rain 23 1009 94 0 1.02 237 13:59 26.01.2020
3840 Rain 23 1009 94 0 1.02 237 13:38 26.01.2020
3841 Rain 23 1009 95 0 0.74 247 13:18 26.01.2020
3842 Rain 23 1009 95 0 0.74 247 12:43 26.01.2020
3843 Rain 23 1009 95 0 0.74 247 12:24 26.01.2020
3844 Rain 23 1009 95 0 0.74 247 11:58 26.01.2020
3845 Rain 23 1009 95 0 0.74 247 11:40 26.01.2020
3846 Clouds 26 1009 88 10000 3.1 130 11:19 26.01.2020
3847 Clouds 26 1009 88 10000 3.1 130 10:59 26.01.2020
3848 Clouds 26 1009 88 10000 3.1 130 10:38 26.01.2020
3849 Clouds 26 1009 88 10000 3.1 130 10:20 26.01.2020
3850 Clouds 26 1009 88 10000 2.1 150 09:58 26.01.2020
3851 Clouds 26 1009 88 10000 2.1 150 09:40 26.01.2020
3852 Clouds 26 1009 88 10000 2.1 150 09:21 26.01.2020
3853 Clouds 26 1008 88 10000 1.5 180 08:43 26.01.2020
3854 Clouds 26 1008 88 10000 1.5 180 08:23 26.01.2020
3855 Rain 26 1007 89 0 1.78 130 07:57 26.01.2020
3856 Rain 26 1007 89 0 1.78 130 07:39 26.01.2020
3857 Clouds 28 1007 78 10000 4.1 150 07:21 26.01.2020
3858 Clouds 28 1007 78 10000 4.1 150 06:31 26.01.2020
3859 Clouds 28 1007 78 10000 4.1 170 05:32 26.01.2020
3860 Clouds 28 1007 78 10000 4.1 170 05:32 26.01.2020
3861 Clouds 28 1007 78 10000 4.1 170 05:32 26.01.2020
3862 Clouds 28 1008 74 10000 4.6 150 04:45 26.01.2020
3863 Clouds 30 1008 66 10000 4.1 120 02:54 26.01.2020
3864 Clouds 30 1008 70 10000 3.1 130 01:49 26.01.2020
3865 Clouds 30 1008 70 10000 3.1 130 01:25 26.01.2020
3866 Clouds 30 1009 66 10000 4.1 130 00:48 26.01.2020
3867 Clouds 30 1009 66 10000 4.1 130 00:29 26.01.2020
3868 Clouds 30 1008 58 0 2.52 107 23:41 25.01.2020
3869 Clouds 30 1008 58 0 2.52 107 23:22 25.01.2020
3870 Clouds 28 1009 70 0 1.37 102 22:59 25.01.2020
3871 Clouds 28 1009 70 0 1.37 102 22:40 25.01.2020
3872 Clouds 28 1009 70 0 1.37 102 22:19 25.01.2020
3873 Clouds 28 1009 70 0 1.37 102 21:57 25.01.2020
3874 Clouds 28 1009 70 0 1.37 102 21:38 25.01.2020
3875 Clouds 28 1009 70 0 1.37 102 21:19 25.01.2020
3876 Clouds 28 1009 70 0 1.37 102 20:44 25.01.2020
3877 Clouds 28 1009 70 0 1.37 102 20:25 25.01.2020
3878 Clear 22 1008 95 0 0.48 281 19:55 25.01.2020
3879 Clear 22 1008 95 0 0.48 281 19:37 25.01.2020
3880 Clear 22 1008 95 0 0.48 281 19:18 25.01.2020
3881 Clear 22 1008 95 0 0.48 281 18:41 25.01.2020
3882 Clear 22 1008 95 0 0.48 281 18:21 25.01.2020
3883 Clear 22 1008 95 0 0.48 281 17:58 25.01.2020
3884 Clear 22 1008 95 0 0.73 296 17:38 25.01.2020
3885 Rain 23 1007 94 0 0.41 186 17:18 25.01.2020
3886 Rain 23 1007 94 0 0.41 186 16:42 25.01.2020
3887 Rain 23 1007 94 0 0.41 186 16:23 25.01.2020
3888 Rain 23 1007 94 0 0.41 186 15:57 25.01.2020
3889 Rain 23 1007 94 0 0.41 186 15:39 25.01.2020
3890 Rain 23 1007 94 0 0.41 186 15:20 25.01.2020
3891 Rain 23 1007 94 0 0.41 186 14:42 25.01.2020
3892 Clear 23 1009 95 0 0.09 54 14:19 25.01.2020
3893 Clear 23 1009 95 0 0.09 54 13:45 25.01.2020
3894 Clear 23 1009 93 0 0.14 298 13:27 25.01.2020
3895 Clear 23 1009 93 0 0.14 298 12:57 25.01.2020
3896 Clear 23 1009 93 0 0.14 298 12:38 25.01.2020
3897 Rain 25 1010 94 10000 0.14 298 12:19 25.01.2020
3898 Rain 25 1010 94 10000 0.14 298 12:19 25.01.2020
3899 Rain 25 1010 94 10000 0.14 298 11:40 25.01.2020
3900 Rain 25 1010 94 10000 0.14 298 11:40 25.01.2020
3901 Rain 25 1010 94 10000 0.11 127 11:19 25.01.2020
3902 Clouds 26 1009 88 10000 0.11 127 10:55 25.01.2020
3903 Clouds 26 1009 88 10000 0.11 127 10:37 25.01.2020
3904 Clouds 26 1009 88 10000 0.11 127 10:18 25.01.2020
3905 Clouds 26 1009 88 10000 0.11 127 09:40 25.01.2020
3906 Clouds 26 1009 88 10000 0.11 127 09:19 25.01.2020
3907 Clouds 27 1008 78 10000 1.5 140 08:42 25.01.2020
3908 Clouds 27 1008 78 10000 1.5 140 08:42 25.01.2020
3909 Clouds 27 1006 77 0 1.56 118 07:57 25.01.2020
3910 Clouds 29 1007 62 10000 4.1 110 07:28 25.01.2020
3911 Clouds 29 1007 62 10000 4.1 110 06:33 25.01.2020
3912 Clouds 30 1007 58 10000 3.1 150 05:57 25.01.2020
3913 Clouds 30 1007 58 10000 3.1 150 05:38 25.01.2020
3914 Clouds 30 1007 58 10000 3.1 150 05:38 25.01.2020
3915 Clouds 30 1007 62 10000 2.6 130 03:58 25.01.2020
3916 Clouds 30 1007 62 10000 2.6 130 03:39 25.01.2020
3917 Clouds 30 1008 66 10000 7.2 80 02:37 25.01.2020
3918 Rain 29 1008 64 0 2.32 89 01:57 25.01.2020
3919 Clouds 30 1009 66 10000 3.6 120 01:23 25.01.2020
3920 Clouds 30 1009 66 10000 3.6 120 00:39 25.01.2020
3921 Clouds 30 1009 66 10000 3.6 120 00:18 25.01.2020
3922 Clouds 29 1009 70 10000 3.1 130 23:42 24.01.2020
3923 Clouds 29 1009 70 10000 3.1 130 23:23 24.01.2020
3924 Clouds 29 1009 74 10000 1.7 92 22:46 24.01.2020
3925 Clouds 29 1009 74 10000 1.7 92 22:46 24.01.2020
3926 Clouds 29 1009 74 10000 1.7 92 22:28 24.01.2020
3927 Clouds 26 1009 88 10000 1.5 280 21:58 24.01.2020
3928 Clouds 26 1009 88 10000 1.5 280 21:40 24.01.2020
3929 Clouds 26 1009 88 10000 1.5 280 21:18 24.01.2020
3930 Clouds 23 1008 100 10000 1.5 330 20:43 24.01.2020
3931 Clouds 23 1008 100 10000 1.5 330 20:22 24.01.2020
3932 Clouds 22 1007 95 0 0.64 284 19:58 24.01.2020
3933 Clouds 22 1007 95 0 0.64 284 19:40 24.01.2020
3934 Clouds 23 1007 94 10000 2.1 340 19:22 24.01.2020
3935 Clouds 23 1007 94 10000 2.1 340 19:22 24.01.2020
3936 Clouds 23 1007 94 10000 2.1 340 18:54 24.01.2020
3937 Clouds 23 1007 94 10000 2.1 340 18:36 24.01.2020
3938 Clouds 23 1007 94 10000 2.1 340 18:18 24.01.2020
3939 Clouds 23 1007 100 10000 0.64 284 17:42 24.01.2020
3940 Clouds 23 1007 100 10000 0.42 338 17:21 24.01.2020
3941 Clouds 23 1007 100 10000 1.5 330 16:43 24.01.2020
3942 Clouds 23 1007 100 10000 1.5 330 16:22 24.01.2020
3943 Clouds 23 1007 100 10000 1.5 330 16:22 24.01.2020
3944 Clouds 23 1008 100 10000 2.1 350 15:57 24.01.2020
3945 Clouds 23 1008 100 10000 2.1 350 15:39 24.01.2020
3946 Clouds 23 1008 100 10000 2.1 350 15:20 24.01.2020
3947 Clouds 23 1008 100 10000 0.42 338 14:41 24.01.2020
3948 Clouds 23 1008 100 10000 0.42 338 14:23 24.01.2020
3949 Rain 23 1008 93 0 0.83 38 13:57 24.01.2020
3950 Rain 23 1008 93 0 0.83 38 13:39 24.01.2020
3951 Rain 23 1008 94 0 1.24 48 13:19 24.01.2020
3952 Rain 23 1008 94 0 1.24 48 12:41 24.01.2020
3953 Clouds 24 1009 88 10000 1 330 12:18 24.01.2020
3954 Clouds 24 1009 88 10000 1 330 11:43 24.01.2020
3955 Clouds 24 1009 88 10000 1 330 11:19 24.01.2020
3956 Clouds 25 1009 83 10000 1 0 10:43 24.01.2020
3957 Clouds 25 1009 83 10000 1 0 10:22 24.01.2020
3958 Clouds 26 1009 83 10000 1.05 41 09:56 24.01.2020
3959 Clouds 26 1009 83 10000 1.05 41 09:38 24.01.2020
3960 Clouds 26 1009 83 10000 1.05 41 09:38 24.01.2020
3961 Clouds 26 1009 83 10000 1.05 41 09:20 24.01.2020
3962 Clouds 26 1008 88 10000 1 0 08:40 24.01.2020
3963 Clouds 26 1008 88 10000 1 0 08:19 24.01.2020
3964 Clouds 27 1008 78 10000 3.1 130 07:50 24.01.2020
3965 Clouds 27 1008 78 10000 3.1 130 07:28 24.01.2020
3966 Clouds 30 1007 66 10000 3.1 150 06:48 24.01.2020
3967 Clouds 30 1007 66 10000 3.1 150 06:28 24.01.2020
3968 Clouds 29 1007 70 10000 3.6 170 05:57 24.01.2020
3969 Clouds 31 1007 62 10000 3.1 160 04:52 24.01.2020
3970 Clouds 29 1008 74 10000 4.1 170 02:53 24.01.2020
3971 Clouds 29 1008 74 10000 4.1 170 02:23 24.01.2020
3972 Clouds 29 1008 63 0 2.66 171 01:40 24.01.2020
3973 Clouds 30 1009 70 10000 4.1 180 01:19 24.01.2020
3974 Clouds 30 1009 70 10000 4.1 180 00:20 24.01.2020
3975 Clouds 28 1009 74 10000 3.1 170 23:48 23.01.2020
3976 Clouds 28 1009 74 10000 3.1 170 23:30 23.01.2020
3977 Clouds 29 1009 74 10000 2.6 170 22:59 23.01.2020
3978 Clouds 29 1009 74 10000 2.6 170 22:37 23.01.2020
3979 Clouds 29 1009 74 10000 2.6 170 22:19 23.01.2020
3980 Clouds 26 1009 88 10000 1.83 137 21:56 23.01.2020
3981 Clouds 26 1009 88 10000 1.83 137 21:38 23.01.2020
3982 Clouds 26 1009 88 10000 1.83 137 21:19 23.01.2020
3983 Clouds 23 1009 100 10000 1.83 137 20:56 23.01.2020
3984 Clouds 23 1009 100 10000 1.83 137 20:37 23.01.2020
3985 Clouds 23 1009 100 10000 1.1 230 20:19 23.01.2020
3986 Clouds 22 1008 100 10000 1.5 310 19:44 23.01.2020
3987 Clouds 22 1008 100 10000 1.5 310 19:24 23.01.2020
3988 Clouds 23 1008 94 10000 1.1 230 18:59 23.01.2020
3989 Clouds 23 1008 94 10000 1.1 230 18:39 23.01.2020
3990 Clouds 23 1008 94 10000 1.1 230 18:20 23.01.2020
3991 Rain 22 1008 100 10000 1.1 230 17:56 23.01.2020
3992 Rain 22 1008 100 10000 1.1 230 17:38 23.01.2020
3993 Rain 22 1008 100 10000 1.01 253 17:18 23.01.2020
3994 Clouds 23 1008 100 10000 1.01 253 16:39 23.01.2020
3995 Clouds 23 1008 100 10000 1.01 253 16:20 23.01.2020
3996 Clouds 23 1009 100 10000 1.01 253 15:58 23.01.2020
3997 Clouds 23 1009 100 10000 1.01 253 15:40 23.01.2020
3998 Clouds 23 1009 100 10000 1.01 253 15:19 23.01.2020
3999 Clouds 23 1010 100 10000 1.5 310 14:59 23.01.2020
4000 Clouds 23 1010 100 10000 1.5 310 14:41 23.01.2020
4001 Clouds 23 1010 100 10000 1.5 310 14:22 23.01.2020
4002 Clouds 24 1010 94 10000 1.5 300 13:56 23.01.2020
4003 Clouds 24 1010 94 10000 1.5 300 13:37 23.01.2020
4004 Clouds 24 1010 94 10000 1.5 300 13:18 23.01.2020
4005 Clouds 25 1011 94 10000 0.25 250 12:43 23.01.2020
4006 Clouds 25 1011 94 10000 0.25 250 12:24 23.01.2020
4007 Clouds 25 1011 94 10000 0.25 250 11:56 23.01.2020
4008 Clouds 25 1011 94 10000 0.25 250 11:37 23.01.2020
4009 Clouds 25 1011 94 10000 1.68 130 11:18 23.01.2020
4010 Clouds 25 1011 94 10000 0.74 99 11:18 23.01.2020
4011 Clouds 25 1010 88 10000 0.74 99 10:43 23.01.2020
4012 Clouds 25 1010 88 10000 0.74 99 10:19 23.01.2020
4013 Clouds 25 1010 88 10000 1 160 09:43 23.01.2020
4014 Clouds 25 1010 88 10000 1 160 09:25 23.01.2020
4015 Rain 24 1009 90 0 0.74 99 08:58 23.01.2020
4016 Rain 23 1009 95 0 1.68 130 08:58 23.01.2020
4017 Rain 23 1009 95 0 1.68 130 08:40 23.01.2020
4018 Rain 26 1008 77 0 2.01 140 08:21 23.01.2020
4019 Rain 26 1008 77 0 2.01 140 07:44 23.01.2020
4020 Clouds 28 1008 74 10000 4.6 160 07:24 23.01.2020
4021 Clouds 28 1008 74 10000 4.6 160 06:51 23.01.2020
4022 Clouds 28 1008 74 10000 4.6 160 06:51 23.01.2020
4023 Clouds 28 1008 74 10000 4.6 160 06:20 23.01.2020
4024 Clouds 28 1008 78 10000 4.1 150 05:37 23.01.2020
4025 Clouds 27 1008 83 10000 4.6 190 04:24 23.01.2020
4026 Rain 26 1009 88 10000 2.1 150 02:33 23.01.2020
4027 Clouds 29 1009 66 10000 2.6 150 00:58 23.01.2020
4028 Clouds 29 1009 66 10000 2.6 150 00:27 23.01.2020
4029 Clouds 29 1009 66 10000 2.1 130 23:47 22.01.2020
4030 Clouds 29 1009 66 10000 2.1 130 23:29 22.01.2020
4031 Clouds 28 1010 69 10000 1 180 22:58 22.01.2020
4032 Clouds 28 1010 69 10000 1 180 22:39 22.01.2020
4033 Clouds 28 1010 69 10000 1 180 22:21 22.01.2020
4034 Clouds 24 1010 88 10000 1 0 21:39 22.01.2020
4035 Clouds 24 1010 88 10000 1 0 21:21 22.01.2020
4036 Clouds 27 1009 68 0 0.87 133 20:56 22.01.2020
4037 Clouds 27 1009 68 0 0.87 133 20:37 22.01.2020
4038 Clouds 20 1008 89 0 1.41 296 20:18 22.01.2020
4039 Clouds 20 1008 89 0 1.41 296 19:55 22.01.2020
4040 Clouds 20 1008 89 0 1.41 296 19:37 22.01.2020
4041 Clouds 20 1009 100 10000 2.6 320 19:18 22.01.2020
4042 Clouds 20 1009 100 10000 2.6 320 18:55 22.01.2020
4043 Clouds 20 1009 100 10000 2.6 320 18:37 22.01.2020
4044 Clouds 20 1009 100 10000 2.6 320 18:18 22.01.2020
4045 Clouds 20 1008 100 10000 2.1 350 17:40 22.01.2020
4046 Clouds 20 1008 100 10000 2.1 350 17:21 22.01.2020
4047 Clouds 21 1009 94 10000 2.1 310 16:58 22.01.2020
4048 Clouds 21 1009 94 10000 2.1 310 16:39 22.01.2020
4049 Clouds 21 1009 94 10000 2.1 310 16:21 22.01.2020
4050 Clouds 21 1009 94 10000 1.5 290 15:55 22.01.2020
4051 Clouds 21 1009 94 10000 1.5 290 15:37 22.01.2020
4052 Clouds 21 1009 94 10000 1.5 290 15:18 22.01.2020
4053 Clouds 20 1007 89 0 1.47 297 14:39 22.01.2020
4054 Clear 20 1010 89 0 1.11 285 14:20 22.01.2020
4055 Clear 20 1010 89 0 1.11 285 13:58 22.01.2020
4056 Clear 20 1010 89 0 1.11 285 13:37 22.01.2020
4057 Clouds 22 1011 94 10000 2.1 320 13:19 22.01.2020
4058 Clouds 22 1011 94 10000 2.1 320 12:57 22.01.2020
4059 Clouds 22 1011 94 10000 2.1 320 12:38 22.01.2020
4060 Clouds 22 1011 94 10000 2.1 320 12:19 22.01.2020
4061 Clouds 23 1011 94 10000 1.02 287 11:57 22.01.2020
4062 Clouds 23 1011 94 10000 1.02 287 11:38 22.01.2020
4063 Clouds 23 1011 94 10000 0.57 212 11:19 22.01.2020
4064 Clouds 23 1011 94 10000 0.57 212 11:19 22.01.2020
4065 Clouds 23 1011 94 10000 0.57 212 10:45 22.01.2020
4066 Clouds 23 1011 94 10000 0.57 212 10:21 22.01.2020
4067 Clouds 25 1010 83 10000 0.57 212 09:58 22.01.2020
4068 Clouds 25 1010 83 10000 0.57 212 09:40 22.01.2020
4069 Clouds 25 1010 83 10000 0.57 212 09:21 22.01.2020
4070 Clouds 26 1009 78 10000 1.5 170 08:55 22.01.2020
4071 Clouds 26 1009 78 10000 1.5 170 08:36 22.01.2020
4072 Clouds 26 1009 78 10000 1.5 170 08:18 22.01.2020
4073 Clouds 28 1008 61 10000 2.6 160 07:42 22.01.2020
4074 Clouds 28 1008 61 10000 2.6 160 07:23 22.01.2020
4075 Clouds 29 1008 58 10000 3.6 160 06:34 22.01.2020
4076 Clouds 29 1008 54 10000 3.6 150 05:45 22.01.2020
4077 Clouds 30 1009 45 10000 3.6 190 04:25 22.01.2020
4078 Clouds 30 1009 45 10000 3.6 190 03:26 22.01.2020
4079 Clouds 30 1009 45 10000 3.1 200 02:39 22.01.2020
4080 Clouds 29 1010 54 10000 2.6 180 00:47 22.01.2020
4081 Clouds 29 1010 54 10000 2.6 180 00:47 22.01.2020
4082 Clouds 29 1010 54 10000 2.6 180 00:27 22.01.2020
4083 Clouds 28 1010 58 10000 2.6 180 23:55 21.01.2020
4084 Clouds 28 1010 58 10000 2.6 180 23:37 21.01.2020
4085 Clouds 28 1010 58 10000 2.6 180 23:18 21.01.2020
4086 Clouds 28 1010 61 10000 3.1 150 22:40 21.01.2020
4087 Clouds 28 1010 61 10000 3.1 150 22:21 21.01.2020
4088 Clouds 27 1010 69 10000 2.1 160 21:57 21.01.2020
4089 Clouds 27 1010 69 10000 2.1 160 21:38 21.01.2020
4090 Clouds 27 1010 69 10000 2.1 160 21:20 21.01.2020
4091 Clouds 26 1010 64 0 1.41 150 20:56 21.01.2020
4092 Clouds 26 1010 64 0 1.41 150 20:37 21.01.2020
4093 Clouds 20 1009 87 0 0.1 266 20:19 21.01.2020
4094 Clouds 20 1009 87 0 0.1 266 19:56 21.01.2020
4095 Clouds 20 1009 87 0 0.1 266 19:56 21.01.2020
4096 Clouds 20 1009 87 0 0.1 266 19:38 21.01.2020
4097 Clouds 22 1009 94 10000 0.1 266 19:20 21.01.2020
4098 Clouds 22 1009 94 10000 0.1 266 18:55 21.01.2020
4099 Clouds 22 1009 94 10000 0.1 266 18:37 21.01.2020
4100 Clouds 22 1009 94 10000 0.1 266 18:18 21.01.2020
4101 Clouds 21 1008 94 10000 0.1 266 17:45 21.01.2020
4102 Clouds 21 1008 94 10000 0.81 208 17:20 21.01.2020
4103 Clouds 23 1009 88 10000 0.81 208 16:59 21.01.2020
4104 Clouds 23 1009 88 10000 0.81 208 16:37 21.01.2020
4105 Clouds 23 1009 88 10000 0.81 208 16:19 21.01.2020
4106 Clouds 22 1009 94 10000 0.81 208 15:42 21.01.2020
4107 Clouds 22 1009 94 10000 0.81 208 15:22 21.01.2020
4108 Clouds 21 1008 79 0 0.81 208 14:59 21.01.2020
4109 Clouds 21 1008 79 0 0.81 208 14:38 21.01.2020
4110 Clouds 23 1010 78 0 1.1 161 14:19 21.01.2020
4111 Clouds 23 1010 78 0 1.1 161 13:40 21.01.2020
4112 Clouds 25 1011 83 10000 1.26 157 13:19 21.01.2020
4113 Clouds 25 1011 83 10000 1.26 157 12:44 21.01.2020
4114 Clouds 25 1011 83 10000 1.26 157 12:25 21.01.2020
4115 Clouds 25 1011 73 10000 1.5 170 11:57 21.01.2020
4116 Clouds 25 1011 73 10000 1.5 170 11:39 21.01.2020
4117 Clouds 25 1011 73 10000 1.5 170 11:21 21.01.2020
4118 Clouds 25 1010 73 10000 1.5 200 10:44 21.01.2020
4119 Clouds 25 1010 73 10000 1.5 200 10:24 21.01.2020
4120 Clouds 26 1010 65 10000 1.5 150 09:59 21.01.2020
4121 Clouds 26 1010 65 10000 1.5 150 09:41 21.01.2020
4122 -273 0 0 0 0 0 09:22 21.01.2020
4123 Clouds 23 1010 75 0 1.5 161 08:48 21.01.2020
4124 Clouds 23 1010 75 0 1.5 161 08:29 21.01.2020
4125 Clouds 24 1008 72 0 1.96 169 07:57 21.01.2020
4126 Clouds 24 1008 72 0 1.96 169 07:38 21.01.2020
4127 Clouds 27 1008 61 10000 2.6 160 07:20 21.01.2020
4128 Clouds 27 1008 61 10000 2.6 160 06:45 21.01.2020
4129 Clouds 27 1008 61 10000 2.6 160 06:25 21.01.2020
4130 Clouds 27 1008 61 10000 2.6 160 05:41 21.01.2020
4131 Clouds 28 1008 54 10000 3.6 170 04:39 21.01.2020
4132 Clouds 29 1009 58 10000 3.6 130 02:55 21.01.2020
4133 Clouds 29 1009 62 10000 3.1 160 01:47 21.01.2020
4134 Clouds 29 1010 58 10000 3.1 160 00:54 21.01.2020
4135 Clouds 29 1010 58 10000 3.1 160 00:32 21.01.2020
4136 Clouds 28 1010 61 10000 2.6 160 23:57 20.01.2020
4137 Clouds 28 1010 61 10000 2.6 160 23:37 20.01.2020
4138 Clouds 28 1010 61 10000 2.6 160 23:18 20.01.2020
4139 Clouds 28 1010 69 10000 3.1 150 22:56 20.01.2020
4140 Clouds 28 1010 69 10000 3.1 150 22:36 20.01.2020
4141 Clouds 28 1010 69 10000 3.1 150 22:18 20.01.2020
4142 Clouds 27 1010 69 10000 2.69 182 21:55 20.01.2020
4143 Clouds 27 1010 69 10000 2.69 182 21:36 20.01.2020
4144 Clouds 27 1010 69 10000 2.69 182 21:18 20.01.2020
4145 Clouds 24 1009 88 10000 2.69 182 20:54 20.01.2020
4146 Clouds 24 1009 88 10000 2.69 182 20:36 20.01.2020
4147 Clouds 24 1009 88 10000 1.59 177 20:18 20.01.2020
4148 Clouds 24 1009 88 10000 1.59 177 20:18 20.01.2020
4149 Clouds 24 1009 88 10000 1.59 177 20:18 20.01.2020
4150 Clouds 23 1008 77 0 1.59 177 19:54 20.01.2020
4151 Clouds 23 1008 77 0 1.59 177 19:54 20.01.2020
4152 Clouds 23 1008 77 0 1.59 177 19:36 20.01.2020
4153 Clouds 22 1008 100 10000 1.59 177 19:18 20.01.2020
4154 Clouds 22 1008 100 10000 1.59 177 18:42 20.01.2020
4155 Clouds 22 1008 100 10000 1.59 177 18:21 20.01.2020
4156 Clouds 22 1008 100 10000 1.59 177 17:39 20.01.2020
4157 Clouds 22 1008 100 10000 1.65 181 17:19 20.01.2020
4158 Clouds 22 1008 100 10000 1.65 181 16:48 20.01.2020
4159 Clouds 22 1008 100 10000 1.65 181 16:26 20.01.2020
4160 Clouds 23 1008 94 10000 1.65 181 15:59 20.01.2020
4161 Clouds 23 1008 94 10000 1.65 181 15:40 20.01.2020
4162 Clouds 23 1008 94 10000 1.65 181 15:22 20.01.2020
4163 Clouds 23 1007 80 0 1.65 181 14:59 20.01.2020
4164 Clouds 23 1007 80 0 1.65 181 14:40 20.01.2020
4165 Clouds 23 1009 82 0 1.42 178 14:21 20.01.2020
4166 Clouds 23 1009 82 0 1.42 178 13:56 20.01.2020
4167 Clouds 23 1009 82 0 1.42 178 13:38 20.01.2020
4168 Clouds 23 1009 82 0 1.42 178 13:38 20.01.2020
4169 Clouds 24 1010 88 10000 1.61 174 13:18 20.01.2020
4170 Clouds 24 1010 88 10000 1.61 174 12:42 20.01.2020
4171 Clouds 24 1010 88 10000 1.61 174 12:23 20.01.2020
4172 Clouds 25 1010 78 10000 1.61 174 11:55 20.01.2020
4173 Clouds 25 1010 78 10000 1.61 174 11:36 20.01.2020
4174 Clouds 25 1010 78 10000 1.63 162 11:18 20.01.2020
4175 Clouds 26 1009 74 10000 1.63 162 10:41 20.01.2020
4176 Clouds 26 1009 74 10000 1.63 162 10:20 20.01.2020
4177 Clouds 23 1009 85 0 1.63 162 09:41 20.01.2020
4178 Clouds 23 1009 85 0 1.63 162 09:23 20.01.2020
4179 Clouds 23 1009 85 0 1.63 162 08:55 20.01.2020
4180 Clouds 23 1009 85 0 1.63 162 08:31 20.01.2020
4181 Rain 24 1006 88 0 2.85 165 07:55 20.01.2020
4182 Rain 24 1006 88 0 2.85 165 07:55 20.01.2020
4183 Rain 24 1006 88 0 2.85 165 07:37 20.01.2020
4184 Clouds 27 1007 69 10000 2.1 180 07:19 20.01.2020
4185 Clouds 27 1007 69 10000 2.1 180 06:36 20.01.2020
4186 Clouds 27 1007 69 10000 3.1 170 05:56 20.01.2020
4187 Clouds 27 1007 69 10000 3.1 170 05:37 20.01.2020
4188 Clouds 27 1007 69 10000 3.1 170 05:18 20.01.2020
4189 Clouds 28 1007 74 10000 3.6 170 03:47 20.01.2020
4190 Clouds 28 1008 69 10000 4.6 200 01:58 20.01.2020
4191 Clouds 28 1008 69 10000 4.6 200 01:39 20.01.2020
4192 Clouds 28 1008 74 10000 3.1 140 00:55 20.01.2020
4193 Clouds 28 1008 74 10000 3.1 140 00:28 20.01.2020
4194 Rain 26 1008 83 10000 2.6 180 23:56 19.01.2020
4195 Rain 26 1008 83 10000 2.6 180 23:37 19.01.2020
4196 Rain 26 1008 83 10000 2.6 180 23:18 19.01.2020
4197 Clouds 28 1008 69 10000 3.1 160 22:55 19.01.2020
4198 Clouds 28 1008 69 10000 3.1 160 22:36 19.01.2020
4199 Clouds 28 1008 69 10000 3.1 160 22:18 19.01.2020
4200 Clouds 28 1007 78 10000 2.1 160 21:55 19.01.2020
4201 Clouds 28 1007 78 10000 2.1 160 21:55 19.01.2020
4202 Clouds 28 1007 78 10000 2.1 160 21:37 19.01.2020
4203 Clouds 28 1007 78 10000 2.1 160 21:18 19.01.2020
4204 Clouds 27 1007 68 0 2.61 172 20:55 19.01.2020
4205 Clouds 27 1007 68 0 2.61 172 20:37 19.01.2020
4206 Clouds 23 1006 85 0 1.86 191 20:18 19.01.2020
4207 Clouds 23 1006 85 0 1.78 191 19:54 19.01.2020
4208 Clouds 23 1006 85 0 1.78 191 19:36 19.01.2020
4209 Clouds 24 1006 94 10000 1 0 19:18 19.01.2020
4210 Clouds 24 1006 94 10000 1 0 18:54 19.01.2020
4211 Clouds 24 1006 94 10000 1 0 18:36 19.01.2020
4212 Clouds 24 1006 94 10000 1 0 18:18 19.01.2020
4213 Clouds 24 1006 94 10000 1 0 17:56 19.01.2020
4214 Clouds 24 1006 94 10000 1 0 17:38 19.01.2020
4215 Clouds 24 1006 94 10000 1 0 17:18 19.01.2020
4216 Clouds 23 1006 100 10000 1.5 280 16:55 19.01.2020
4217 Clouds 23 1006 100 10000 1.5 280 16:36 19.01.2020
4218 Clouds 23 1006 100 10000 1.5 280 16:18 19.01.2020
4219 Clouds 23 1006 100 10000 2.1 310 15:41 19.01.2020
4220 Clouds 23 1006 100 10000 2.1 310 15:22 19.01.2020
4221 Clouds 23 1006 100 10000 2.1 310 15:22 19.01.2020
4222 Clouds 23 1005 89 0 1.45 197 14:59 19.01.2020
4223 Clouds 23 1005 89 0 1.45 197 14:40 19.01.2020
4224 Clouds 23 1007 91 0 1.22 182 14:19 19.01.2020
4225 Clouds 23 1007 91 0 1.22 182 13:58 19.01.2020
4226 Clouds 23 1007 91 0 1.22 182 13:39 19.01.2020
4227 Clouds 25 1008 94 10000 2.1 310 13:21 19.01.2020
4228 Clouds 25 1008 94 10000 2.1 310 12:58 19.01.2020
4229 Clouds 25 1008 94 10000 2.1 310 12:58 19.01.2020
4230 Clouds 25 1008 94 10000 2.1 310 12:58 19.01.2020
4231 Clouds 25 1008 94 10000 2.1 310 12:40 19.01.2020
4232 Clouds 25 1008 94 10000 2.1 310 12:40 19.01.2020
4233 Clouds 25 1008 94 10000 2.1 310 12:21 19.01.2020
4234 Clouds 26 1008 83 10000 1 0 11:56 19.01.2020
4235 Clouds 26 1008 83 10000 1 0 11:37 19.01.2020
4236 Clouds 26 1008 83 10000 1 0 11:18 19.01.2020
4237 Clouds 26 1007 83 10000 1 0 10:39 19.01.2020
4238 Clouds 26 1007 83 10000 1 0 10:20 19.01.2020
4239 Clouds 27 1007 74 10000 1 0 09:57 19.01.2020
4240 Clouds 27 1007 74 10000 1 0 09:57 19.01.2020
4241 Clouds 27 1007 74 10000 1 0 09:57 19.01.2020
4242 Clouds 27 1007 74 10000 1 0 09:38 19.01.2020
4243 Clouds 27 1007 74 10000 1 0 09:19 19.01.2020
4244 Clouds 27 1006 74 10000 1.5 170 08:54 19.01.2020
4245 Clouds 27 1006 74 10000 1.5 170 08:31 19.01.2020
4246 Clouds 28 1005 69 10000 3.1 160 07:49 19.01.2020
4247 Clouds 28 1005 69 10000 3.1 160 07:28 19.01.2020
4248 Clouds 29 1004 70 10000 3.1 170 06:55 19.01.2020
4249 Clouds 29 1004 70 10000 3.1 170 06:21 19.01.2020
4250 Clouds 30 1004 66 10000 3.6 170 03:52 19.01.2020
4251 Rain 27 1003 74 0 3.97 178 02:32 19.01.2020
4252 Rain 27 1004 84 0 3.58 180 01:39 19.01.2020
4253 Clouds 28 1005 83 10000 2.6 180 01:18 19.01.2020
4254 Clouds 28 1005 83 10000 2.6 180 00:44 19.01.2020
4255 Rain 25 1006 94 10000 4.1 180 00:19 19.01.2020
4256 Rain 25 1006 94 10000 4.1 180 23:42 18.01.2020
4257 Rain 25 1006 94 10000 4.1 180 23:24 18.01.2020
4258 Rain 26 1005 88 10000 2.1 220 22:58 18.01.2020
4259 Rain 26 1005 88 10000 2.1 220 22:40 18.01.2020
4260 Rain 26 1005 88 10000 2.1 220 22:21 18.01.2020
4261 Rain 26 1005 88 10000 3.7 191 21:57 18.01.2020
4262 Rain 26 1005 88 10000 3.7 191 21:38 18.01.2020
4263 Rain 26 1005 88 10000 3.7 191 21:20 18.01.2020
4264 Clouds 25 1004 94 10000 1.5 190 20:44 18.01.2020
4265 Clouds 25 1004 94 10000 1.5 190 20:22 18.01.2020
4266 Clouds 26 1003 94 10000 2.31 202 19:59 18.01.2020
4267 Clouds 26 1003 94 10000 2.31 202 19:41 18.01.2020
4268 Clouds 26 1003 94 10000 2.31 202 19:22 18.01.2020
4269 Clouds 25 1002 94 10000 1 230 18:43 18.01.2020
4270 Clouds 25 1002 94 10000 1 230 18:24 18.01.2020
4271 Clouds 25 1002 100 10000 1.5 210 17:56 18.01.2020
4272 Clouds 25 1002 100 10000 1.5 210 17:38 18.01.2020
4273 Clouds 25 1002 100 10000 1.5 210 17:19 18.01.2020
4274 Clouds 26 1002 94 10000 1.5 240 16:55 18.01.2020
4275 Clouds 26 1002 94 10000 1.5 240 16:36 18.01.2020
4276 Clouds 26 1002 94 10000 1.5 240 16:18 18.01.2020
4277 Rain 26 1001 94 10000 1.5 230 15:42 18.01.2020
4278 Rain 26 1001 94 10000 1.5 230 15:24 18.01.2020
4279 Clouds 26 1002 94 10000 1.5 220 14:57 18.01.2020
4280 Clouds 26 1002 94 10000 1.5 220 14:39 18.01.2020
4281 Clouds 26 1002 94 10000 1.5 220 14:18 18.01.2020
4282 Rain 26 1002 94 10000 1 230 13:44 18.01.2020
4283 Rain 26 1002 94 10000 1 230 13:26 18.01.2020
4284 Clouds 26 1002 94 10000 1.5 230 12:58 18.01.2020
4285 Clouds 26 1002 94 10000 1.5 230 12:39 18.01.2020
4286 Clouds 26 1002 94 10000 1.5 230 12:20 18.01.2020
4287 Clouds 26 1002 94 10000 2.1 240 11:44 18.01.2020
4288 Clouds 26 1002 94 10000 2.1 240 11:21 18.01.2020
4289 Clouds 26 1001 94 10000 1.5 220 10:57 18.01.2020
4290 Clouds 26 1001 94 10000 1.5 220 10:38 18.01.2020
4291 Clouds 26 1001 94 10000 1.5 220 10:19 18.01.2020
4292 Rain 26 1001 88 10000 2.6 230 09:43 18.01.2020
4293 Rain 26 1001 88 10000 2.6 230 09:24 18.01.2020
4294 Rain 25 1001 93 0 3.55 198 08:55 18.01.2020
4295 Rain 25 1001 93 0 3.55 198 08:37 18.01.2020
4296 Rain 26 998 87 0 4.67 196 08:18 18.01.2020
4297 Rain 26 998 88 0 4.07 194 07:45 18.01.2020
4298 Clouds 28 997 83 10000 5.1 230 07:26 18.01.2020
4299 Clouds 28 997 83 10000 5.1 230 06:47 18.01.2020
4300 Clouds 28 997 83 10000 5.7 210 05:58 18.01.2020
4301 Clouds 29 997 79 10000 5.1 220 04:36 18.01.2020
4302 Rain 28 996 76 0 5.44 193 02:53 18.01.2020
4303 Rain 28 996 76 0 5.44 193 02:53 18.01.2020
4304 Rain 27 996 91 0 5.21 186 01:51 18.01.2020
4305 Clouds 29 997 83 10000 5.7 230 01:20 18.01.2020
4306 Clouds 29 997 83 10000 5.7 230 00:36 18.01.2020
4307 Clouds 29 997 83 10000 5.7 230 00:18 18.01.2020
4308 Rain 25 997 94 10000 6.2 180 23:40 17.01.2020
4309 Rain 25 997 94 10000 6.2 180 23:19 17.01.2020
4310 Rain 26 997 94 10000 5.1 210 22:44 17.01.2020
4311 Rain 26 997 94 10000 5.1 210 22:21 17.01.2020
4312 Rain 26 996 94 0 4.48 189 21:58 17.01.2020
4313 Rain 26 996 94 0 4.48 189 21:40 17.01.2020
4314 Rain 26 996 94 0 4.48 189 21:22 17.01.2020
4315 Rain 26 996 94 0 4.48 189 20:55 17.01.2020
4316 Rain 26 996 94 0 4.48 189 20:37 17.01.2020
4317 Rain 25 994 94 0 4.54 189 20:18 17.01.2020
4318 Rain 25 993 94 0 4.98 191 19:54 17.01.2020
4319 Rain 25 993 94 0 4.98 191 19:36 17.01.2020
4320 Clouds 27 994 88 10000 4.6 200 19:18 17.01.2020
4321 Clouds 27 994 88 10000 4.6 200 18:44 17.01.2020
4322 Clouds 27 994 88 10000 4.6 200 18:26 17.01.2020
4323 Clouds 26 994 94 10000 4.6 190 17:56 17.01.2020
4324 Clouds 26 994 94 10000 4.6 190 17:38 17.01.2020
4325 Clouds 26 994 94 10000 4.6 190 17:19 17.01.2020
4326 Clouds 27 993 88 10000 5.7 190 16:41 17.01.2020
4327 Clouds 27 993 88 10000 5.7 190 16:20 17.01.2020
4328 Rain 26 994 94 10000 4.6 180 15:48 17.01.2020
4329 Rain 26 994 94 10000 4.6 180 15:27 17.01.2020
4330 Rain 25 990 94 0 5.67 178 14:54 17.01.2020
4331 Rain 25 990 94 0 5.67 178 14:36 17.01.2020
4332 Rain 25 993 95 0 5.19 167 14:18 17.01.2020
4333 Rain 25 993 95 0 5.19 167 13:39 17.01.2020
4334 Rain 26 995 94 10000 3.6 170 13:19 17.01.2020
4335 Rain 26 995 94 10000 3.6 170 12:45 17.01.2020
4336 Rain 26 995 94 10000 3.6 170 12:22 17.01.2020
4337 Clouds 27 995 88 10000 4.6 150 11:40 17.01.2020
4338 Clouds 27 995 88 10000 4.6 150 11:19 17.01.2020
4339 Clouds 27 994 88 10000 3.6 140 10:45 17.01.2020
4340 Clouds 27 994 88 10000 3.6 140 10:23 17.01.2020
4341 Clouds 27 994 88 10000 3.6 140 09:59 17.01.2020
4342 Clouds 27 994 88 10000 3.6 140 09:59 17.01.2020
4343 Clouds 27 994 88 10000 3.6 140 09:41 17.01.2020
4344 Clouds 27 994 88 10000 3.6 140 09:20 17.01.2020
4345 Clouds 27 994 88 10000 3.6 140 09:20 17.01.2020
4346 Clouds 26 994 94 10000 4.1 140 08:46 17.01.2020
4347 Clouds 26 994 94 10000 4.1 140 08:25 17.01.2020
4348 Clouds 26 994 94 10000 4.1 140 08:25 17.01.2020
4349 Rain 27 993 94 10000 4.1 140 07:56 17.01.2020
4350 Rain 27 993 94 10000 4.1 140 07:56 17.01.2020
4351 Rain 27 993 94 10000 4.1 140 07:34 17.01.2020
4352 Clouds 27 992 51 10000 5.7 120 06:59 17.01.2020
4353 Clouds 27 992 51 10000 5.7 120 06:41 17.01.2020
4354 Clouds 26 993 94 10000 4.1 110 05:57 17.01.2020
4355 Rain 24 989 96 0 5.48 120 03:39 17.01.2020
4356 Rain 24 989 96 0 5.48 120 02:53 17.01.2020
4357 Rain 25 992 96 0 3.87 99 01:48 17.01.2020
4358 Rain 25 991 93 0 4.51 100 01:29 17.01.2020
4359 Rain 25 991 93 0 4.51 100 00:51 17.01.2020
4360 Clouds 27 997 94 10000 3.1 90 00:28 17.01.2020
4361 Clouds 27 997 94 10000 3.1 90 23:46 16.01.2020
4362 Clouds 27 997 94 10000 3.1 90 23:46 16.01.2020
4363 Clouds 27 997 94 10000 3.1 90 23:26 16.01.2020
4364 Rain 27 997 94 10000 4.6 90 22:58 16.01.2020
4365 Rain 27 997 94 10000 4.6 90 22:40 16.01.2020
4366 Rain 27 997 94 10000 4.6 90 22:20 16.01.2020
4367 Clouds 27 997 94 10000 4.6 100 21:55 16.01.2020
4368 Clouds 27 997 94 10000 4.6 100 21:37 16.01.2020
4369 Clouds 27 997 94 10000 4.6 100 21:18 16.01.2020
4370 Rain 26 993 95 0 3.95 99 20:41 16.01.2020
4371 Rain 25 994 95 0 4.1 117 20:21 16.01.2020
4372 Rain 25 994 95 0 4.1 117 19:59 16.01.2020
4373 Rain 25 994 95 0 4.1 117 19:41 16.01.2020
4374 Clouds 27 997 94 10000 3.6 120 19:22 16.01.2020
4375 Clouds 27 997 94 10000 3.6 120 19:22 16.01.2020
4376 Clouds 27 997 94 10000 3.6 120 18:57 16.01.2020
4377 Clouds 27 997 94 10000 3.6 120 18:38 16.01.2020
4378 Clouds 27 997 94 10000 3.6 120 18:20 16.01.2020
4379 Clouds 27 996 94 10000 3.1 110 17:59 16.01.2020
4380 Clouds 27 996 94 10000 3.1 110 17:59 16.01.2020
4381 Clouds 27 996 94 10000 3.1 110 17:40 16.01.2020
4382 Clouds 27 996 94 10000 3.1 110 17:20 16.01.2020
4383 Clouds 27 997 94 10000 4.6 110 16:42 16.01.2020
4384 Clouds 27 997 94 10000 4.6 110 16:24 16.01.2020
4385 Clouds 27 997 94 10000 5.1 100 15:59 16.01.2020
4386 Clouds 27 997 94 10000 5.1 100 15:39 16.01.2020
4387 Clouds 27 997 94 10000 5.1 100 15:20 16.01.2020
4388 Rain 25 995 96 0 3.61 107 14:45 16.01.2020
4389 Rain 25 998 96 0 3.31 115 14:24 16.01.2020
4390 Rain 25 998 96 0 3.31 115 13:56 16.01.2020
4391 Rain 25 998 96 0 3.31 115 13:37 16.01.2020
4392 Clouds 27 1000 94 10000 4.1 120 13:19 16.01.2020
4393 Clouds 27 1000 94 10000 4.1 120 12:42 16.01.2020
4394 Clouds 27 1000 94 10000 4.1 120 12:22 16.01.2020
4395 Clouds 27 1000 88 10000 3.6 120 11:43 16.01.2020
4396 Clouds 27 1000 88 10000 3.6 120 11:24 16.01.2020
4397 Clouds 27 1000 88 10000 2.6 120 10:59 16.01.2020
4398 Clouds 27 1000 88 10000 2.6 120 10:38 16.01.2020
4399 Clouds 27 1000 88 10000 2.6 120 10:20 16.01.2020
4400 Clouds 26 1000 94 10000 2.6 110 09:56 16.01.2020
4401 Clouds 26 1000 94 10000 2.6 110 09:37 16.01.2020
4402 Clouds 26 1000 94 10000 2.6 110 09:18 16.01.2020
4403 Rain 25 999 96 0 3.76 111 08:44 16.01.2020
4404 Rain 25 999 96 0 3.76 111 08:23 16.01.2020
4405 Rain 25 997 96 0 3.21 105 07:43 16.01.2020
4406 Rain 26 999 94 10000 4.1 100 07:25 16.01.2020
4407 Rain 26 999 94 10000 4.1 100 06:56 16.01.2020
4408 Rain 26 999 94 10000 4.1 100 06:37 16.01.2020
4409 Clouds 28 998 83 10000 6.7 100 05:56 16.01.2020
4410 Clouds 28 998 83 10000 6.7 100 05:30 16.01.2020
4411 Clouds 26 999 100 10000 5.7 100 04:37 16.01.2020
4412 Clouds 26 999 100 10000 5.7 100 04:37 16.01.2020
4413 Clouds 29 999 79 10000 7.2 100 03:27 16.01.2020
4414 Clouds 28 1000 88 10000 6.7 110 02:24 16.01.2020
4415 Rain 26 1001 100 10000 2.1 140 00:44 16.01.2020
4416 Rain 26 1001 100 8000 6.2 110 00:24 16.01.2020
4417 Rain 27 1001 94 5000 4.6 100 23:46 15.01.2020
4418 Rain 27 1001 94 5000 4.6 100 23:46 15.01.2020
4419 Drizzle 28 1001 88 10000 5.1 90 23:22 15.01.2020
4420 Clouds 28 1002 88 10000 4.1 110 22:57 15.01.2020
4421 Clouds 28 1002 88 10000 4.1 110 22:39 15.01.2020
4422 Clouds 28 1002 88 10000 4.1 110 22:19 15.01.2020
4423 Clouds 27 1002 94 10000 3.1 100 21:57 15.01.2020
4424 Clouds 27 1002 94 10000 3.1 100 21:37 15.01.2020
4425 Clouds 27 1002 94 10000 3.1 100 21:19 15.01.2020
4426 Clouds 26 1002 94 10000 1.5 120 20:56 15.01.2020
4427 Clouds 26 1002 94 10000 1.5 120 20:38 15.01.2020
4428 Clouds 26 1002 94 10000 1.5 120 20:19 15.01.2020
4429 Clouds 25 1001 94 10000 1 220 19:54 15.01.2020
4430 Clouds 25 1001 94 10000 1 220 19:36 15.01.2020
4431 Clouds 25 1001 94 10000 1 220 19:18 15.01.2020
4432 Rain 25 1001 94 10000 1.85 101 18:56 15.01.2020
4433 Rain 25 1001 94 10000 1.85 101 18:37 15.01.2020
4434 Rain 25 1001 94 10000 1.85 101 18:37 15.01.2020
4435 Rain 25 1001 94 10000 1.85 101 18:19 15.01.2020
4436 Rain 25 1001 100 10000 3.1 90 17:55 15.01.2020
4437 Rain 25 1001 100 10000 3.1 90 17:36 15.01.2020
4438 Rain 25 1001 100 10000 3.1 90 17:18 15.01.2020
4439 Rain 26 1001 94 10000 3.6 110 16:40 15.01.2020
4440 Rain 26 1001 94 10000 3.6 110 16:21 15.01.2020
4441 Rain 26 1001 94 10000 3.6 110 16:21 15.01.2020
4442 Rain 25 1001 100 10000 1 0 15:56 15.01.2020
4443 Rain 25 1001 100 10000 1 0 15:38 15.01.2020
4444 Rain 25 1001 100 10000 1 0 15:18 15.01.2020
4445 Clouds 25 1002 100 10000 1.5 150 14:42 15.01.2020
4446 Clouds 25 1002 100 10000 1.5 150 14:19 15.01.2020
4447 Clouds 25 1003 100 10000 1 0 13:46 15.01.2020
4448 Clouds 25 1003 100 10000 1 0 13:26 15.01.2020
4449 Rain 25 1004 94 10000 2.6 140 12:59 15.01.2020
4450 Rain 25 1004 94 10000 2.6 140 12:39 15.01.2020
4451 Rain 25 1004 94 10000 2.6 140 12:19 15.01.2020
4452 Rain 25 1004 94 10000 3.6 120 11:56 15.01.2020
4453 Rain 25 1004 94 10000 3.6 120 11:37 15.01.2020
4454 Rain 25 1004 94 10000 3.6 120 11:19 15.01.2020
4455 Rain 25 1004 100 5000 7.7 90 10:42 15.01.2020
4456 Rain 25 1004 100 5000 7.7 90 10:24 15.01.2020
4457 Rain 25 1004 100 5000 6.7 80 09:42 15.01.2020
4458 Rain 26 1003 94 10000 2.6 110 09:23 15.01.2020
4459 Clouds 27 1003 94 10000 3.1 110 08:56 15.01.2020
4460 Clouds 27 1003 94 10000 3.1 110 08:37 15.01.2020
4461 Clouds 27 1003 94 10000 3.1 110 08:19 15.01.2020
4462 Rain 26 1002 93 0 2.81 108 07:50 15.01.2020
4463 Clouds 28 1002 83 10000 2.6 120 07:29 15.01.2020
4464 Clouds 28 1002 83 10000 2.6 120 06:44 15.01.2020
4465 Clouds 28 1002 83 10000 2.6 120 06:18 15.01.2020
4466 Clouds 29 1003 66 10000 6.7 120 04:34 15.01.2020
4467 Clouds 30 1003 70 10000 6.2 110 02:30 15.01.2020
4468 Clouds 29 1004 74 10000 5.7 100 01:25 15.01.2020
4469 Clouds 29 1004 74 10000 5.7 120 00:45 15.01.2020
4470 Clouds 29 1004 74 10000 5.7 120 00:26 15.01.2020
4471 Clouds 29 1005 74 10000 5.1 110 23:47 14.01.2020
4472 Clouds 29 1005 74 10000 5.1 110 23:29 14.01.2020
4473 Clouds 29 1005 79 10000 5.7 100 22:59 14.01.2020
4474 Clouds 29 1005 79 10000 5.7 100 22:40 14.01.2020
4475 Clouds 29 1005 79 10000 5.7 100 22:19 14.01.2020
4476 Clouds 28 1005 78 10000 6.2 110 21:58 14.01.2020
4477 Clouds 28 1005 78 10000 6.2 110 21:39 14.01.2020
4478 Clouds 28 1005 78 10000 6.2 110 21:39 14.01.2020
4479 Clouds 28 1005 78 10000 6.2 110 21:20 14.01.2020
4480 Clouds 27 1005 83 10000 3.1 110 20:56 14.01.2020
4481 Rain 26 1004 92 0 3.18 102 20:38 14.01.2020
4482 Rain 24 1004 95 0 1.26 82 20:19 14.01.2020
4483 Rain 24 1004 95 0 1.26 82 19:55 14.01.2020
4484 Rain 24 1004 95 0 1.26 82 19:37 14.01.2020
4485 Clouds 26 1004 88 10000 2.1 100 19:18 14.01.2020
4486 Rain 24 1004 95 0 1.26 82 18:41 14.01.2020
4487 Clouds 26 1004 88 10000 2.6 110 18:20 14.01.2020
4488 Clouds 26 1004 88 10000 2.6 110 17:58 14.01.2020
4489 Clouds 26 1004 88 10000 2.6 110 17:37 14.01.2020
4490 Clouds 26 1004 88 10000 2.6 110 17:18 14.01.2020
4491 Clouds 26 1004 88 10000 1.5 90 16:44 14.01.2020
4492 Clouds 26 1004 88 10000 1.5 90 16:23 14.01.2020
4493 Clouds 26 1005 88 10000 2.6 100 15:58 14.01.2020
4494 Clouds 26 1005 88 10000 2.6 100 15:40 14.01.2020
4495 Clouds 26 1005 88 10000 2.6 100 15:19 14.01.2020
4496 Rain 26 1005 94 10000 0.9 96 14:45 14.01.2020
4497 Rain 26 1005 94 10000 0.82 82 14:21 14.01.2020
4498 Rain 24 1005 95 0 0.82 82 13:57 14.01.2020
4499 Rain 24 1005 95 0 0.82 82 13:38 14.01.2020
4500 Clouds 27 1007 83 10000 0.79 89 13:18 14.01.2020
4501 Clouds 27 1007 83 10000 0.79 89 12:42 14.01.2020
4502 Clouds 27 1007 83 10000 0.79 89 12:22 14.01.2020
4503 Clouds 27 1007 88 10000 1.5 120 11:56 14.01.2020
4504 Clouds 27 1007 88 10000 1.5 120 11:36 14.01.2020
4505 Clouds 27 1007 88 10000 1.5 120 11:18 14.01.2020
4506 Clouds 27 1007 83 10000 2.1 110 10:40 14.01.2020
4507 Clouds 27 1007 83 10000 2.1 110 10:20 14.01.2020
4508 Clouds 27 1006 83 10000 3.1 110 09:58 14.01.2020
4509 Clouds 27 1006 83 10000 3.1 110 09:40 14.01.2020
4510 Clouds 27 1006 83 10000 3.1 110 09:21 14.01.2020
4511 Clouds 27 1006 83 10000 4.6 110 08:48 14.01.2020
4512 Clouds 27 1006 83 10000 4.6 110 08:26 14.01.2020
4513 Clouds 28 1005 83 10000 4.6 120 07:56 14.01.2020
4514 Clouds 28 1005 83 10000 4.6 120 07:37 14.01.2020
4515 Clouds 28 1005 78 10000 6.2 120 06:57 14.01.2020
4516 Clouds 28 1005 78 10000 6.2 120 06:39 14.01.2020
4517 Clouds 28 1005 78 10000 6.2 120 06:39 14.01.2020
4518 Clouds 28 1005 83 10000 5.1 130 05:28 14.01.2020
4519 Clouds 30 1005 74 10000 4.6 130 03:57 14.01.2020
4520 Clouds 30 1005 74 10000 4.6 130 03:35 14.01.2020
4521 Rain 27 1005 87 0 2.96 93 01:58 14.01.2020
4522 Clouds 31 1006 66 10000 4.6 80 01:18 14.01.2020
4523 Clouds 31 1006 66 10000 4.6 80 00:38 14.01.2020
4524 Clouds 29 1006 79 10000 3.6 100 23:59 13.01.2020
4525 Clouds 29 1006 79 10000 3.6 100 23:37 13.01.2020
4526 Clouds 29 1006 79 10000 3.6 100 23:18 13.01.2020
4527 Clouds 28 1007 78 10000 2.6 70 22:45 13.01.2020
4528 Clouds 28 1007 78 10000 2.6 70 22:22 13.01.2020
4529 Clouds 27 1007 88 10000 1 350 21:58 13.01.2020
4530 Clouds 27 1007 88 10000 1 350 21:58 13.01.2020
4531 Clouds 27 1007 88 10000 1 350 21:39 13.01.2020
4532 Clouds 27 1007 88 10000 1 350 21:19 13.01.2020
4533 Clouds 25 1007 94 10000 2.6 40 20:59 13.01.2020
4534 Clouds 25 1007 94 10000 2.6 40 20:41 13.01.2020
4535 Clouds 25 1007 94 10000 2.6 40 20:22 13.01.2020
4536 Clouds 25 1006 94 10000 1 330 19:59 13.01.2020
4537 Clouds 25 1006 94 10000 1 330 19:40 13.01.2020
4538 Clouds 25 1006 94 10000 1 330 19:20 13.01.2020
4539 Clouds 25 1006 94 10000 0.41 16 18:56 13.01.2020
4540 Clouds 25 1006 94 10000 0.41 16 18:37 13.01.2020
4541 Clouds 25 1006 94 10000 0.41 16 18:19 13.01.2020
4542 Clouds 25 1006 100 10000 0.41 16 17:43 13.01.2020
4543 Clouds 25 1006 100 10000 0.13 59 17:25 13.01.2020
4544 Clouds 25 1006 100 10000 0.13 59 16:57 13.01.2020
4545 Clouds 24 1005 95 0 0.13 59 16:38 13.01.2020
4546 Clouds 24 1005 95 0 0.13 59 16:20 13.01.2020
4547 Clouds 24 1005 95 0 0.13 59 15:44 13.01.2020
4548 Clouds 24 1005 95 0 0.13 59 15:24 13.01.2020
4549 Clouds 24 1005 95 0 0.13 59 14:59 13.01.2020
4550 Clouds 24 1005 95 0 0.13 59 14:39 13.01.2020
4551 Clouds 24 1005 95 0 0.13 59 14:39 13.01.2020
4552 Clouds 24 1005 95 0 0.13 59 14:39 13.01.2020
4553 Rain 24 1007 94 0 0.84 59 14:20 13.01.2020
4554 Rain 24 1007 94 0 0.84 59 13:55 13.01.2020
4555 Rain 24 1007 94 0 0.84 59 13:37 13.01.2020
4556 Rain 24 1007 94 0 0.82 73 13:19 13.01.2020
4557 Rain 24 1007 94 0 0.82 73 12:43 13.01.2020
4558 Clouds 27 1008 83 10000 1.5 90 12:23 13.01.2020
4559 Clouds 27 1008 83 10000 1.5 90 11:57 13.01.2020
4560 Clouds 27 1008 83 10000 1.5 90 11:37 13.01.2020
4561 Clouds 27 1008 83 10000 1.5 90 11:37 13.01.2020
4562 Clouds 27 1008 83 10000 1.5 90 11:19 13.01.2020
4563 Clouds 27 1008 83 10000 2.1 100 10:56 13.01.2020
4564 Clouds 27 1008 83 10000 2.1 100 10:37 13.01.2020
4565 Clouds 27 1008 83 10000 2.1 100 10:37 13.01.2020
4566 Clouds 27 1008 83 10000 2.1 100 10:19 13.01.2020
4567 Clouds 27 1008 83 10000 2.6 110 09:43 13.01.2020
4568 Clouds 27 1008 83 10000 2.6 110 09:24 13.01.2020
4569 Rain 24 1006 95 0 1.61 84 08:56 13.01.2020
4570 Rain 24 1006 95 0 1.61 84 08:36 13.01.2020
4571 Rain 25 1005 95 0 1.72 89 08:18 13.01.2020
4572 Rain 25 1005 95 0 1.72 89 07:42 13.01.2020
4573 Clouds 29 1006 79 10000 4.6 110 07:21 13.01.2020
4574 Clouds 29 1006 79 10000 4.6 110 06:37 13.01.2020
4575 Clouds 29 1006 74 10000 5.7 100 05:37 13.01.2020
4576 Clouds 29 1006 74 10000 6.2 110 04:26 13.01.2020
4577 Rain 26 1005 93 0 1.82 71 03:36 13.01.2020
4578 Clouds 29 1007 79 10000 5.7 90 02:49 13.01.2020
4579 Clouds 29 1007 79 10000 5.7 90 02:30 13.01.2020
4580 Clouds 29 1007 79 10000 5.7 90 02:30 13.01.2020
4581 Clouds 30 1007 70 10000 5.7 100 01:33 13.01.2020
4582 Clouds 30 1007 74 10000 4.1 100 00:44 13.01.2020
4583 Clouds 30 1007 74 10000 4.1 100 00:25 13.01.2020
4584 Clouds 28 1008 83 10000 2.1 150 23:57 12.01.2020
4585 Clouds 28 1008 83 10000 2.1 150 23:38 12.01.2020
4586 Clouds 28 1008 83 10000 2.1 150 23:20 12.01.2020
4587 Rain 27 1008 88 10000 1.5 170 22:43 12.01.2020
4588 Rain 27 1008 88 10000 1.5 170 22:24 12.01.2020
4589 Clouds 25 1008 94 10000 1 0 21:59 12.01.2020
4590 Clouds 25 1008 94 10000 1 0 21:59 12.01.2020
4591 Clouds 25 1008 94 10000 1 0 21:40 12.01.2020
4592 Clouds 25 1008 94 10000 1 0 21:20 12.01.2020
4593 Clouds 24 1007 94 10000 1 0 20:57 12.01.2020
4594 Clouds 24 1007 94 10000 1 0 20:39 12.01.2020
4595 Clouds 24 1007 94 10000 1 0 20:20 12.01.2020
4596 Clouds 24 1007 94 10000 1.5 130 19:56 12.01.2020
4597 Clouds 24 1007 94 10000 1.5 130 19:38 12.01.2020
4598 Clouds 24 1007 94 10000 1.5 130 19:19 12.01.2020
4599 Rain 24 1007 100 5000 1 0 18:58 12.01.2020
4600 Rain 24 1007 100 5000 1 0 18:58 12.01.2020
4601 Rain 24 1007 100 5000 1 0 18:39 12.01.2020
4602 Rain 24 1007 100 5000 1 0 18:21 12.01.2020
4603 Rain 25 1007 94 5000 4.1 70 17:57 12.01.2020
4604 Drizzle 26 1006 94 10000 2.6 120 17:38 12.01.2020
4605 Drizzle 26 1006 94 10000 2.6 120 17:19 12.01.2020
4606 Clouds 26 1006 94 10000 0.89 55 16:55 12.01.2020
4607 Clouds 26 1006 94 10000 0.89 55 16:55 12.01.2020
4608 Clouds 26 1006 94 10000 0.89 55 16:37 12.01.2020
4609 Clouds 26 1006 94 10000 0.89 55 16:18 12.01.2020
4610 Clouds 26 1007 88 10000 0.89 55 15:42 12.01.2020
4611 Clouds 26 1007 88 10000 0.89 55 15:24 12.01.2020
4612 Clouds 26 1007 88 10000 0.89 55 15:24 12.01.2020
4613 Clouds 26 1008 94 10000 0.89 55 14:56 12.01.2020
4614 Clouds 26 1008 94 10000 0.89 55 14:37 12.01.2020
4615 Clouds 26 1008 94 10000 0.54 26 14:18 12.01.2020
4616 Clouds 26 1008 94 10000 1.5 130 13:42 12.01.2020
4617 Clouds 26 1008 94 10000 1.5 130 13:23 12.01.2020
4618 Clouds 27 1009 88 10000 1.5 80 12:58 12.01.2020
4619 Clouds 27 1009 88 10000 1.5 80 12:38 12.01.2020
4620 Clouds 27 1009 88 10000 1.5 80 12:20 12.01.2020
4621 Rain 27 1009 88 10000 0.76 48 11:57 12.01.2020
4622 Rain 27 1009 88 10000 0.76 48 11:38 12.01.2020
4623 Rain 27 1009 88 10000 1.37 92 11:19 12.01.2020
4624 Clouds 27 1009 88 10000 3.1 70 10:41 12.01.2020
4625 Clouds 27 1009 88 10000 3.1 70 10:21 12.01.2020
4626 Rain 28 1008 83 10000 2.6 130 09:56 12.01.2020
4627 Rain 28 1008 83 10000 2.6 130 09:38 12.01.2020
4628 Rain 28 1008 83 10000 2.6 130 09:18 12.01.2020
4629 Rain 28 1008 83 10000 2.1 110 08:42 12.01.2020
4630 Rain 28 1008 83 10000 2.1 110 08:19 12.01.2020
4631 Clouds 28 1007 78 10000 1.5 120 07:40 12.01.2020
4632 Clouds 28 1007 78 10000 1.5 120 07:21 12.01.2020
4633 Clouds 28 1007 78 10000 3.1 130 06:43 12.01.2020
4634 Clouds 28 1007 78 10000 3.1 130 06:24 12.01.2020
4635 Clouds 29 1007 74 10000 2.6 110 05:23 12.01.2020
4636 Clouds 29 1007 70 10000 5.1 90 03:55 12.01.2020
4637 Clouds 29 1007 70 10000 5.1 90 03:22 12.01.2020
4638 Rain 25 1005 95 0 1.84 94 02:33 12.01.2020
4639 Rain 27 1007 90 0 2.94 96 01:42 12.01.2020
4640 Rain 27 1007 90 0 2.93 95 01:22 12.01.2020
4641 Rain 27 1007 90 0 2.93 95 00:40 12.01.2020
4642 Rain 27 1007 90 0 2.93 95 00:40 12.01.2020
4643 Rain 27 1007 90 0 2.93 95 00:20 12.01.2020
4644 Rain 27 1007 90 0 2.93 95 23:42 11.01.2020
4645 Rain 26 1008 90 0 2.24 98 23:19 11.01.2020
4646 Rain 26 1008 90 0 2.24 98 22:57 11.01.2020
4647 Rain 26 1008 90 0 2.24 98 22:39 11.01.2020
4648 Rain 26 1008 90 0 2.24 98 22:20 11.01.2020
4649 Rain 26 1008 90 0 2.24 98 21:55 11.01.2020
4650 Rain 26 1008 90 0 2.24 98 21:37 11.01.2020
4651 Rain 26 1008 90 0 2.24 98 21:18 11.01.2020
4652 Rain 26 1008 90 0 2.24 98 20:40 11.01.2020
4653 Rain 23 1008 96 0 0.94 103 20:22 11.01.2020
4654 Rain 23 1008 95 0 1.19 108 19:58 11.01.2020
4655 Rain 23 1008 95 0 1.19 108 19:38 11.01.2020
4656 Rain 23 1008 95 0 1.19 108 19:38 11.01.2020
4657 Rain 23 1008 95 0 1.19 108 19:20 11.01.2020
4658 Rain 23 1008 95 0 1.19 108 18:57 11.01.2020
4659 Rain 23 1008 95 0 1.19 108 18:37 11.01.2020
4660 Rain 23 1008 95 0 1.19 108 18:19 11.01.2020
4661 Rain 23 1008 95 0 1.19 108 17:57 11.01.2020
4662 Rain 23 1008 95 0 1.19 108 17:39 11.01.2020
4663 Rain 24 1006 94 0 1.39 104 17:19 11.01.2020
4664 Rain 24 1006 94 0 1.39 104 16:44 11.01.2020
4665 Rain 24 1006 94 0 1.39 104 16:25 11.01.2020
4666 Rain 24 1006 94 0 1.39 104 15:57 11.01.2020
4667 Rain 24 1006 94 0 1.39 104 15:39 11.01.2020
4668 Rain 24 1006 94 0 1.39 104 15:20 11.01.2020
4669 Rain 24 1006 94 0 1.39 104 14:47 11.01.2020
4670 Rain 24 1006 94 0 1.39 104 14:26 11.01.2020
4671 Rain 24 1009 90 0 2.04 104 13:59 11.01.2020
4672 Rain 24 1009 90 0 2.04 104 13:38 11.01.2020
4673 Rain 24 1009 90 0 2.04 104 13:20 11.01.2020
4674 Rain 24 1009 92 0 2.23 108 12:56 11.01.2020
4675 Rain 24 1009 92 0 2.23 108 12:37 11.01.2020
4676 Rain 24 1009 92 0 2.23 108 12:19 11.01.2020
4677 Rain 24 1009 92 0 2.23 108 11:45 11.01.2020
4678 Rain 24 1009 92 0 2.23 108 11:24 11.01.2020
4679 Rain 25 1009 88 0 2.52 111 10:50 11.01.2020
4680 Rain 25 1009 88 0 2.52 111 10:30 11.01.2020
4681 Rain 25 1009 88 0 2.52 111 09:44 11.01.2020
4682 Rain 25 1009 88 0 2.52 111 09:21 11.01.2020
4683 Rain 25 1009 88 0 2.52 111 08:57 11.01.2020
4684 Rain 25 1009 88 0 2.52 111 08:38 11.01.2020
4685 Rain 26 1008 79 0 3.3 109 08:19 11.01.2020
4686 Rain 26 1008 79 0 3.3 109 07:42 11.01.2020
4687 Rain 26 1008 79 0 3.3 109 07:24 11.01.2020
4688 Rain 26 1008 79 0 3.3 109 06:43 11.01.2020
4689 Rain 26 1008 79 0 3.3 109 05:29 11.01.2020
4690 Rain 29 1007 67 0 4.32 102 04:40 11.01.2020
4691 Rain 29 1007 67 0 4.32 102 04:21 11.01.2020
4692 Clouds 30 1010 70 10000 6.2 120 02:46 11.01.2020
4693 Clouds 30 1010 66 10000 7.7 110 01:47 11.01.2020
4694 Clouds 30 1010 66 10000 7.7 110 01:27 11.01.2020
4695 Clouds 30 1011 70 10000 5.7 120 00:52 11.01.2020
4696 Clouds 30 1011 70 10000 5.7 120 00:25 11.01.2020
4697 Clouds 30 1011 70 10000 7.7 100 23:58 10.01.2020
4698 Clouds 30 1011 70 10000 7.7 100 23:38 10.01.2020
4699 Clouds 30 1011 70 10000 7.7 100 23:38 10.01.2020
4700 Clouds 30 1011 70 10000 7.7 100 23:20 10.01.2020
4701 Clouds 29 1011 70 10000 8.2 100 22:41 10.01.2020
4702 Clouds 29 1011 70 10000 8.2 100 22:22 10.01.2020
4703 Rain 28 1011 78 10000 4.6 120 21:58 10.01.2020
4704 Rain 28 1011 78 10000 4.6 120 21:40 10.01.2020
4705 Rain 28 1011 78 10000 4.6 120 21:20 10.01.2020
4706 Clouds 28 1011 78 10000 3.1 120 20:57 10.01.2020
4707 Clouds 28 1011 78 10000 3.1 120 20:38 10.01.2020
4708 Clouds 28 1011 78 10000 3.1 120 20:19 10.01.2020
4709 Clouds 27 1010 83 10000 2.1 120 19:40 10.01.2020
4710 Clouds 27 1010 83 10000 2.1 120 19:20 10.01.2020
4711 Clouds 27 1010 83 10000 3.1 110 18:55 10.01.2020
4712 Clouds 27 1010 83 10000 3.1 110 18:37 10.01.2020
4713 Clouds 27 1010 83 10000 3.1 110 18:18 10.01.2020
4714 Clouds 26 1009 83 10000 3.1 120 17:56 10.01.2020
4715 Clouds 26 1009 83 10000 3.1 120 17:37 10.01.2020
4716 Clouds 26 1009 83 10000 3.1 120 17:19 10.01.2020
4717 Clouds 27 1009 83 10000 4.1 100 16:41 10.01.2020
4718 Clouds 27 1009 83 10000 4.1 100 16:21 10.01.2020
4719 Clouds 27 1010 83 10000 2.6 120 15:56 10.01.2020
4720 Clouds 27 1010 83 10000 2.6 120 15:56 10.01.2020
4721 Clouds 27 1010 83 10000 2.6 120 15:37 10.01.2020
4722 Clouds 27 1010 83 10000 2.6 120 15:19 10.01.2020
4723 Clouds 27 1010 83 10000 2.6 120 15:19 10.01.2020
4724 Clouds 27 1010 83 10000 4.6 120 14:57 10.01.2020
4725 Clouds 27 1010 83 10000 4.6 120 14:38 10.01.2020
4726 Clouds 27 1010 83 10000 4.6 120 14:19 10.01.2020
4727 Clouds 27 1011 83 10000 4.6 120 13:46 10.01.2020
4728 Clouds 27 1011 83 10000 4.6 120 13:28 10.01.2020
4729 Clouds 27 1012 83 10000 4.6 120 12:59 10.01.2020
4730 Clouds 27 1012 83 10000 4.6 120 12:40 10.01.2020
4731 Clouds 27 1012 83 10000 4.6 120 12:21 10.01.2020
4732 Clouds 27 1012 83 10000 3.1 120 11:58 10.01.2020
4733 Clouds 27 1012 83 10000 3.1 120 11:40 10.01.2020
4734 Clouds 27 1012 83 10000 3.1 120 11:19 10.01.2020
4735 Clouds 27 1012 83 10000 3.6 120 10:59 10.01.2020
4736 Clouds 27 1012 83 10000 3.6 120 10:38 10.01.2020
4737 Clouds 27 1012 83 10000 3.6 120 10:18 10.01.2020
4738 Clouds 28 1011 78 10000 4.6 120 09:45 10.01.2020
4739 Clouds 28 1011 78 10000 4.6 120 09:26 10.01.2020
4740 Clouds 28 1011 78 10000 4.1 120 08:57 10.01.2020
4741 Clouds 28 1011 78 10000 4.1 120 08:37 10.01.2020
4742 Clouds 28 1011 78 10000 4.1 120 08:18 10.01.2020
4743 Clouds 28 1011 78 10000 4.6 120 07:41 10.01.2020
4744 Clouds 28 1011 78 10000 4.6 120 07:21 10.01.2020
4745 Clouds 30 1010 74 10000 5.7 100 06:41 10.01.2020
4746 Clouds 30 1010 74 10000 5.7 100 06:23 10.01.2020
4747 Clouds 30 1010 74 10000 5.1 90 05:19 10.01.2020
4748 Clouds 29 1010 74 10000 5.7 90 03:32 10.01.2020
4749 Clouds 30 1011 70 10000 4.6 110 02:52 10.01.2020
4750 Clouds 30 1011 70 10000 4.6 110 02:20 10.01.2020
4751 Clouds 30 1011 74 10000 6.2 100 01:32 10.01.2020
4752 Clouds 30 1012 70 10000 5.7 120 00:51 10.01.2020
4753 Clouds 30 1012 70 10000 5.7 120 00:33 10.01.2020
4754 Clouds 30 1012 70 10000 6.2 110 23:57 09.01.2020
4755 Clouds 30 1012 70 10000 6.2 110 23:57 09.01.2020
4756 Clouds 30 1012 70 10000 6.2 110 23:36 09.01.2020
4757 Clouds 30 1012 70 10000 6.2 110 23:18 09.01.2020
4758 Clouds 29 1012 83 10000 6.7 110 22:56 09.01.2020
4759 Clouds 29 1012 83 10000 6.7 110 22:37 09.01.2020
4760 Clouds 29 1012 83 10000 6.7 110 22:18 09.01.2020
4761 Clouds 28 1012 78 10000 5.1 110 21:54 09.01.2020
4762 Clouds 28 1012 78 10000 5.1 110 21:36 09.01.2020
4763 Clouds 28 1012 78 10000 5.1 110 21:18 09.01.2020
4764 Clouds 28 1012 78 10000 5.1 110 21:18 09.01.2020
4765 Clouds 28 1012 83 10000 4.6 110 20:54 09.01.2020
4766 Clouds 28 1012 83 10000 4.6 110 20:36 09.01.2020
4767 Rain 24 1011 94 0 2.11 95 20:18 09.01.2020
4768 Rain 24 1011 94 0 2.11 95 19:39 09.01.2020
4769 Clouds 27 1011 83 10000 2.6 120 19:20 09.01.2020
4770 Clouds 27 1011 83 10000 2.6 120 18:56 09.01.2020
4771 Clouds 27 1011 83 10000 2.6 120 18:38 09.01.2020
4772 Clouds 27 1011 83 10000 2.6 120 18:20 09.01.2020
4773 Clouds 27 1011 83 10000 2.6 120 17:41 09.01.2020
4774 Clouds 27 1011 88 10000 2.6 110 17:19 09.01.2020
4775 Clouds 27 1011 88 10000 2.6 110 16:56 09.01.2020
4776 Clouds 27 1011 88 10000 2.6 110 16:38 09.01.2020
4777 Clouds 27 1012 88 10000 3.1 110 16:20 09.01.2020
4778 Clouds 27 1012 88 10000 3.1 110 15:43 09.01.2020
4779 Clouds 27 1012 88 10000 2.6 110 15:22 09.01.2020
4780 Clouds 27 1012 88 10000 2.6 110 14:58 09.01.2020
4781 Clouds 27 1012 88 10000 2.6 110 14:39 09.01.2020
4782 Rain 24 1012 95 0 2.17 92 14:19 09.01.2020
4783 Rain 24 1012 95 0 2.17 92 13:55 09.01.2020
4784 Rain 24 1012 95 0 2.17 92 13:37 09.01.2020
4785 Clouds 27 1013 88 10000 3.1 110 13:18 09.01.2020
4786 Clouds 27 1013 88 10000 3.1 110 12:42 09.01.2020
4787 Clouds 27 1013 88 10000 4.1 110 12:24 09.01.2020
4788 Clouds 27 1013 88 10000 4.1 110 11:59 09.01.2020
4789 Clouds 27 1013 88 10000 4.1 110 11:41 09.01.2020
4790 Clouds 27 1013 88 10000 3.1 110 11:23 09.01.2020
4791 Clouds 27 1013 88 10000 3.1 110 10:57 09.01.2020
4792 Clouds 27 1013 88 10000 3.1 110 10:39 09.01.2020
4793 Clouds 27 1013 88 10000 3.1 110 10:20 09.01.2020
4794 Clouds 27 1012 88 10000 4.6 110 09:41 09.01.2020
4795 Clouds 27 1012 88 10000 4.6 110 09:41 09.01.2020
4796 Clouds 27 1012 88 10000 4.6 110 09:22 09.01.2020
4797 Clouds 27 1011 94 10000 4.1 110 08:56 09.01.2020
4798 Clouds 27 1011 94 10000 4.1 110 08:38 09.01.2020
4799 Clouds 27 1011 94 10000 4.1 110 08:19 09.01.2020
4800 Clouds 28 1011 88 10000 4.1 100 07:44 09.01.2020
4801 Clouds 28 1011 88 10000 4.1 100 07:25 09.01.2020
4802 Rain 27 1010 94 10000 5.1 90 06:39 09.01.2020
4803 Rain 27 1010 94 10000 5.1 90 06:21 09.01.2020
4804 Clouds 29 1010 79 10000 5.1 110 05:50 09.01.2020
4805 Clouds 30 1010 74 10000 5.1 120 04:45 09.01.2020
4806 Clouds 30 1011 79 10000 4.6 110 03:54 09.01.2020
4807 Clouds 30 1011 79 10000 4.6 110 03:26 09.01.2020
4808 Rain 27 1010 90 0 2.71 88 02:31 09.01.2020
4809 Rain 27 1012 87 0 3.42 87 01:40 09.01.2020
4810 Clouds 29 1012 79 10000 5.7 110 00:44 09.01.2020
4811 Clouds 29 1012 79 10000 6.2 120 00:22 09.01.2020
4812 Clouds 29 1012 79 10000 6.2 120 23:56 08.01.2020
4813 Clouds 29 1012 79 10000 6.2 120 23:37 08.01.2020
4814 Clouds 29 1012 79 10000 7.2 110 23:19 08.01.2020
4815 Clouds 29 1012 79 10000 7.2 110 22:39 08.01.2020
4816 Clouds 29 1012 79 10000 6.2 110 22:21 08.01.2020
4817 Clouds 29 1012 79 10000 6.2 110 22:21 08.01.2020
4818 Clouds 29 1012 79 10000 6.2 110 21:58 08.01.2020
4819 Clouds 29 1012 79 10000 6.2 110 21:39 08.01.2020
4820 Clouds 27 1012 88 10000 4.6 100 21:20 08.01.2020
4821 Clouds 27 1012 88 10000 4.6 100 21:20 08.01.2020
4822 Clouds 27 1012 88 10000 4.6 100 20:58 08.01.2020
4823 Clouds 27 1012 88 10000 4.6 100 20:39 08.01.2020
4824 Clouds 27 1012 88 10000 4.6 100 20:20 08.01.2020
4825 Clouds 27 1012 83 10000 3.1 100 19:56 08.01.2020
4826 Clouds 27 1012 83 10000 3.1 100 19:56 08.01.2020
4827 Clouds 27 1012 83 10000 3.1 100 19:37 08.01.2020
4828 Clouds 27 1012 83 10000 3.1 100 19:19 08.01.2020
4829 Clouds 27 1012 83 10000 3.1 100 19:19 08.01.2020
4830 Clouds 27 1011 83 10000 3.6 100 18:55 08.01.2020
4831 Clouds 27 1011 83 10000 3.6 100 18:37 08.01.2020
4832 Clouds 27 1011 83 10000 3.6 100 18:18 08.01.2020
4833 Clouds 27 1011 83 10000 2.1 110 17:48 08.01.2020
4834 Clouds 27 1011 83 10000 2.1 110 17:24 08.01.2020
4835 Clouds 27 1011 83 10000 2.1 110 16:58 08.01.2020
4836 Clouds 27 1011 83 10000 2.1 110 16:39 08.01.2020
4837 Clouds 27 1011 83 10000 2.1 110 16:19 08.01.2020
4838 Clouds 27 1011 83 10000 1.5 110 15:59 08.01.2020
4839 Clouds 27 1011 83 10000 1.5 110 15:40 08.01.2020
4840 Clouds 27 1011 83 10000 1.5 110 15:20 08.01.2020
4841 Clouds 27 1012 83 10000 3.1 110 14:56 08.01.2020
4842 Clouds 27 1012 83 10000 3.1 110 14:38 08.01.2020
4843 Clouds 27 1012 83 10000 3.1 110 14:19 08.01.2020
4844 Clouds 27 1013 83 10000 2.1 110 13:39 08.01.2020
4845 Clouds 27 1013 83 10000 2.1 110 13:19 08.01.2020
4846 Clouds 27 1013 83 10000 2.6 110 12:42 08.01.2020
4847 Clouds 27 1013 83 10000 2.6 110 12:19 08.01.2020
4848 Clouds 27 1013 83 10000 2.6 110 11:55 08.01.2020
4849 Clouds 27 1013 83 10000 2.6 110 11:37 08.01.2020
4850 Clouds 27 1013 83 10000 2.6 110 11:18 08.01.2020
4851 Clouds 27 1012 88 10000 3.1 120 10:54 08.01.2020
4852 Clouds 27 1012 88 10000 3.1 120 10:36 08.01.2020
4853 Clouds 27 1012 88 10000 4.1 110 10:18 08.01.2020
4854 Clouds 27 1012 88 10000 4.1 110 09:41 08.01.2020
4855 Clouds 28 1011 83 10000 4.1 120 09:19 08.01.2020
4856 Clouds 28 1011 83 10000 4.1 120 08:55 08.01.2020
4857 Clouds 28 1011 83 10000 4.1 120 08:36 08.01.2020
4858 Rain 26 1011 86 0 2.86 100 08:18 08.01.2020
4859 Rain 26 1011 86 0 2.86 100 07:43 08.01.2020
4860 Clouds 29 1010 79 10000 5.7 100 07:23 08.01.2020
4861 Clouds 29 1010 79 10000 5.7 100 06:44 08.01.2020
4862 Clouds 29 1010 79 10000 5.1 110 05:59 08.01.2020
4863 Clouds 30 1010 74 10000 6.2 100 05:28 08.01.2020
4864 Clouds 30 1010 74 10000 6.2 100 04:46 08.01.2020
4865 Clouds 31 1011 70 10000 4.6 90 03:32 08.01.2020
4866 Clouds 32 1011 62 10000 5.1 70 02:44 08.01.2020
4867 Clouds 32 1011 62 10000 5.1 70 02:19 08.01.2020
4868 Clouds 31 1012 66 10000 6.2 80 01:39 08.01.2020
4869 Clouds 30 1012 66 10000 4.6 80 00:53 08.01.2020
4870 Clouds 30 1012 66 10000 4.6 80 00:26 08.01.2020
4871 Clouds 29 1012 74 10000 4.1 80 23:46 07.01.2020
4872 Clouds 29 1012 74 10000 4.1 80 23:22 07.01.2020
4873 Clouds 29 1012 74 10000 5.1 80 22:58 07.01.2020
4874 Clouds 29 1012 74 10000 5.1 80 22:38 07.01.2020
4875 Clouds 29 1012 74 10000 5.1 80 22:19 07.01.2020
4876 Clouds 29 1012 74 10000 5.1 80 22:19 07.01.2020
4877 Clouds 29 1012 79 10000 5.1 90 21:42 07.01.2020
4878 Clouds 29 1012 79 10000 5.1 90 21:23 07.01.2020
4879 Clouds 26 1012 88 10000 2.6 100 20:59 07.01.2020
4880 Clouds 26 1012 88 10000 2.6 100 20:41 07.01.2020
4881 Clouds 26 1012 88 10000 2.6 100 20:41 07.01.2020
4882 Rain 26 1012 90 0 3.32 84 20:22 07.01.2020
4883 Rain 24 1011 96 0 1.82 81 19:58 07.01.2020
4884 Rain 24 1011 96 0 1.82 81 19:38 07.01.2020
4885 Clouds 25 1010 94 10000 3.1 90 19:19 07.01.2020
4886 Clouds 25 1010 94 10000 3.1 90 18:56 07.01.2020
4887 Clouds 25 1010 94 10000 3.1 90 18:38 07.01.2020
4888 Clouds 25 1010 94 10000 3.1 100 18:18 07.01.2020
4889 Clouds 25 1010 94 10000 3.1 100 17:56 07.01.2020
4890 -273 0 0 0 0 0 17:37 07.01.2020
4891 Clouds 25 1010 94 10000 3.1 80 17:18 07.01.2020
4892 Clouds 25 1010 94 10000 3.1 80 16:55 07.01.2020
4893 Clouds 25 1010 94 10000 3.1 80 16:37 07.01.2020
4894 Rain 25 1011 100 10000 1 0 16:18 07.01.2020
4895 Rain 25 1011 100 10000 1 0 15:43 07.01.2020
4896 Clouds 25 1011 100 10000 1 0 15:24 07.01.2020
4897 Clouds 25 1011 100 10000 1 0 15:24 07.01.2020
4898 Clouds 25 1011 100 10000 1 0 14:58 07.01.2020
4899 Clouds 25 1011 100 10000 1 0 14:40 07.01.2020
4900 Rain 24 1012 96 0 1.76 96 14:21 07.01.2020
4901 Rain 24 1012 96 0 1.76 96 13:46 07.01.2020
4902 Rain 25 1012 94 10000 3.1 110 13:21 07.01.2020
4903 Rain 25 1012 94 10000 3.1 110 12:56 07.01.2020
4904 Rain 25 1012 94 10000 3.1 110 12:37 07.01.2020
4905 Clouds 25 1013 100 10000 2.1 120 12:19 07.01.2020
4906 Clouds 25 1013 100 10000 2.1 120 11:41 07.01.2020
4907 Rain 25 1012 94 9000 3.6 100 11:23 07.01.2020
4908 Rain 25 1012 94 9000 3.6 100 10:57 07.01.2020
4909 Rain 25 1012 94 9000 3.6 100 10:57 07.01.2020
4910 Rain 25 1012 94 9000 3.6 100 10:39 07.01.2020
4911 Rain 25 1012 94 9000 3.6 100 10:21 07.01.2020
4912 Rain 26 1011 94 10000 2.6 110 09:39 07.01.2020
4913 Rain 26 1011 94 10000 2.6 110 09:21 07.01.2020
4914 Rain 26 1011 94 10000 2.6 110 09:21 07.01.2020
4915 Rain 26 1011 94 10000 2.6 110 09:21 07.01.2020
4916 Clouds 26 1011 88 10000 1.5 80 08:57 07.01.2020
4917 Clouds 26 1011 88 10000 1.5 80 08:38 07.01.2020
4918 Clouds 26 1011 88 10000 1.5 80 08:18 07.01.2020
4919 Rain 27 1010 88 9000 2.1 100 07:42 07.01.2020
4920 Rain 27 1010 88 9000 2.1 100 07:18 07.01.2020
4921 Rain 27 1010 88 8000 3.6 80 06:36 07.01.2020
4922 Clouds 29 1009 74 10000 3.6 120 05:59 07.01.2020
4923 Clouds 29 1009 74 10000 3.6 120 05:40 07.01.2020
4924 Clouds 28 1010 83 10000 3.1 130 03:46 07.01.2020
4925 Clouds 28 1010 83 10000 3.1 130 03:24 07.01.2020
4926 Clouds 28 1010 83 10000 3.6 60 02:18 07.01.2020
4927 Rain 27 1011 85 0 2.17 110 01:40 07.01.2020
4928 Clouds 29 1011 74 10000 4.1 120 00:57 07.01.2020
4929 Clouds 29 1012 74 10000 3.6 90 00:21 07.01.2020
4930 Clouds 29 1012 74 10000 3.6 90 23:57 06.01.2020
4931 Clouds 29 1012 74 10000 3.6 90 23:37 06.01.2020
4932 Clouds 28 1012 78 10000 4.1 100 23:19 06.01.2020
4933 Clouds 28 1012 78 10000 4.1 100 22:44 06.01.2020
4934 Clouds 28 1012 78 10000 4.1 100 22:44 06.01.2020
4935 Clouds 26 1012 94 10000 1.5 100 22:24 06.01.2020
4936 Clouds 26 1012 94 10000 1.5 100 21:58 06.01.2020
4937 Clouds 26 1012 94 10000 1.5 100 21:39 06.01.2020
4938 Clouds 25 1012 94 10000 1.76 102 21:20 06.01.2020
4939 Clouds 25 1012 94 10000 1.76 102 21:20 06.01.2020
4940 Clouds 25 1012 94 10000 1.76 102 20:57 06.01.2020
4941 Clouds 25 1012 94 10000 1.76 102 20:39 06.01.2020
4942 Rain 23 1011 96 0 0.97 95 20:20 06.01.2020
4943 Rain 23 1011 96 0 0.97 95 20:20 06.01.2020
4944 Rain 23 1011 96 0 0.97 95 19:57 06.01.2020
4945 Rain 23 1011 96 0 0.97 95 19:38 06.01.2020
4946 Clouds 25 1011 94 10000 0.97 95 19:20 06.01.2020
4947 Clouds 25 1011 94 10000 0.97 95 18:48 06.01.2020
4948 Clouds 25 1011 94 10000 0.97 95 18:23 06.01.2020
4949 Clouds 25 1011 94 10000 0.97 95 17:59 06.01.2020
4950 Clouds 25 1011 94 10000 0.97 95 17:38 06.01.2020
4951 Rain 25 1012 94 10000 1 170 17:18 06.01.2020
4952 Rain 25 1012 94 10000 1 170 16:46 06.01.2020
4953 Rain 25 1012 94 10000 1 170 16:46 06.01.2020
4954 Clouds 26 1012 88 10000 2.1 140 16:27 06.01.2020
4955 Clouds 26 1012 88 10000 2.1 140 15:59 06.01.2020
4956 Clouds 26 1012 88 10000 2.1 140 15:39 06.01.2020
4957 Clouds 26 1012 88 10000 1.5 150 15:19 06.01.2020
4958 Clouds 26 1012 88 10000 1.5 150 14:58 06.01.2020
4959 Clouds 26 1012 88 10000 1.5 150 14:39 06.01.2020
4960 Rain 23 1013 95 0 1.61 108 14:19 06.01.2020
4961 Rain 23 1013 95 0 1.61 108 13:54 06.01.2020
4962 Rain 23 1013 95 0 1.61 108 13:36 06.01.2020
4963 Clouds 27 1014 83 10000 1.5 150 13:18 06.01.2020
4964 Clouds 27 1014 83 10000 1.5 150 12:41 06.01.2020
4965 Clouds 26 1014 88 10000 1.5 160 12:20 06.01.2020
4966 Clouds 26 1014 88 10000 1.5 160 11:57 06.01.2020
4967 Clouds 26 1014 88 10000 1.5 160 11:38 06.01.2020
4968 Clouds 26 1014 88 10000 1.5 160 11:38 06.01.2020
4969 Clouds 26 1013 88 10000 2.1 100 11:20 06.01.2020
4970 Clouds 26 1013 88 10000 2.1 100 10:43 06.01.2020
4971 Clouds 26 1013 88 10000 2.1 100 10:43 06.01.2020
4972 Clouds 26 1013 88 10000 2.1 140 10:24 06.01.2020
4973 Clouds 26 1013 88 10000 2.1 140 09:42 06.01.2020
4974 Clouds 27 1012 78 10000 3.1 120 09:24 06.01.2020
4975 Clouds 27 1012 78 10000 3.1 120 08:58 06.01.2020
4976 Clouds 27 1012 78 10000 3.1 120 08:40 06.01.2020
4977 Rain 26 1012 85 0 3.1 121 08:21 06.01.2020
4978 Rain 26 1012 85 0 3.1 121 07:48 06.01.2020
4979 Clouds 29 1011 70 10000 5.1 120 07:21 06.01.2020
4980 Clouds 29 1011 70 10000 5.1 120 07:21 06.01.2020
4981 Clouds 29 1011 70 10000 5.1 120 06:41 06.01.2020
4982 Clouds 29 1011 74 10000 4.6 140 05:51 06.01.2020
4983 Clouds 30 1011 66 10000 4.1 130 05:29 06.01.2020
4984 Clouds 30 1012 66 10000 4.1 130 04:25 06.01.2020
4985 Clouds 30 1012 66 10000 4.1 130 03:52 06.01.2020
4986 Clouds 29 1013 70 10000 3.6 120 02:32 06.01.2020
4987 Clouds 29 1013 70 10000 3.6 120 01:55 06.01.2020
4988 Clouds 29 1013 70 10000 3.6 120 01:32 06.01.2020
4989 Clouds 30 1013 62 10000 3.1 90 00:48 06.01.2020
4990 Clouds 30 1013 62 10000 3.1 90 00:29 06.01.2020
4991 Clouds 29 1013 70 10000 4.1 110 23:58 05.01.2020
4992 Clouds 29 1013 70 10000 4.1 110 23:39 05.01.2020
4993 Clouds 29 1013 70 10000 4.1 110 23:21 05.01.2020
4994 Clouds 29 1014 70 10000 3.1 110 22:40 05.01.2020
4995 Clouds 29 1014 70 10000 3.1 110 22:21 05.01.2020
4996 Clouds 28 1014 74 10000 3.6 110 21:58 05.01.2020
4997 Clouds 28 1014 74 10000 3.6 110 21:40 05.01.2020
4998 Clouds 28 1014 74 10000 3.6 110 21:20 05.01.2020
4999 Clouds 24 1013 94 10000 1 0 20:58 05.01.2020
5000 Clouds 24 1013 94 10000 1 0 20:39 05.01.2020
5001 Clouds 24 1013 94 10000 1 0 20:39 05.01.2020
5002 Clouds 24 1013 94 10000 1 0 20:19 05.01.2020
5003 Clouds 23 1013 94 10000 1.5 310 19:58 05.01.2020
5004 Clouds 23 1013 94 10000 1.5 310 19:39 05.01.2020
5005 Clouds 23 1013 94 10000 1.5 310 19:20 05.01.2020
5006 Clouds 22 1013 94 10000 0.88 104 18:55 05.01.2020
5007 Clouds 22 1013 94 10000 0.88 104 18:37 05.01.2020
5008 Clouds 22 1013 94 10000 0.88 104 18:19 05.01.2020
5009 Clouds 22 1013 94 10000 0.88 104 18:19 05.01.2020
5010 Clouds 23 1012 94 10000 0.88 104 17:57 05.01.2020
5011 Clouds 23 1012 94 10000 0.88 104 17:38 05.01.2020
5012 Clouds 23 1012 94 10000 0.88 104 17:38 05.01.2020
5013 Clouds 23 1012 94 10000 0.88 104 17:38 05.01.2020
5014 Clouds 23 1012 94 10000 1.8 111 17:19 05.01.2020
5015 Clouds 23 1012 94 10000 1.8 111 16:56 05.01.2020
5016 Clouds 23 1012 94 10000 1.8 111 16:38 05.01.2020
5017 Clouds 23 1012 94 10000 1.8 111 16:19 05.01.2020
5018 Clouds 23 1012 94 10000 1.8 111 16:19 05.01.2020
5019 Clouds 24 1013 94 10000 1.8 111 15:38 05.01.2020
5020 Clouds 24 1013 94 10000 1.8 111 15:20 05.01.2020
5021 Clouds 24 1013 94 10000 1.8 111 14:55 05.01.2020
5022 Clouds 24 1013 94 10000 1.8 111 14:37 05.01.2020
5023 Clouds 24 1013 94 10000 1.88 113 14:19 05.01.2020
5024 Clouds 25 1014 88 10000 1.88 113 13:56 05.01.2020
5025 Clouds 25 1014 88 10000 1.88 113 13:37 05.01.2020
5026 Clouds 25 1014 88 10000 1.95 114 13:18 05.01.2020
5027 Clouds 25 1014 88 10000 1.88 113 13:18 05.01.2020
5028 Clouds 25 1015 88 10000 3.1 110 12:55 05.01.2020
5029 Clouds 25 1015 88 10000 3.1 110 12:37 05.01.2020
5030 Clouds 25 1015 88 10000 3.1 110 12:18 05.01.2020
5031 Clouds 25 1015 88 10000 1.5 120 11:43 05.01.2020
5032 Clouds 25 1015 88 10000 1.5 120 11:43 05.01.2020
5033 Clouds 25 1015 88 10000 1.5 120 11:43 05.01.2020
5034 Clouds 25 1015 88 10000 1.5 120 11:43 05.01.2020
5035 Clouds 25 1015 88 10000 1.5 120 11:43 05.01.2020
5036 Clouds 25 1015 88 10000 1.5 120 11:20 05.01.2020
5037 Clouds 26 1014 83 10000 2.1 120 10:58 05.01.2020
5038 Clouds 26 1014 83 10000 2.1 120 10:39 05.01.2020
5039 Clouds 26 1014 83 10000 2.1 120 10:39 05.01.2020
5040 Clouds 26 1014 83 10000 2.1 120 10:39 05.01.2020
5041 Clouds 26 1014 83 10000 2.1 120 10:39 05.01.2020
5042 Clouds 26 1014 83 10000 2.1 120 10:39 05.01.2020
5043 Clouds 26 1014 83 10000 2.1 120 10:19 05.01.2020
5044 Clouds 26 1014 83 10000 1.5 110 09:42 05.01.2020
5045 Clouds 26 1014 83 10000 1.5 110 09:22 05.01.2020
5046 Clouds 27 1014 78 10000 2.6 110 08:50 05.01.2020
5047 Clouds 27 1014 78 10000 2.6 110 08:30 05.01.2020
5048 Clouds 28 1013 69 10000 4.6 110 07:56 05.01.2020
5049 Clouds 28 1013 69 10000 4.6 110 07:37 05.01.2020
5050 Clouds 28 1013 69 10000 4.6 110 07:19 05.01.2020
5051 Clouds 30 1012 58 10000 4.6 120 05:59 05.01.2020
5052 Clouds 30 1012 58 10000 4.6 120 05:33 05.01.2020
5053 Clouds 30 1012 58 10000 4.6 110 04:43 05.01.2020
5054 Clouds 30 1012 58 10000 4.6 110 04:18 05.01.2020
5055 Clouds 30 1012 58 10000 4.6 110 04:18 05.01.2020
5056 Clouds 30 1013 58 10000 4.6 100 02:46 05.01.2020
5057 Clouds 30 1013 58 10000 4.6 100 02:24 05.01.2020
5058 Clouds 29 1013 62 10000 5.1 130 01:48 05.01.2020
5059 Clouds 29 1013 62 10000 5.1 130 01:18 05.01.2020
5060 Clouds 30 1013 62 10000 4.1 120 00:41 05.01.2020
5061 Clouds 30 1013 62 10000 4.1 120 00:23 05.01.2020
5062 Clouds 29 1013 70 10000 3.6 100 23:59 04.01.2020
5063 Clouds 29 1013 70 10000 3.6 100 23:59 04.01.2020
5064 Clouds 29 1013 70 10000 3.6 100 23:39 04.01.2020
5065 Clouds 29 1013 70 10000 3.6 100 23:19 04.01.2020
5066 Clouds 28 1013 74 10000 1.5 100 22:40 04.01.2020
5067 Clouds 28 1013 74 10000 1.5 100 22:40 04.01.2020
5068 Clouds 28 1013 74 10000 1.5 100 22:21 04.01.2020
5069 Clouds 26 1013 83 10000 1 0 21:57 04.01.2020
5070 Clouds 26 1013 83 10000 1 0 21:57 04.01.2020
5071 Clouds 26 1013 83 10000 1 0 21:57 04.01.2020
5072 Clouds 26 1013 83 10000 1 0 21:39 04.01.2020
5073 Clouds 26 1013 83 10000 1 0 21:20 04.01.2020
5074 Clouds 26 1013 83 10000 1 0 21:20 04.01.2020
5075 Clouds 23 1013 94 10000 1.5 310 20:58 04.01.2020
5076 Clouds 23 1013 94 10000 1.5 310 20:39 04.01.2020
5077 Clouds 23 1013 94 10000 1.5 310 20:39 04.01.2020
5078 Clouds 21 1012 92 0 0.51 12 20:21 04.01.2020
5079 Clouds 20 1012 93 0 0.51 1 19:56 04.01.2020
5080 Clouds 20 1012 93 0 0.51 1 19:37 04.01.2020
5081 Clouds 21 1012 100 10000 2.1 320 19:18 04.01.2020
5082 Clouds 21 1012 100 10000 2.1 320 18:54 04.01.2020
5083 Clouds 21 1012 100 10000 2.1 320 18:36 04.01.2020
5084 Clouds 22 1011 94 10000 2.1 320 18:18 04.01.2020
5085 Clouds 22 1011 94 10000 2.1 320 17:40 04.01.2020
5086 Clouds 22 1011 94 10000 1.5 310 17:22 04.01.2020
5087 Clouds 22 1011 94 10000 1.5 310 16:55 04.01.2020
5088 Clouds 22 1011 94 10000 1.5 310 16:36 04.01.2020
5089 Clouds 22 1012 94 10000 1.5 320 16:18 04.01.2020
5090 Clouds 22 1012 94 10000 1.5 320 15:42 04.01.2020
5091 Clouds 23 1012 94 10000 1.5 320 15:20 04.01.2020
5092 Clouds 23 1012 94 10000 1.5 320 15:20 04.01.2020
5093 Clouds 23 1012 94 10000 1.5 320 14:59 04.01.2020
5094 Clouds 23 1012 94 10000 1.5 320 14:59 04.01.2020
5095 Clouds 23 1012 94 10000 1.5 320 14:40 04.01.2020
5096 Clouds 23 1012 94 10000 1.5 320 14:40 04.01.2020
5097 Clouds 21 1012 89 0 0.49 115 14:20 04.01.2020
5098 Clouds 21 1012 89 0 0.49 115 13:58 04.01.2020
5099 Clouds 21 1012 89 0 0.49 115 13:37 04.01.2020
5100 Clouds 21 1012 89 0 0.49 115 13:37 04.01.2020
5101 Clouds 23 1014 94 10000 1 290 13:19 04.01.2020
5102 Clouds 23 1014 94 10000 1 290 12:42 04.01.2020
5103 Clouds 23 1013 94 10000 0.35 98 12:20 04.01.2020
5104 Clouds 23 1013 94 10000 0.35 98 11:59 04.01.2020
5105 Clouds 23 1013 94 10000 0.35 98 11:40 04.01.2020
5106 Clouds 23 1013 94 10000 0.35 98 11:40 04.01.2020
5107 Clouds 24 1013 88 10000 1 0 11:20 04.01.2020
5108 Clouds 24 1013 88 10000 1 0 10:58 04.01.2020
5109 Clouds 24 1013 88 10000 1 0 10:38 04.01.2020
5110 Clouds 24 1013 88 10000 1 0 10:19 04.01.2020
5111 Clouds 25 1012 78 10000 1 0 09:42 04.01.2020
5112 Clouds 25 1012 78 10000 1 0 09:24 04.01.2020
5113 Clouds 26 1011 74 10000 1.5 140 08:44 04.01.2020
5114 Clouds 26 1011 74 10000 1.5 140 08:25 04.01.2020
5115 Clouds 27 1011 65 10000 3.1 120 07:51 04.01.2020
5116 Clouds 27 1011 65 10000 3.1 120 07:32 04.01.2020
5117 Clouds 29 1010 62 10000 3.1 110 06:39 04.01.2020
5118 Clouds 28 1009 61 10000 3.6 120 05:46 04.01.2020
5119 Clouds 29 1009 58 10000 3.1 150 04:47 04.01.2020
5120 Clouds 29 1009 58 10000 3.1 150 04:27 04.01.2020
5121 Clouds 28 1010 61 10000 3.1 120 03:19 04.01.2020
5122 Clouds 28 1010 61 10000 3.6 110 02:36 04.01.2020
5123 Clear 28 1010 54 0 2.49 123 01:58 04.01.2020
5124 Clouds 29 1011 62 10000 3.1 140 01:32 04.01.2020
5125 Clouds 29 1011 62 10000 3.1 140 01:32 04.01.2020
5126 Clouds 29 1011 62 10000 3.1 140 00:56 04.01.2020
5127 Clouds 28 1011 65 10000 2.1 150 00:28 04.01.2020
5128 Clouds 28 1011 65 10000 2.1 150 23:52 03.01.2020
5129 Clouds 27 1011 69 10000 1.5 160 23:27 03.01.2020
5130 Clouds 27 1011 69 10000 1.5 160 22:55 03.01.2020
5131 Clouds 27 1011 69 10000 1.5 160 22:37 03.01.2020
5132 Clouds 25 1011 83 10000 1.5 270 22:18 03.01.2020
5133 Clouds 25 1011 83 10000 1.5 270 21:55 03.01.2020
5134 Clouds 25 1011 83 10000 1.5 270 21:37 03.01.2020
5135 Clouds 22 1011 94 10000 1.5 300 21:18 03.01.2020
5136 Clouds 22 1011 94 10000 1.5 300 20:43 03.01.2020
5137 Clouds 22 1011 94 10000 1.5 300 20:19 03.01.2020
5138 Clouds 20 1010 94 10000 2.1 320 19:59 03.01.2020
5139 Clouds 20 1010 94 10000 2.1 320 19:40 03.01.2020
5140 Clouds 20 1010 94 10000 2.1 320 19:22 03.01.2020
5141 Clouds 20 1009 94 10000 2.1 310 18:46 03.01.2020
5142 Clouds 20 1009 94 10000 2.1 310 18:26 03.01.2020
5143 Clouds 20 1009 94 10000 2.1 310 18:26 03.01.2020
5144 Clouds 20 1009 100 10000 0.26 308 17:57 03.01.2020
5145 Clouds 20 1009 100 10000 0.26 308 17:39 03.01.2020
5146 Clouds 20 1009 100 10000 0.29 72 17:19 03.01.2020
5147 Clouds 21 1009 94 10000 0.29 72 16:43 03.01.2020
5148 Clouds 21 1009 94 10000 0.29 72 16:24 03.01.2020
5149 Clouds 21 1010 100 10000 0.29 72 15:58 03.01.2020
5150 Clouds 21 1010 100 10000 0.29 72 15:40 03.01.2020
5151 Clouds 21 1010 100 10000 0.29 72 15:18 03.01.2020
5152 Clear 21 1010 94 10000 0.29 72 14:39 03.01.2020
5153 Rain 21 1010 94 10000 0.83 102 14:20 03.01.2020
5154 Clouds 22 1011 94 10000 0.83 102 13:56 03.01.2020
5155 Clouds 22 1011 94 10000 0.83 102 13:37 03.01.2020
5156 Clouds 22 1011 94 10000 0.84 99 13:19 03.01.2020
5157 Clouds 22 1011 94 10000 0.84 99 12:40 03.01.2020
5158 Clouds 22 1011 94 10000 0.84 99 12:21 03.01.2020
5159 Clouds 23 1011 88 10000 0.84 99 11:49 03.01.2020
5160 Clouds 23 1011 88 10000 0.84 99 11:30 03.01.2020
5161 Clouds 24 1010 88 10000 1 150 10:47 03.01.2020
5162 Clouds 25 1010 73 10000 1.5 140 10:28 03.01.2020
5163 Clouds 25 1010 73 10000 1.5 140 09:59 03.01.2020
5164 Clouds 25 1010 73 10000 1.5 140 09:41 03.01.2020
5165 Clouds 25 1009 73 10000 1.5 140 09:22 03.01.2020
5166 Clouds 25 1009 73 10000 1.5 140 08:57 03.01.2020
5167 Clouds 25 1009 73 10000 1.5 140 08:38 03.01.2020
5168 Clouds 24 1008 75 0 1.78 126 08:19 03.01.2020
5169 Clouds 24 1008 76 0 1.69 124 07:40 03.01.2020
5170 Clouds 28 1008 61 10000 3.1 160 07:19 03.01.2020
5171 Clouds 28 1008 61 10000 3.1 160 06:51 03.01.2020
5172 Clouds 28 1008 61 10000 3.1 160 06:33 03.01.2020
5173 Clouds 29 1007 58 10000 3.1 150 05:47 03.01.2020
5174 Clouds 28 1008 61 10000 3.6 150 04:27 03.01.2020
5175 Clouds 29 1009 62 10000 3.1 140 02:59 03.01.2020
5176 Clouds 29 1009 62 10000 3.1 140 02:41 03.01.2020
5177 Clouds 29 1009 62 10000 3.6 140 01:45 03.01.2020
5178 Clouds 28 1009 65 10000 3.1 140 00:53 03.01.2020
5179 Clouds 28 1009 65 10000 3.1 140 00:31 03.01.2020
5180 Clouds 29 1010 62 10000 2.6 140 23:57 02.01.2020
5181 Clouds 29 1010 62 10000 2.6 140 23:38 02.01.2020
5182 Clouds 29 1010 62 10000 2.6 140 23:19 02.01.2020
5183 Clouds 27 1010 69 10000 1.5 90 22:57 02.01.2020
5184 Clouds 27 1010 69 10000 1.5 90 22:38 02.01.2020
5185 Clouds 27 1010 69 10000 1.5 90 22:18 02.01.2020
5186 Clouds 24 1010 88 10000 1.5 340 21:41 02.01.2020
5187 Clouds 24 1010 88 10000 1.5 340 21:23 02.01.2020
5188 Clouds 22 1010 94 10000 2.6 310 20:59 02.01.2020
5189 Clouds 22 1010 94 10000 2.6 310 20:59 02.01.2020
5190 Clouds 22 1010 94 10000 2.6 310 20:59 02.01.2020
5191 Clouds 22 1010 94 10000 2.6 310 20:39 02.01.2020
5192 Rain 21 1009 94 0 0.21 45 20:21 02.01.2020
5193 Rain 21 1009 94 0 0.6 100 20:21 02.01.2020
5194 Rain 21 1009 94 0 0.6 100 19:56 02.01.2020
5195 Rain 21 1009 94 0 0.6 100 19:38 02.01.2020
5196 Clouds 20 1009 100 10000 1.5 310 19:19 02.01.2020
5197 Clouds 20 1009 100 10000 1.5 310 18:58 02.01.2020
5198 Clouds 20 1009 100 10000 1.5 310 18:58 02.01.2020
5199 Clouds 20 1009 100 10000 1.5 310 18:39 02.01.2020
5200 Clouds 21 1009 94 10000 1.5 330 18:21 02.01.2020
5201 Clouds 21 1009 94 10000 1.5 330 17:56 02.01.2020
5202 Rain 21 1009 94 0 0.6 100 17:37 02.01.2020
5203 Clouds 21 1009 94 10000 2.1 310 17:19 02.01.2020
5204 Clouds 21 1009 94 10000 2.1 310 16:57 02.01.2020
5205 Clouds 21 1009 94 10000 2.1 310 16:38 02.01.2020
5206 Clouds 21 1009 94 10000 0.86 108 16:20 02.01.2020
5207 Clouds 21 1009 94 10000 0.86 108 15:45 02.01.2020
5208 Clouds 21 1009 94 10000 0.86 108 15:24 02.01.2020
5209 Clouds 21 1010 100 10000 0.86 108 14:59 02.01.2020
5210 Clouds 21 1010 100 10000 0.86 108 14:39 02.01.2020
5211 Clouds 21 1010 100 10000 0.86 108 14:39 02.01.2020
5212 Clouds 21 1010 100 10000 0.45 92 14:21 02.01.2020
5213 Rain 21 1010 93 0 0.45 92 13:58 02.01.2020
5214 Rain 21 1010 93 0 0.45 92 13:40 02.01.2020
5215 Clouds 22 1011 94 10000 1 0 13:19 02.01.2020
5216 Clouds 22 1011 94 10000 1 0 12:43 02.01.2020
5217 Clouds 24 1011 78 10000 1.5 120 12:23 02.01.2020
5218 Clouds 24 1011 78 10000 1.5 120 11:42 02.01.2020
5219 Clouds 24 1010 78 10000 1.5 130 11:23 02.01.2020
5220 Clouds 24 1010 78 10000 1.5 130 10:56 02.01.2020
5221 Clouds 24 1010 78 10000 1.5 130 10:36 02.01.2020
5222 Clouds 24 1010 78 10000 1.5 130 10:18 02.01.2020
5223 Clouds 25 1010 78 10000 2.6 130 09:41 02.01.2020
5224 Clouds 25 1010 78 10000 2.6 130 09:21 02.01.2020
5225 Clouds 25 1009 78 10000 2.1 140 08:41 02.01.2020
5226 Clouds 25 1009 78 10000 2.1 140 08:22 02.01.2020
5227 Clouds 26 1009 74 10000 2.6 150 07:47 02.01.2020
5228 Clouds 26 1009 74 10000 2.6 150 07:27 02.01.2020
5229 Clouds 27 1008 69 10000 2.6 150 06:43 02.01.2020
5230 Clouds 28 1007 61 10000 3.1 140 05:42 02.01.2020
5231 Clouds 29 1008 66 10000 2.6 170 04:36 02.01.2020
5232 Clouds 28 1009 61 10000 3.6 160 03:54 02.01.2020
5233 Clouds 27 1009 57 0 3 164 02:21 02.01.2020
5234 Clouds 27 1009 57 0 3 164 01:57 02.01.2020
5235 Clouds 28 1010 58 10000 3.1 160 01:26 02.01.2020
5236 Clouds 28 1010 58 10000 3.1 160 00:49 02.01.2020
5237 Clouds 28 1010 54 10000 3.1 150 00:26 02.01.2020
5238 Clouds 28 1010 54 10000 3.1 150 00:26 02.01.2020
5239 Clouds 28 1010 54 10000 3.1 150 23:43 01.01.2020
5240 Clouds 28 1010 54 10000 3.1 150 23:43 01.01.2020
5241 Clouds 27 1010 57 10000 3.1 150 23:23 01.01.2020
5242 Clouds 27 1010 57 10000 3.1 150 22:39 01.01.2020
5243 Clouds 26 1010 61 10000 3.6 180 22:21 01.01.2020
5244 Clouds 26 1010 61 10000 3.6 180 21:58 01.01.2020
5245 Clouds 26 1010 61 10000 3.6 180 21:40 01.01.2020
5246 Clouds 25 1010 69 10000 3.22 171 21:20 01.01.2020
5247 Clouds 25 1010 69 10000 3.22 171 21:20 01.01.2020
5248 Clouds 25 1010 69 10000 3.22 171 20:58 01.01.2020
5249 Clouds 25 1010 69 10000 3.22 171 20:38 01.01.2020
5250 Clouds 23 1010 73 10000 2.1 160 20:20 01.01.2020
5251 Clouds 23 1010 73 10000 2.1 160 19:57 01.01.2020
5252 Clouds 23 1010 73 10000 2.1 160 19:38 01.01.2020
5253 Clouds 24 1010 69 10000 1.86 174 19:20 01.01.2020
5254 Clouds 24 1010 69 10000 1.86 174 18:57 01.01.2020
5255 Clouds 24 1010 69 10000 1.86 174 18:37 01.01.2020
5256 Clouds 24 1010 73 10000 1.86 174 18:19 01.01.2020
5257 Clouds 24 1010 73 10000 1.86 174 17:57 01.01.2020
5258 Clouds 24 1010 73 10000 1.86 174 17:39 01.01.2020
5259 Clouds 24 1009 78 10000 1.41 177 17:19 01.01.2020
5260 Clouds 24 1009 78 10000 1.41 177 16:56 01.01.2020
5261 Clouds 24 1009 78 10000 1.41 177 16:56 01.01.2020
5262 Clouds 24 1009 78 10000 1.41 177 16:37 01.01.2020
5263 Clouds 24 1010 83 10000 2.1 180 16:19 01.01.2020
5264 Clouds 24 1010 83 10000 2.1 180 15:54 01.01.2020
5265 Clouds 24 1010 83 10000 2.1 180 15:36 01.01.2020
5266 Clouds 24 1010 83 10000 2.1 170 15:18 01.01.2020
5267 Clouds 24 1010 83 10000 2.1 170 14:41 01.01.2020
5268 Clouds 24 1011 83 10000 2.1 170 14:22 01.01.2020
5269 Clouds 24 1011 83 10000 2.1 170 13:56 01.01.2020
5270 Clouds 24 1011 83 10000 2.1 170 13:37 01.01.2020
5271 Clouds 25 1011 78 10000 2.1 170 13:19 01.01.2020
5272 Clouds 25 1011 78 10000 2.1 170 12:57 01.01.2020
5273 Clouds 25 1011 78 10000 2.1 170 12:39 01.01.2020
5274 Clouds 25 1011 78 10000 2.1 170 12:19 01.01.2020
5275 Clouds 25 1011 78 10000 2.1 170 12:19 01.01.2020
5276 Clouds 25 1011 78 10000 2.1 170 11:56 01.01.2020
5277 Clouds 25 1011 78 10000 2.1 170 11:37 01.01.2020
5278 Clouds 25 1011 78 10000 3.1 170 11:18 01.01.2020
5279 Clouds 25 1011 78 10000 3.1 170 10:41 01.01.2020
5280 Clouds 26 1010 74 10000 4.1 170 10:21 01.01.2020
5281 Clouds 26 1010 74 10000 4.1 170 09:59 01.01.2020
5282 Clouds 26 1010 74 10000 4.1 170 09:38 01.01.2020
5283 Clouds 26 1010 78 10000 3.6 170 09:19 01.01.2020
5284 Clouds 26 1010 78 10000 3.6 170 08:56 01.01.2020
5285 Clouds 26 1010 78 10000 3.6 170 08:37 01.01.2020
5286 Clouds 26 1009 78 10000 3.1 160 08:19 01.01.2020
5287 Clouds 26 1009 78 10000 3.1 160 07:54 01.01.2020
5288 Clouds 26 1009 78 10000 3.1 160 07:36 01.01.2020
5289 Clouds 27 1009 74 10000 4.6 170 06:45 01.01.2020
5290 Clouds 28 1009 69 10000 5.1 170 06:21 01.01.2020
5291 Clouds 28 1009 74 10000 5.1 160 05:22 01.01.2020
5292 Clouds 28 1010 74 10000 2.1 180 03:46 01.01.2020
5293 Clouds 28 1010 78 10000 4.6 180 03:23 01.01.2020
5294 Clouds 28 1010 78 10000 4.6 180 03:23 01.01.2020
5295 Clouds 28 1010 78 10000 4.6 180 02:57 01.01.2020
5296 Clouds 28 1010 78 10000 4.6 180 02:36 01.01.2020
5297 Clouds 28 1010 69 10000 4.6 170 01:57 01.01.2020
5298 Clouds 28 1010 69 10000 4.6 170 01:38 01.01.2020
5299 Clouds 28 1010 69 10000 4.6 170 01:20 01.01.2020
5300 Clouds 28 1010 74 10000 4.1 170 00:44 01.01.2020
5301 Clouds 28 1010 74 10000 4.1 170 00:25 01.01.2020
5302 Clouds 28 1011 69 10000 2.6 170 23:41 31.12.2019
5303 Clouds 28 1011 69 10000 2.6 170 23:21 31.12.2019
5304 Clouds 28 1011 69 10000 4.1 180 22:57 31.12.2019
5305 Clouds 28 1011 69 10000 4.1 180 22:39 31.12.2019
5306 Clouds 28 1011 69 10000 4.1 180 22:20 31.12.2019
5307 Clouds 27 1011 78 10000 3.6 180 21:57 31.12.2019
5308 Clouds 27 1011 78 10000 3.6 180 21:39 31.12.2019
5309 Clouds 27 1011 78 10000 3.6 180 21:20 31.12.2019
5310 Clouds 26 1010 83 10000 3.1 180 20:55 31.12.2019
5311 Clouds 26 1010 83 10000 3.1 180 20:37 31.12.2019
5312 Clouds 26 1010 83 10000 3.1 180 20:18 31.12.2019
5313 Clouds 25 1010 88 10000 2.6 190 19:43 31.12.2019
5314 Clouds 25 1010 88 10000 2.6 190 19:24 31.12.2019
5315 Clouds 25 1008 88 10000 3.1 190 18:59 31.12.2019
5316 Clouds 25 1008 88 10000 3.1 190 18:40 31.12.2019
5317 Clouds 25 1008 88 10000 3.1 190 18:20 31.12.2019
5318 Clouds 25 1008 88 10000 2.1 200 17:57 31.12.2019
5319 Clouds 25 1008 88 10000 2.1 200 17:38 31.12.2019
5320 Clouds 25 1008 88 10000 2.1 200 17:19 31.12.2019
5321 Clouds 25 1008 88 10000 2.1 200 17:19 31.12.2019
5322 Clouds 25 1008 88 10000 3.1 180 16:57 31.12.2019
5323 Clouds 25 1008 88 10000 3.1 180 16:57 31.12.2019
5324 Clouds 25 1008 88 10000 3.1 180 16:38 31.12.2019
5325 Clouds 25 1008 88 10000 3.1 180 16:19 31.12.2019
5326 Clouds 25 1008 88 10000 1.5 220 15:57 31.12.2019
5327 Clouds 25 1008 88 10000 1.5 220 15:39 31.12.2019
5328 Clouds 25 1008 88 10000 1.5 220 15:21 31.12.2019
5329 Clouds 25 1009 88 10000 1.5 190 14:58 31.12.2019
5330 Clouds 25 1009 88 10000 1.5 190 14:39 31.12.2019
5331 Clouds 25 1009 88 10000 1.5 190 14:19 31.12.2019
5332 Clouds 25 1010 88 10000 2.6 200 13:58 31.12.2019
5333 Clouds 25 1010 88 10000 2.6 200 13:40 31.12.2019
5334 Clouds 25 1010 88 10000 2.6 200 13:21 31.12.2019
5335 Clouds 25 1010 88 10000 1.5 200 12:58 31.12.2019
5336 Clouds 25 1010 88 10000 1.5 200 12:40 31.12.2019
5337 Clouds 25 1010 88 10000 1.5 200 12:20 31.12.2019
5338 Clouds 25 1010 88 10000 2.1 190 11:56 31.12.2019
5339 Clouds 25 1010 88 10000 2.1 190 11:38 31.12.2019
5340 Clouds 25 1010 88 10000 2.1 190 11:20 31.12.2019
5341 Clouds 25 1010 94 10000 2.82 185 10:57 31.12.2019
5342 Clouds 25 1010 94 10000 2.82 185 10:38 31.12.2019
5343 Clouds 25 1010 94 10000 2.82 185 10:20 31.12.2019
5344 Clouds 25 1009 88 10000 2.82 185 09:58 31.12.2019
5345 Clouds 25 1009 88 10000 2.82 185 09:39 31.12.2019
5346 Clouds 25 1009 88 10000 2.82 185 09:20 31.12.2019
5347 Drizzle 25 1008 88 10000 3.1 200 08:57 31.12.2019
5348 Drizzle 25 1008 88 10000 3.1 200 08:37 31.12.2019
5349 Drizzle 25 1008 88 10000 3.1 200 08:19 31.12.2019
5350 Clouds 26 1008 83 10000 5.1 200 07:43 31.12.2019
5351 Clouds 26 1008 83 10000 5.1 200 07:20 31.12.2019
5352 Clouds 26 1007 83 10000 3.1 190 06:49 31.12.2019
5353 Rain 25 1006 88 10000 3.6 210 05:57 31.12.2019
5354 Clouds 27 1006 83 10000 4.1 210 04:28 31.12.2019
5355 Rain 26 1007 83 10000 7.2 210 03:27 31.12.2019
5356 Clouds 29 1007 74 10000 5.7 210 02:54 31.12.2019
5357 Clouds 29 1007 74 10000 5.7 210 02:54 31.12.2019
5358 Clouds 29 1007 74 10000 5.7 210 02:54 31.12.2019
5359 Clouds 28 1007 78 10000 6.2 210 01:58 31.12.2019
5360 Clouds 28 1007 78 10000 6.2 210 01:40 31.12.2019
5361 Clouds 28 1007 78 10000 6.2 210 01:22 31.12.2019
5362 Clouds 27 1007 78 10000 6.7 210 00:45 31.12.2019
5363 Clouds 27 1007 78 10000 6.7 210 00:22 31.12.2019
5364 Clouds 27 1007 78 10000 6.7 220 23:56 30.12.2019
5365 Clouds 27 1007 78 10000 6.7 220 23:38 30.12.2019
5366 Clouds 27 1007 78 10000 6.7 220 23:19 30.12.2019
5367 Rain 27 1008 83 10000 5.7 210 22:57 30.12.2019
5368 Rain 27 1008 83 10000 5.7 210 22:57 30.12.2019
5369 Rain 27 1008 83 10000 5.7 210 22:38 30.12.2019
5370 Rain 27 1008 83 10000 5.7 210 22:19 30.12.2019
5371 Clouds 26 1008 88 10000 4.6 230 21:56 30.12.2019
5372 Clouds 26 1008 88 10000 4.6 230 21:38 30.12.2019
5373 Clouds 26 1008 88 10000 4.6 230 21:18 30.12.2019
5374 Clouds 26 1007 83 10000 2.6 210 20:56 30.12.2019
5375 Clouds 26 1007 83 10000 2.6 210 20:56 30.12.2019
5376 Clouds 26 1007 83 10000 2.6 210 20:38 30.12.2019
5377 Clouds 26 1007 83 10000 3.6 220 20:19 30.12.2019
5378 Clouds 26 1007 83 10000 3.6 220 19:56 30.12.2019
5379 Clouds 26 1007 83 10000 3.6 220 19:37 30.12.2019
5380 Clouds 25 1006 88 10000 4.1 210 19:18 30.12.2019
5381 Clouds 25 1006 88 10000 4.1 210 18:56 30.12.2019
5382 Clouds 25 1006 88 10000 4.1 210 18:36 30.12.2019
5383 Clouds 25 1006 88 10000 4.1 210 18:36 30.12.2019
5384 Clouds 25 1005 88 10000 4.1 220 18:18 30.12.2019
5385 Clouds 25 1005 88 10000 4.1 220 17:54 30.12.2019
5386 Clouds 25 1005 88 10000 4.1 220 17:36 30.12.2019
5387 Clouds 25 1005 88 10000 4.1 220 17:36 30.12.2019
5388 Clouds 25 1005 94 10000 3.6 230 17:18 30.12.2019
5389 Clouds 25 1005 94 10000 3.6 230 16:41 30.12.2019
5390 Clouds 25 1005 94 10000 3.6 230 16:41 30.12.2019
5391 Clouds 25 1006 94 10000 3.6 220 16:20 30.12.2019
5392 Clouds 25 1006 94 10000 3.6 220 15:57 30.12.2019
5393 Clouds 25 1006 94 10000 3.6 220 15:39 30.12.2019
5394 Rain 25 1006 88 10000 4.1 230 15:19 30.12.2019
5395 Rain 25 1006 88 10000 4.1 230 15:19 30.12.2019
5396 Rain 25 1006 88 10000 4.1 230 14:55 30.12.2019
5397 Rain 25 1006 88 10000 4.1 230 14:37 30.12.2019
5398 Rain 25 1006 88 10000 4.1 230 14:37 30.12.2019
5399 Clouds 25 1006 94 10000 3.1 210 14:18 30.12.2019
5400 Clouds 25 1006 94 10000 3.1 210 13:42 30.12.2019
5401 Clouds 26 1007 83 10000 3.6 220 13:24 30.12.2019
5402 Clouds 26 1007 83 10000 3.6 220 12:59 30.12.2019
5403 Clouds 26 1007 83 10000 3.6 220 12:41 30.12.2019
5404 Clouds 26 1006 83 10000 4.1 220 12:19 30.12.2019
5405 Clouds 26 1006 83 10000 4.1 220 11:56 30.12.2019
5406 Clouds 26 1006 83 10000 4.1 220 11:38 30.12.2019
5407 Clouds 26 1006 83 10000 4.1 220 11:18 30.12.2019
5408 Clouds 26 1006 83 10000 4.1 220 10:43 30.12.2019
5409 Clouds 26 1006 83 10000 4.1 220 10:20 30.12.2019
5410 Clouds 26 1005 88 10000 4.1 220 09:55 30.12.2019
5411 Clouds 26 1005 88 10000 4.1 220 09:55 30.12.2019
5412 Clouds 26 1005 88 10000 4.1 220 09:37 30.12.2019
5413 Clouds 26 1005 88 10000 4.1 220 09:18 30.12.2019
5414 Rain 25 1005 94 10000 3.6 230 08:46 30.12.2019
5415 Rain 25 1005 94 10000 3.6 230 08:23 30.12.2019
5416 Clouds 27 1004 83 10000 6.2 230 07:53 30.12.2019
5417 Clouds 27 1004 83 10000 6.2 230 07:32 30.12.2019
5418 Clouds 28 1003 74 10000 5.7 220 06:39 30.12.2019
5419 Rain 28 1003 78 10000 7.2 230 04:45 30.12.2019
5420 Clouds 29 1003 74 10000 7.7 230 03:52 30.12.2019
5421 Clouds 29 1004 74 10000 6.2 220 02:47 30.12.2019
5422 Clouds 29 1004 74 10000 6.7 230 02:29 30.12.2019
5423 Clouds 29 1004 74 10000 6.7 230 01:43 30.12.2019
5424 Clouds 29 1004 74 10000 6.2 240 01:19 30.12.2019
5425 Clouds 29 1004 74 10000 6.2 240 00:42 30.12.2019
5426 Clouds 28 1004 83 10000 6.7 230 23:58 29.12.2019
5427 Rain 27 1004 78 0 5.75 219 23:38 29.12.2019
5428 Rain 27 1004 78 0 5.75 219 23:38 29.12.2019
5429 Rain 27 1004 83 10000 6.2 230 23:19 29.12.2019
5430 Rain 27 1004 83 10000 6.2 230 22:41 29.12.2019
5431 Rain 27 1004 83 10000 6.2 230 22:41 29.12.2019
5432 Clouds 27 1003 83 10000 5.7 240 22:22 29.12.2019
5433 Clouds 27 1003 83 10000 5.7 240 21:56 29.12.2019
5434 Clouds 27 1003 83 10000 5.7 240 21:38 29.12.2019
5435 Clouds 26 1002 88 10000 5.7 230 21:20 29.12.2019
5436 Clouds 26 1002 88 10000 5.7 230 20:57 29.12.2019
5437 Clouds 26 1002 88 10000 5.7 230 20:38 29.12.2019
5438 Clouds 26 1002 88 10000 5.7 230 20:20 29.12.2019
5439 Clouds 26 1002 88 10000 6.7 230 19:58 29.12.2019
5440 Clouds 26 1002 88 10000 6.7 230 19:39 29.12.2019
5441 Clouds 26 1002 88 10000 6.7 230 19:20 29.12.2019
5442 Clouds 25 1001 94 10000 5.7 240 18:55 29.12.2019
5443 Clouds 25 1001 94 10000 5.7 240 18:37 29.12.2019
5444 Clouds 25 1001 94 10000 5.7 240 18:19 29.12.2019
5445 Clouds 25 1001 94 10000 5.7 240 18:19 29.12.2019
5446 Clouds 25 1001 94 10000 5.1 250 17:56 29.12.2019
5447 Clouds 25 1001 94 10000 5.1 250 17:38 29.12.2019
5448 Clouds 25 1001 94 10000 5.1 250 17:19 29.12.2019
5449 Clouds 25 1001 94 10000 4.6 250 16:56 29.12.2019
5450 Clouds 25 1001 94 10000 4.6 250 16:36 29.12.2019
5451 Clouds 25 1001 94 10000 4.6 250 16:18 29.12.2019
5452 Rain 25 1001 94 10000 4.6 260 15:56 29.12.2019
5453 Rain 25 1001 94 10000 4.6 260 15:56 29.12.2019
5454 Rain 25 1001 94 10000 4.6 260 15:56 29.12.2019
5455 Rain 25 1001 94 10000 4.6 260 15:38 29.12.2019
5456 Rain 25 1001 94 10000 4.6 260 15:18 29.12.2019
5457 Rain 26 1001 83 10000 5.1 250 14:55 29.12.2019
5458 Rain 26 1001 83 10000 5.1 250 14:37 29.12.2019
5459 Rain 26 1001 83 10000 5.1 250 14:18 29.12.2019
5460 Rain 26 1002 83 10000 4.1 260 13:55 29.12.2019
5461 Rain 26 1002 83 10000 4.1 260 13:37 29.12.2019
5462 Rain 26 1002 83 10000 4.1 260 13:18 29.12.2019
5463 Rain 26 1002 88 9000 5.1 240 12:41 29.12.2019
5464 Rain 26 1002 88 9000 5.1 240 12:23 29.12.2019
5465 Rain 26 1002 88 9000 5.1 240 11:54 29.12.2019
5466 Rain 26 1002 88 9000 5.1 240 11:36 29.12.2019
5467 Rain 26 1002 88 9000 5.1 240 11:18 29.12.2019
5468 Rain 26 1002 88 10000 4.6 260 10:41 29.12.2019
5469 Rain 26 1001 88 10000 4.6 260 10:20 29.12.2019
5470 Rain 26 1001 88 10000 4.6 260 09:54 29.12.2019
5471 Rain 26 1001 88 10000 4.6 260 09:36 29.12.2019
5472 Rain 26 1000 94 10000 6.2 250 09:18 29.12.2019
5473 Rain 26 1000 94 10000 6.2 250 08:44 29.12.2019
5474 Rain 27 999 83 10000 7.2 260 08:24 29.12.2019
5475 Rain 27 999 83 10000 7.2 260 07:54 29.12.2019
5476 Rain 27 999 83 10000 7.2 260 07:54 29.12.2019
5477 Rain 27 999 83 10000 6.7 260 07:27 29.12.2019
5478 Rain 27 999 83 10000 6.7 260 06:53 29.12.2019
5479 Clouds 28 998 78 10000 8.2 260 06:23 29.12.2019
5480 Clouds 28 998 78 10000 8.2 260 05:48 29.12.2019
5481 Clouds 30 998 70 10000 6.7 260 04:34 29.12.2019
5482 Clouds 30 998 70 10000 7.2 260 03:40 29.12.2019
5483 Clouds 30 998 70 10000 6.7 250 02:49 29.12.2019
5484 Clouds 30 998 70 10000 6.7 250 02:19 29.12.2019
5485 Clouds 30 998 79 10000 6.7 280 01:31 29.12.2019
5486 Clouds 30 998 79 10000 6.7 280 01:31 29.12.2019
5487 Clouds 30 998 74 10000 5.1 290 00:51 29.12.2019
5488 Clouds 30 998 74 10000 5.1 290 00:25 29.12.2019
5489 Clouds 30 998 74 10000 5.1 280 23:56 28.12.2019
5490 Clouds 30 998 74 10000 5.1 280 23:37 28.12.2019
5491 Clouds 30 998 74 10000 5.1 280 23:18 28.12.2019
5492 Clouds 30 998 74 10000 5.1 320 22:38 28.12.2019
5493 Clouds 30 998 74 10000 5.1 320 22:38 28.12.2019
5494 Clouds 30 998 74 10000 5.1 320 22:19 28.12.2019
5495 Clouds 28 997 83 10000 5.1 340 21:57 28.12.2019
5496 Clouds 28 997 83 10000 5.1 340 21:38 28.12.2019
5497 Clouds 28 997 83 10000 5.1 340 21:38 28.12.2019
5498 Clouds 28 997 83 10000 5.1 340 21:20 28.12.2019
5499 Clouds 27 997 83 10000 2.1 310 20:55 28.12.2019
5500 Clouds 27 997 83 10000 2.1 310 20:55 28.12.2019
5501 Clouds 27 997 83 10000 2.1 310 20:36 28.12.2019
5502 Clouds 27 997 83 10000 2.6 320 20:18 28.12.2019
5503 Clouds 27 997 83 10000 2.6 320 19:54 28.12.2019
5504 Clouds 27 997 83 10000 2.6 320 19:36 28.12.2019
5505 Clouds 26 996 88 10000 2.1 340 19:18 28.12.2019
5506 Clouds 26 996 88 10000 2.1 340 18:42 28.12.2019
5507 Clouds 26 995 88 10000 3.1 340 18:20 28.12.2019
5508 Clouds 26 995 88 10000 3.1 340 17:59 28.12.2019
5509 Clouds 26 995 88 10000 3.1 340 17:40 28.12.2019
5510 Clouds 26 996 88 10000 1 0 17:21 28.12.2019
5511 Clouds 26 996 88 10000 1 0 16:49 28.12.2019
5512 Clouds 27 997 83 10000 3.1 300 16:27 28.12.2019
5513 Clouds 27 997 83 10000 3.1 300 15:57 28.12.2019
5514 Clouds 27 997 83 10000 3.1 300 15:57 28.12.2019
5515 Clouds 27 997 83 10000 3.1 300 15:39 28.12.2019
5516 Clouds 27 996 83 10000 6.2 360 15:21 28.12.2019
5517 Clouds 27 996 83 10000 6.2 360 15:21 28.12.2019
5518 Clouds 27 996 83 10000 6.2 360 14:46 28.12.2019
5519 Clouds 27 997 83 10000 4.1 10 14:24 28.12.2019
5520 Clouds 27 997 83 10000 4.1 10 13:58 28.12.2019
5521 Clouds 27 997 83 10000 4.1 10 13:39 28.12.2019
5522 Clouds 27 998 83 10000 2.1 20 13:19 28.12.2019
5523 Clouds 27 998 83 10000 2.1 20 12:55 28.12.2019
5524 Clouds 27 998 83 10000 2.1 20 12:36 28.12.2019
5525 Clouds 27 998 83 10000 4.6 360 12:18 28.12.2019
5526 Clouds 27 998 83 10000 4.6 360 11:39 28.12.2019
5527 Clouds 27 998 78 10000 4.6 360 11:20 28.12.2019
5528 Clouds 27 998 78 10000 4.6 360 10:46 28.12.2019
5529 Clouds 27 998 78 10000 4.6 360 10:23 28.12.2019
5530 Clouds 28 998 74 10000 6.2 350 09:58 28.12.2019
5531 Clouds 28 998 74 10000 6.2 350 09:40 28.12.2019
5532 Clouds 28 998 74 10000 6.2 350 09:21 28.12.2019
5533 Clouds 28 998 78 10000 5.1 350 08:45 28.12.2019
5534 Clouds 28 998 78 10000 5.1 350 08:27 28.12.2019
5535 Clouds 28 997 78 10000 7.2 340 07:57 28.12.2019
5536 Clouds 28 997 78 10000 7.2 340 07:39 28.12.2019
5537 Clouds 30 997 66 10000 8.7 340 06:42 28.12.2019
5538 Clouds 29 996 74 10000 9.3 340 05:19 28.12.2019
5539 Clouds 29 997 74 10000 9.3 350 03:47 28.12.2019
5540 Clouds 29 998 74 10000 9.3 360 02:49 28.12.2019
5541 Clouds 29 997 74 10000 8.2 10 02:19 28.12.2019
5542 Clouds 29 997 74 10000 8.2 10 01:42 28.12.2019
5543 Clouds 29 999 79 10000 7.2 350 01:18 28.12.2019
5544 Clouds 29 999 79 10000 7.2 350 00:40 28.12.2019
5545 Clouds 28 998 83 10000 6.7 10 00:21 28.12.2019
5546 Clouds 28 998 83 10000 6.7 10 23:45 27.12.2019
5547 Clouds 28 999 83 10000 6.2 20 23:20 27.12.2019
5548 Clouds 28 999 83 10000 6.2 20 22:58 27.12.2019
5549 Clouds 28 999 83 10000 6.2 20 22:39 27.12.2019
5550 Clouds 27 999 88 10000 6.7 20 22:20 27.12.2019
5551 Clouds 27 999 88 10000 6.7 20 21:58 27.12.2019
5552 Clouds 27 999 88 10000 6.7 20 21:38 27.12.2019
5553 Clouds 28 998 83 10000 6.7 10 21:19 27.12.2019
5554 Clouds 28 998 83 10000 6.7 10 20:42 27.12.2019
5555 Clouds 28 998 83 10000 6.7 10 20:23 27.12.2019
5556 Clouds 27 999 88 10000 6.2 20 19:54 27.12.2019
5557 Clouds 27 999 88 10000 6.2 20 19:36 27.12.2019
5558 Clouds 27 999 88 10000 6.2 20 19:18 27.12.2019
5559 Rain 26 998 100 5000 5.7 30 18:40 27.12.2019
5560 Rain 26 998 100 5000 5.7 30 18:22 27.12.2019
5561 Rain 26 997 100 3000 10.3 40 17:58 27.12.2019
5562 Rain 26 997 100 3000 10.3 40 17:40 27.12.2019
5563 Rain 26 997 100 3000 10.3 40 17:19 27.12.2019
5564 Rain 26 998 94 5000 10.3 30 16:59 27.12.2019
5565 Rain 26 998 94 5000 10.3 30 16:39 27.12.2019
5566 Rain 26 998 94 5000 10.3 30 16:39 27.12.2019
5567 Rain 26 998 94 5000 10.3 30 16:20 27.12.2019
5568 Rain 26 998 94 10000 13.4 40 15:45 27.12.2019
5569 Rain 26 998 94 10000 13.4 40 15:23 27.12.2019
5570 Clouds 27 999 88 10000 11.8 40 14:58 27.12.2019
5571 Clouds 27 999 88 10000 11.8 40 14:40 27.12.2019
5572 Clouds 27 999 88 10000 11.8 40 14:21 27.12.2019
5573 Rain 27 1000 88 10000 11.3 40 13:57 27.12.2019
5574 Rain 27 1000 88 10000 11.3 40 13:38 27.12.2019
5575 Rain 27 1000 88 10000 11.3 40 13:38 27.12.2019
5576 Rain 27 1000 88 10000 11.3 40 13:20 27.12.2019
5577 Rain 26 1001 94 5000 9.3 40 12:42 27.12.2019
5578 Rain 26 1001 94 5000 9.3 40 12:23 27.12.2019
5579 Rain 27 1000 94 8000 13.4 40 11:46 27.12.2019
5580 Rain 27 1000 94 8000 13.4 40 11:27 27.12.2019
5581 Rain 27 999 94 5000 16.5 60 10:59 27.12.2019
5582 Rain 27 999 94 5000 16.5 60 10:40 27.12.2019
5583 Rain 27 999 94 5000 16.5 60 10:22 27.12.2019
5584 Rain 27 999 88 10000 15.9 70 09:46 27.12.2019
5585 Rain 27 999 88 10000 15.9 70 09:22 27.12.2019
5586 Clouds 27 999 88 10000 14.4 70 08:59 27.12.2019
5587 Clouds 27 999 88 10000 14.4 70 08:37 27.12.2019
5588 Rain 27 1000 88 10000 11.8 60 07:53 27.12.2019
5589 Rain 27 1000 88 10000 11.8 60 07:34 27.12.2019
5590 Rain 27 1000 88 10000 12.3 70 06:39 27.12.2019
5591 Rain 27 1001 88 10000 10.8 70 05:52 27.12.2019
5592 Rain 27 1001 94 10000 9.3 70 03:47 27.12.2019
5593 Clouds 27 1004 88 10000 8.7 60 02:25 27.12.2019
5594 Clouds 27 1004 88 10000 8.7 60 01:42 27.12.2019
5595 Clouds 27 1004 88 10000 8.7 60 01:20 27.12.2019
5596 Clouds 27 1004 88 10000 10.8 60 00:46 27.12.2019
5597 Clouds 27 1004 88 10000 10.8 60 00:24 27.12.2019
5598 Rain 26 1004 94 8000 7.7 80 23:42 26.12.2019
5599 Rain 26 1004 94 8000 7.7 80 23:24 26.12.2019
5600 Rain 25 1005 94 5000 9.3 80 22:58 26.12.2019
5601 Rain 25 1005 94 5000 9.3 80 22:37 26.12.2019
5602 Rain 25 1005 94 5000 9.3 80 22:18 26.12.2019
5603 Rain 26 1006 94 5000 13.4 60 21:39 26.12.2019
5604 Rain 26 1005 94 8000 10.8 80 21:21 26.12.2019
5605 Rain 26 1005 94 10000 11.3 90 20:47 26.12.2019
5606 Rain 26 1005 94 10000 11.3 90 20:24 26.12.2019
5607 Rain 25 1005 100 8000 8.2 80 19:59 26.12.2019
5608 Rain 25 1005 100 8000 8.2 80 19:40 26.12.2019
5609 Rain 25 1005 100 3000 10.8 70 19:22 26.12.2019
5610 Rain 26 1006 88 10000 7.2 80 18:59 26.12.2019
5611 Rain 26 1006 88 10000 7.2 80 18:40 26.12.2019
5612 Rain 26 1006 88 10000 7.2 80 18:20 26.12.2019
5613 Rain 26 1005 88 10000 5.7 80 17:57 26.12.2019
5614 Rain 26 1005 88 10000 5.7 80 17:39 26.12.2019
5615 Rain 26 1005 88 10000 5.7 80 17:19 26.12.2019
5616 Rain 26 1006 94 10000 5.1 60 16:45 26.12.2019
5617 Rain 26 1006 94 10000 5.1 60 16:24 26.12.2019
5618 Rain 26 1005 94 10000 5.1 50 15:56 26.12.2019
5619 Rain 26 1005 94 10000 5.1 50 15:56 26.12.2019
5620 Rain 26 1005 94 10000 5.1 50 15:38 26.12.2019
5621 Rain 26 1005 94 10000 5.1 50 15:18 26.12.2019
5622 Rain 26 1006 94 10000 6.2 60 14:41 26.12.2019
5623 Rain 26 1006 94 10000 6.2 60 14:22 26.12.2019
5624 Rain 26 1006 94 10000 4.6 60 13:44 26.12.2019
5625 Rain 26 1006 94 10000 4.6 60 13:23 26.12.2019
5626 Rain 27 1007 88 10000 5.1 50 12:58 26.12.2019
5627 Rain 27 1007 88 10000 5.1 50 12:58 26.12.2019
5628 Rain 27 1007 88 10000 5.1 50 12:39 26.12.2019
5629 Rain 27 1007 88 10000 5.1 50 12:21 26.12.2019
5630 Rain 27 1008 88 10000 6.2 70 11:57 26.12.2019
5631 Rain 27 1008 88 10000 6.2 70 11:39 26.12.2019
5632 Rain 27 1008 88 10000 6.2 70 11:20 26.12.2019
5633 Rain 27 1007 94 10000 4.6 70 10:49 26.12.2019
5634 Rain 27 1007 94 10000 4.6 80 10:19 26.12.2019
5635 Rain 27 1007 94 10000 4.6 80 09:53 26.12.2019
5636 Rain 27 1007 88 10000 3.6 60 09:32 26.12.2019
5637 Rain 27 1007 88 10000 3.6 60 08:55 26.12.2019
5638 Rain 27 1007 88 10000 3.6 60 08:37 26.12.2019
5639 Clouds 28 1006 83 10000 3.6 70 08:18 26.12.2019
5640 Clouds 29 1005 79 10000 5.7 80 07:30 26.12.2019
5641 Clouds 29 1005 79 10000 5.7 80 06:54 26.12.2019
5642 Clouds 29 1005 79 10000 5.7 80 06:54 26.12.2019
5643 Clouds 29 1005 83 10000 6.7 70 06:32 26.12.2019
5644 Clouds 29 1005 83 10000 6.7 70 05:46 26.12.2019
5645 Clouds 30 1006 74 10000 7.2 80 04:59 26.12.2019
5646 Clouds 31 1006 74 10000 8.2 70 04:30 26.12.2019
5647 Clouds 31 1006 62 10000 7.7 80 03:18 26.12.2019
5648 Clouds 31 1006 62 10000 7.7 80 02:38 26.12.2019
5649 Clouds 31 1006 62 10000 7.7 80 02:19 26.12.2019
5650 Clouds 30 1007 79 10000 7.2 80 01:41 26.12.2019
5651 Clouds 30 1007 79 10000 7.2 80 01:22 26.12.2019
5652 Clouds 29 1007 79 10000 7.2 90 00:41 26.12.2019
5653 Clouds 29 1007 79 10000 7.2 90 00:22 26.12.2019
5654 Clouds 28 1008 83 10000 4.1 90 23:42 25.12.2019
5655 Clouds 28 1008 83 10000 4.1 90 23:21 25.12.2019
5656 Rain 27 1008 94 8000 6.2 50 22:59 25.12.2019
5657 Rain 27 1008 94 8000 6.2 50 22:40 25.12.2019
5658 Rain 27 1007 94 9000 3.6 80 22:22 25.12.2019
5659 Clouds 28 1008 83 10000 3.43 97 21:59 25.12.2019
5660 Clouds 28 1008 83 10000 3.43 97 21:40 25.12.2019
5661 Clouds 28 1008 83 10000 3.43 97 21:21 25.12.2019
5662 Clouds 28 1008 83 10000 3.43 97 21:21 25.12.2019
5663 Clouds 25 1007 100 10000 3.43 97 20:57 25.12.2019
5664 Clouds 25 1007 100 10000 3.43 97 20:39 25.12.2019
5665 Clouds 25 1007 100 10000 1.89 105 20:18 25.12.2019
5666 Clouds 25 1007 100 10000 1.89 105 20:18 25.12.2019
5667 Clouds 25 1007 100 10000 1.89 105 20:18 25.12.2019
5668 Clouds 24 1007 94 10000 1.89 105 19:43 25.12.2019
5669 Clouds 24 1007 94 10000 1.89 105 19:43 25.12.2019
5670 Clouds 24 1007 94 10000 1.89 105 19:25 25.12.2019
5671 Clouds 23 1006 100 10000 1.89 105 18:59 25.12.2019
5672 Clouds 23 1006 100 10000 1.89 105 18:38 25.12.2019
5673 Clouds 23 1006 100 10000 1.89 105 18:19 25.12.2019
5674 Clouds 25 1006 100 10000 1.89 105 17:42 25.12.2019
5675 Clouds 25 1006 100 10000 1.3 90 17:20 25.12.2019
5676 Clouds 25 1006 94 10000 1.3 90 16:58 25.12.2019
5677 Clouds 25 1006 94 10000 1.3 90 16:38 25.12.2019
5678 Clouds 25 1007 94 10000 1.3 90 16:19 25.12.2019
5679 Clouds 25 1007 94 10000 1.3 90 15:57 25.12.2019
5680 Clouds 25 1007 94 10000 1.3 90 15:39 25.12.2019
5681 Clouds 25 1007 94 10000 1.3 90 15:39 25.12.2019
5682 Clouds 25 1007 94 10000 1.3 90 15:20 25.12.2019
5683 Clouds 26 1007 94 10000 1.3 90 14:57 25.12.2019
5684 Clouds 26 1007 94 10000 1.3 90 14:39 25.12.2019
5685 Clouds 26 1007 94 10000 1.18 93 14:20 25.12.2019
5686 Clouds 26 1008 94 10000 1.18 93 13:45 25.12.2019
5687 Clouds 26 1008 94 10000 1.18 93 13:21 25.12.2019
5688 Clouds 26 1009 94 10000 1.21 93 12:57 25.12.2019
5689 Clouds 26 1009 94 10000 1.21 93 12:38 25.12.2019
5690 Clouds 26 1009 94 10000 1.21 93 12:38 25.12.2019
5691 Clouds 26 1009 94 10000 1.21 93 12:19 25.12.2019
5692 Clouds 27 1009 83 10000 1.21 93 11:43 25.12.2019
5693 Clouds 27 1009 83 10000 1.21 93 11:22 25.12.2019
5694 Rain 24 1008 95 0 1.66 113 10:59 25.12.2019
5695 Rain 24 1008 95 0 1.66 113 10:59 25.12.2019
5696 Rain 24 1008 95 0 1.66 113 10:36 25.12.2019
5697 Clouds 27 1008 83 10000 1 0 10:18 25.12.2019
5698 Clouds 27 1008 83 10000 1 0 09:44 25.12.2019
5699 Clouds 27 1008 83 10000 1 0 09:26 25.12.2019
5700 Clouds 27 1008 78 10000 2.6 150 08:46 25.12.2019
5701 Clouds 27 1008 78 10000 2.6 150 08:25 25.12.2019
5702 Clouds 27 1007 78 10000 2.6 150 07:45 25.12.2019
5703 Clouds 27 1007 78 10000 2.6 150 07:23 25.12.2019
5704 Clouds 27 1006 78 10000 2.6 150 06:47 25.12.2019
5705 Clouds 27 1006 78 10000 2.6 150 06:22 25.12.2019
5706 Clouds 29 1007 70 10000 4.1 140 04:49 25.12.2019
5707 Clouds 29 1007 70 10000 4.1 140 04:25 25.12.2019
5708 Clouds 29 1007 70 10000 4.1 140 03:52 25.12.2019
5709 Clouds 29 1007 70 10000 4.1 140 03:32 25.12.2019
5710 Clouds 29 1008 70 10000 4.6 130 02:32 25.12.2019
5711 Clouds 29 1008 66 10000 4.6 120 01:54 25.12.2019
5712 Clouds 29 1008 66 10000 4.6 120 01:24 25.12.2019
5713 Clouds 29 1008 66 10000 4.6 120 00:45 25.12.2019
5714 Clouds 29 1008 66 10000 4.6 120 00:26 25.12.2019
5715 Clouds 29 1008 58 10000 5.1 120 23:40 24.12.2019
5716 Clouds 29 1008 58 10000 5.1 120 23:21 24.12.2019
5717 Clouds 28 1009 65 10000 5.1 120 22:58 24.12.2019
5718 Clouds 28 1009 65 10000 5.1 120 22:37 24.12.2019
5719 Clouds 28 1009 65 10000 5.1 120 22:19 24.12.2019
5720 Clouds 27 1008 78 10000 2.6 120 21:41 24.12.2019
5721 Clouds 27 1008 78 10000 2.6 120 21:41 24.12.2019
5722 Clouds 27 1008 78 10000 2.6 120 21:22 24.12.2019
5723 Clouds 27 1008 78 10000 2.6 120 20:43 24.12.2019
5724 Clouds 27 1008 78 10000 2.6 120 20:23 24.12.2019
5725 Clouds 26 1007 78 10000 2.1 110 19:56 24.12.2019
5726 Clouds 26 1007 78 10000 2.1 110 19:37 24.12.2019
5727 Clouds 26 1007 78 10000 2.1 110 19:18 24.12.2019
5728 Clouds 25 1007 88 10000 2.1 110 18:42 24.12.2019
5729 Clouds 25 1007 88 10000 2.1 110 18:19 24.12.2019
5730 Clouds 26 1006 78 10000 2.6 110 17:44 24.12.2019
5731 Clouds 26 1006 78 10000 2.6 110 17:23 24.12.2019
5732 Clouds 26 1007 78 10000 3.1 110 16:58 24.12.2019
5733 Clouds 26 1007 78 10000 3.1 110 16:58 24.12.2019
5734 Clouds 26 1007 78 10000 3.1 110 16:40 24.12.2019
5735 Clouds 26 1007 78 10000 3.1 110 16:21 24.12.2019
5736 Clouds 26 1007 83 10000 2.6 110 15:58 24.12.2019
5737 Clouds 26 1007 83 10000 2.6 110 15:58 24.12.2019
5738 Clouds 26 1007 83 10000 2.6 110 15:37 24.12.2019
5739 Clouds 26 1007 83 10000 2.6 110 15:19 24.12.2019
5740 Clouds 26 1007 83 10000 3.1 110 14:58 24.12.2019
5741 Clouds 26 1007 83 10000 3.1 110 14:58 24.12.2019
5742 Clouds 26 1007 83 10000 3.1 110 14:40 24.12.2019
5743 Clouds 26 1007 83 10000 3.1 110 14:40 24.12.2019
5744 Clouds 26 1007 83 10000 3.1 110 14:22 24.12.2019
5745 Clouds 26 1008 83 10000 2.1 110 13:56 24.12.2019
5746 Clouds 26 1008 83 10000 2.1 110 13:38 24.12.2019
5747 Clouds 26 1008 83 10000 2.1 110 13:20 24.12.2019
5748 Clouds 26 1009 83 10000 3.1 100 12:56 24.12.2019
5749 Clouds 26 1009 83 10000 3.1 100 12:56 24.12.2019
5750 Clouds 26 1009 83 10000 3.1 100 12:38 24.12.2019
5751 Clouds 26 1009 83 10000 3.1 100 12:19 24.12.2019
5752 Clouds 26 1009 83 10000 3.1 100 12:19 24.12.2019
5753 Clouds 26 1009 83 10000 2.6 100 11:56 24.12.2019
5754 Clouds 26 1009 83 10000 2.6 100 11:37 24.12.2019
5755 Clouds 26 1009 83 10000 2.6 100 11:19 24.12.2019
5756 Rain 26 1008 94 10000 1 140 10:56 24.12.2019
5757 Rain 26 1008 94 10000 1 140 10:56 24.12.2019
5758 Rain 26 1008 94 10000 1 140 10:56 24.12.2019
5759 Rain 26 1008 94 10000 1 140 10:38 24.12.2019
5760 Clouds 26 1008 88 10000 1.5 150 10:19 24.12.2019
5761 Clouds 26 1008 88 10000 1.5 150 09:55 24.12.2019
5762 Clouds 26 1008 88 10000 1.5 150 09:37 24.12.2019
5763 Clouds 27 1007 83 10000 3.1 130 09:19 24.12.2019
5764 Clouds 27 1007 83 10000 3.1 130 08:45 24.12.2019
5765 Rain 27 1006 78 10000 3.6 130 08:24 24.12.2019
5766 Rain 27 1006 78 10000 3.6 130 07:46 24.12.2019
5767 Clouds 28 1006 78 10000 4.1 140 07:27 24.12.2019
5768 Clouds 28 1006 78 10000 4.1 140 06:59 24.12.2019
5769 Clouds 28 1006 78 10000 4.1 140 06:39 24.12.2019
5770 Clouds 28 1006 74 10000 3.6 130 06:19 24.12.2019
5771 Clouds 28 1006 74 10000 3.6 130 05:46 24.12.2019
5772 Clouds 29 1006 74 10000 5.1 130 05:18 24.12.2019
5773 Clouds 28 1006 74 10000 5.1 110 03:55 24.12.2019
5774 Rain 28 1007 74 10000 7.7 100 03:25 24.12.2019
5775 Rain 28 1007 74 10000 7.7 100 02:25 24.12.2019
5776 Clouds 28 1007 74 10000 5.7 130 01:52 24.12.2019
5777 Clouds 28 1007 74 10000 5.7 130 01:23 24.12.2019
5778 Clouds 28 1007 74 10000 5.1 130 00:47 24.12.2019
5779 Clouds 28 1007 74 10000 5.1 130 00:26 24.12.2019
5780 Clouds 27 1007 78 10000 5.7 120 23:59 23.12.2019
5781 Clouds 27 1007 78 10000 5.7 120 23:41 23.12.2019
5782 Clouds 27 1007 78 10000 5.7 120 23:23 23.12.2019
5783 Clouds 27 1007 78 10000 5.7 120 23:23 23.12.2019
5784 Clouds 27 1008 78 10000 4.6 130 22:56 23.12.2019
5785 Clouds 27 1008 78 10000 4.6 130 22:56 23.12.2019
5786 Clouds 27 1008 78 10000 4.6 130 22:37 23.12.2019
5787 Clouds 27 1008 78 10000 4.6 130 22:19 23.12.2019
5788 Clouds 26 1008 83 10000 3.6 130 21:55 23.12.2019
5789 Clouds 26 1008 83 10000 3.6 130 21:55 23.12.2019
5790 Clouds 26 1008 83 10000 3.6 130 21:36 23.12.2019
5791 Clouds 26 1008 83 10000 3.6 130 21:18 23.12.2019
5792 Clouds 25 1008 88 10000 2.1 150 20:57 23.12.2019
5793 Clouds 25 1008 88 10000 2.1 150 20:39 23.12.2019
5794 Clouds 25 1008 88 10000 2.1 150 20:39 23.12.2019
5795 Clouds 25 1007 88 10000 2.1 90 20:18 23.12.2019
5796 Clouds 25 1007 88 10000 2.1 90 19:56 23.12.2019
5797 Clouds 25 1007 88 10000 2.1 90 19:38 23.12.2019
5798 Clouds 25 1007 88 10000 2.1 120 19:19 23.12.2019
5799 Clouds 25 1007 88 10000 2.1 120 18:58 23.12.2019
5800 Clouds 25 1007 88 10000 2.1 120 18:58 23.12.2019
5801 Clouds 25 1007 88 10000 2.1 120 18:38 23.12.2019
5802 Clouds 26 1006 78 10000 2.1 140 18:20 23.12.2019
5803 Clouds 26 1006 78 10000 2.1 140 17:56 23.12.2019
5804 Clouds 26 1006 78 10000 2.1 140 17:37 23.12.2019
5805 Clouds 26 1006 78 10000 2.6 130 17:19 23.12.2019
5806 Clouds 26 1006 78 10000 2.6 130 16:54 23.12.2019
5807 Clouds 26 1006 78 10000 2.6 130 16:36 23.12.2019
5808 Clouds 26 1006 78 10000 2.6 130 16:18 23.12.2019
5809 Clouds 26 1007 78 10000 2.6 130 15:55 23.12.2019
5810 Clouds 26 1007 78 10000 2.6 130 15:36 23.12.2019
5811 Clouds 25 1007 83 10000 2.6 140 15:18 23.12.2019
5812 Clouds 25 1007 83 10000 2.6 140 14:42 23.12.2019
5813 Clouds 26 1008 78 10000 2.6 140 14:24 23.12.2019
5814 Clouds 26 1008 78 10000 2.6 140 13:59 23.12.2019
5815 Clouds 26 1008 78 10000 2.6 140 13:40 23.12.2019
5816 Clouds 26 1009 83 10000 2.6 130 13:22 23.12.2019
5817 Clouds 26 1009 83 10000 2.6 130 12:58 23.12.2019
5818 Clouds 26 1009 83 10000 2.6 130 12:39 23.12.2019
5819 Clouds 26 1009 78 10000 2.1 140 12:20 23.12.2019
5820 Clouds 26 1009 78 10000 2.1 140 11:45 23.12.2019
5821 Clouds 26 1008 83 10000 2.6 160 11:26 23.12.2019
5822 Clouds 26 1008 83 10000 2.6 160 10:59 23.12.2019
5823 Clouds 26 1008 83 10000 2.6 160 10:41 23.12.2019
5824 Clouds 26 1008 83 10000 2.6 160 10:21 23.12.2019
5825 Rain 26 1008 94 10000 3.1 150 09:59 23.12.2019
5826 Rain 26 1008 94 10000 3.1 150 09:40 23.12.2019
5827 Rain 26 1008 94 10000 3.1 150 09:21 23.12.2019
5828 Clouds 27 1007 69 10000 3.1 170 08:58 23.12.2019
5829 Clouds 27 1007 69 10000 3.1 170 08:40 23.12.2019
5830 Clouds 27 1007 69 10000 3.1 170 08:22 23.12.2019
5831 Clouds 27 1006 83 10000 4.6 160 07:47 23.12.2019
5832 Clouds 27 1006 83 10000 4.6 160 07:20 23.12.2019
5833 Clouds 27 1006 83 10000 3.6 160 06:53 23.12.2019
5834 Clouds 27 1006 83 10000 3.6 160 06:53 23.12.2019
5835 Clouds 27 1006 83 10000 3.6 160 06:26 23.12.2019
5836 Clouds 27 1005 74 10000 4.1 170 05:53 23.12.2019
5837 Clouds 27 1005 74 10000 4.1 170 05:28 23.12.2019
5838 Clouds 27 1005 78 10000 4.1 160 04:31 23.12.2019
5839 Clouds 27 1006 83 10000 4.6 160 03:24 23.12.2019
5840 Clouds 28 1006 74 10000 4.1 160 02:41 23.12.2019
5841 Clouds 28 1007 74 10000 4.1 170 02:19 23.12.2019
5842 Clouds 28 1007 74 10000 4.1 170 01:42 23.12.2019
5843 Clouds 28 1007 74 10000 4.1 180 01:20 23.12.2019
5844 Clouds 28 1007 74 10000 4.1 180 00:43 23.12.2019
5845 Clouds 27 1007 78 10000 4.1 180 00:22 23.12.2019
5846 Clouds 27 1007 78 10000 4.1 180 23:39 22.12.2019
5847 Clouds 28 1007 74 10000 4.1 170 23:21 22.12.2019
5848 Clouds 28 1007 74 10000 4.1 170 22:58 22.12.2019
5849 Clouds 28 1007 74 10000 4.1 170 22:39 22.12.2019
5850 Clouds 27 1007 78 10000 4.1 170 22:19 22.12.2019
5851 Clouds 27 1007 78 10000 4.1 170 21:57 22.12.2019
5852 Clouds 27 1007 78 10000 4.1 170 21:39 22.12.2019
5853 Clouds 26 1007 88 10000 3.29 161 21:20 22.12.2019
5854 Clouds 26 1007 88 10000 3.29 161 20:56 22.12.2019
5855 Clouds 26 1007 88 10000 3.29 161 20:38 22.12.2019
5856 Clouds 24 1007 94 10000 1.61 196 20:18 22.12.2019
5857 Clouds 24 1007 94 10000 1.61 196 19:54 22.12.2019
5858 Clouds 24 1007 94 10000 1.61 196 19:36 22.12.2019
5859 Clouds 23 1006 100 10000 1.61 196 19:18 22.12.2019
5860 Clouds 23 1006 100 10000 1.61 196 18:39 22.12.2019
5861 Clouds 23 1006 100 10000 1.61 196 18:39 22.12.2019
5862 Clouds 23 1006 100 10000 1.61 196 18:39 22.12.2019
5863 Clouds 23 1006 94 10000 1.61 196 18:21 22.12.2019
5864 Clouds 23 1006 94 10000 1.61 196 17:55 22.12.2019
5865 Clouds 23 1006 94 10000 1.61 196 17:37 22.12.2019
5866 Clouds 23 1006 100 10000 1.26 245 17:18 22.12.2019
5867 Clouds 23 1006 100 10000 1.26 245 17:18 22.12.2019
5868 Clouds 23 1006 100 10000 1.26 245 16:56 22.12.2019
5869 Clouds 23 1006 100 10000 1.26 245 16:37 22.12.2019
5870 Clouds 24 1006 94 10000 1.26 245 16:19 22.12.2019
5871 Clouds 24 1006 94 10000 1.26 245 15:55 22.12.2019
5872 Clouds 24 1006 94 10000 1.26 245 15:36 22.12.2019
5873 Clouds 24 1007 94 10000 2.1 290 15:18 22.12.2019
5874 Clouds 24 1007 94 10000 2.1 290 14:39 22.12.2019
5875 Clouds 25 1008 94 10000 0.87 299 14:20 22.12.2019
5876 Clouds 25 1008 94 10000 0.87 299 13:57 22.12.2019
5877 Clouds 25 1008 94 10000 0.87 299 13:38 22.12.2019
5878 Clouds 26 1008 83 10000 0.95 302 13:20 22.12.2019
5879 Clouds 26 1008 83 10000 0.95 302 12:57 22.12.2019
5880 Clouds 26 1008 83 10000 0.95 302 12:39 22.12.2019
5881 Clouds 25 1008 88 10000 0.95 302 12:20 22.12.2019
5882 Clouds 25 1008 88 10000 0.95 302 11:59 22.12.2019
5883 Clouds 25 1008 88 10000 0.95 302 11:39 22.12.2019
5884 Clouds 25 1007 94 10000 1.5 160 11:20 22.12.2019
5885 Clouds 25 1007 94 10000 1.5 160 10:58 22.12.2019
5886 Clouds 25 1007 94 10000 1.5 160 10:40 22.12.2019
5887 Clouds 25 1007 94 10000 1.5 160 10:40 22.12.2019
5888 Clouds 26 1007 83 10000 1.5 190 10:20 22.12.2019
5889 Clouds 26 1007 83 10000 1.5 190 09:58 22.12.2019
5890 Clouds 26 1007 83 10000 1.5 190 09:39 22.12.2019
5891 Clouds 27 1006 78 10000 1.5 170 09:21 22.12.2019
5892 Clouds 27 1006 78 10000 1.5 170 08:45 22.12.2019
5893 Clouds 27 1006 78 10000 1.5 170 08:45 22.12.2019
5894 Clouds 28 1005 69 10000 2.6 160 08:23 22.12.2019
5895 Clouds 28 1005 69 10000 2.6 160 07:50 22.12.2019
5896 Clouds 28 1005 74 10000 3.1 180 07:22 22.12.2019
5897 Clouds 28 1005 74 10000 3.1 180 06:57 22.12.2019
5898 Clouds 30 1005 62 10000 3.1 140 06:27 22.12.2019
5899 Clouds 30 1005 62 10000 3.1 140 05:43 22.12.2019
5900 Clouds 29 1005 66 10000 4.1 160 05:21 22.12.2019
5901 Clouds 30 1005 66 10000 3.6 180 04:26 22.12.2019
5902 Clouds 30 1006 70 10000 3.6 170 02:56 22.12.2019
5903 Clouds 30 1006 70 10000 3.6 170 02:34 22.12.2019
5904 Clouds 30 1006 66 10000 3.1 180 01:32 22.12.2019
5905 Clouds 30 1007 66 10000 2.6 180 00:57 22.12.2019
5906 Clouds 30 1007 66 10000 2.6 180 00:38 22.12.2019
5907 Clouds 29 1007 70 10000 1.5 180 00:20 22.12.2019
5908 Clouds 29 1007 70 10000 1.5 180 23:41 21.12.2019
5909 Clouds 28 1007 78 10000 1.26 152 23:22 21.12.2019
5910 Clouds 28 1007 78 10000 1.26 152 22:57 21.12.2019
5911 Clouds 28 1007 78 10000 1.26 152 22:39 21.12.2019
5912 Clouds 27 1007 83 10000 1.26 152 22:18 21.12.2019
5913 Clouds 27 1007 83 10000 1.26 152 22:18 21.12.2019
5914 Clouds 27 1007 83 10000 1.26 152 21:55 21.12.2019
5915 Clouds 27 1007 83 10000 1.26 152 21:36 21.12.2019
5916 Clouds 24 1007 88 10000 1.5 330 21:18 21.12.2019
5917 Clouds 24 1007 88 10000 1.5 330 20:57 21.12.2019
5918 Clouds 24 1007 88 10000 1.5 330 20:37 21.12.2019
5919 Clouds 24 1007 88 10000 1.5 330 20:19 21.12.2019
5920 Clouds 23 1007 100 10000 1.5 330 19:55 21.12.2019
5921 Clouds 23 1007 100 10000 1.5 330 19:36 21.12.2019
5922 Clouds 23 1007 100 10000 1.5 330 19:18 21.12.2019
5923 Clouds 23 1006 100 10000 1.5 310 18:41 21.12.2019
5924 Clouds 23 1006 100 10000 1.5 310 18:23 21.12.2019
5925 Clouds 23 1006 100 10000 1.5 310 18:23 21.12.2019
5926 Clouds 23 1006 100 10000 1.02 289 17:56 21.12.2019
5927 Clouds 23 1006 100 10000 1.02 289 17:38 21.12.2019
5928 Clouds 23 1006 100 10000 0.49 307 17:19 21.12.2019
5929 Clouds 24 1006 94 10000 0.49 307 16:56 21.12.2019
5930 Clouds 24 1006 94 10000 0.49 307 16:38 21.12.2019
5931 Clouds 24 1006 94 10000 0.49 307 16:18 21.12.2019
5932 Clouds 24 1006 100 10000 0.49 307 15:55 21.12.2019
5933 Clouds 24 1006 100 10000 0.49 307 15:37 21.12.2019
5934 Clouds 24 1006 100 10000 0.49 307 15:18 21.12.2019
5935 Clouds 25 1007 94 10000 0.49 307 14:41 21.12.2019
5936 Clouds 25 1007 94 10000 0.49 307 14:22 21.12.2019
5937 Rain 25 1008 94 10000 0.33 217 13:58 21.12.2019
5938 Rain 25 1008 94 10000 0.33 217 13:58 21.12.2019
5939 Rain 25 1008 94 10000 0.33 217 13:39 21.12.2019
5940 Rain 25 1008 94 10000 0.13 240 13:19 21.12.2019
5941 Clouds 24 1008 94 10000 0.13 240 12:56 21.12.2019
5942 Clouds 24 1008 94 10000 0.13 240 12:38 21.12.2019
5943 Clouds 24 1008 94 10000 0.13 240 12:19 21.12.2019
5944 Clouds 25 1008 94 10000 0.13 240 11:46 21.12.2019
5945 Clouds 26 1008 83 10000 0.13 240 11:27 21.12.2019
5946 Clouds 26 1008 83 10000 0.64 107 10:58 21.12.2019
5947 Clouds 26 1008 83 10000 0.64 107 10:39 21.12.2019
5948 Clouds 26 1008 83 10000 0.64 107 10:21 21.12.2019
5949 Clouds 26 1008 83 10000 0.64 107 09:57 21.12.2019
5950 Clouds 26 1008 83 10000 0.64 107 09:39 21.12.2019
5951 Clouds 26 1008 83 10000 0.64 107 09:39 21.12.2019
5952 Clouds 27 1007 78 10000 0.64 107 09:19 21.12.2019
5953 Clouds 27 1007 78 10000 0.64 107 08:46 21.12.2019
5954 Clouds 28 1007 74 10000 2.6 120 08:26 21.12.2019
5955 Clouds 28 1007 74 10000 2.6 120 07:47 21.12.2019
5956 Clouds 30 1006 66 10000 3.1 150 07:23 21.12.2019
5957 Clouds 30 1006 66 10000 3.1 150 06:47 21.12.2019
5958 Clouds 29 1006 66 10000 3.1 160 06:28 21.12.2019
5959 Clouds 29 1006 66 10000 3.1 160 05:58 21.12.2019
5960 Clouds 30 1006 66 10000 3.6 120 04:59 21.12.2019
5961 Clouds 30 1007 66 10000 4.1 120 04:19 21.12.2019
5962 Clouds 30 1007 66 10000 4.1 120 03:56 21.12.2019
5963 Clouds 29 1008 66 10000 3.6 130 02:19 21.12.2019
5964 Clouds 29 1008 66 10000 3.6 130 01:41 21.12.2019
5965 Clouds 30 1008 66 10000 3.6 130 01:23 21.12.2019
5966 Clouds 30 1008 66 10000 3.6 130 00:39 21.12.2019
5967 Clouds 30 1008 66 10000 5.1 110 00:19 21.12.2019
5968 Clouds 30 1008 66 10000 5.1 110 23:38 20.12.2019
5969 Clouds 29 1009 74 10000 3.6 130 23:20 20.12.2019
5970 Clouds 29 1009 74 10000 3.6 130 22:57 20.12.2019
5971 Clouds 29 1009 74 10000 3.6 130 22:36 20.12.2019
5972 Clouds 29 1009 74 10000 4.1 120 22:18 20.12.2019
5973 Clouds 29 1009 74 10000 4.1 120 21:41 20.12.2019
5974 Clouds 27 1009 83 10000 1.84 114 21:21 20.12.2019
5975 Clouds 27 1009 83 10000 1.84 114 20:57 20.12.2019
5976 Clouds 27 1009 83 10000 1.84 114 20:38 20.12.2019
5977 Clouds 25 1008 94 10000 0.79 109 20:18 20.12.2019
5978 Clouds 25 1008 94 10000 0.68 108 19:42 20.12.2019
5979 Clouds 25 1008 94 10000 0.68 108 19:21 20.12.2019
5980 Clouds 25 1008 94 10000 0.68 108 18:58 20.12.2019
5981 Clouds 25 1008 94 10000 0.68 108 18:39 20.12.2019
5982 Clouds 25 1007 94 10000 0.68 108 18:21 20.12.2019
5983 Clouds 25 1007 94 10000 0.68 108 17:56 20.12.2019
5984 Clouds 25 1007 94 10000 0.68 108 17:37 20.12.2019
5985 Clouds 25 1007 94 10000 1.1 83 17:18 20.12.2019
5986 Clouds 25 1007 94 10000 1.1 83 16:41 20.12.2019
5987 Clouds 25 1007 94 10000 1.1 83 16:21 20.12.2019
5988 Clouds 24 1007 94 10000 1.1 83 15:57 20.12.2019
5989 Clouds 24 1007 94 10000 1.1 83 15:39 20.12.2019
5990 Clouds 24 1007 94 10000 1.1 83 15:21 20.12.2019
5991 Clouds 24 1008 94 10000 1.1 83 14:59 20.12.2019
5992 Clouds 24 1008 94 10000 1.1 83 14:41 20.12.2019
5993 Clouds 24 1008 94 10000 1.1 83 14:23 20.12.2019
5994 Clouds 25 1009 94 10000 1.77 91 13:56 20.12.2019
5995 Clouds 25 1009 94 10000 1.77 91 13:37 20.12.2019
5996 Clouds 25 1009 94 10000 1.95 106 13:18 20.12.2019
5997 Clouds 25 1009 94 10000 1.95 106 13:18 20.12.2019
5998 Clouds 26 1010 83 10000 1.95 106 12:55 20.12.2019
5999 Clouds 26 1010 83 10000 1.95 106 12:36 20.12.2019
6000 Clouds 26 1010 83 10000 1.95 106 12:18 20.12.2019
6001 Clouds 25 1010 94 10000 1.95 106 11:56 20.12.2019
6002 Clouds 25 1010 94 10000 1.95 106 11:37 20.12.2019
6003 Clouds 25 1010 94 10000 1.7 106 11:18 20.12.2019
6004 Clouds 26 1009 78 10000 2.6 40 10:54 20.12.2019
6005 Clouds 26 1009 78 10000 2.6 40 10:36 20.12.2019
6006 Clouds 26 1009 78 10000 2.6 40 10:18 20.12.2019
6007 Clouds 27 1009 74 10000 3.1 130 09:41 20.12.2019
6008 Clouds 27 1009 74 10000 3.1 130 09:21 20.12.2019
6009 Clouds 27 1008 69 10000 2.6 140 08:44 20.12.2019
6010 Clouds 27 1008 69 10000 2.6 140 08:26 20.12.2019
6011 Clouds 28 1008 65 10000 3.1 130 07:59 20.12.2019
6012 Clouds 28 1008 65 10000 3.1 130 07:41 20.12.2019
6013 Clouds 28 1008 65 10000 3.1 130 07:20 20.12.2019
6014 Clouds 29 1007 66 10000 3.1 140 06:52 20.12.2019
6015 Clouds 29 1007 66 10000 3.1 140 06:33 20.12.2019
6016 Clouds 30 1007 58 10000 4.6 120 05:56 20.12.2019
6017 Clouds 30 1007 58 10000 4.6 120 05:37 20.12.2019
6018 Clouds 30 1007 58 10000 4.6 120 05:37 20.12.2019
6019 Clouds 29 1008 66 10000 4.1 120 04:33 20.12.2019
6020 Clouds 29 1008 66 10000 4.1 120 03:30 20.12.2019
6021 Clouds 29 1008 66 10000 4.1 130 02:44 20.12.2019
6022 Clouds 29 1009 70 10000 4.6 100 01:54 20.12.2019
6023 Clouds 29 1009 70 10000 4.6 100 01:33 20.12.2019
6024 Clouds 30 1009 66 10000 3.6 140 00:48 20.12.2019
6025 Clouds 30 1009 66 10000 3.6 140 00:29 20.12.2019
6026 Clouds 29 1010 70 10000 3.6 130 23:54 19.12.2019
6027 Clouds 29 1010 70 10000 3.6 130 23:36 19.12.2019
6028 Clouds 29 1010 70 10000 3.6 130 23:18 19.12.2019
6029 Clouds 29 1010 70 10000 4.6 120 22:37 19.12.2019
6030 Clouds 29 1010 70 10000 4.6 120 22:19 19.12.2019
6031 Clouds 29 1011 70 10000 3.1 130 21:56 19.12.2019
6032 Clouds 29 1011 70 10000 3.1 130 21:37 19.12.2019
6033 Clouds 29 1011 70 10000 3.1 130 21:18 19.12.2019
6034 Clouds 25 1010 94 10000 2.97 113 20:56 19.12.2019
6035 Clouds 25 1010 94 10000 2.97 113 20:36 19.12.2019
6036 Clouds 25 1010 94 10000 1.83 104 20:18 19.12.2019
6037 Clouds 22 1010 100 10000 1.83 104 19:57 19.12.2019
6038 Clouds 22 1010 100 10000 1.83 104 19:57 19.12.2019
6039 Clouds 22 1010 100 10000 1.83 104 19:39 19.12.2019
6040 Clouds 22 1010 100 10000 1.83 104 19:39 19.12.2019
6041 Clouds 22 1010 100 10000 1.83 104 19:19 19.12.2019
6042 Clouds 22 1009 100 10000 1.83 104 18:41 19.12.2019
6043 Clouds 22 1009 100 10000 1.83 104 18:22 19.12.2019
6044 Clouds 23 1009 94 10000 1.83 104 17:58 19.12.2019
6045 Clouds 23 1009 94 10000 1.83 104 17:39 19.12.2019
6046 Clouds 23 1009 94 10000 2.06 115 17:19 19.12.2019
6047 Clouds 23 1009 94 10000 2.06 115 16:58 19.12.2019
6048 Clouds 23 1009 94 10000 2.06 115 16:40 19.12.2019
6049 Clouds 23 1009 94 10000 2.06 115 16:22 19.12.2019
6050 Clouds 24 1009 94 10000 2.06 115 15:59 19.12.2019
6051 Clouds 24 1009 94 10000 2.06 115 15:59 19.12.2019
6052 Clouds 24 1009 94 10000 2.06 115 15:39 19.12.2019
6053 Clouds 24 1009 94 10000 2.06 115 15:20 19.12.2019
6054 Clouds 25 1010 83 10000 1.5 130 14:59 19.12.2019
6055 Clouds 25 1010 83 10000 1.5 130 14:41 19.12.2019
6056 Clouds 25 1010 83 10000 1.5 130 14:19 19.12.2019
6057 Clouds 26 1011 83 10000 2.6 110 13:57 19.12.2019
6058 Clouds 26 1011 83 10000 2.6 110 13:37 19.12.2019
6059 Clouds 26 1011 83 10000 2.6 110 13:18 19.12.2019
6060 Clouds 26 1011 83 10000 2.1 110 12:55 19.12.2019
6061 Clouds 26 1011 83 10000 2.1 110 12:36 19.12.2019
6062 Clouds 26 1011 83 10000 2.1 110 12:18 19.12.2019
6063 Clouds 26 1011 83 10000 2.1 110 12:18 19.12.2019
6064 Clouds 26 1011 83 10000 2.1 110 12:18 19.12.2019
6065 Clouds 26 1011 83 10000 2.6 110 11:56 19.12.2019
6066 Clouds 26 1011 83 10000 2.6 110 11:38 19.12.2019
6067 Clouds 26 1011 83 10000 2.6 110 11:18 19.12.2019
6068 Clouds 26 1011 88 10000 2.1 120 10:39 19.12.2019
6069 Clouds 26 1011 88 10000 2.1 120 10:20 19.12.2019
6070 Rain 26 1011 88 10000 2.6 100 09:59 19.12.2019
6071 Rain 26 1011 88 10000 2.6 100 09:38 19.12.2019
6072 Rain 26 1011 88 10000 2.6 100 09:20 19.12.2019
6073 Rain 26 1011 88 10000 2.6 100 09:20 19.12.2019
6074 Clouds 25 1010 94 10000 2.58 108 08:57 19.12.2019
6075 Clouds 25 1010 94 10000 2.58 108 08:39 19.12.2019
6076 Clouds 25 1010 94 10000 2.47 127 08:18 19.12.2019
6077 Rain 28 1009 83 10000 4.1 130 07:55 19.12.2019
6078 Rain 28 1009 83 10000 4.1 130 07:55 19.12.2019
6079 Rain 28 1009 83 10000 4.1 130 07:37 19.12.2019
6080 Rain 28 1009 83 10000 4.1 130 07:19 19.12.2019
6081 Clouds 30 1008 70 10000 4.6 100 06:45 19.12.2019
6082 Clouds 30 1008 70 10000 4.6 100 06:26 19.12.2019
6083 Rain 27 1008 78 10000 4.6 150 05:49 19.12.2019
6084 Rain 27 1008 78 10000 4.6 150 05:28 19.12.2019
6085 Clouds 30 1008 70 10000 5.7 120 04:41 19.12.2019
6086 Clouds 31 1009 62 10000 4.1 130 02:30 19.12.2019
6087 Clouds 30 1009 70 10000 3.6 130 01:46 19.12.2019
6088 Clouds 30 1009 70 10000 3.6 130 01:21 19.12.2019
6089 Rain 29 1010 74 10000 4.6 110 00:39 19.12.2019
6090 Rain 29 1010 74 10000 4.6 110 00:19 19.12.2019
6091 Clouds 28 1010 83 10000 3.48 109 23:45 18.12.2019
6092 Clouds 28 1010 83 10000 1.78 87 23:19 18.12.2019
6093 Clouds 28 1010 83 10000 1.78 87 22:58 18.12.2019
6094 Clouds 28 1010 83 10000 1.78 87 22:40 18.12.2019
6095 Clouds 28 1010 83 10000 1.78 87 22:22 18.12.2019
6096 Rain 27 1010 84 0 1.78 87 21:59 18.12.2019
6097 Rain 27 1010 84 0 1.78 87 21:41 18.12.2019
6098 Clouds 25 1010 88 10000 1 0 21:21 18.12.2019
6099 Clouds 25 1010 88 10000 1 0 21:21 18.12.2019
6100 Clouds 25 1010 88 10000 1 0 21:21 18.12.2019
6101 Clouds 25 1010 88 10000 1 0 20:57 18.12.2019
6102 Clouds 25 1010 88 10000 1 0 20:39 18.12.2019
6103 Clouds 25 1010 88 10000 1 0 20:20 18.12.2019
6104 Clouds 23 1010 100 10000 1.5 320 19:57 18.12.2019
6105 Clouds 23 1010 100 10000 1.5 320 19:39 18.12.2019
6106 Clouds 23 1010 100 10000 1.5 320 19:19 18.12.2019
6107 Clouds 24 1009 94 10000 1.5 310 18:56 18.12.2019
6108 Clouds 24 1009 94 10000 1.5 310 18:56 18.12.2019
6109 Clouds 24 1009 94 10000 1.5 310 18:38 18.12.2019
6110 Clouds 24 1009 94 10000 1.5 310 18:20 18.12.2019
6111 Clouds 24 1009 94 10000 1.5 310 17:55 18.12.2019
6112 Clouds 24 1009 94 10000 1.5 310 17:55 18.12.2019
6113 Clouds 24 1009 94 10000 1.5 310 17:37 18.12.2019
6114 Clouds 24 1009 94 10000 1.5 310 17:19 18.12.2019
6115 Clouds 24 1009 94 10000 1 320 16:42 18.12.2019
6116 Clouds 24 1009 94 10000 1 320 16:24 18.12.2019
6117 Clouds 24 1009 94 10000 1 0 15:59 18.12.2019
6118 Clouds 24 1009 94 10000 1 0 15:39 18.12.2019
6119 Clouds 24 1009 94 10000 1 0 15:21 18.12.2019
6120 Clouds 24 1009 100 10000 1.28 71 14:57 18.12.2019
6121 Clouds 24 1009 100 10000 1.28 71 14:39 18.12.2019
6122 Clouds 24 1009 100 10000 0.99 59 14:19 18.12.2019
6123 Clouds 25 1010 94 10000 0.99 59 13:55 18.12.2019
6124 Clouds 25 1010 94 10000 0.99 59 13:37 18.12.2019
6125 Clouds 25 1010 94 10000 1.77 78 13:18 18.12.2019
6126 Clouds 25 1011 100 10000 1 0 12:40 18.12.2019
6127 Clouds 25 1011 100 10000 1 0 12:22 18.12.2019
6128 Clouds 26 1010 94 10000 1.77 78 11:57 18.12.2019
6129 Clouds 26 1010 94 10000 1.77 78 11:39 18.12.2019
6130 Clouds 26 1010 94 10000 1.37 75 11:20 18.12.2019
6131 Clouds 26 1010 94 10000 1.37 75 10:58 18.12.2019
6132 Clouds 26 1010 94 10000 1.37 75 10:58 18.12.2019
6133 Clouds 26 1010 94 10000 1.37 75 10:39 18.12.2019
6134 Clouds 26 1010 94 10000 1.37 75 10:21 18.12.2019
6135 Clouds 27 1010 88 10000 1.37 75 09:59 18.12.2019
6136 Clouds 27 1010 88 10000 1.37 75 09:59 18.12.2019
6137 Clouds 27 1010 88 10000 1.37 75 09:21 18.12.2019
6138 Clouds 28 1009 78 10000 2.1 70 08:55 18.12.2019
6139 Clouds 28 1009 78 10000 2.1 70 08:37 18.12.2019
6140 Clouds 28 1009 78 10000 2.1 70 08:19 18.12.2019
6141 Clouds 29 1008 74 10000 4.6 80 07:42 18.12.2019
6142 Clouds 29 1008 74 10000 4.6 80 07:21 18.12.2019
6143 Clouds 29 1007 70 10000 4.1 80 06:52 18.12.2019
6144 Clouds 29 1007 70 10000 4.1 80 06:26 18.12.2019
6145 Clouds 30 1007 70 10000 4.6 70 05:37 18.12.2019
6146 Clouds 31 1007 62 10000 5.7 70 04:33 18.12.2019
6147 Clouds 21 1007 100 10000 4.6 90 02:48 18.12.2019
6148 Clouds 31 1008 62 10000 4.1 90 02:29 18.12.2019
6149 Clouds 31 1008 62 10000 4.1 90 01:46 18.12.2019
6150 Clouds 29 1008 74 10000 4.1 90 01:27 18.12.2019
6151 Clouds 29 1008 74 10000 4.1 90 00:55 18.12.2019
6152 Clouds 29 1008 74 10000 4.1 90 00:37 18.12.2019
6153 Clouds 29 1008 74 10000 4.1 50 00:19 18.12.2019
6154 Clouds 29 1008 74 10000 4.1 50 23:43 17.12.2019
6155 Clouds 29 1008 74 10000 4.1 50 23:43 17.12.2019
6156 Clouds 29 1009 70 10000 5.1 50 23:24 17.12.2019
6157 Clouds 29 1009 70 10000 5.1 50 22:57 17.12.2019
6158 Clouds 29 1009 70 10000 5.1 50 22:39 17.12.2019
6159 Clouds 27 1009 88 10000 3.1 40 22:20 17.12.2019
6160 Clouds 27 1009 88 10000 3.1 40 21:57 17.12.2019
6161 Clouds 27 1009 88 10000 3.1 40 21:39 17.12.2019
6162 Clouds 27 1009 88 10000 3.57 70 21:20 17.12.2019
6163 Clouds 27 1009 88 10000 3.57 70 20:59 17.12.2019
6164 Clouds 27 1009 88 10000 3.57 70 20:40 17.12.2019
6165 Clouds 25 1008 94 10000 1.28 77 20:19 17.12.2019
6166 Clouds 25 1008 94 10000 1.28 77 19:57 17.12.2019
6167 Clouds 25 1008 94 10000 1.28 77 19:39 17.12.2019
6168 Clouds 24 1007 100 10000 1.28 77 19:20 17.12.2019
6169 Clouds 24 1007 100 10000 1.28 77 18:57 17.12.2019
6170 Clouds 24 1007 100 10000 1.28 77 18:38 17.12.2019
6171 Clouds 24 1007 100 10000 1.28 77 18:20 17.12.2019
6172 Clouds 24 1007 100 10000 1.28 77 17:55 17.12.2019
6173 Rain 25 1007 96 0 1.28 77 17:37 17.12.2019
6174 Clouds 24 1007 100 10000 1.39 78 17:18 17.12.2019
6175 Clouds 24 1007 100 10000 1.39 78 16:55 17.12.2019
6176 Clouds 24 1007 100 10000 1.39 78 16:36 17.12.2019
6177 Clouds 24 1007 100 10000 1.5 300 16:18 17.12.2019
6178 Clouds 24 1007 100 10000 1.5 300 15:38 17.12.2019
6179 Clouds 25 1008 94 10000 1.39 78 15:20 17.12.2019
6180 Clouds 25 1008 94 10000 1.39 78 14:56 17.12.2019
6181 Clouds 25 1008 94 10000 1.39 78 14:38 17.12.2019
6182 Clouds 26 1008 94 10000 1.5 80 14:19 17.12.2019
6183 Clouds 26 1008 94 10000 1.5 80 13:58 17.12.2019
6184 Clouds 26 1008 94 10000 1.5 80 13:39 17.12.2019
6185 Clouds 26 1009 94 10000 2.1 100 13:19 17.12.2019
6186 Clouds 26 1009 94 10000 2.1 100 13:19 17.12.2019
6187 Clouds 26 1009 94 10000 2.1 100 12:58 17.12.2019
6188 Clouds 26 1009 94 10000 2.1 100 12:38 17.12.2019
6189 Clouds 26 1009 94 10000 2.1 100 12:38 17.12.2019
6190 Rain 25 1009 100 10000 4.6 100 12:18 17.12.2019
6191 Rain 25 1009 100 10000 4.6 100 11:56 17.12.2019
6192 Rain 25 1009 100 10000 4.6 100 11:36 17.12.2019
6193 Rain 25 1009 100 10000 4.6 100 11:36 17.12.2019
6194 Rain 25 1009 100 10000 4.6 100 11:18 17.12.2019
6195 Rain 25 1009 100 10000 4.6 120 10:56 17.12.2019
6196 Rain 25 1009 100 10000 4.6 120 10:37 17.12.2019
6197 Clouds 27 1008 83 10000 4.6 120 10:19 17.12.2019
6198 Clouds 27 1008 83 10000 4.6 120 09:42 17.12.2019
6199 Clouds 26 1007 88 10000 4.6 110 09:22 17.12.2019
6200 Clouds 26 1007 88 10000 4.6 110 08:59 17.12.2019
6201 Clouds 26 1007 88 10000 4.6 110 08:40 17.12.2019
6202 Clouds 26 1007 94 10000 3.6 90 08:22 17.12.2019
6203 Clouds 26 1007 94 10000 3.6 90 08:22 17.12.2019
6204 Clouds 26 1007 94 10000 3.6 90 07:58 17.12.2019
6205 Clouds 26 1007 94 10000 3.6 90 07:39 17.12.2019
6206 Clouds 27 1006 88 10000 3.6 120 07:21 17.12.2019
6207 Clouds 27 1006 88 10000 3.6 120 06:42 17.12.2019
6208 Clouds 27 1006 88 10000 3.6 120 06:24 17.12.2019
6209 Clouds 27 1006 88 10000 3.6 120 06:24 17.12.2019
6210 Rain 26 1006 88 10000 5.7 120 05:41 17.12.2019
6211 Rain 26 1006 94 10000 3.6 130 04:51 17.12.2019
6212 Rain 25 1006 100 4000 4.1 140 03:40 17.12.2019
6213 Rain 27 1007 88 5000 5.1 130 02:25 17.12.2019
6214 Drizzle 28 1007 88 10000 4.1 120 01:21 17.12.2019
6215 Clouds 29 1008 79 10000 4.1 100 00:45 17.12.2019
6216 Clouds 29 1008 79 10000 4.1 100 00:21 17.12.2019
6217 Clouds 29 1008 79 10000 4.1 100 00:21 17.12.2019
6218 Clouds 29 1008 79 10000 4.1 90 23:44 16.12.2019
6219 Clouds 29 1008 79 10000 4.1 90 23:20 16.12.2019
6220 Clouds 28 1008 88 10000 2.6 90 22:59 16.12.2019
6221 Clouds 28 1008 88 10000 2.6 90 22:39 16.12.2019
6222 Clouds 28 1008 88 10000 2.6 90 22:21 16.12.2019
6223 Clouds 26 1008 94 10000 2.25 51 21:57 16.12.2019
6224 Clouds 26 1008 94 10000 2.25 51 21:57 16.12.2019
6225 Clouds 26 1008 94 10000 2.25 51 21:39 16.12.2019
6226 Clouds 26 1008 94 10000 2.25 51 21:20 16.12.2019
6227 Clouds 24 1008 100 10000 2.25 51 20:58 16.12.2019
6228 Clouds 24 1008 100 10000 2.25 51 20:39 16.12.2019
6229 Clouds 24 1008 100 10000 2.08 14 20:20 16.12.2019
6230 Clouds 24 1008 100 10000 1 320 19:57 16.12.2019
6231 Clouds 24 1008 100 10000 1 320 19:37 16.12.2019
6232 Clouds 24 1008 100 10000 1 320 19:19 16.12.2019
6233 Clouds 24 1007 100 10000 1.5 320 18:59 16.12.2019
6234 Clouds 24 1007 100 10000 1.5 320 18:41 16.12.2019
6235 Clouds 24 1007 100 10000 1.5 320 18:20 16.12.2019
6236 Clouds 24 1007 94 10000 1.5 300 17:59 16.12.2019
6237 Clouds 24 1007 94 10000 1.5 300 17:40 16.12.2019
6238 Clouds 24 1007 94 10000 1.5 300 17:21 16.12.2019
6239 Clouds 24 1007 94 10000 2.72 25 16:57 16.12.2019
6240 Clouds 24 1007 94 10000 2.72 25 16:39 16.12.2019
6241 Clouds 24 1007 94 10000 2.72 25 16:20 16.12.2019
6242 Clouds 23 1008 100 10000 1.5 330 15:59 16.12.2019
6243 Clouds 23 1008 100 10000 1.5 330 15:59 16.12.2019
6244 Clouds 23 1008 100 10000 1.5 330 15:39 16.12.2019
6245 Clouds 23 1008 100 10000 1.5 330 15:20 16.12.2019
6246 Rain 22 1006 94 0 2.72 25 14:57 16.12.2019
6247 Rain 22 1006 94 0 2.72 25 14:37 16.12.2019
6248 Rain 22 1006 94 0 2.72 25 14:37 16.12.2019
6249 Rain 24 1008 100 10000 1 290 14:19 16.12.2019
6250 Rain 24 1008 100 10000 1 290 14:19 16.12.2019
6251 Rain 24 1008 100 10000 1 290 13:56 16.12.2019
6252 Rain 24 1008 100 10000 1 290 13:37 16.12.2019
6253 Rain 24 1008 100 10000 1 290 13:19 16.12.2019
6254 Clouds 24 1009 94 10000 1 0 12:57 16.12.2019
6255 Clouds 24 1009 94 10000 1 0 12:39 16.12.2019
6256 Clouds 24 1009 94 10000 1 0 12:19 16.12.2019
6257 Clouds 24 1009 100 10000 2.16 34 11:58 16.12.2019
6258 Clouds 24 1009 100 10000 2.16 34 11:40 16.12.2019
6259 Clouds 24 1009 100 10000 2.79 70 11:20 16.12.2019
6260 Clouds 24 1009 94 10000 1.82 51 10:56 16.12.2019
6261 Clouds 24 1009 94 10000 1.82 51 10:37 16.12.2019
6262 Clouds 23 1009 100 10000 1.82 51 10:19 16.12.2019
6263 Clouds 23 1009 100 10000 2.79 70 09:45 16.12.2019
6264 Clouds 23 1008 100 10000 2.79 70 09:26 16.12.2019
6265 Clouds 23 1008 100 10000 2.79 70 08:41 16.12.2019
6266 Clouds 23 1008 100 10000 3.2 67 08:21 16.12.2019
6267 Clouds 23 1008 100 10000 3.2 67 08:21 16.12.2019
6268 Clouds 23 1008 100 10000 2.63 70 07:59 16.12.2019
6269 Clouds 23 1008 100 10000 2.63 70 07:41 16.12.2019
6270 Rain 23 1008 100 10000 5.7 130 07:20 16.12.2019
6271 Rain 23 1008 100 10000 5.7 130 06:41 16.12.2019
6272 Rain 23 1007 100 8000 5.7 130 06:22 16.12.2019
6273 Rain 23 1007 100 8000 5.7 130 06:22 16.12.2019
6274 Rain 24 1007 100 1000 4.1 100 05:44 16.12.2019
6275 Rain 24 1007 100 5000 5.1 80 05:26 16.12.2019
6276 Rain 27 1008 83 10000 2.1 90 03:33 16.12.2019
6277 Rain 27 1008 78 10000 4.1 70 01:52 16.12.2019
6278 Rain 24 1008 95 0 2.61 92 01:33 16.12.2019
6279 Clouds 28 1009 78 10000 4.1 60 00:41 16.12.2019
6280 Clouds 26 1009 88 10000 2.1 360 00:21 16.12.2019
6281 Clouds 26 1009 88 10000 2.1 360 23:57 15.12.2019
6282 Clouds 26 1009 88 10000 2.1 360 23:37 15.12.2019
6283 Clouds 26 1009 88 10000 2.1 360 23:37 15.12.2019
6284 Clouds 26 1009 88 10000 2.1 360 23:19 15.12.2019
6285 Rain 24 1010 94 10000 3.1 340 22:54 15.12.2019
6286 Rain 24 1010 94 10000 3.1 340 22:36 15.12.2019
6287 Rain 23 1010 100 10000 3.6 330 22:18 15.12.2019
6288 Rain 23 1010 100 10000 3.6 330 22:18 15.12.2019
6289 Rain 23 1010 100 10000 3.6 330 21:54 15.12.2019
6290 Rain 23 1010 100 10000 3.6 330 21:36 15.12.2019
6291 Rain 23 1010 100 10000 3.1 330 21:18 15.12.2019
6292 Rain 23 1010 100 10000 3.1 330 20:54 15.12.2019
6293 Rain 23 1010 100 9000 2.6 320 20:36 15.12.2019
6294 Rain 23 1010 100 9000 2.6 320 20:18 15.12.2019
6295 Rain 23 1010 100 9000 2.6 320 19:54 15.12.2019
6296 Rain 23 1010 100 9000 2.6 320 19:54 15.12.2019
6297 Rain 23 1010 100 9000 2.6 320 19:36 15.12.2019
6298 Rain 23 1009 94 9000 0.16 53 19:18 15.12.2019
6299 Rain 23 1009 94 9000 0.16 53 18:54 15.12.2019
6300 Rain 23 1009 94 9000 0.92 63 18:36 15.12.2019
6301 Rain 23 1009 94 9000 0.92 63 18:18 15.12.2019
6302 Rain 23 1009 94 9000 3.1 110 17:54 15.12.2019
6303 Rain 23 1009 94 9000 3.1 110 17:36 15.12.2019
6304 Rain 23 1009 94 9000 3.1 110 17:18 15.12.2019
6305 Rain 24 1009 94 10000 4.6 130 16:42 15.12.2019
6306 Rain 24 1009 94 10000 2.1 160 16:22 15.12.2019
6307 Rain 24 1009 94 10000 2.1 160 15:57 15.12.2019
6308 Rain 24 1009 94 10000 2.1 160 15:38 15.12.2019
6309 Rain 25 1009 94 10000 5.1 110 15:19 15.12.2019
6310 Rain 25 1009 94 10000 5.1 110 15:19 15.12.2019
6311 Rain 25 1009 94 10000 5.1 110 14:56 15.12.2019
6312 Rain 23 1007 96 0 0.55 6 14:37 15.12.2019
6313 Clouds 26 1009 94 10000 3.6 130 14:18 15.12.2019
6314 Clouds 26 1009 94 10000 3.6 130 13:58 15.12.2019
6315 Clouds 26 1009 94 10000 3.6 130 13:38 15.12.2019
6316 Rain 26 1010 94 10000 1 180 13:19 15.12.2019
6317 Rain 26 1010 94 10000 1 180 12:57 15.12.2019
6318 Rain 26 1010 94 10000 1 180 12:39 15.12.2019
6319 Rain 26 1010 94 10000 1 180 12:39 15.12.2019
6320 Rain 24 1009 94 0 1.29 82 12:20 15.12.2019
6321 Rain 24 1009 94 0 1.29 82 11:56 15.12.2019
6322 Rain 24 1009 94 0 1.29 82 11:36 15.12.2019
6323 Clouds 27 1009 88 10000 2.6 100 11:18 15.12.2019
6324 Clouds 27 1009 88 10000 2.6 100 10:55 15.12.2019
6325 Clouds 27 1009 88 10000 2.6 100 10:36 15.12.2019
6326 Clouds 27 1009 88 10000 2.6 100 10:18 15.12.2019
6327 Clouds 27 1009 88 10000 2.6 100 10:18 15.12.2019
6328 Clouds 27 1008 88 10000 2.1 110 09:39 15.12.2019
6329 Clouds 27 1008 88 10000 2.1 110 09:20 15.12.2019
6330 Clouds 27 1008 83 10000 3.6 120 08:57 15.12.2019
6331 Clouds 27 1008 83 10000 3.6 120 08:39 15.12.2019
6332 Clouds 27 1008 83 10000 3.6 120 08:20 15.12.2019
6333 Clouds 28 1007 83 10000 3.6 110 07:55 15.12.2019
6334 Clouds 28 1007 83 10000 3.6 110 07:34 15.12.2019
6335 Clouds 28 1007 83 10000 4.1 110 06:39 15.12.2019
6336 Clouds 28 1007 83 10000 4.1 110 06:19 15.12.2019
6337 Clouds 28 1007 83 10000 2.6 90 05:25 15.12.2019
6338 Clouds 28 1007 83 10000 2.6 90 05:25 15.12.2019
6339 Clouds 28 1007 83 10000 3.1 100 04:24 15.12.2019
6340 Clouds 32 1008 59 10000 4.6 80 03:22 15.12.2019
6341 Rain 28 1007 77 0 3.02 98 02:33 15.12.2019
6342 Clouds 31 1009 66 10000 5.1 80 01:44 15.12.2019
6343 Clouds 31 1009 66 10000 5.1 80 01:25 15.12.2019
6344 Clouds 31 1009 66 10000 5.1 80 00:54 15.12.2019
6345 Rain 28 1008 84 0 2.87 87 00:35 15.12.2019
6346 Clouds 30 1009 66 10000 6.2 90 23:58 14.12.2019
6347 Clouds 30 1009 66 10000 6.2 90 23:58 14.12.2019
6348 Clouds 30 1009 66 10000 6.2 90 23:39 14.12.2019
6349 Clouds 30 1009 66 10000 6.2 90 23:19 14.12.2019
6350 Clouds 29 1009 74 10000 4.1 90 22:57 14.12.2019
6351 Clouds 29 1009 74 10000 4.1 90 22:39 14.12.2019
6352 Clouds 29 1009 74 10000 4.1 90 22:39 14.12.2019
6353 Clouds 28 1010 83 10000 2.45 85 22:20 14.12.2019
6354 Clouds 28 1010 83 10000 2.45 85 21:55 14.12.2019
6355 Clouds 28 1010 83 10000 2.45 85 21:37 14.12.2019
6356 Clouds 26 1009 94 10000 2.1 320 21:18 14.12.2019
6357 Clouds 26 1009 94 10000 2.1 320 20:43 14.12.2019
6358 Clouds 26 1009 94 10000 2.1 320 20:21 14.12.2019
6359 Clouds 24 1009 100 10000 1.5 340 19:59 14.12.2019
6360 Clouds 24 1009 100 10000 1.5 340 19:39 14.12.2019
6361 Clouds 24 1009 100 10000 1.5 340 19:21 14.12.2019
6362 Clouds 24 1008 100 10000 0.52 5 18:57 14.12.2019
6363 Clouds 24 1008 100 10000 0.52 5 18:39 14.12.2019
6364 Clouds 24 1008 100 10000 0.52 5 18:21 14.12.2019
6365 Clouds 24 1008 100 10000 0.52 5 17:57 14.12.2019
6366 Clouds 24 1008 100 10000 0.52 5 17:38 14.12.2019
6367 Clouds 24 1008 100 10000 0.29 72 17:20 14.12.2019
6368 Clouds 24 1008 100 10000 0.29 72 16:41 14.12.2019
6369 Clouds 24 1008 100 10000 0.29 72 16:19 14.12.2019
6370 Clouds 24 1009 100 10000 1.5 300 15:55 14.12.2019
6371 Clouds 24 1009 100 10000 1.5 300 15:36 14.12.2019
6372 Clouds 24 1009 100 10000 1.5 300 15:18 14.12.2019
6373 Clouds 26 1009 88 10000 0.29 72 14:40 14.12.2019
6374 Clouds 26 1009 88 10000 1 72 14:21 14.12.2019
6375 Clouds 26 1010 88 10000 1.5 100 13:59 14.12.2019
6376 Clouds 26 1010 88 10000 1.5 100 13:41 14.12.2019
6377 Clouds 26 1010 88 10000 1.5 100 13:41 14.12.2019
6378 Clouds 26 1010 88 10000 1.5 100 13:19 14.12.2019
6379 Clouds 26 1011 88 10000 0.84 59 12:56 14.12.2019
6380 Clouds 26 1011 88 10000 0.84 59 12:37 14.12.2019
6381 Clouds 26 1011 88 10000 0.84 59 12:19 14.12.2019
6382 Clouds 26 1011 88 10000 1.5 100 11:56 14.12.2019
6383 Clouds 26 1011 88 10000 1.5 100 11:37 14.12.2019
6384 Clouds 26 1011 88 10000 1.5 100 11:18 14.12.2019
6385 Clouds 25 1010 94 10000 1.5 100 10:56 14.12.2019
6386 Rain 23 1010 95 0 1.52 87 10:38 14.12.2019
6387 Clouds 28 1010 74 10000 3.6 110 10:19 14.12.2019
6388 Clouds 28 1010 74 10000 3.6 110 09:42 14.12.2019
6389 Clouds 28 1009 78 10000 4.1 120 09:21 14.12.2019
6390 Clouds 28 1009 78 10000 4.1 120 08:56 14.12.2019
6391 Clouds 28 1009 78 10000 4.1 120 08:56 14.12.2019
6392 Rain 23 1010 95 0 1.41 82 08:37 14.12.2019
6393 Clouds 28 1009 78 10000 4.1 110 08:18 14.12.2019
6394 Clouds 28 1009 78 10000 4.1 110 07:40 14.12.2019
6395 Clouds 28 1009 78 10000 4.1 110 07:40 14.12.2019
6396 Clouds 28 1009 78 10000 5.1 110 07:20 14.12.2019
6397 Clouds 28 1009 78 10000 5.1 110 06:42 14.12.2019
6398 Rain 25 1008 93 0 1.91 101 06:22 14.12.2019
6399 Clouds 30 1008 70 10000 8.2 100 05:35 14.12.2019
6400 Clouds 30 1009 70 10000 7.2 100 03:34 14.12.2019
6401 Rain 29 1010 70 10000 3.6 40 02:23 14.12.2019
6402 Clouds 29 1010 70 10000 7.2 100 01:44 14.12.2019
6403 Clouds 29 1010 74 10000 5.1 110 00:58 14.12.2019
6404 Clouds 29 1010 74 10000 5.1 110 00:40 14.12.2019
6405 Clouds 29 1010 74 10000 5.1 110 00:19 14.12.2019
6406 Rain 29 1011 74 10000 5.1 110 23:41 13.12.2019
6407 Rain 29 1011 74 10000 5.1 110 23:19 13.12.2019
6408 Clouds 25 1011 94 10000 1 60 22:56 13.12.2019
6409 Clouds 25 1011 94 10000 1 60 22:37 13.12.2019
6410 Rain 25 1011 94 8000 2.38 96 22:18 13.12.2019
6411 Rain 26 1011 88 8000 3.6 120 21:42 13.12.2019
6412 Clouds 26 1011 88 10000 1 150 21:21 13.12.2019
6413 Rain 25 1011 94 10000 4.1 30 20:58 13.12.2019
6414 Rain 25 1011 94 10000 4.1 30 20:39 13.12.2019
6415 Clouds 23 1010 95 0 0.42 115 20:19 13.12.2019
6416 Clouds 23 1010 95 0 0.42 115 19:56 13.12.2019
6417 Clouds 23 1010 95 0 0.42 115 19:38 13.12.2019
6418 Clouds 24 1010 100 10000 2.1 330 19:18 13.12.2019
6419 Clouds 24 1010 100 10000 2.1 330 18:42 13.12.2019
6420 Clouds 24 1010 100 10000 2.1 330 18:42 13.12.2019
6421 Clouds 24 1010 100 10000 2.1 330 18:20 13.12.2019
6422 Rain 25 1009 94 10000 0.42 115 17:59 13.12.2019
6423 Rain 25 1009 94 10000 0.42 115 17:39 13.12.2019
6424 Rain 25 1009 94 10000 0.43 89 17:18 13.12.2019
6425 Rain 25 1009 94 10000 0.43 89 17:18 13.12.2019
6426 Clouds 23 1009 100 10000 0.43 89 16:56 13.12.2019
6427 Clouds 23 1009 100 10000 0.43 89 16:38 13.12.2019
6428 Clouds 23 1009 100 10000 0.43 89 16:19 13.12.2019
6429 Clouds 23 1010 100 10000 0.43 89 15:42 13.12.2019
6430 Clouds 23 1010 100 10000 0.43 89 15:21 13.12.2019
6431 Clouds 23 1010 100 10000 0.43 89 14:57 13.12.2019
6432 Clouds 23 1010 100 10000 0.43 89 14:37 13.12.2019
6433 Clouds 23 1010 100 10000 0.64 90 14:19 13.12.2019
6434 Clouds 24 1011 94 10000 0.64 90 13:43 13.12.2019
6435 Clouds 24 1011 94 10000 0.64 90 13:24 13.12.2019
6436 Clouds 24 1011 94 10000 0.72 104 13:24 13.12.2019
6437 Clouds 25 1011 94 10000 0.72 104 12:57 13.12.2019
6438 Clouds 25 1011 94 10000 0.72 104 12:39 13.12.2019
6439 Clouds 25 1011 94 10000 0.72 104 12:18 13.12.2019
6440 Clouds 26 1012 88 10000 1.5 120 11:43 13.12.2019
6441 Clouds 26 1012 88 10000 1.5 120 11:25 13.12.2019
6442 Clouds 27 1011 83 10000 2.1 120 10:56 13.12.2019
6443 Clouds 27 1011 83 10000 2.1 120 10:38 13.12.2019
6444 Clouds 27 1011 83 10000 2.1 120 10:20 13.12.2019
6445 Clouds 27 1011 83 10000 1.5 130 09:42 13.12.2019
6446 Clouds 27 1011 83 10000 1.5 130 09:21 13.12.2019
6447 Clouds 27 1010 78 10000 2.1 130 08:45 13.12.2019
6448 Clouds 27 1010 78 10000 2.1 130 08:45 13.12.2019
6449 Clouds 27 1010 78 10000 2.1 130 08:26 13.12.2019
6450 Clouds 28 1010 74 10000 4.1 110 07:50 13.12.2019
6451 Clouds 28 1010 74 10000 4.1 110 07:26 13.12.2019
6452 Clouds 29 1009 70 10000 4.6 100 06:57 13.12.2019
6453 Clouds 29 1009 70 10000 4.6 100 06:31 13.12.2019
6454 Clouds 30 1009 66 10000 4.1 130 05:51 13.12.2019
6455 Clouds 30 1009 66 10000 4.1 130 05:31 13.12.2019
6456 Clouds 30 1009 66 10000 4.6 100 04:53 13.12.2019
6457 Clouds 29 1010 70 10000 3.6 150 03:52 13.12.2019
6458 Clouds 30 1010 66 10000 3.6 70 02:35 13.12.2019
6459 Clouds 29 1011 62 10000 4.1 60 01:51 13.12.2019
6460 Clouds 29 1011 62 10000 4.1 60 01:25 13.12.2019
6461 Clouds 30 1011 66 10000 3.6 70 00:46 13.12.2019
6462 Clouds 30 1011 66 10000 3.6 70 00:24 13.12.2019
6463 Clouds 28 1011 65 10000 3.6 90 23:42 12.12.2019
6464 Clouds 28 1011 65 10000 3.6 90 23:24 12.12.2019
6465 Clouds 28 1012 69 10000 1.5 140 22:56 12.12.2019
6466 Clouds 28 1012 69 10000 1.5 140 22:38 12.12.2019
6467 Clouds 28 1012 69 10000 1.5 140 22:19 12.12.2019
6468 Clouds 25 1012 83 10000 2.1 280 21:55 12.12.2019
6469 Clouds 25 1012 83 10000 2.1 280 21:37 12.12.2019
6470 Clouds 25 1012 83 10000 2.1 280 21:19 12.12.2019
6471 Clouds 23 1012 94 10000 2.6 320 20:57 12.12.2019
6472 Clouds 23 1012 94 10000 2.6 320 20:38 12.12.2019
6473 Clouds 23 1012 94 10000 2.6 320 20:20 12.12.2019
6474 Clouds 22 1011 94 10000 2.1 310 19:55 12.12.2019
6475 Clouds 22 1011 94 10000 2.1 310 19:37 12.12.2019
6476 Clouds 22 1011 94 10000 2.1 310 19:18 12.12.2019
6477 Clouds 21 1010 100 10000 0.77 117 18:55 12.12.2019
6478 Clouds 21 1010 100 10000 0.77 117 18:36 12.12.2019
6479 Clouds 21 1010 100 10000 0.77 117 18:18 12.12.2019
6480 Clouds 22 1010 94 10000 0.77 117 17:55 12.12.2019
6481 Clouds 22 1010 94 10000 0.77 117 17:37 12.12.2019
6482 Clouds 22 1010 94 10000 0.86 129 17:18 12.12.2019
6483 Clouds 22 1011 94 10000 0.86 129 16:42 12.12.2019
6484 Clouds 22 1011 94 10000 0.86 129 16:21 12.12.2019
6485 Clouds 23 1011 94 10000 0.86 129 15:59 12.12.2019
6486 Rain 22 1009 93 0 0.86 129 15:41 12.12.2019
6487 Clouds 24 1011 88 10000 0.86 129 15:19 12.12.2019
6488 Clouds 24 1011 88 10000 0.86 129 15:19 12.12.2019
6489 Rain 22 1009 93 0 0.86 129 14:57 12.12.2019
6490 Rain 22 1009 93 0 0.86 129 14:36 12.12.2019
6491 Clouds 24 1012 88 10000 0.58 141 14:18 12.12.2019
6492 Clouds 24 1012 88 10000 0.58 141 13:54 12.12.2019
6493 Clouds 24 1012 88 10000 0.6 152 13:36 12.12.2019
6494 Clouds 24 1012 88 10000 0.6 152 13:18 12.12.2019
6495 Clouds 24 1012 88 10000 0.6 152 12:41 12.12.2019
6496 Clouds 24 1012 88 10000 0.6 152 12:22 12.12.2019
6497 Clouds 25 1012 78 10000 0.6 152 11:59 12.12.2019
6498 Clouds 25 1012 78 10000 0.6 152 11:40 12.12.2019
6499 Clouds 25 1012 78 10000 0.7 202 11:21 12.12.2019
6500 Clouds 25 1012 78 10000 0.7 202 10:58 12.12.2019
6501 Clouds 25 1012 78 10000 0.7 202 10:40 12.12.2019
6502 Clouds 25 1012 78 10000 0.7 202 10:21 12.12.2019
6503 Clouds 25 1012 78 10000 0.7 202 10:21 12.12.2019
6504 Clouds 26 1011 74 10000 1 170 09:56 12.12.2019
6505 Clouds 26 1011 74 10000 1 170 09:38 12.12.2019
6506 Clouds 26 1011 74 10000 1 170 09:19 12.12.2019
6507 Clouds 26 1011 74 10000 1 170 09:19 12.12.2019
6508 Clouds 26 1010 74 10000 1 170 08:46 12.12.2019
6509 Clouds 26 1010 74 10000 1 170 08:28 12.12.2019
6510 Clouds 27 1010 65 10000 2.1 160 07:50 12.12.2019
6511 Clouds 27 1010 65 10000 2.1 160 07:28 12.12.2019
6512 Clouds 27 1009 65 10000 2.6 160 06:57 12.12.2019
6513 Clouds 27 1009 65 10000 2.6 160 06:36 12.12.2019
6514 Clouds 28 1009 61 10000 3.6 150 05:49 12.12.2019
6515 Clouds 28 1009 61 10000 3.6 150 05:25 12.12.2019
6516 Clouds 28 1009 61 10000 3.6 170 04:28 12.12.2019
6517 Clouds 28 1010 65 10000 3.1 180 02:41 12.12.2019
6518 Clouds 28 1010 65 10000 3.1 180 02:22 12.12.2019
6519 Clouds 28 1011 65 10000 3.1 160 01:54 12.12.2019
6520 Clouds 28 1011 65 10000 3.1 160 01:35 12.12.2019
6521 Clouds 27 1011 69 10000 3.1 170 00:48 12.12.2019
6522 Clouds 27 1011 69 10000 3.1 170 00:21 12.12.2019
6523 Clouds 27 1011 69 10000 3.6 180 23:54 11.12.2019
6524 Clouds 27 1011 69 10000 3.6 180 23:36 11.12.2019
6525 Clouds 27 1011 69 10000 3.6 180 23:18 11.12.2019
6526 Clouds 27 1011 69 10000 2.6 190 22:55 11.12.2019
6527 Clouds 27 1011 69 10000 2.6 190 22:36 11.12.2019
6528 Clouds 27 1011 69 10000 2.6 190 22:18 11.12.2019
6529 Clouds 27 1010 74 10000 2.1 200 21:39 11.12.2019
6530 Clouds 27 1010 74 10000 2.1 200 21:20 11.12.2019
6531 Clouds 23 1010 94 10000 1.5 280 20:58 11.12.2019
6532 Clouds 23 1010 94 10000 1.5 280 20:39 11.12.2019
6533 Clouds 23 1010 94 10000 1.5 280 20:19 11.12.2019
6534 Clouds 23 1010 94 10000 1.5 280 20:19 11.12.2019
6535 Clouds 21 1010 100 10000 1.5 330 19:59 11.12.2019
6536 Clouds 21 1010 100 10000 1.5 330 19:40 11.12.2019
6537 Clouds 21 1010 100 10000 1.5 330 19:21 11.12.2019
6538 Clouds 21 1009 100 10000 1.5 300 18:57 11.12.2019
6539 Clouds 21 1009 100 10000 1.5 300 18:38 11.12.2019
6540 Clouds 21 1009 100 10000 1.5 300 18:18 11.12.2019
6541 Clouds 21 1009 100 10000 1.5 310 17:55 11.12.2019
6542 Clouds 21 1009 100 10000 1.5 310 17:36 11.12.2019
6543 Clouds 21 1009 100 10000 1.5 310 17:18 11.12.2019
6544 Clouds 21 1009 100 10000 1.5 320 16:55 11.12.2019
6545 Clouds 21 1009 100 10000 1.5 320 16:36 11.12.2019
6546 Clouds 21 1009 100 10000 1.5 320 16:18 11.12.2019
6547 Clouds 22 1009 94 10000 1.5 320 15:41 11.12.2019
6548 Clouds 22 1009 94 10000 1.5 320 15:23 11.12.2019
6549 Clouds 22 1009 94 10000 1.5 320 15:23 11.12.2019
6550 Clouds 22 1011 94 10000 2.1 200 14:57 11.12.2019
6551 Clouds 22 1011 94 10000 2.1 200 14:57 11.12.2019
6552 Clouds 22 1011 94 10000 2.1 200 14:39 11.12.2019
6553 Clouds 22 1011 94 10000 2.1 200 14:20 11.12.2019
6554 Clouds 22 1011 94 10000 2.1 330 13:56 11.12.2019
6555 Clouds 22 1011 94 10000 2.1 330 13:38 11.12.2019
6556 Clouds 22 1011 94 10000 2.1 330 13:19 11.12.2019
6557 Clouds 24 1011 88 10000 1.5 320 12:56 11.12.2019
6558 Clouds 24 1011 88 10000 1.5 320 12:38 11.12.2019
6559 Clouds 24 1011 88 10000 1.5 320 12:19 11.12.2019
6560 Clouds 24 1011 94 10000 1.5 320 11:57 11.12.2019
6561 Clouds 24 1011 94 10000 1.5 320 11:38 11.12.2019
6562 Clouds 25 1010 83 10000 1.06 222 11:18 11.12.2019
6563 Clouds 25 1010 83 10000 1.06 222 10:45 11.12.2019
6564 Clouds 25 1010 83 10000 1.06 222 10:27 11.12.2019
6565 Clouds 26 1010 78 10000 1.06 222 09:59 11.12.2019
6566 Clouds 26 1010 78 10000 1.06 222 09:39 11.12.2019
6567 Clouds 26 1010 78 10000 1.06 222 09:39 11.12.2019
6568 Clouds 26 1010 78 10000 1.06 222 09:39 11.12.2019
6569 Clouds 26 1010 78 10000 1.06 222 09:20 11.12.2019
6570 Clouds 26 1009 78 10000 1.06 222 08:57 11.12.2019
6571 Clouds 26 1009 78 10000 1.06 222 08:38 11.12.2019
6572 Clouds 26 1009 78 10000 1.37 166 08:19 11.12.2019
6573 Clouds 27 1009 69 10000 2.1 190 07:46 11.12.2019
6574 Clouds 27 1009 69 10000 2.1 190 07:26 11.12.2019
6575 Clouds 28 1008 65 10000 2.6 180 06:57 11.12.2019
6576 Clouds 28 1008 65 10000 2.6 180 06:37 11.12.2019
6577 Clouds 28 1008 65 10000 2.6 180 06:18 11.12.2019
6578 Clouds 28 1007 65 10000 3.1 180 05:41 11.12.2019
6579 Clouds 28 1007 65 10000 3.1 180 05:18 11.12.2019
6580 Clouds 29 1008 58 10000 2.6 160 03:50 11.12.2019
6581 Clouds 28 1008 65 10000 3.1 160 02:49 11.12.2019
6582 Clouds 29 1009 62 10000 3.1 190 01:23 11.12.2019
6583 Clouds 29 1009 66 10000 3.1 180 00:46 11.12.2019
6584 Clouds 29 1009 66 10000 3.1 180 00:21 11.12.2019
6585 Clouds 29 1010 58 10000 3.6 180 23:47 10.12.2019
6586 Clouds 29 1010 58 10000 3.6 180 23:28 10.12.2019
6587 Clouds 27 1010 69 10000 3.1 200 22:57 10.12.2019
6588 Clouds 27 1010 69 10000 3.1 200 22:39 10.12.2019
6589 Clouds 27 1010 69 10000 3.1 200 22:21 10.12.2019
6590 Clouds 26 1010 83 10000 1 0 21:55 10.12.2019
6591 Clouds 26 1010 83 10000 1 0 21:55 10.12.2019
6592 Clouds 26 1010 83 10000 1 0 21:37 10.12.2019
6593 Clouds 26 1010 83 10000 1 0 21:19 10.12.2019
6594 Clouds 25 1009 88 10000 1.5 300 20:56 10.12.2019
6595 Clouds 25 1009 88 10000 1.5 300 20:37 10.12.2019
6596 Clouds 25 1009 88 10000 1.5 300 20:18 10.12.2019
6597 Clouds 23 1009 100 10000 1 320 19:54 10.12.2019
6598 Clouds 23 1009 100 10000 1 320 19:36 10.12.2019
6599 Clouds 23 1009 100 10000 1 320 19:36 10.12.2019
6600 Clouds 23 1009 100 10000 1 320 19:18 10.12.2019
6601 Clouds 24 1008 94 10000 1 300 18:39 10.12.2019
6602 Clouds 24 1008 94 10000 1 300 18:39 10.12.2019
6603 Clouds 24 1008 94 10000 1 300 18:20 10.12.2019
6604 Clouds 24 1008 94 10000 1.37 235 17:57 10.12.2019
6605 Clouds 24 1008 94 10000 1.37 235 17:39 10.12.2019
6606 Clouds 24 1008 94 10000 1.75 212 17:19 10.12.2019
6607 Clouds 25 1008 88 10000 1.75 212 16:43 10.12.2019
6608 Clouds 25 1008 88 10000 1.75 212 16:20 10.12.2019
6609 Clouds 25 1008 88 10000 1.75 212 16:20 10.12.2019
6610 Rain 25 1008 88 10000 1.5 200 15:55 10.12.2019
6611 Rain 25 1008 88 10000 1.5 200 15:37 10.12.2019
6612 Rain 25 1008 88 10000 1.5 200 15:18 10.12.2019
6613 Rain 25 1008 88 10000 1.5 200 15:18 10.12.2019
6614 Rain 25 1008 88 10000 1.5 200 15:18 10.12.2019
6615 Clouds 25 1009 88 10000 1.75 212 14:55 10.12.2019
6616 Clouds 25 1009 88 10000 1.75 212 14:36 10.12.2019
6617 Clouds 25 1009 88 10000 1.54 197 14:18 10.12.2019
6618 Clouds 26 1009 83 10000 1.5 230 13:56 10.12.2019
6619 Clouds 26 1009 83 10000 1.5 230 13:56 10.12.2019
6620 Clouds 26 1009 83 10000 1.5 230 13:37 10.12.2019
6621 Clouds 26 1009 83 10000 1.5 230 13:18 10.12.2019
6622 Clouds 26 1010 83 10000 1.37 211 12:40 10.12.2019
6623 Clouds 26 1010 83 10000 1.37 211 12:40 10.12.2019
6624 Clouds 26 1010 83 10000 1.37 211 12:21 10.12.2019
6625 Clouds 26 1010 83 10000 1 150 11:42 10.12.2019
6626 Clouds 26 1010 83 10000 1 150 11:23 10.12.2019
6627 Clouds 26 1009 83 10000 1.5 240 10:56 10.12.2019
6628 Clouds 26 1009 83 10000 1.5 240 10:37 10.12.2019
6629 Clouds 26 1009 83 10000 1.5 240 10:19 10.12.2019
6630 Clouds 26 1008 74 10000 1.5 190 09:55 10.12.2019
6631 Clouds 26 1008 74 10000 1.5 190 09:37 10.12.2019
6632 Clouds 26 1008 74 10000 1.5 190 09:18 10.12.2019
6633 Clouds 26 1008 74 10000 1 0 08:42 10.12.2019
6634 Clouds 26 1008 74 10000 1 0 08:23 10.12.2019
6635 Clouds 28 1007 65 10000 3.1 200 07:57 10.12.2019
6636 Clouds 28 1007 65 10000 3.1 200 07:39 10.12.2019
6637 Clouds 28 1007 65 10000 3.1 200 07:21 10.12.2019
6638 Clouds 28 1007 69 10000 4.1 180 06:46 10.12.2019
6639 Clouds 28 1007 69 10000 4.1 180 06:19 10.12.2019
6640 Clouds 28 1007 69 10000 3.1 200 05:52 10.12.2019
6641 Clouds 29 1008 66 10000 3.6 200 04:51 10.12.2019
6642 Clouds 30 1008 66 10000 4.1 190 03:32 10.12.2019
6643 Clouds 30 1009 66 10000 3.1 180 02:40 10.12.2019
6644 Clouds 29 1009 66 10000 3.6 210 01:44 10.12.2019
6645 Clouds 29 1009 66 10000 3.6 210 01:20 10.12.2019
6646 Clouds 29 1010 70 10000 2.6 210 00:40 10.12.2019
6647 Clouds 29 1010 70 10000 2.6 210 00:19 10.12.2019
6648 Clouds 28 1010 74 10000 3.1 200 23:41 09.12.2019
6649 Clouds 28 1010 74 10000 3.1 200 23:41 09.12.2019
6650 Clouds 28 1010 74 10000 3.1 200 23:22 09.12.2019
6651 Clouds 27 1011 78 10000 1.5 270 22:57 09.12.2019
6652 Clouds 27 1011 78 10000 1.5 270 22:39 09.12.2019
6653 Clouds 27 1011 78 10000 1.5 270 22:19 09.12.2019
6654 Clouds 25 1011 88 10000 1.5 300 21:56 09.12.2019
6655 Clouds 25 1011 88 10000 1.5 300 21:38 09.12.2019
6656 Clouds 25 1011 88 10000 1.5 300 21:18 09.12.2019
6657 Clouds 24 1010 94 10000 2.1 300 20:56 09.12.2019
6658 Clouds 24 1010 94 10000 2.1 300 20:38 09.12.2019
6659 Clouds 24 1010 94 10000 2.1 300 20:19 09.12.2019
6660 Clouds 23 1010 94 10000 1.47 263 19:55 09.12.2019
6661 Clouds 23 1010 94 10000 1.47 263 19:37 09.12.2019
6662 Clouds 23 1010 94 10000 1.47 263 19:19 09.12.2019
6663 Clouds 23 1009 100 10000 1.47 263 18:55 09.12.2019
6664 Clouds 23 1009 100 10000 1.47 263 18:36 09.12.2019
6665 Clouds 23 1009 100 10000 1.47 263 18:18 09.12.2019
6666 Clouds 23 1009 100 10000 1.47 263 17:56 09.12.2019
6667 Clouds 23 1009 100 10000 1.47 263 17:37 09.12.2019
6668 Clouds 23 1009 100 10000 0.99 290 17:19 09.12.2019
6669 Clouds 23 1009 100 10000 1.5 310 16:55 09.12.2019
6670 Clouds 23 1009 100 10000 1.5 310 16:36 09.12.2019
6671 Clouds 23 1009 100 10000 1.5